<?xml version="1.0" encoding="UTF-8" standalone="no" ?>
<gpx xmlns="http://www.topografix.com/GPX/1/1" xmlns:xsi="http://www.w3.org/2001/XMLSchema-instance" xsi:schemaLocation="http://www.topografix.com/GPX/1/1 http://www.topografix.com/GPX/1/1/gpx.xsd" version="1.1" creator="VisuGPX - https://www.visugpx.com">
  <metadata>
    <name>vtt st medard</name>
    <desc><![CDATA[petite erreur au retour avenue cap de bos...
]]></desc>
  </metadata>
  <trk>
    <name><![CDATA[2017-07-30 09:23]]></name>
    <desc><![CDATA[<p>Heure de départ: 07/30/2017 09:24</p><p>Heure d'arrivée: 07/30/2017 12:18</p><p>Distance: 47,2 km (02:54)</p><p>Temps déplacement: 02:37</p><p>Vitesse moyenne: 16,23 km/h</p><p>Vitesse moyenne mouv.: 17,95 km/h</p><p>Vitesse Max.: 34,03km/h</p><p>Altitude minimale: 0 m</p><p>Altitude maximale: 43 m</p><p>Vitesse de montée: 483,3 m/h</p><p>Vitesse de descente: -583,8 m/h</p><p>Gain d'altitude: 568 m</p><p>Perte d'altitude: -550 m</p><p>Temps de montée: 01:10</p><p>Temps de descente: 00:56</p><hr align="center" width="480" style="height: 2px; width: 517px"/>]]></desc>
    <trkseg>
      <trkpt lat="44.86482" lon="-0.62003">
        <ele>21</ele>
        <time>2017-07-30T07:24:06Z</time>
      </trkpt>
      <trkpt lat="44.86489" lon="-0.61998">
        <ele>21</ele>
        <time>2017-07-30T07:24:29Z</time>
      </trkpt>
      <trkpt lat="44.86482" lon="-0.61985">
        <ele>21</ele>
        <time>2017-07-30T07:25:05Z</time>
      </trkpt>
      <trkpt lat="44.86478" lon="-0.61982">
        <ele>21</ele>
        <time>2017-07-30T07:25:09Z</time>
      </trkpt>
      <trkpt lat="44.8647" lon="-0.61982">
        <ele>21</ele>
        <time>2017-07-30T07:25:33Z</time>
      </trkpt>
      <trkpt lat="44.86461" lon="-0.61992">
        <ele>21</ele>
        <time>2017-07-30T07:25:37Z</time>
      </trkpt>
      <trkpt lat="44.86455" lon="-0.62">
        <ele>21</ele>
        <time>2017-07-30T07:25:39Z</time>
      </trkpt>
      <trkpt lat="44.8645" lon="-0.62008">
        <ele>22</ele>
        <time>2017-07-30T07:25:41Z</time>
      </trkpt>
      <trkpt lat="44.86444" lon="-0.62017">
        <ele>22</ele>
        <time>2017-07-30T07:25:43Z</time>
      </trkpt>
      <trkpt lat="44.86439" lon="-0.62026">
        <ele>22</ele>
        <time>2017-07-30T07:25:45Z</time>
      </trkpt>
      <trkpt lat="44.86434" lon="-0.62032">
        <ele>22</ele>
        <time>2017-07-30T07:25:47Z</time>
      </trkpt>
      <trkpt lat="44.86429" lon="-0.62039">
        <ele>22</ele>
        <time>2017-07-30T07:25:49Z</time>
      </trkpt>
      <trkpt lat="44.86426" lon="-0.62046">
        <ele>22</ele>
        <time>2017-07-30T07:25:51Z</time>
      </trkpt>
      <trkpt lat="44.86429" lon="-0.62053">
        <ele>22</ele>
        <time>2017-07-30T07:25:53Z</time>
      </trkpt>
      <trkpt lat="44.86434" lon="-0.62061">
        <ele>23</ele>
        <time>2017-07-30T07:25:55Z</time>
      </trkpt>
      <trkpt lat="44.8644" lon="-0.62068">
        <ele>23</ele>
        <time>2017-07-30T07:25:57Z</time>
      </trkpt>
      <trkpt lat="44.86447" lon="-0.62076">
        <ele>23</ele>
        <time>2017-07-30T07:25:59Z</time>
      </trkpt>
      <trkpt lat="44.86452" lon="-0.62084">
        <ele>23</ele>
        <time>2017-07-30T07:26:01Z</time>
      </trkpt>
      <trkpt lat="44.86458" lon="-0.62093">
        <ele>23</ele>
        <time>2017-07-30T07:26:03Z</time>
      </trkpt>
      <trkpt lat="44.86465" lon="-0.62101">
        <ele>23</ele>
        <time>2017-07-30T07:26:05Z</time>
      </trkpt>
      <trkpt lat="44.86471" lon="-0.62109">
        <ele>23</ele>
        <time>2017-07-30T07:26:07Z</time>
      </trkpt>
      <trkpt lat="44.86478" lon="-0.62118">
        <ele>23</ele>
        <time>2017-07-30T07:26:08Z</time>
      </trkpt>
      <trkpt lat="44.86486" lon="-0.62127">
        <ele>23</ele>
        <time>2017-07-30T07:26:10Z</time>
      </trkpt>
      <trkpt lat="44.86493" lon="-0.62135">
        <ele>22</ele>
        <time>2017-07-30T07:26:12Z</time>
      </trkpt>
      <trkpt lat="44.86501" lon="-0.62145">
        <ele>22</ele>
        <time>2017-07-30T07:26:14Z</time>
      </trkpt>
      <trkpt lat="44.86509" lon="-0.62154">
        <ele>22</ele>
        <time>2017-07-30T07:26:16Z</time>
      </trkpt>
      <trkpt lat="44.86517" lon="-0.62163">
        <ele>22</ele>
        <time>2017-07-30T07:26:18Z</time>
      </trkpt>
      <trkpt lat="44.86524" lon="-0.62172">
        <ele>22</ele>
        <time>2017-07-30T07:26:20Z</time>
      </trkpt>
      <trkpt lat="44.86532" lon="-0.62181">
        <ele>23</ele>
        <time>2017-07-30T07:26:22Z</time>
      </trkpt>
      <trkpt lat="44.8654" lon="-0.62191">
        <ele>23</ele>
        <time>2017-07-30T07:26:24Z</time>
      </trkpt>
      <trkpt lat="44.86547" lon="-0.622">
        <ele>23</ele>
        <time>2017-07-30T07:26:26Z</time>
      </trkpt>
      <trkpt lat="44.86555" lon="-0.6221">
        <ele>23</ele>
        <time>2017-07-30T07:26:28Z</time>
      </trkpt>
      <trkpt lat="44.86563" lon="-0.62219">
        <ele>23</ele>
        <time>2017-07-30T07:26:30Z</time>
      </trkpt>
      <trkpt lat="44.8657" lon="-0.62227">
        <ele>23</ele>
        <time>2017-07-30T07:26:32Z</time>
      </trkpt>
      <trkpt lat="44.86577" lon="-0.62236">
        <ele>23</ele>
        <time>2017-07-30T07:26:34Z</time>
      </trkpt>
      <trkpt lat="44.86585" lon="-0.62245">
        <ele>23</ele>
        <time>2017-07-30T07:26:36Z</time>
      </trkpt>
      <trkpt lat="44.86593" lon="-0.62254">
        <ele>23</ele>
        <time>2017-07-30T07:26:38Z</time>
      </trkpt>
      <trkpt lat="44.866" lon="-0.62264">
        <ele>24</ele>
        <time>2017-07-30T07:26:40Z</time>
      </trkpt>
      <trkpt lat="44.86607" lon="-0.62272">
        <ele>24</ele>
        <time>2017-07-30T07:26:42Z</time>
      </trkpt>
      <trkpt lat="44.86616" lon="-0.62282">
        <ele>24</ele>
        <time>2017-07-30T07:26:44Z</time>
      </trkpt>
      <trkpt lat="44.86624" lon="-0.62292">
        <ele>24</ele>
        <time>2017-07-30T07:26:46Z</time>
      </trkpt>
      <trkpt lat="44.86631" lon="-0.62301">
        <ele>24</ele>
        <time>2017-07-30T07:26:48Z</time>
      </trkpt>
      <trkpt lat="44.86639" lon="-0.62311">
        <ele>24</ele>
        <time>2017-07-30T07:26:50Z</time>
      </trkpt>
      <trkpt lat="44.86646" lon="-0.6232">
        <ele>25</ele>
        <time>2017-07-30T07:26:52Z</time>
      </trkpt>
      <trkpt lat="44.86653" lon="-0.62328">
        <ele>25</ele>
        <time>2017-07-30T07:26:54Z</time>
      </trkpt>
      <trkpt lat="44.86659" lon="-0.62337">
        <ele>25</ele>
        <time>2017-07-30T07:26:56Z</time>
      </trkpt>
      <trkpt lat="44.86666" lon="-0.62347">
        <ele>25</ele>
        <time>2017-07-30T07:26:58Z</time>
      </trkpt>
      <trkpt lat="44.86673" lon="-0.62357">
        <ele>25</ele>
        <time>2017-07-30T07:27:00Z</time>
      </trkpt>
      <trkpt lat="44.86682" lon="-0.62363">
        <ele>24</ele>
        <time>2017-07-30T07:27:02Z</time>
      </trkpt>
      <trkpt lat="44.86688" lon="-0.6237">
        <ele>24</ele>
        <time>2017-07-30T07:27:04Z</time>
      </trkpt>
      <trkpt lat="44.86694" lon="-0.6238">
        <ele>24</ele>
        <time>2017-07-30T07:27:06Z</time>
      </trkpt>
      <trkpt lat="44.867" lon="-0.6239">
        <ele>24</ele>
        <time>2017-07-30T07:27:08Z</time>
      </trkpt>
      <trkpt lat="44.86707" lon="-0.624">
        <ele>24</ele>
        <time>2017-07-30T07:27:10Z</time>
      </trkpt>
      <trkpt lat="44.86714" lon="-0.62411">
        <ele>24</ele>
        <time>2017-07-30T07:27:12Z</time>
      </trkpt>
      <trkpt lat="44.86723" lon="-0.62422">
        <ele>24</ele>
        <time>2017-07-30T07:27:14Z</time>
      </trkpt>
      <trkpt lat="44.86731" lon="-0.62432">
        <ele>24</ele>
        <time>2017-07-30T07:27:16Z</time>
      </trkpt>
      <trkpt lat="44.86738" lon="-0.62443">
        <ele>24</ele>
        <time>2017-07-30T07:27:18Z</time>
      </trkpt>
      <trkpt lat="44.86745" lon="-0.62455">
        <ele>25</ele>
        <time>2017-07-30T07:27:20Z</time>
      </trkpt>
      <trkpt lat="44.86751" lon="-0.62465">
        <ele>24</ele>
        <time>2017-07-30T07:27:22Z</time>
      </trkpt>
      <trkpt lat="44.86756" lon="-0.62473">
        <ele>24</ele>
        <time>2017-07-30T07:27:24Z</time>
      </trkpt>
      <trkpt lat="44.86763" lon="-0.62484">
        <ele>24</ele>
        <time>2017-07-30T07:27:26Z</time>
      </trkpt>
      <trkpt lat="44.8677" lon="-0.62495">
        <ele>24</ele>
        <time>2017-07-30T07:27:28Z</time>
      </trkpt>
      <trkpt lat="44.86777" lon="-0.62507">
        <ele>25</ele>
        <time>2017-07-30T07:27:30Z</time>
      </trkpt>
      <trkpt lat="44.86785" lon="-0.62518">
        <ele>25</ele>
        <time>2017-07-30T07:27:32Z</time>
      </trkpt>
      <trkpt lat="44.86792" lon="-0.6253">
        <ele>25</ele>
        <time>2017-07-30T07:27:34Z</time>
      </trkpt>
      <trkpt lat="44.868" lon="-0.62541">
        <ele>25</ele>
        <time>2017-07-30T07:27:36Z</time>
      </trkpt>
      <trkpt lat="44.86808" lon="-0.62552">
        <ele>25</ele>
        <time>2017-07-30T07:27:38Z</time>
      </trkpt>
      <trkpt lat="44.86815" lon="-0.62563">
        <ele>25</ele>
        <time>2017-07-30T07:27:40Z</time>
      </trkpt>
      <trkpt lat="44.86823" lon="-0.62575">
        <ele>25</ele>
        <time>2017-07-30T07:27:42Z</time>
      </trkpt>
      <trkpt lat="44.86831" lon="-0.62587">
        <ele>25</ele>
        <time>2017-07-30T07:27:44Z</time>
      </trkpt>
      <trkpt lat="44.86838" lon="-0.626">
        <ele>24</ele>
        <time>2017-07-30T07:27:46Z</time>
      </trkpt>
      <trkpt lat="44.86847" lon="-0.62611">
        <ele>24</ele>
        <time>2017-07-30T07:27:48Z</time>
      </trkpt>
      <trkpt lat="44.86855" lon="-0.62623">
        <ele>24</ele>
        <time>2017-07-30T07:27:50Z</time>
      </trkpt>
      <trkpt lat="44.86863" lon="-0.62634">
        <ele>24</ele>
        <time>2017-07-30T07:27:52Z</time>
      </trkpt>
      <trkpt lat="44.86871" lon="-0.62645">
        <ele>24</ele>
        <time>2017-07-30T07:27:54Z</time>
      </trkpt>
      <trkpt lat="44.8688" lon="-0.62657">
        <ele>23</ele>
        <time>2017-07-30T07:27:56Z</time>
      </trkpt>
      <trkpt lat="44.86888" lon="-0.62669">
        <ele>24</ele>
        <time>2017-07-30T07:27:58Z</time>
      </trkpt>
      <trkpt lat="44.86896" lon="-0.62682">
        <ele>23</ele>
        <time>2017-07-30T07:28:00Z</time>
      </trkpt>
      <trkpt lat="44.86904" lon="-0.62692">
        <ele>23</ele>
        <time>2017-07-30T07:28:02Z</time>
      </trkpt>
      <trkpt lat="44.86912" lon="-0.62704">
        <ele>23</ele>
        <time>2017-07-30T07:28:04Z</time>
      </trkpt>
      <trkpt lat="44.8692" lon="-0.62715">
        <ele>23</ele>
        <time>2017-07-30T07:28:06Z</time>
      </trkpt>
      <trkpt lat="44.86928" lon="-0.62727">
        <ele>23</ele>
        <time>2017-07-30T07:28:08Z</time>
      </trkpt>
      <trkpt lat="44.86936" lon="-0.6274">
        <ele>23</ele>
        <time>2017-07-30T07:28:10Z</time>
      </trkpt>
      <trkpt lat="44.86944" lon="-0.62754">
        <ele>24</ele>
        <time>2017-07-30T07:28:12Z</time>
      </trkpt>
      <trkpt lat="44.86952" lon="-0.62767">
        <ele>24</ele>
        <time>2017-07-30T07:28:14Z</time>
      </trkpt>
      <trkpt lat="44.8696" lon="-0.62778">
        <ele>25</ele>
        <time>2017-07-30T07:28:16Z</time>
      </trkpt>
      <trkpt lat="44.8697" lon="-0.6279">
        <ele>25</ele>
        <time>2017-07-30T07:28:18Z</time>
      </trkpt>
      <trkpt lat="44.86978" lon="-0.628">
        <ele>25</ele>
        <time>2017-07-30T07:28:20Z</time>
      </trkpt>
      <trkpt lat="44.86986" lon="-0.62811">
        <ele>25</ele>
        <time>2017-07-30T07:28:22Z</time>
      </trkpt>
      <trkpt lat="44.86993" lon="-0.62823">
        <ele>26</ele>
        <time>2017-07-30T07:28:24Z</time>
      </trkpt>
      <trkpt lat="44.87001" lon="-0.62836">
        <ele>26</ele>
        <time>2017-07-30T07:28:26Z</time>
      </trkpt>
      <trkpt lat="44.87008" lon="-0.62848">
        <ele>25</ele>
        <time>2017-07-30T07:28:28Z</time>
      </trkpt>
      <trkpt lat="44.87016" lon="-0.6286">
        <ele>24</ele>
        <time>2017-07-30T07:28:30Z</time>
      </trkpt>
      <trkpt lat="44.87025" lon="-0.62873">
        <ele>24</ele>
        <time>2017-07-30T07:28:32Z</time>
      </trkpt>
      <trkpt lat="44.87034" lon="-0.62885">
        <ele>24</ele>
        <time>2017-07-30T07:28:34Z</time>
      </trkpt>
      <trkpt lat="44.87041" lon="-0.62896">
        <ele>24</ele>
        <time>2017-07-30T07:28:36Z</time>
      </trkpt>
      <trkpt lat="44.87049" lon="-0.62908">
        <ele>23</ele>
        <time>2017-07-30T07:28:38Z</time>
      </trkpt>
      <trkpt lat="44.87057" lon="-0.62919">
        <ele>23</ele>
        <time>2017-07-30T07:28:40Z</time>
      </trkpt>
      <trkpt lat="44.87063" lon="-0.62929">
        <ele>23</ele>
        <time>2017-07-30T07:28:42Z</time>
      </trkpt>
      <trkpt lat="44.87071" lon="-0.6294">
        <ele>23</ele>
        <time>2017-07-30T07:28:44Z</time>
      </trkpt>
      <trkpt lat="44.87078" lon="-0.62951">
        <ele>24</ele>
        <time>2017-07-30T07:28:46Z</time>
      </trkpt>
      <trkpt lat="44.87088" lon="-0.62964">
        <ele>24</ele>
        <time>2017-07-30T07:28:48Z</time>
      </trkpt>
      <trkpt lat="44.87095" lon="-0.62975">
        <ele>24</ele>
        <time>2017-07-30T07:28:50Z</time>
      </trkpt>
      <trkpt lat="44.87103" lon="-0.62986">
        <ele>24</ele>
        <time>2017-07-30T07:28:52Z</time>
      </trkpt>
      <trkpt lat="44.8711" lon="-0.62997">
        <ele>25</ele>
        <time>2017-07-30T07:28:54Z</time>
      </trkpt>
      <trkpt lat="44.87118" lon="-0.63008">
        <ele>25</ele>
        <time>2017-07-30T07:28:56Z</time>
      </trkpt>
      <trkpt lat="44.87126" lon="-0.6302">
        <ele>25</ele>
        <time>2017-07-30T07:28:58Z</time>
      </trkpt>
      <trkpt lat="44.87134" lon="-0.63031">
        <ele>25</ele>
        <time>2017-07-30T07:29:00Z</time>
      </trkpt>
      <trkpt lat="44.87142" lon="-0.63043">
        <ele>25</ele>
        <time>2017-07-30T07:29:02Z</time>
      </trkpt>
      <trkpt lat="44.87149" lon="-0.63054">
        <ele>25</ele>
        <time>2017-07-30T07:29:04Z</time>
      </trkpt>
      <trkpt lat="44.87157" lon="-0.63065">
        <ele>25</ele>
        <time>2017-07-30T07:29:06Z</time>
      </trkpt>
      <trkpt lat="44.87165" lon="-0.63076">
        <ele>25</ele>
        <time>2017-07-30T07:29:08Z</time>
      </trkpt>
      <trkpt lat="44.87171" lon="-0.63087">
        <ele>25</ele>
        <time>2017-07-30T07:29:10Z</time>
      </trkpt>
      <trkpt lat="44.87178" lon="-0.63101">
        <ele>24</ele>
        <time>2017-07-30T07:29:12Z</time>
      </trkpt>
      <trkpt lat="44.87184" lon="-0.63116">
        <ele>23</ele>
        <time>2017-07-30T07:29:14Z</time>
      </trkpt>
      <trkpt lat="44.87189" lon="-0.63129">
        <ele>23</ele>
        <time>2017-07-30T07:29:16Z</time>
      </trkpt>
      <trkpt lat="44.87195" lon="-0.63142">
        <ele>23</ele>
        <time>2017-07-30T07:29:18Z</time>
      </trkpt>
      <trkpt lat="44.87202" lon="-0.63156">
        <ele>23</ele>
        <time>2017-07-30T07:29:20Z</time>
      </trkpt>
      <trkpt lat="44.87208" lon="-0.63169">
        <ele>23</ele>
        <time>2017-07-30T07:29:22Z</time>
      </trkpt>
      <trkpt lat="44.87213" lon="-0.63179">
        <ele>22</ele>
        <time>2017-07-30T07:29:24Z</time>
      </trkpt>
      <trkpt lat="44.87219" lon="-0.63193">
        <ele>22</ele>
        <time>2017-07-30T07:29:26Z</time>
      </trkpt>
      <trkpt lat="44.87225" lon="-0.63205">
        <ele>22</ele>
        <time>2017-07-30T07:29:28Z</time>
      </trkpt>
      <trkpt lat="44.8723" lon="-0.63216">
        <ele>22</ele>
        <time>2017-07-30T07:29:30Z</time>
      </trkpt>
      <trkpt lat="44.87236" lon="-0.63228">
        <ele>22</ele>
        <time>2017-07-30T07:29:32Z</time>
      </trkpt>
      <trkpt lat="44.87243" lon="-0.63241">
        <ele>22</ele>
        <time>2017-07-30T07:29:34Z</time>
      </trkpt>
      <trkpt lat="44.87249" lon="-0.63254">
        <ele>22</ele>
        <time>2017-07-30T07:29:36Z</time>
      </trkpt>
      <trkpt lat="44.87255" lon="-0.63266">
        <ele>22</ele>
        <time>2017-07-30T07:29:38Z</time>
      </trkpt>
      <trkpt lat="44.87261" lon="-0.63277">
        <ele>22</ele>
        <time>2017-07-30T07:29:40Z</time>
      </trkpt>
      <trkpt lat="44.87267" lon="-0.63285">
        <ele>22</ele>
        <time>2017-07-30T07:29:42Z</time>
      </trkpt>
      <trkpt lat="44.87273" lon="-0.6329">
        <ele>22</ele>
        <time>2017-07-30T07:29:44Z</time>
      </trkpt>
      <trkpt lat="44.87279" lon="-0.63291">
        <ele>22</ele>
        <time>2017-07-30T07:29:46Z</time>
      </trkpt>
      <trkpt lat="44.87284" lon="-0.63299">
        <ele>22</ele>
        <time>2017-07-30T07:29:50Z</time>
      </trkpt>
      <trkpt lat="44.87286" lon="-0.63307">
        <ele>22</ele>
        <time>2017-07-30T07:29:52Z</time>
      </trkpt>
      <trkpt lat="44.87287" lon="-0.63317">
        <ele>22</ele>
        <time>2017-07-30T07:29:54Z</time>
      </trkpt>
      <trkpt lat="44.87285" lon="-0.63326">
        <ele>22</ele>
        <time>2017-07-30T07:29:56Z</time>
      </trkpt>
      <trkpt lat="44.87278" lon="-0.63333">
        <ele>22</ele>
        <time>2017-07-30T07:29:58Z</time>
      </trkpt>
      <trkpt lat="44.8727" lon="-0.63336">
        <ele>21</ele>
        <time>2017-07-30T07:30:00Z</time>
      </trkpt>
      <trkpt lat="44.87263" lon="-0.63335">
        <ele>21</ele>
        <time>2017-07-30T07:30:02Z</time>
      </trkpt>
      <trkpt lat="44.87255" lon="-0.63338">
        <ele>21</ele>
        <time>2017-07-30T07:30:04Z</time>
      </trkpt>
      <trkpt lat="44.87245" lon="-0.63346">
        <ele>21</ele>
        <time>2017-07-30T07:30:06Z</time>
      </trkpt>
      <trkpt lat="44.87236" lon="-0.63353">
        <ele>22</ele>
        <time>2017-07-30T07:30:08Z</time>
      </trkpt>
      <trkpt lat="44.87227" lon="-0.63359">
        <ele>22</ele>
        <time>2017-07-30T07:30:10Z</time>
      </trkpt>
      <trkpt lat="44.87219" lon="-0.63365">
        <ele>22</ele>
        <time>2017-07-30T07:30:12Z</time>
      </trkpt>
      <trkpt lat="44.87211" lon="-0.63371">
        <ele>22</ele>
        <time>2017-07-30T07:30:14Z</time>
      </trkpt>
      <trkpt lat="44.87202" lon="-0.63377">
        <ele>22</ele>
        <time>2017-07-30T07:30:16Z</time>
      </trkpt>
      <trkpt lat="44.87192" lon="-0.63383">
        <ele>22</ele>
        <time>2017-07-30T07:30:18Z</time>
      </trkpt>
      <trkpt lat="44.87182" lon="-0.6339">
        <ele>22</ele>
        <time>2017-07-30T07:30:20Z</time>
      </trkpt>
      <trkpt lat="44.87173" lon="-0.63396">
        <ele>22</ele>
        <time>2017-07-30T07:30:22Z</time>
      </trkpt>
      <trkpt lat="44.87164" lon="-0.63404">
        <ele>22</ele>
        <time>2017-07-30T07:30:24Z</time>
      </trkpt>
      <trkpt lat="44.87153" lon="-0.63412">
        <ele>22</ele>
        <time>2017-07-30T07:30:26Z</time>
      </trkpt>
      <trkpt lat="44.87144" lon="-0.6342">
        <ele>23</ele>
        <time>2017-07-30T07:30:28Z</time>
      </trkpt>
      <trkpt lat="44.87135" lon="-0.63426">
        <ele>23</ele>
        <time>2017-07-30T07:30:30Z</time>
      </trkpt>
      <trkpt lat="44.87126" lon="-0.63434">
        <ele>23</ele>
        <time>2017-07-30T07:30:32Z</time>
      </trkpt>
      <trkpt lat="44.87117" lon="-0.63442">
        <ele>23</ele>
        <time>2017-07-30T07:30:34Z</time>
      </trkpt>
      <trkpt lat="44.87108" lon="-0.63449">
        <ele>23</ele>
        <time>2017-07-30T07:30:36Z</time>
      </trkpt>
      <trkpt lat="44.87099" lon="-0.63455">
        <ele>23</ele>
        <time>2017-07-30T07:30:38Z</time>
      </trkpt>
      <trkpt lat="44.87089" lon="-0.63462">
        <ele>24</ele>
        <time>2017-07-30T07:30:40Z</time>
      </trkpt>
      <trkpt lat="44.8708" lon="-0.63469">
        <ele>24</ele>
        <time>2017-07-30T07:30:42Z</time>
      </trkpt>
      <trkpt lat="44.87071" lon="-0.63477">
        <ele>24</ele>
        <time>2017-07-30T07:30:44Z</time>
      </trkpt>
      <trkpt lat="44.87061" lon="-0.63485">
        <ele>24</ele>
        <time>2017-07-30T07:30:46Z</time>
      </trkpt>
      <trkpt lat="44.87052" lon="-0.63494">
        <ele>24</ele>
        <time>2017-07-30T07:30:48Z</time>
      </trkpt>
      <trkpt lat="44.87043" lon="-0.635">
        <ele>24</ele>
        <time>2017-07-30T07:30:50Z</time>
      </trkpt>
      <trkpt lat="44.87033" lon="-0.63508">
        <ele>24</ele>
        <time>2017-07-30T07:30:52Z</time>
      </trkpt>
      <trkpt lat="44.87024" lon="-0.63515">
        <ele>24</ele>
        <time>2017-07-30T07:30:54Z</time>
      </trkpt>
      <trkpt lat="44.87014" lon="-0.63523">
        <ele>24</ele>
        <time>2017-07-30T07:30:56Z</time>
      </trkpt>
      <trkpt lat="44.87004" lon="-0.63529">
        <ele>24</ele>
        <time>2017-07-30T07:30:58Z</time>
      </trkpt>
      <trkpt lat="44.86994" lon="-0.63536">
        <ele>24</ele>
        <time>2017-07-30T07:31:00Z</time>
      </trkpt>
      <trkpt lat="44.86985" lon="-0.63544">
        <ele>24</ele>
        <time>2017-07-30T07:31:02Z</time>
      </trkpt>
      <trkpt lat="44.86976" lon="-0.6355">
        <ele>24</ele>
        <time>2017-07-30T07:31:04Z</time>
      </trkpt>
      <trkpt lat="44.86966" lon="-0.63557">
        <ele>24</ele>
        <time>2017-07-30T07:31:06Z</time>
      </trkpt>
      <trkpt lat="44.86955" lon="-0.63565">
        <ele>24</ele>
        <time>2017-07-30T07:31:08Z</time>
      </trkpt>
      <trkpt lat="44.86946" lon="-0.63573">
        <ele>25</ele>
        <time>2017-07-30T07:31:10Z</time>
      </trkpt>
      <trkpt lat="44.86938" lon="-0.63578">
        <ele>25</ele>
        <time>2017-07-30T07:31:12Z</time>
      </trkpt>
      <trkpt lat="44.86928" lon="-0.63586">
        <ele>26</ele>
        <time>2017-07-30T07:31:14Z</time>
      </trkpt>
      <trkpt lat="44.8692" lon="-0.63593">
        <ele>26</ele>
        <time>2017-07-30T07:31:16Z</time>
      </trkpt>
      <trkpt lat="44.86913" lon="-0.63604">
        <ele>26</ele>
        <time>2017-07-30T07:31:18Z</time>
      </trkpt>
      <trkpt lat="44.86904" lon="-0.63612">
        <ele>26</ele>
        <time>2017-07-30T07:31:20Z</time>
      </trkpt>
      <trkpt lat="44.86894" lon="-0.63618">
        <ele>27</ele>
        <time>2017-07-30T07:31:22Z</time>
      </trkpt>
      <trkpt lat="44.86883" lon="-0.63625">
        <ele>27</ele>
        <time>2017-07-30T07:31:24Z</time>
      </trkpt>
      <trkpt lat="44.86873" lon="-0.63632">
        <ele>27</ele>
        <time>2017-07-30T07:31:26Z</time>
      </trkpt>
      <trkpt lat="44.86865" lon="-0.63639">
        <ele>27</ele>
        <time>2017-07-30T07:31:28Z</time>
      </trkpt>
      <trkpt lat="44.86856" lon="-0.63647">
        <ele>27</ele>
        <time>2017-07-30T07:31:30Z</time>
      </trkpt>
      <trkpt lat="44.86848" lon="-0.63649">
        <ele>27</ele>
        <time>2017-07-30T07:31:32Z</time>
      </trkpt>
      <trkpt lat="44.86839" lon="-0.63653">
        <ele>27</ele>
        <time>2017-07-30T07:31:34Z</time>
      </trkpt>
      <trkpt lat="44.8683" lon="-0.6366">
        <ele>28</ele>
        <time>2017-07-30T07:31:36Z</time>
      </trkpt>
      <trkpt lat="44.8682" lon="-0.63667">
        <ele>28</ele>
        <time>2017-07-30T07:31:38Z</time>
      </trkpt>
      <trkpt lat="44.86811" lon="-0.63674">
        <ele>28</ele>
        <time>2017-07-30T07:31:40Z</time>
      </trkpt>
      <trkpt lat="44.86802" lon="-0.6368">
        <ele>29</ele>
        <time>2017-07-30T07:31:42Z</time>
      </trkpt>
      <trkpt lat="44.86793" lon="-0.63687">
        <ele>29</ele>
        <time>2017-07-30T07:31:44Z</time>
      </trkpt>
      <trkpt lat="44.86785" lon="-0.63694">
        <ele>29</ele>
        <time>2017-07-30T07:31:46Z</time>
      </trkpt>
      <trkpt lat="44.86777" lon="-0.637">
        <ele>29</ele>
        <time>2017-07-30T07:31:48Z</time>
      </trkpt>
      <trkpt lat="44.86769" lon="-0.63707">
        <ele>29</ele>
        <time>2017-07-30T07:31:50Z</time>
      </trkpt>
      <trkpt lat="44.86759" lon="-0.63714">
        <ele>29</ele>
        <time>2017-07-30T07:31:52Z</time>
      </trkpt>
      <trkpt lat="44.86751" lon="-0.6372">
        <ele>29</ele>
        <time>2017-07-30T07:31:54Z</time>
      </trkpt>
      <trkpt lat="44.86748" lon="-0.63732">
        <ele>30</ele>
        <time>2017-07-30T07:31:56Z</time>
      </trkpt>
      <trkpt lat="44.86752" lon="-0.63744">
        <ele>30</ele>
        <time>2017-07-30T07:31:58Z</time>
      </trkpt>
      <trkpt lat="44.8676" lon="-0.63754">
        <ele>30</ele>
        <time>2017-07-30T07:32:00Z</time>
      </trkpt>
      <trkpt lat="44.86768" lon="-0.63764">
        <ele>30</ele>
        <time>2017-07-30T07:32:02Z</time>
      </trkpt>
      <trkpt lat="44.86777" lon="-0.63775">
        <ele>30</ele>
        <time>2017-07-30T07:32:04Z</time>
      </trkpt>
      <trkpt lat="44.86785" lon="-0.63786">
        <ele>30</ele>
        <time>2017-07-30T07:32:06Z</time>
      </trkpt>
      <trkpt lat="44.86794" lon="-0.63798">
        <ele>30</ele>
        <time>2017-07-30T07:32:08Z</time>
      </trkpt>
      <trkpt lat="44.86803" lon="-0.6381">
        <ele>29</ele>
        <time>2017-07-30T07:32:10Z</time>
      </trkpt>
      <trkpt lat="44.86811" lon="-0.6382">
        <ele>29</ele>
        <time>2017-07-30T07:32:12Z</time>
      </trkpt>
      <trkpt lat="44.86819" lon="-0.63832">
        <ele>29</ele>
        <time>2017-07-30T07:32:14Z</time>
      </trkpt>
      <trkpt lat="44.86828" lon="-0.63843">
        <ele>29</ele>
        <time>2017-07-30T07:32:16Z</time>
      </trkpt>
      <trkpt lat="44.86837" lon="-0.63855">
        <ele>28</ele>
        <time>2017-07-30T07:32:18Z</time>
      </trkpt>
      <trkpt lat="44.86846" lon="-0.63866">
        <ele>28</ele>
        <time>2017-07-30T07:32:20Z</time>
      </trkpt>
      <trkpt lat="44.86854" lon="-0.63877">
        <ele>28</ele>
        <time>2017-07-30T07:32:22Z</time>
      </trkpt>
      <trkpt lat="44.86863" lon="-0.63889">
        <ele>28</ele>
        <time>2017-07-30T07:32:24Z</time>
      </trkpt>
      <trkpt lat="44.86872" lon="-0.63902">
        <ele>28</ele>
        <time>2017-07-30T07:32:26Z</time>
      </trkpt>
      <trkpt lat="44.86881" lon="-0.63913">
        <ele>28</ele>
        <time>2017-07-30T07:32:28Z</time>
      </trkpt>
      <trkpt lat="44.86891" lon="-0.63924">
        <ele>27</ele>
        <time>2017-07-30T07:32:30Z</time>
      </trkpt>
      <trkpt lat="44.869" lon="-0.63936">
        <ele>27</ele>
        <time>2017-07-30T07:32:32Z</time>
      </trkpt>
      <trkpt lat="44.86909" lon="-0.63947">
        <ele>27</ele>
        <time>2017-07-30T07:32:34Z</time>
      </trkpt>
      <trkpt lat="44.86918" lon="-0.6396">
        <ele>26</ele>
        <time>2017-07-30T07:32:36Z</time>
      </trkpt>
      <trkpt lat="44.86926" lon="-0.63971">
        <ele>26</ele>
        <time>2017-07-30T07:32:38Z</time>
      </trkpt>
      <trkpt lat="44.86934" lon="-0.63983">
        <ele>26</ele>
        <time>2017-07-30T07:32:40Z</time>
      </trkpt>
      <trkpt lat="44.86944" lon="-0.63995">
        <ele>26</ele>
        <time>2017-07-30T07:32:42Z</time>
      </trkpt>
      <trkpt lat="44.86953" lon="-0.64006">
        <ele>26</ele>
        <time>2017-07-30T07:32:44Z</time>
      </trkpt>
      <trkpt lat="44.86962" lon="-0.64018">
        <ele>26</ele>
        <time>2017-07-30T07:32:46Z</time>
      </trkpt>
      <trkpt lat="44.86971" lon="-0.64029">
        <ele>26</ele>
        <time>2017-07-30T07:32:48Z</time>
      </trkpt>
      <trkpt lat="44.8698" lon="-0.64041">
        <ele>26</ele>
        <time>2017-07-30T07:32:50Z</time>
      </trkpt>
      <trkpt lat="44.86989" lon="-0.64053">
        <ele>26</ele>
        <time>2017-07-30T07:32:52Z</time>
      </trkpt>
      <trkpt lat="44.86999" lon="-0.64066">
        <ele>26</ele>
        <time>2017-07-30T07:32:54Z</time>
      </trkpt>
      <trkpt lat="44.87008" lon="-0.64078">
        <ele>26</ele>
        <time>2017-07-30T07:32:56Z</time>
      </trkpt>
      <trkpt lat="44.87017" lon="-0.64091">
        <ele>26</ele>
        <time>2017-07-30T07:32:58Z</time>
      </trkpt>
      <trkpt lat="44.87027" lon="-0.64103">
        <ele>25</ele>
        <time>2017-07-30T07:33:00Z</time>
      </trkpt>
      <trkpt lat="44.87035" lon="-0.64115">
        <ele>25</ele>
        <time>2017-07-30T07:33:02Z</time>
      </trkpt>
      <trkpt lat="44.87044" lon="-0.64126">
        <ele>25</ele>
        <time>2017-07-30T07:33:04Z</time>
      </trkpt>
      <trkpt lat="44.87052" lon="-0.64138">
        <ele>25</ele>
        <time>2017-07-30T07:33:06Z</time>
      </trkpt>
      <trkpt lat="44.87061" lon="-0.6415">
        <ele>25</ele>
        <time>2017-07-30T07:33:08Z</time>
      </trkpt>
      <trkpt lat="44.87069" lon="-0.64162">
        <ele>25</ele>
        <time>2017-07-30T07:33:10Z</time>
      </trkpt>
      <trkpt lat="44.87078" lon="-0.64174">
        <ele>25</ele>
        <time>2017-07-30T07:33:12Z</time>
      </trkpt>
      <trkpt lat="44.87087" lon="-0.64185">
        <ele>25</ele>
        <time>2017-07-30T07:33:14Z</time>
      </trkpt>
      <trkpt lat="44.87097" lon="-0.64195">
        <ele>26</ele>
        <time>2017-07-30T07:33:16Z</time>
      </trkpt>
      <trkpt lat="44.87106" lon="-0.64191">
        <ele>26</ele>
        <time>2017-07-30T07:33:18Z</time>
      </trkpt>
      <trkpt lat="44.87112" lon="-0.6418">
        <ele>26</ele>
        <time>2017-07-30T07:33:20Z</time>
      </trkpt>
      <trkpt lat="44.87118" lon="-0.64171">
        <ele>26</ele>
        <time>2017-07-30T07:33:22Z</time>
      </trkpt>
      <trkpt lat="44.87125" lon="-0.64161">
        <ele>26</ele>
        <time>2017-07-30T07:33:24Z</time>
      </trkpt>
      <trkpt lat="44.8713" lon="-0.64153">
        <ele>26</ele>
        <time>2017-07-30T07:33:26Z</time>
      </trkpt>
      <trkpt lat="44.87133" lon="-0.64146">
        <ele>26</ele>
        <time>2017-07-30T07:33:28Z</time>
      </trkpt>
      <trkpt lat="44.87137" lon="-0.64138">
        <ele>26</ele>
        <time>2017-07-30T07:33:30Z</time>
      </trkpt>
      <trkpt lat="44.87143" lon="-0.64131">
        <ele>26</ele>
        <time>2017-07-30T07:33:32Z</time>
      </trkpt>
      <trkpt lat="44.87149" lon="-0.64133">
        <ele>26</ele>
        <time>2017-07-30T07:33:34Z</time>
      </trkpt>
      <trkpt lat="44.87155" lon="-0.6414">
        <ele>26</ele>
        <time>2017-07-30T07:33:36Z</time>
      </trkpt>
      <trkpt lat="44.87161" lon="-0.64146">
        <ele>26</ele>
        <time>2017-07-30T07:33:38Z</time>
      </trkpt>
      <trkpt lat="44.87166" lon="-0.64152">
        <ele>26</ele>
        <time>2017-07-30T07:33:40Z</time>
      </trkpt>
      <trkpt lat="44.87172" lon="-0.64157">
        <ele>27</ele>
        <time>2017-07-30T07:33:42Z</time>
      </trkpt>
      <trkpt lat="44.87178" lon="-0.64164">
        <ele>27</ele>
        <time>2017-07-30T07:33:44Z</time>
      </trkpt>
      <trkpt lat="44.87186" lon="-0.64172">
        <ele>27</ele>
        <time>2017-07-30T07:33:46Z</time>
      </trkpt>
      <trkpt lat="44.87191" lon="-0.6418">
        <ele>27</ele>
        <time>2017-07-30T07:33:48Z</time>
      </trkpt>
      <trkpt lat="44.87188" lon="-0.64192">
        <ele>27</ele>
        <time>2017-07-30T07:33:50Z</time>
      </trkpt>
      <trkpt lat="44.87181" lon="-0.64207">
        <ele>27</ele>
        <time>2017-07-30T07:33:52Z</time>
      </trkpt>
      <trkpt lat="44.87174" lon="-0.6422">
        <ele>26</ele>
        <time>2017-07-30T07:33:54Z</time>
      </trkpt>
      <trkpt lat="44.87166" lon="-0.64237">
        <ele>25</ele>
        <time>2017-07-30T07:33:56Z</time>
      </trkpt>
      <trkpt lat="44.87157" lon="-0.64253">
        <ele>25</ele>
        <time>2017-07-30T07:33:58Z</time>
      </trkpt>
      <trkpt lat="44.87149" lon="-0.64271">
        <ele>25</ele>
        <time>2017-07-30T07:34:00Z</time>
      </trkpt>
      <trkpt lat="44.87147" lon="-0.6429">
        <ele>25</ele>
        <time>2017-07-30T07:34:02Z</time>
      </trkpt>
      <trkpt lat="44.87147" lon="-0.64309">
        <ele>25</ele>
        <time>2017-07-30T07:34:04Z</time>
      </trkpt>
      <trkpt lat="44.87155" lon="-0.64321">
        <ele>25</ele>
        <time>2017-07-30T07:34:06Z</time>
      </trkpt>
      <trkpt lat="44.87165" lon="-0.64319">
        <ele>25</ele>
        <time>2017-07-30T07:34:08Z</time>
      </trkpt>
      <trkpt lat="44.87175" lon="-0.64322">
        <ele>25</ele>
        <time>2017-07-30T07:34:10Z</time>
      </trkpt>
      <trkpt lat="44.87182" lon="-0.64337">
        <ele>24</ele>
        <time>2017-07-30T07:34:12Z</time>
      </trkpt>
      <trkpt lat="44.8719" lon="-0.64353">
        <ele>24</ele>
        <time>2017-07-30T07:34:14Z</time>
      </trkpt>
      <trkpt lat="44.87197" lon="-0.64368">
        <ele>24</ele>
        <time>2017-07-30T07:34:16Z</time>
      </trkpt>
      <trkpt lat="44.87204" lon="-0.6438">
        <ele>24</ele>
        <time>2017-07-30T07:34:18Z</time>
      </trkpt>
      <trkpt lat="44.87211" lon="-0.6439">
        <ele>24</ele>
        <time>2017-07-30T07:34:20Z</time>
      </trkpt>
      <trkpt lat="44.87216" lon="-0.64405">
        <ele>24</ele>
        <time>2017-07-30T07:34:22Z</time>
      </trkpt>
      <trkpt lat="44.87222" lon="-0.64417">
        <ele>25</ele>
        <time>2017-07-30T07:34:24Z</time>
      </trkpt>
      <trkpt lat="44.87229" lon="-0.64429">
        <ele>25</ele>
        <time>2017-07-30T07:34:26Z</time>
      </trkpt>
      <trkpt lat="44.87236" lon="-0.64441">
        <ele>25</ele>
        <time>2017-07-30T07:34:28Z</time>
      </trkpt>
      <trkpt lat="44.87242" lon="-0.64452">
        <ele>25</ele>
        <time>2017-07-30T07:34:30Z</time>
      </trkpt>
      <trkpt lat="44.87246" lon="-0.64465">
        <ele>25</ele>
        <time>2017-07-30T07:34:32Z</time>
      </trkpt>
      <trkpt lat="44.87246" lon="-0.64477">
        <ele>25</ele>
        <time>2017-07-30T07:34:34Z</time>
      </trkpt>
      <trkpt lat="44.87244" lon="-0.64489">
        <ele>26</ele>
        <time>2017-07-30T07:34:36Z</time>
      </trkpt>
      <trkpt lat="44.87242" lon="-0.64501">
        <ele>26</ele>
        <time>2017-07-30T07:34:38Z</time>
      </trkpt>
      <trkpt lat="44.87239" lon="-0.64517">
        <ele>26</ele>
        <time>2017-07-30T07:34:40Z</time>
      </trkpt>
      <trkpt lat="44.87237" lon="-0.64533">
        <ele>26</ele>
        <time>2017-07-30T07:34:42Z</time>
      </trkpt>
      <trkpt lat="44.87235" lon="-0.64549">
        <ele>26</ele>
        <time>2017-07-30T07:34:44Z</time>
      </trkpt>
      <trkpt lat="44.87233" lon="-0.64566">
        <ele>26</ele>
        <time>2017-07-30T07:34:46Z</time>
      </trkpt>
      <trkpt lat="44.87231" lon="-0.64579">
        <ele>26</ele>
        <time>2017-07-30T07:34:48Z</time>
      </trkpt>
      <trkpt lat="44.87228" lon="-0.64594">
        <ele>27</ele>
        <time>2017-07-30T07:34:50Z</time>
      </trkpt>
      <trkpt lat="44.87226" lon="-0.64609">
        <ele>27</ele>
        <time>2017-07-30T07:34:52Z</time>
      </trkpt>
      <trkpt lat="44.87224" lon="-0.64624">
        <ele>27</ele>
        <time>2017-07-30T07:34:54Z</time>
      </trkpt>
      <trkpt lat="44.87223" lon="-0.64637">
        <ele>27</ele>
        <time>2017-07-30T07:34:56Z</time>
      </trkpt>
      <trkpt lat="44.87221" lon="-0.64651">
        <ele>27</ele>
        <time>2017-07-30T07:34:58Z</time>
      </trkpt>
      <trkpt lat="44.87218" lon="-0.64665">
        <ele>27</ele>
        <time>2017-07-30T07:35:00Z</time>
      </trkpt>
      <trkpt lat="44.87214" lon="-0.64679">
        <ele>28</ele>
        <time>2017-07-30T07:35:02Z</time>
      </trkpt>
      <trkpt lat="44.87209" lon="-0.64691">
        <ele>28</ele>
        <time>2017-07-30T07:35:04Z</time>
      </trkpt>
      <trkpt lat="44.87204" lon="-0.64701">
        <ele>28</ele>
        <time>2017-07-30T07:35:06Z</time>
      </trkpt>
      <trkpt lat="44.87197" lon="-0.64715">
        <ele>28</ele>
        <time>2017-07-30T07:35:08Z</time>
      </trkpt>
      <trkpt lat="44.87191" lon="-0.64727">
        <ele>28</ele>
        <time>2017-07-30T07:35:10Z</time>
      </trkpt>
      <trkpt lat="44.87184" lon="-0.64738">
        <ele>28</ele>
        <time>2017-07-30T07:35:12Z</time>
      </trkpt>
      <trkpt lat="44.87177" lon="-0.64749">
        <ele>29</ele>
        <time>2017-07-30T07:35:14Z</time>
      </trkpt>
      <trkpt lat="44.87168" lon="-0.64761">
        <ele>30</ele>
        <time>2017-07-30T07:35:16Z</time>
      </trkpt>
      <trkpt lat="44.87158" lon="-0.64775">
        <ele>30</ele>
        <time>2017-07-30T07:35:18Z</time>
      </trkpt>
      <trkpt lat="44.87151" lon="-0.64786">
        <ele>30</ele>
        <time>2017-07-30T07:35:20Z</time>
      </trkpt>
      <trkpt lat="44.87143" lon="-0.64797">
        <ele>30</ele>
        <time>2017-07-30T07:35:22Z</time>
      </trkpt>
      <trkpt lat="44.87135" lon="-0.6481">
        <ele>30</ele>
        <time>2017-07-30T07:35:24Z</time>
      </trkpt>
      <trkpt lat="44.87126" lon="-0.64824">
        <ele>30</ele>
        <time>2017-07-30T07:35:26Z</time>
      </trkpt>
      <trkpt lat="44.8712" lon="-0.64838">
        <ele>31</ele>
        <time>2017-07-30T07:35:28Z</time>
      </trkpt>
      <trkpt lat="44.87113" lon="-0.64853">
        <ele>31</ele>
        <time>2017-07-30T07:35:30Z</time>
      </trkpt>
      <trkpt lat="44.87107" lon="-0.64867">
        <ele>31</ele>
        <time>2017-07-30T07:35:32Z</time>
      </trkpt>
      <trkpt lat="44.87103" lon="-0.64882">
        <ele>31</ele>
        <time>2017-07-30T07:35:34Z</time>
      </trkpt>
      <trkpt lat="44.871" lon="-0.64896">
        <ele>31</ele>
        <time>2017-07-30T07:35:36Z</time>
      </trkpt>
      <trkpt lat="44.87098" lon="-0.64913">
        <ele>31</ele>
        <time>2017-07-30T07:35:38Z</time>
      </trkpt>
      <trkpt lat="44.87095" lon="-0.64928">
        <ele>32</ele>
        <time>2017-07-30T07:35:40Z</time>
      </trkpt>
      <trkpt lat="44.87092" lon="-0.64943">
        <ele>32</ele>
        <time>2017-07-30T07:35:42Z</time>
      </trkpt>
      <trkpt lat="44.87089" lon="-0.64957">
        <ele>32</ele>
        <time>2017-07-30T07:35:44Z</time>
      </trkpt>
      <trkpt lat="44.87088" lon="-0.64968">
        <ele>32</ele>
        <time>2017-07-30T07:35:46Z</time>
      </trkpt>
      <trkpt lat="44.87085" lon="-0.64977">
        <ele>32</ele>
        <time>2017-07-30T07:35:48Z</time>
      </trkpt>
      <trkpt lat="44.87079" lon="-0.64985">
        <ele>31</ele>
        <time>2017-07-30T07:35:50Z</time>
      </trkpt>
      <trkpt lat="44.87076" lon="-0.64995">
        <ele>31</ele>
        <time>2017-07-30T07:35:52Z</time>
      </trkpt>
      <trkpt lat="44.87074" lon="-0.65004">
        <ele>31</ele>
        <time>2017-07-30T07:35:54Z</time>
      </trkpt>
      <trkpt lat="44.87073" lon="-0.65012">
        <ele>31</ele>
        <time>2017-07-30T07:35:56Z</time>
      </trkpt>
      <trkpt lat="44.87075" lon="-0.6502">
        <ele>30</ele>
        <time>2017-07-30T07:35:58Z</time>
      </trkpt>
      <trkpt lat="44.87082" lon="-0.65022">
        <ele>30</ele>
        <time>2017-07-30T07:36:00Z</time>
      </trkpt>
      <trkpt lat="44.87089" lon="-0.65021">
        <ele>32</ele>
        <time>2017-07-30T07:36:02Z</time>
      </trkpt>
      <trkpt lat="44.87097" lon="-0.65021">
        <ele>32</ele>
        <time>2017-07-30T07:36:04Z</time>
      </trkpt>
      <trkpt lat="44.87105" lon="-0.65023">
        <ele>33</ele>
        <time>2017-07-30T07:36:06Z</time>
      </trkpt>
      <trkpt lat="44.87113" lon="-0.65025">
        <ele>33</ele>
        <time>2017-07-30T07:36:08Z</time>
      </trkpt>
      <trkpt lat="44.8712" lon="-0.65026">
        <ele>33</ele>
        <time>2017-07-30T07:36:10Z</time>
      </trkpt>
      <trkpt lat="44.87128" lon="-0.65027">
        <ele>33</ele>
        <time>2017-07-30T07:36:12Z</time>
      </trkpt>
      <trkpt lat="44.87137" lon="-0.65029">
        <ele>34</ele>
        <time>2017-07-30T07:36:14Z</time>
      </trkpt>
      <trkpt lat="44.87147" lon="-0.65032">
        <ele>34</ele>
        <time>2017-07-30T07:36:16Z</time>
      </trkpt>
      <trkpt lat="44.87155" lon="-0.65038">
        <ele>34</ele>
        <time>2017-07-30T07:36:18Z</time>
      </trkpt>
      <trkpt lat="44.87163" lon="-0.65041">
        <ele>34</ele>
        <time>2017-07-30T07:36:20Z</time>
      </trkpt>
      <trkpt lat="44.87169" lon="-0.65042">
        <ele>37</ele>
        <time>2017-07-30T07:36:22Z</time>
      </trkpt>
      <trkpt lat="44.87177" lon="-0.65045">
        <ele>37</ele>
        <time>2017-07-30T07:36:24Z</time>
      </trkpt>
      <trkpt lat="44.87186" lon="-0.65044">
        <ele>37</ele>
        <time>2017-07-30T07:36:26Z</time>
      </trkpt>
      <trkpt lat="44.87196" lon="-0.65044">
        <ele>37</ele>
        <time>2017-07-30T07:36:28Z</time>
      </trkpt>
      <trkpt lat="44.87205" lon="-0.6505">
        <ele>37</ele>
        <time>2017-07-30T07:36:30Z</time>
      </trkpt>
      <trkpt lat="44.87214" lon="-0.65056">
        <ele>37</ele>
        <time>2017-07-30T07:36:32Z</time>
      </trkpt>
      <trkpt lat="44.87223" lon="-0.6506">
        <ele>38</ele>
        <time>2017-07-30T07:36:34Z</time>
      </trkpt>
      <trkpt lat="44.87232" lon="-0.65063">
        <ele>38</ele>
        <time>2017-07-30T07:36:36Z</time>
      </trkpt>
      <trkpt lat="44.87242" lon="-0.65068">
        <ele>38</ele>
        <time>2017-07-30T07:36:38Z</time>
      </trkpt>
      <trkpt lat="44.87252" lon="-0.65072">
        <ele>40</ele>
        <time>2017-07-30T07:36:40Z</time>
      </trkpt>
      <trkpt lat="44.87262" lon="-0.65076">
        <ele>40</ele>
        <time>2017-07-30T07:36:42Z</time>
      </trkpt>
      <trkpt lat="44.87271" lon="-0.6508">
        <ele>40</ele>
        <time>2017-07-30T07:36:44Z</time>
      </trkpt>
      <trkpt lat="44.8728" lon="-0.65082">
        <ele>40</ele>
        <time>2017-07-30T07:36:46Z</time>
      </trkpt>
      <trkpt lat="44.87287" lon="-0.65083">
        <ele>41</ele>
        <time>2017-07-30T07:36:48Z</time>
      </trkpt>
      <trkpt lat="44.87296" lon="-0.65086">
        <ele>39</ele>
        <time>2017-07-30T07:36:50Z</time>
      </trkpt>
      <trkpt lat="44.87304" lon="-0.6509">
        <ele>40</ele>
        <time>2017-07-30T07:36:52Z</time>
      </trkpt>
      <trkpt lat="44.87315" lon="-0.65092">
        <ele>40</ele>
        <time>2017-07-30T07:36:54Z</time>
      </trkpt>
      <trkpt lat="44.87326" lon="-0.65095">
        <ele>40</ele>
        <time>2017-07-30T07:36:56Z</time>
      </trkpt>
      <trkpt lat="44.87336" lon="-0.65101">
        <ele>41</ele>
        <time>2017-07-30T07:36:58Z</time>
      </trkpt>
      <trkpt lat="44.87346" lon="-0.65106">
        <ele>41</ele>
        <time>2017-07-30T07:37:00Z</time>
      </trkpt>
      <trkpt lat="44.87356" lon="-0.6511">
        <ele>40</ele>
        <time>2017-07-30T07:37:02Z</time>
      </trkpt>
      <trkpt lat="44.87366" lon="-0.65113">
        <ele>40</ele>
        <time>2017-07-30T07:37:04Z</time>
      </trkpt>
      <trkpt lat="44.87377" lon="-0.65117">
        <ele>40</ele>
        <time>2017-07-30T07:37:06Z</time>
      </trkpt>
      <trkpt lat="44.87388" lon="-0.65121">
        <ele>40</ele>
        <time>2017-07-30T07:37:08Z</time>
      </trkpt>
      <trkpt lat="44.874" lon="-0.65126">
        <ele>40</ele>
        <time>2017-07-30T07:37:10Z</time>
      </trkpt>
      <trkpt lat="44.87409" lon="-0.65133">
        <ele>40</ele>
        <time>2017-07-30T07:37:12Z</time>
      </trkpt>
      <trkpt lat="44.8742" lon="-0.65135">
        <ele>39</ele>
        <time>2017-07-30T07:37:14Z</time>
      </trkpt>
      <trkpt lat="44.87431" lon="-0.65137">
        <ele>38</ele>
        <time>2017-07-30T07:37:16Z</time>
      </trkpt>
      <trkpt lat="44.87441" lon="-0.6514">
        <ele>38</ele>
        <time>2017-07-30T07:37:18Z</time>
      </trkpt>
      <trkpt lat="44.87455" lon="-0.65143">
        <ele>38</ele>
        <time>2017-07-30T07:37:20Z</time>
      </trkpt>
      <trkpt lat="44.87468" lon="-0.65145">
        <ele>38</ele>
        <time>2017-07-30T07:37:22Z</time>
      </trkpt>
      <trkpt lat="44.87482" lon="-0.65147">
        <ele>37</ele>
        <time>2017-07-30T07:37:24Z</time>
      </trkpt>
      <trkpt lat="44.87494" lon="-0.65151">
        <ele>37</ele>
        <time>2017-07-30T07:37:26Z</time>
      </trkpt>
      <trkpt lat="44.87501" lon="-0.65157">
        <ele>36</ele>
        <time>2017-07-30T07:37:28Z</time>
      </trkpt>
      <trkpt lat="44.87509" lon="-0.65166">
        <ele>36</ele>
        <time>2017-07-30T07:37:30Z</time>
      </trkpt>
      <trkpt lat="44.87516" lon="-0.65172">
        <ele>36</ele>
        <time>2017-07-30T07:37:32Z</time>
      </trkpt>
      <trkpt lat="44.87523" lon="-0.6518">
        <ele>36</ele>
        <time>2017-07-30T07:37:34Z</time>
      </trkpt>
      <trkpt lat="44.87531" lon="-0.65192">
        <ele>35</ele>
        <time>2017-07-30T07:37:36Z</time>
      </trkpt>
      <trkpt lat="44.87532" lon="-0.65205">
        <ele>35</ele>
        <time>2017-07-30T07:37:38Z</time>
      </trkpt>
      <trkpt lat="44.8753" lon="-0.65217">
        <ele>36</ele>
        <time>2017-07-30T07:37:40Z</time>
      </trkpt>
      <trkpt lat="44.87531" lon="-0.6523">
        <ele>36</ele>
        <time>2017-07-30T07:37:42Z</time>
      </trkpt>
      <trkpt lat="44.87527" lon="-0.65239">
        <ele>36</ele>
        <time>2017-07-30T07:37:44Z</time>
      </trkpt>
      <trkpt lat="44.87522" lon="-0.65242">
        <ele>36</ele>
        <time>2017-07-30T07:37:46Z</time>
      </trkpt>
      <trkpt lat="44.87517" lon="-0.65247">
        <ele>36</ele>
        <time>2017-07-30T07:37:48Z</time>
      </trkpt>
      <trkpt lat="44.87511" lon="-0.65254">
        <ele>36</ele>
        <time>2017-07-30T07:37:50Z</time>
      </trkpt>
      <trkpt lat="44.87506" lon="-0.6526">
        <ele>36</ele>
        <time>2017-07-30T07:37:52Z</time>
      </trkpt>
      <trkpt lat="44.87502" lon="-0.65265">
        <ele>36</ele>
        <time>2017-07-30T07:37:54Z</time>
      </trkpt>
      <trkpt lat="44.87496" lon="-0.65274">
        <ele>37</ele>
        <time>2017-07-30T07:37:56Z</time>
      </trkpt>
      <trkpt lat="44.8749" lon="-0.65282">
        <ele>37</ele>
        <time>2017-07-30T07:37:58Z</time>
      </trkpt>
      <trkpt lat="44.87483" lon="-0.65294">
        <ele>37</ele>
        <time>2017-07-30T07:38:00Z</time>
      </trkpt>
      <trkpt lat="44.87477" lon="-0.65307">
        <ele>37</ele>
        <time>2017-07-30T07:38:02Z</time>
      </trkpt>
      <trkpt lat="44.8747" lon="-0.65315">
        <ele>38</ele>
        <time>2017-07-30T07:38:04Z</time>
      </trkpt>
      <trkpt lat="44.87464" lon="-0.65321">
        <ele>38</ele>
        <time>2017-07-30T07:38:06Z</time>
      </trkpt>
      <trkpt lat="44.8746" lon="-0.65331">
        <ele>38</ele>
        <time>2017-07-30T07:38:08Z</time>
      </trkpt>
      <trkpt lat="44.87457" lon="-0.65341">
        <ele>38</ele>
        <time>2017-07-30T07:38:10Z</time>
      </trkpt>
      <trkpt lat="44.87452" lon="-0.65349">
        <ele>38</ele>
        <time>2017-07-30T07:38:12Z</time>
      </trkpt>
      <trkpt lat="44.87444" lon="-0.65354">
        <ele>39</ele>
        <time>2017-07-30T07:38:14Z</time>
      </trkpt>
      <trkpt lat="44.87433" lon="-0.65361">
        <ele>39</ele>
        <time>2017-07-30T07:38:16Z</time>
      </trkpt>
      <trkpt lat="44.87423" lon="-0.65369">
        <ele>39</ele>
        <time>2017-07-30T07:38:18Z</time>
      </trkpt>
      <trkpt lat="44.87416" lon="-0.65378">
        <ele>39</ele>
        <time>2017-07-30T07:38:20Z</time>
      </trkpt>
      <trkpt lat="44.87407" lon="-0.65388">
        <ele>39</ele>
        <time>2017-07-30T07:38:22Z</time>
      </trkpt>
      <trkpt lat="44.87398" lon="-0.65398">
        <ele>39</ele>
        <time>2017-07-30T07:38:24Z</time>
      </trkpt>
      <trkpt lat="44.8739" lon="-0.65406">
        <ele>39</ele>
        <time>2017-07-30T07:38:26Z</time>
      </trkpt>
      <trkpt lat="44.87381" lon="-0.65416">
        <ele>38</ele>
        <time>2017-07-30T07:38:28Z</time>
      </trkpt>
      <trkpt lat="44.87371" lon="-0.65425">
        <ele>39</ele>
        <time>2017-07-30T07:38:30Z</time>
      </trkpt>
      <trkpt lat="44.87369" lon="-0.65437">
        <ele>39</ele>
        <time>2017-07-30T07:38:32Z</time>
      </trkpt>
      <trkpt lat="44.87366" lon="-0.65445">
        <ele>39</ele>
        <time>2017-07-30T07:38:34Z</time>
      </trkpt>
      <trkpt lat="44.87362" lon="-0.65455">
        <ele>39</ele>
        <time>2017-07-30T07:38:36Z</time>
      </trkpt>
      <trkpt lat="44.87358" lon="-0.65465">
        <ele>39</ele>
        <time>2017-07-30T07:38:38Z</time>
      </trkpt>
      <trkpt lat="44.87356" lon="-0.65472">
        <ele>40</ele>
        <time>2017-07-30T07:38:40Z</time>
      </trkpt>
      <trkpt lat="44.87352" lon="-0.65484">
        <ele>40</ele>
        <time>2017-07-30T07:38:42Z</time>
      </trkpt>
      <trkpt lat="44.87345" lon="-0.6549">
        <ele>40</ele>
        <time>2017-07-30T07:38:44Z</time>
      </trkpt>
      <trkpt lat="44.87338" lon="-0.65493">
        <ele>41</ele>
        <time>2017-07-30T07:38:46Z</time>
      </trkpt>
      <trkpt lat="44.87331" lon="-0.65498">
        <ele>41</ele>
        <time>2017-07-30T07:38:48Z</time>
      </trkpt>
      <trkpt lat="44.87326" lon="-0.65502">
        <ele>41</ele>
        <time>2017-07-30T07:38:50Z</time>
      </trkpt>
      <trkpt lat="44.8732" lon="-0.65503">
        <ele>41</ele>
        <time>2017-07-30T07:38:52Z</time>
      </trkpt>
      <trkpt lat="44.87312" lon="-0.65507">
        <ele>41</ele>
        <time>2017-07-30T07:38:54Z</time>
      </trkpt>
      <trkpt lat="44.87304" lon="-0.65516">
        <ele>41</ele>
        <time>2017-07-30T07:38:56Z</time>
      </trkpt>
      <trkpt lat="44.87302" lon="-0.65529">
        <ele>41</ele>
        <time>2017-07-30T07:38:58Z</time>
      </trkpt>
      <trkpt lat="44.87304" lon="-0.65539">
        <ele>41</ele>
        <time>2017-07-30T07:39:00Z</time>
      </trkpt>
      <trkpt lat="44.87305" lon="-0.65553">
        <ele>42</ele>
        <time>2017-07-30T07:39:02Z</time>
      </trkpt>
      <trkpt lat="44.87305" lon="-0.65569">
        <ele>42</ele>
        <time>2017-07-30T07:39:04Z</time>
      </trkpt>
      <trkpt lat="44.87307" lon="-0.65581">
        <ele>43</ele>
        <time>2017-07-30T07:39:06Z</time>
      </trkpt>
      <trkpt lat="44.87312" lon="-0.65592">
        <ele>43</ele>
        <time>2017-07-30T07:39:08Z</time>
      </trkpt>
      <trkpt lat="44.87316" lon="-0.65606">
        <ele>43</ele>
        <time>2017-07-30T07:39:10Z</time>
      </trkpt>
      <trkpt lat="44.8732" lon="-0.65618">
        <ele>43</ele>
        <time>2017-07-30T07:39:12Z</time>
      </trkpt>
      <trkpt lat="44.87325" lon="-0.65625">
        <ele>43</ele>
        <time>2017-07-30T07:39:14Z</time>
      </trkpt>
      <trkpt lat="44.8733" lon="-0.6563">
        <ele>43</ele>
        <time>2017-07-30T07:39:16Z</time>
      </trkpt>
      <trkpt lat="44.87336" lon="-0.65639">
        <ele>43</ele>
        <time>2017-07-30T07:39:18Z</time>
      </trkpt>
      <trkpt lat="44.87337" lon="-0.65652">
        <ele>43</ele>
        <time>2017-07-30T07:39:20Z</time>
      </trkpt>
      <trkpt lat="44.87338" lon="-0.65661">
        <ele>43</ele>
        <time>2017-07-30T07:39:22Z</time>
      </trkpt>
      <trkpt lat="44.87339" lon="-0.65669">
        <ele>43</ele>
        <time>2017-07-30T07:39:24Z</time>
      </trkpt>
      <trkpt lat="44.87344" lon="-0.65681">
        <ele>42</ele>
        <time>2017-07-30T07:39:26Z</time>
      </trkpt>
      <trkpt lat="44.8735" lon="-0.65683">
        <ele>42</ele>
        <time>2017-07-30T07:39:28Z</time>
      </trkpt>
      <trkpt lat="44.87354" lon="-0.65692">
        <ele>42</ele>
        <time>2017-07-30T07:39:30Z</time>
      </trkpt>
      <trkpt lat="44.87359" lon="-0.657">
        <ele>42</ele>
        <time>2017-07-30T07:39:32Z</time>
      </trkpt>
      <trkpt lat="44.87364" lon="-0.6571">
        <ele>41</ele>
        <time>2017-07-30T07:39:34Z</time>
      </trkpt>
      <trkpt lat="44.87373" lon="-0.65722">
        <ele>41</ele>
        <time>2017-07-30T07:39:36Z</time>
      </trkpt>
      <trkpt lat="44.87383" lon="-0.65733">
        <ele>41</ele>
        <time>2017-07-30T07:39:38Z</time>
      </trkpt>
      <trkpt lat="44.87391" lon="-0.65747">
        <ele>41</ele>
        <time>2017-07-30T07:39:40Z</time>
      </trkpt>
      <trkpt lat="44.87399" lon="-0.65755">
        <ele>40</ele>
        <time>2017-07-30T07:39:42Z</time>
      </trkpt>
      <trkpt lat="44.87408" lon="-0.65768">
        <ele>40</ele>
        <time>2017-07-30T07:39:44Z</time>
      </trkpt>
      <trkpt lat="44.87416" lon="-0.65779">
        <ele>40</ele>
        <time>2017-07-30T07:39:46Z</time>
      </trkpt>
      <trkpt lat="44.87425" lon="-0.65793">
        <ele>41</ele>
        <time>2017-07-30T07:39:48Z</time>
      </trkpt>
      <trkpt lat="44.87432" lon="-0.65806">
        <ele>41</ele>
        <time>2017-07-30T07:39:50Z</time>
      </trkpt>
      <trkpt lat="44.87438" lon="-0.65813">
        <ele>41</ele>
        <time>2017-07-30T07:39:52Z</time>
      </trkpt>
      <trkpt lat="44.87445" lon="-0.65811">
        <ele>41</ele>
        <time>2017-07-30T07:39:54Z</time>
      </trkpt>
      <trkpt lat="44.87454" lon="-0.65806">
        <ele>41</ele>
        <time>2017-07-30T07:39:56Z</time>
      </trkpt>
      <trkpt lat="44.87465" lon="-0.65802">
        <ele>41</ele>
        <time>2017-07-30T07:39:58Z</time>
      </trkpt>
      <trkpt lat="44.87476" lon="-0.658">
        <ele>40</ele>
        <time>2017-07-30T07:40:00Z</time>
      </trkpt>
      <trkpt lat="44.87486" lon="-0.65799">
        <ele>40</ele>
        <time>2017-07-30T07:40:02Z</time>
      </trkpt>
      <trkpt lat="44.87499" lon="-0.65798">
        <ele>40</ele>
        <time>2017-07-30T07:40:04Z</time>
      </trkpt>
      <trkpt lat="44.8751" lon="-0.65793">
        <ele>39</ele>
        <time>2017-07-30T07:40:06Z</time>
      </trkpt>
      <trkpt lat="44.87522" lon="-0.65788">
        <ele>39</ele>
        <time>2017-07-30T07:40:08Z</time>
      </trkpt>
      <trkpt lat="44.87536" lon="-0.65788">
        <ele>39</ele>
        <time>2017-07-30T07:40:10Z</time>
      </trkpt>
      <trkpt lat="44.8755" lon="-0.65787">
        <ele>39</ele>
        <time>2017-07-30T07:40:12Z</time>
      </trkpt>
      <trkpt lat="44.87559" lon="-0.65785">
        <ele>39</ele>
        <time>2017-07-30T07:40:14Z</time>
      </trkpt>
      <trkpt lat="44.87571" lon="-0.65781">
        <ele>39</ele>
        <time>2017-07-30T07:40:16Z</time>
      </trkpt>
      <trkpt lat="44.87583" lon="-0.65775">
        <ele>39</ele>
        <time>2017-07-30T07:40:18Z</time>
      </trkpt>
      <trkpt lat="44.87593" lon="-0.65774">
        <ele>38</ele>
        <time>2017-07-30T07:40:20Z</time>
      </trkpt>
      <trkpt lat="44.87609" lon="-0.65775">
        <ele>37</ele>
        <time>2017-07-30T07:40:22Z</time>
      </trkpt>
      <trkpt lat="44.87622" lon="-0.65779">
        <ele>37</ele>
        <time>2017-07-30T07:40:24Z</time>
      </trkpt>
      <trkpt lat="44.87632" lon="-0.65778">
        <ele>37</ele>
        <time>2017-07-30T07:40:26Z</time>
      </trkpt>
      <trkpt lat="44.87642" lon="-0.65778">
        <ele>37</ele>
        <time>2017-07-30T07:40:28Z</time>
      </trkpt>
      <trkpt lat="44.87655" lon="-0.65779">
        <ele>36</ele>
        <time>2017-07-30T07:40:30Z</time>
      </trkpt>
      <trkpt lat="44.87666" lon="-0.6578">
        <ele>36</ele>
        <time>2017-07-30T07:40:32Z</time>
      </trkpt>
      <trkpt lat="44.87678" lon="-0.65786">
        <ele>35</ele>
        <time>2017-07-30T07:40:34Z</time>
      </trkpt>
      <trkpt lat="44.8769" lon="-0.65789">
        <ele>34</ele>
        <time>2017-07-30T07:40:36Z</time>
      </trkpt>
      <trkpt lat="44.877" lon="-0.65782">
        <ele>34</ele>
        <time>2017-07-30T07:40:38Z</time>
      </trkpt>
      <trkpt lat="44.87711" lon="-0.65776">
        <ele>34</ele>
        <time>2017-07-30T07:40:40Z</time>
      </trkpt>
      <trkpt lat="44.87722" lon="-0.65772">
        <ele>34</ele>
        <time>2017-07-30T07:40:42Z</time>
      </trkpt>
      <trkpt lat="44.87728" lon="-0.65775">
        <ele>33</ele>
        <time>2017-07-30T07:40:44Z</time>
      </trkpt>
      <trkpt lat="44.87733" lon="-0.65782">
        <ele>33</ele>
        <time>2017-07-30T07:40:46Z</time>
      </trkpt>
      <trkpt lat="44.87738" lon="-0.65792">
        <ele>34</ele>
        <time>2017-07-30T07:40:48Z</time>
      </trkpt>
      <trkpt lat="44.87742" lon="-0.65806">
        <ele>34</ele>
        <time>2017-07-30T07:40:50Z</time>
      </trkpt>
      <trkpt lat="44.87746" lon="-0.65819">
        <ele>34</ele>
        <time>2017-07-30T07:40:52Z</time>
      </trkpt>
      <trkpt lat="44.87751" lon="-0.65831">
        <ele>34</ele>
        <time>2017-07-30T07:40:54Z</time>
      </trkpt>
      <trkpt lat="44.87756" lon="-0.65844">
        <ele>34</ele>
        <time>2017-07-30T07:40:56Z</time>
      </trkpt>
      <trkpt lat="44.87762" lon="-0.65856">
        <ele>33</ele>
        <time>2017-07-30T07:40:58Z</time>
      </trkpt>
      <trkpt lat="44.87767" lon="-0.65869">
        <ele>33</ele>
        <time>2017-07-30T07:41:00Z</time>
      </trkpt>
      <trkpt lat="44.87772" lon="-0.65883">
        <ele>33</ele>
        <time>2017-07-30T07:41:02Z</time>
      </trkpt>
      <trkpt lat="44.87777" lon="-0.65896">
        <ele>33</ele>
        <time>2017-07-30T07:41:04Z</time>
      </trkpt>
      <trkpt lat="44.8778" lon="-0.65909">
        <ele>33</ele>
        <time>2017-07-30T07:41:06Z</time>
      </trkpt>
      <trkpt lat="44.87784" lon="-0.65922">
        <ele>33</ele>
        <time>2017-07-30T07:41:08Z</time>
      </trkpt>
      <trkpt lat="44.87787" lon="-0.65937">
        <ele>33</ele>
        <time>2017-07-30T07:41:10Z</time>
      </trkpt>
      <trkpt lat="44.87789" lon="-0.65951">
        <ele>33</ele>
        <time>2017-07-30T07:41:12Z</time>
      </trkpt>
      <trkpt lat="44.87791" lon="-0.65965">
        <ele>33</ele>
        <time>2017-07-30T07:41:14Z</time>
      </trkpt>
      <trkpt lat="44.87792" lon="-0.65979">
        <ele>33</ele>
        <time>2017-07-30T07:41:16Z</time>
      </trkpt>
      <trkpt lat="44.87793" lon="-0.65994">
        <ele>33</ele>
        <time>2017-07-30T07:41:18Z</time>
      </trkpt>
      <trkpt lat="44.87795" lon="-0.66007">
        <ele>33</ele>
        <time>2017-07-30T07:41:20Z</time>
      </trkpt>
      <trkpt lat="44.87796" lon="-0.66018">
        <ele>33</ele>
        <time>2017-07-30T07:41:22Z</time>
      </trkpt>
      <trkpt lat="44.878" lon="-0.66031">
        <ele>33</ele>
        <time>2017-07-30T07:41:24Z</time>
      </trkpt>
      <trkpt lat="44.87803" lon="-0.66041">
        <ele>33</ele>
        <time>2017-07-30T07:41:26Z</time>
      </trkpt>
      <trkpt lat="44.87809" lon="-0.66054">
        <ele>33</ele>
        <time>2017-07-30T07:41:28Z</time>
      </trkpt>
      <trkpt lat="44.87818" lon="-0.66061">
        <ele>33</ele>
        <time>2017-07-30T07:41:30Z</time>
      </trkpt>
      <trkpt lat="44.87827" lon="-0.66062">
        <ele>33</ele>
        <time>2017-07-30T07:41:32Z</time>
      </trkpt>
      <trkpt lat="44.87836" lon="-0.6606">
        <ele>33</ele>
        <time>2017-07-30T07:41:34Z</time>
      </trkpt>
      <trkpt lat="44.87844" lon="-0.66058">
        <ele>33</ele>
        <time>2017-07-30T07:41:36Z</time>
      </trkpt>
      <trkpt lat="44.87854" lon="-0.66055">
        <ele>32</ele>
        <time>2017-07-30T07:41:38Z</time>
      </trkpt>
      <trkpt lat="44.87865" lon="-0.66051">
        <ele>32</ele>
        <time>2017-07-30T07:41:40Z</time>
      </trkpt>
      <trkpt lat="44.87878" lon="-0.66047">
        <ele>32</ele>
        <time>2017-07-30T07:41:42Z</time>
      </trkpt>
      <trkpt lat="44.87887" lon="-0.66044">
        <ele>32</ele>
        <time>2017-07-30T07:41:44Z</time>
      </trkpt>
      <trkpt lat="44.87897" lon="-0.66044">
        <ele>31</ele>
        <time>2017-07-30T07:41:46Z</time>
      </trkpt>
      <trkpt lat="44.87908" lon="-0.66039">
        <ele>31</ele>
        <time>2017-07-30T07:41:48Z</time>
      </trkpt>
      <trkpt lat="44.87916" lon="-0.66038">
        <ele>31</ele>
        <time>2017-07-30T07:41:50Z</time>
      </trkpt>
      <trkpt lat="44.87923" lon="-0.66046">
        <ele>29</ele>
        <time>2017-07-30T07:41:52Z</time>
      </trkpt>
      <trkpt lat="44.87931" lon="-0.66055">
        <ele>29</ele>
        <time>2017-07-30T07:41:54Z</time>
      </trkpt>
      <trkpt lat="44.87936" lon="-0.66063">
        <ele>29</ele>
        <time>2017-07-30T07:41:56Z</time>
      </trkpt>
      <trkpt lat="44.87937" lon="-0.66075">
        <ele>29</ele>
        <time>2017-07-30T07:41:58Z</time>
      </trkpt>
      <trkpt lat="44.87935" lon="-0.66084">
        <ele>30</ele>
        <time>2017-07-30T07:42:00Z</time>
      </trkpt>
      <trkpt lat="44.87931" lon="-0.66092">
        <ele>30</ele>
        <time>2017-07-30T07:42:02Z</time>
      </trkpt>
      <trkpt lat="44.87933" lon="-0.66104">
        <ele>30</ele>
        <time>2017-07-30T07:42:04Z</time>
      </trkpt>
      <trkpt lat="44.87935" lon="-0.66112">
        <ele>30</ele>
        <time>2017-07-30T07:42:06Z</time>
      </trkpt>
      <trkpt lat="44.8794" lon="-0.66122">
        <ele>30</ele>
        <time>2017-07-30T07:42:08Z</time>
      </trkpt>
      <trkpt lat="44.8795" lon="-0.66128">
        <ele>30</ele>
        <time>2017-07-30T07:42:10Z</time>
      </trkpt>
      <trkpt lat="44.87962" lon="-0.66132">
        <ele>30</ele>
        <time>2017-07-30T07:42:12Z</time>
      </trkpt>
      <trkpt lat="44.87974" lon="-0.66136">
        <ele>30</ele>
        <time>2017-07-30T07:42:14Z</time>
      </trkpt>
      <trkpt lat="44.87986" lon="-0.66141">
        <ele>30</ele>
        <time>2017-07-30T07:42:16Z</time>
      </trkpt>
      <trkpt lat="44.87999" lon="-0.66146">
        <ele>30</ele>
        <time>2017-07-30T07:42:18Z</time>
      </trkpt>
      <trkpt lat="44.88011" lon="-0.66151">
        <ele>29</ele>
        <time>2017-07-30T07:42:20Z</time>
      </trkpt>
      <trkpt lat="44.88026" lon="-0.66156">
        <ele>29</ele>
        <time>2017-07-30T07:42:22Z</time>
      </trkpt>
      <trkpt lat="44.8804" lon="-0.6616">
        <ele>29</ele>
        <time>2017-07-30T07:42:24Z</time>
      </trkpt>
      <trkpt lat="44.88053" lon="-0.66165">
        <ele>29</ele>
        <time>2017-07-30T07:42:26Z</time>
      </trkpt>
      <trkpt lat="44.88067" lon="-0.6617">
        <ele>30</ele>
        <time>2017-07-30T07:42:28Z</time>
      </trkpt>
      <trkpt lat="44.88081" lon="-0.66176">
        <ele>29</ele>
        <time>2017-07-30T07:42:30Z</time>
      </trkpt>
      <trkpt lat="44.88093" lon="-0.66183">
        <ele>29</ele>
        <time>2017-07-30T07:42:32Z</time>
      </trkpt>
      <trkpt lat="44.88105" lon="-0.6619">
        <ele>29</ele>
        <time>2017-07-30T07:42:34Z</time>
      </trkpt>
      <trkpt lat="44.8812" lon="-0.66195">
        <ele>29</ele>
        <time>2017-07-30T07:42:36Z</time>
      </trkpt>
      <trkpt lat="44.88136" lon="-0.662">
        <ele>29</ele>
        <time>2017-07-30T07:42:38Z</time>
      </trkpt>
      <trkpt lat="44.88151" lon="-0.66204">
        <ele>29</ele>
        <time>2017-07-30T07:42:40Z</time>
      </trkpt>
      <trkpt lat="44.88166" lon="-0.66207">
        <ele>29</ele>
        <time>2017-07-30T07:42:42Z</time>
      </trkpt>
      <trkpt lat="44.88179" lon="-0.66211">
        <ele>29</ele>
        <time>2017-07-30T07:42:44Z</time>
      </trkpt>
      <trkpt lat="44.88193" lon="-0.66217">
        <ele>29</ele>
        <time>2017-07-30T07:42:46Z</time>
      </trkpt>
      <trkpt lat="44.88205" lon="-0.66223">
        <ele>29</ele>
        <time>2017-07-30T07:42:48Z</time>
      </trkpt>
      <trkpt lat="44.88217" lon="-0.66229">
        <ele>28</ele>
        <time>2017-07-30T07:42:50Z</time>
      </trkpt>
      <trkpt lat="44.88231" lon="-0.66237">
        <ele>28</ele>
        <time>2017-07-30T07:42:52Z</time>
      </trkpt>
      <trkpt lat="44.88244" lon="-0.66244">
        <ele>28</ele>
        <time>2017-07-30T07:42:54Z</time>
      </trkpt>
      <trkpt lat="44.88257" lon="-0.66251">
        <ele>27</ele>
        <time>2017-07-30T07:42:56Z</time>
      </trkpt>
      <trkpt lat="44.88271" lon="-0.66258">
        <ele>27</ele>
        <time>2017-07-30T07:42:58Z</time>
      </trkpt>
      <trkpt lat="44.88284" lon="-0.66265">
        <ele>26</ele>
        <time>2017-07-30T07:43:00Z</time>
      </trkpt>
      <trkpt lat="44.88298" lon="-0.66272">
        <ele>26</ele>
        <time>2017-07-30T07:43:02Z</time>
      </trkpt>
      <trkpt lat="44.88311" lon="-0.66279">
        <ele>26</ele>
        <time>2017-07-30T07:43:04Z</time>
      </trkpt>
      <trkpt lat="44.88323" lon="-0.66286">
        <ele>25</ele>
        <time>2017-07-30T07:43:06Z</time>
      </trkpt>
      <trkpt lat="44.88336" lon="-0.66293">
        <ele>24</ele>
        <time>2017-07-30T07:43:08Z</time>
      </trkpt>
      <trkpt lat="44.88349" lon="-0.66301">
        <ele>24</ele>
        <time>2017-07-30T07:43:10Z</time>
      </trkpt>
      <trkpt lat="44.88362" lon="-0.66308">
        <ele>24</ele>
        <time>2017-07-30T07:43:12Z</time>
      </trkpt>
      <trkpt lat="44.88375" lon="-0.66314">
        <ele>24</ele>
        <time>2017-07-30T07:43:14Z</time>
      </trkpt>
      <trkpt lat="44.88388" lon="-0.66317">
        <ele>23</ele>
        <time>2017-07-30T07:43:16Z</time>
      </trkpt>
      <trkpt lat="44.88399" lon="-0.66311">
        <ele>23</ele>
        <time>2017-07-30T07:43:18Z</time>
      </trkpt>
      <trkpt lat="44.88407" lon="-0.66298">
        <ele>23</ele>
        <time>2017-07-30T07:43:20Z</time>
      </trkpt>
      <trkpt lat="44.88412" lon="-0.66282">
        <ele>23</ele>
        <time>2017-07-30T07:43:22Z</time>
      </trkpt>
      <trkpt lat="44.88416" lon="-0.66265">
        <ele>23</ele>
        <time>2017-07-30T07:43:24Z</time>
      </trkpt>
      <trkpt lat="44.8842" lon="-0.6625">
        <ele>23</ele>
        <time>2017-07-30T07:43:26Z</time>
      </trkpt>
      <trkpt lat="44.88423" lon="-0.66237">
        <ele>23</ele>
        <time>2017-07-30T07:43:28Z</time>
      </trkpt>
      <trkpt lat="44.88429" lon="-0.66227">
        <ele>22</ele>
        <time>2017-07-30T07:43:30Z</time>
      </trkpt>
      <trkpt lat="44.88435" lon="-0.66222">
        <ele>22</ele>
        <time>2017-07-30T07:43:32Z</time>
      </trkpt>
      <trkpt lat="44.8844" lon="-0.66218">
        <ele>22</ele>
        <time>2017-07-30T07:43:34Z</time>
      </trkpt>
      <trkpt lat="44.88448" lon="-0.66216">
        <ele>22</ele>
        <time>2017-07-30T07:43:36Z</time>
      </trkpt>
      <trkpt lat="44.88457" lon="-0.6622">
        <ele>22</ele>
        <time>2017-07-30T07:43:38Z</time>
      </trkpt>
      <trkpt lat="44.88461" lon="-0.66229">
        <ele>22</ele>
        <time>2017-07-30T07:43:40Z</time>
      </trkpt>
      <trkpt lat="44.88464" lon="-0.66244">
        <ele>23</ele>
        <time>2017-07-30T07:43:42Z</time>
      </trkpt>
      <trkpt lat="44.88468" lon="-0.6626">
        <ele>23</ele>
        <time>2017-07-30T07:43:44Z</time>
      </trkpt>
      <trkpt lat="44.88471" lon="-0.66274">
        <ele>23</ele>
        <time>2017-07-30T07:43:46Z</time>
      </trkpt>
      <trkpt lat="44.88475" lon="-0.6629">
        <ele>23</ele>
        <time>2017-07-30T07:43:48Z</time>
      </trkpt>
      <trkpt lat="44.8848" lon="-0.66307">
        <ele>23</ele>
        <time>2017-07-30T07:43:50Z</time>
      </trkpt>
      <trkpt lat="44.88485" lon="-0.66322">
        <ele>22</ele>
        <time>2017-07-30T07:43:52Z</time>
      </trkpt>
      <trkpt lat="44.88489" lon="-0.66338">
        <ele>22</ele>
        <time>2017-07-30T07:43:54Z</time>
      </trkpt>
      <trkpt lat="44.88494" lon="-0.66354">
        <ele>22</ele>
        <time>2017-07-30T07:43:56Z</time>
      </trkpt>
      <trkpt lat="44.88499" lon="-0.66369">
        <ele>22</ele>
        <time>2017-07-30T07:43:58Z</time>
      </trkpt>
      <trkpt lat="44.88505" lon="-0.66387">
        <ele>22</ele>
        <time>2017-07-30T07:44:00Z</time>
      </trkpt>
      <trkpt lat="44.8851" lon="-0.66403">
        <ele>22</ele>
        <time>2017-07-30T07:44:02Z</time>
      </trkpt>
      <trkpt lat="44.88515" lon="-0.66418">
        <ele>22</ele>
        <time>2017-07-30T07:44:04Z</time>
      </trkpt>
      <trkpt lat="44.88521" lon="-0.66433">
        <ele>22</ele>
        <time>2017-07-30T07:44:06Z</time>
      </trkpt>
      <trkpt lat="44.88529" lon="-0.66445">
        <ele>22</ele>
        <time>2017-07-30T07:44:08Z</time>
      </trkpt>
      <trkpt lat="44.88538" lon="-0.66456">
        <ele>22</ele>
        <time>2017-07-30T07:44:10Z</time>
      </trkpt>
      <trkpt lat="44.88548" lon="-0.66466">
        <ele>22</ele>
        <time>2017-07-30T07:44:12Z</time>
      </trkpt>
      <trkpt lat="44.88559" lon="-0.66476">
        <ele>22</ele>
        <time>2017-07-30T07:44:14Z</time>
      </trkpt>
      <trkpt lat="44.8857" lon="-0.66486">
        <ele>23</ele>
        <time>2017-07-30T07:44:16Z</time>
      </trkpt>
      <trkpt lat="44.8858" lon="-0.66495">
        <ele>23</ele>
        <time>2017-07-30T07:44:18Z</time>
      </trkpt>
      <trkpt lat="44.88591" lon="-0.66506">
        <ele>23</ele>
        <time>2017-07-30T07:44:20Z</time>
      </trkpt>
      <trkpt lat="44.88603" lon="-0.66516">
        <ele>23</ele>
        <time>2017-07-30T07:44:22Z</time>
      </trkpt>
      <trkpt lat="44.88613" lon="-0.66527">
        <ele>23</ele>
        <time>2017-07-30T07:44:24Z</time>
      </trkpt>
      <trkpt lat="44.88623" lon="-0.66537">
        <ele>23</ele>
        <time>2017-07-30T07:44:26Z</time>
      </trkpt>
      <trkpt lat="44.88634" lon="-0.66548">
        <ele>24</ele>
        <time>2017-07-30T07:44:28Z</time>
      </trkpt>
      <trkpt lat="44.88644" lon="-0.66557">
        <ele>24</ele>
        <time>2017-07-30T07:44:30Z</time>
      </trkpt>
      <trkpt lat="44.88654" lon="-0.66568">
        <ele>24</ele>
        <time>2017-07-30T07:44:32Z</time>
      </trkpt>
      <trkpt lat="44.88665" lon="-0.66579">
        <ele>24</ele>
        <time>2017-07-30T07:44:34Z</time>
      </trkpt>
      <trkpt lat="44.88677" lon="-0.6659">
        <ele>23</ele>
        <time>2017-07-30T07:44:36Z</time>
      </trkpt>
      <trkpt lat="44.88688" lon="-0.666">
        <ele>23</ele>
        <time>2017-07-30T07:44:38Z</time>
      </trkpt>
      <trkpt lat="44.88699" lon="-0.6661">
        <ele>22</ele>
        <time>2017-07-30T07:44:40Z</time>
      </trkpt>
      <trkpt lat="44.88711" lon="-0.6662">
        <ele>22</ele>
        <time>2017-07-30T07:44:42Z</time>
      </trkpt>
      <trkpt lat="44.88724" lon="-0.6663">
        <ele>22</ele>
        <time>2017-07-30T07:44:44Z</time>
      </trkpt>
      <trkpt lat="44.88736" lon="-0.6664">
        <ele>21</ele>
        <time>2017-07-30T07:44:46Z</time>
      </trkpt>
      <trkpt lat="44.88748" lon="-0.66651">
        <ele>21</ele>
        <time>2017-07-30T07:44:48Z</time>
      </trkpt>
      <trkpt lat="44.88762" lon="-0.66662">
        <ele>19</ele>
        <time>2017-07-30T07:44:50Z</time>
      </trkpt>
      <trkpt lat="44.88777" lon="-0.66675">
        <ele>18</ele>
        <time>2017-07-30T07:44:52Z</time>
      </trkpt>
      <trkpt lat="44.88792" lon="-0.66687">
        <ele>17</ele>
        <time>2017-07-30T07:44:54Z</time>
      </trkpt>
      <trkpt lat="44.88807" lon="-0.667">
        <ele>16</ele>
        <time>2017-07-30T07:44:56Z</time>
      </trkpt>
      <trkpt lat="44.88822" lon="-0.66713">
        <ele>16</ele>
        <time>2017-07-30T07:44:58Z</time>
      </trkpt>
      <trkpt lat="44.88836" lon="-0.66726">
        <ele>14</ele>
        <time>2017-07-30T07:45:00Z</time>
      </trkpt>
      <trkpt lat="44.8885" lon="-0.66739">
        <ele>14</ele>
        <time>2017-07-30T07:45:02Z</time>
      </trkpt>
      <trkpt lat="44.88863" lon="-0.66753">
        <ele>14</ele>
        <time>2017-07-30T07:45:04Z</time>
      </trkpt>
      <trkpt lat="44.88876" lon="-0.66766">
        <ele>14</ele>
        <time>2017-07-30T07:45:06Z</time>
      </trkpt>
      <trkpt lat="44.88888" lon="-0.66779">
        <ele>14</ele>
        <time>2017-07-30T07:45:08Z</time>
      </trkpt>
      <trkpt lat="44.889" lon="-0.66791">
        <ele>14</ele>
        <time>2017-07-30T07:45:10Z</time>
      </trkpt>
      <trkpt lat="44.88911" lon="-0.66802">
        <ele>14</ele>
        <time>2017-07-30T07:45:12Z</time>
      </trkpt>
      <trkpt lat="44.88922" lon="-0.66813">
        <ele>13</ele>
        <time>2017-07-30T07:45:14Z</time>
      </trkpt>
      <trkpt lat="44.88934" lon="-0.66823">
        <ele>13</ele>
        <time>2017-07-30T07:45:16Z</time>
      </trkpt>
      <trkpt lat="44.88945" lon="-0.66831">
        <ele>13</ele>
        <time>2017-07-30T07:45:18Z</time>
      </trkpt>
      <trkpt lat="44.88956" lon="-0.66832">
        <ele>13</ele>
        <time>2017-07-30T07:45:20Z</time>
      </trkpt>
      <trkpt lat="44.88959" lon="-0.66839">
        <ele>14</ele>
        <time>2017-07-30T07:45:24Z</time>
      </trkpt>
      <trkpt lat="44.8896" lon="-0.66851">
        <ele>14</ele>
        <time>2017-07-30T07:45:26Z</time>
      </trkpt>
      <trkpt lat="44.8896" lon="-0.66864">
        <ele>14</ele>
        <time>2017-07-30T07:45:28Z</time>
      </trkpt>
      <trkpt lat="44.88961" lon="-0.66879">
        <ele>14</ele>
        <time>2017-07-30T07:45:30Z</time>
      </trkpt>
      <trkpt lat="44.88961" lon="-0.66895">
        <ele>14</ele>
        <time>2017-07-30T07:45:32Z</time>
      </trkpt>
      <trkpt lat="44.88962" lon="-0.66919">
        <ele>14</ele>
        <time>2017-07-30T07:45:35Z</time>
      </trkpt>
      <trkpt lat="44.88963" lon="-0.66931">
        <ele>14</ele>
        <time>2017-07-30T07:45:37Z</time>
      </trkpt>
      <trkpt lat="44.88961" lon="-0.66959">
        <ele>14</ele>
        <time>2017-07-30T07:45:40Z</time>
      </trkpt>
      <trkpt lat="44.8896" lon="-0.66978">
        <ele>14</ele>
        <time>2017-07-30T07:45:42Z</time>
      </trkpt>
      <trkpt lat="44.88958" lon="-0.66994">
        <ele>13</ele>
        <time>2017-07-30T07:45:44Z</time>
      </trkpt>
      <trkpt lat="44.88957" lon="-0.67012">
        <ele>13</ele>
        <time>2017-07-30T07:45:46Z</time>
      </trkpt>
      <trkpt lat="44.88956" lon="-0.67029">
        <ele>13</ele>
        <time>2017-07-30T07:45:48Z</time>
      </trkpt>
      <trkpt lat="44.88955" lon="-0.67045">
        <ele>13</ele>
        <time>2017-07-30T07:45:50Z</time>
      </trkpt>
      <trkpt lat="44.88955" lon="-0.67062">
        <ele>13</ele>
        <time>2017-07-30T07:45:52Z</time>
      </trkpt>
      <trkpt lat="44.88955" lon="-0.67078">
        <ele>13</ele>
        <time>2017-07-30T07:45:54Z</time>
      </trkpt>
      <trkpt lat="44.88954" lon="-0.67095">
        <ele>13</ele>
        <time>2017-07-30T07:45:56Z</time>
      </trkpt>
      <trkpt lat="44.88954" lon="-0.67114">
        <ele>13</ele>
        <time>2017-07-30T07:45:58Z</time>
      </trkpt>
      <trkpt lat="44.88954" lon="-0.67133">
        <ele>13</ele>
        <time>2017-07-30T07:46:00Z</time>
      </trkpt>
      <trkpt lat="44.88953" lon="-0.67151">
        <ele>13</ele>
        <time>2017-07-30T07:46:02Z</time>
      </trkpt>
      <trkpt lat="44.88952" lon="-0.67169">
        <ele>14</ele>
        <time>2017-07-30T07:46:04Z</time>
      </trkpt>
      <trkpt lat="44.88951" lon="-0.67186">
        <ele>14</ele>
        <time>2017-07-30T07:46:06Z</time>
      </trkpt>
      <trkpt lat="44.88951" lon="-0.67203">
        <ele>14</ele>
        <time>2017-07-30T07:46:08Z</time>
      </trkpt>
      <trkpt lat="44.8895" lon="-0.67221">
        <ele>14</ele>
        <time>2017-07-30T07:46:10Z</time>
      </trkpt>
      <trkpt lat="44.88949" lon="-0.67238">
        <ele>14</ele>
        <time>2017-07-30T07:46:12Z</time>
      </trkpt>
      <trkpt lat="44.88948" lon="-0.67255">
        <ele>14</ele>
        <time>2017-07-30T07:46:14Z</time>
      </trkpt>
      <trkpt lat="44.88947" lon="-0.67271">
        <ele>14</ele>
        <time>2017-07-30T07:46:16Z</time>
      </trkpt>
      <trkpt lat="44.88946" lon="-0.67288">
        <ele>14</ele>
        <time>2017-07-30T07:46:18Z</time>
      </trkpt>
      <trkpt lat="44.88945" lon="-0.67304">
        <ele>14</ele>
        <time>2017-07-30T07:46:20Z</time>
      </trkpt>
      <trkpt lat="44.88945" lon="-0.67321">
        <ele>15</ele>
        <time>2017-07-30T07:46:22Z</time>
      </trkpt>
      <trkpt lat="44.88944" lon="-0.67338">
        <ele>15</ele>
        <time>2017-07-30T07:46:24Z</time>
      </trkpt>
      <trkpt lat="44.88943" lon="-0.67353">
        <ele>14</ele>
        <time>2017-07-30T07:46:26Z</time>
      </trkpt>
      <trkpt lat="44.88943" lon="-0.67369">
        <ele>14</ele>
        <time>2017-07-30T07:46:28Z</time>
      </trkpt>
      <trkpt lat="44.88942" lon="-0.67384">
        <ele>14</ele>
        <time>2017-07-30T07:46:30Z</time>
      </trkpt>
      <trkpt lat="44.88941" lon="-0.67398">
        <ele>14</ele>
        <time>2017-07-30T07:46:32Z</time>
      </trkpt>
      <trkpt lat="44.88941" lon="-0.67408">
        <ele>14</ele>
        <time>2017-07-30T07:46:35Z</time>
      </trkpt>
      <trkpt lat="44.88941" lon="-0.67418">
        <ele>14</ele>
        <time>2017-07-30T07:46:37Z</time>
      </trkpt>
      <trkpt lat="44.88941" lon="-0.6743">
        <ele>15</ele>
        <time>2017-07-30T07:46:39Z</time>
      </trkpt>
      <trkpt lat="44.8894" lon="-0.67444">
        <ele>15</ele>
        <time>2017-07-30T07:46:41Z</time>
      </trkpt>
      <trkpt lat="44.88939" lon="-0.67456">
        <ele>15</ele>
        <time>2017-07-30T07:46:43Z</time>
      </trkpt>
      <trkpt lat="44.88938" lon="-0.6747">
        <ele>15</ele>
        <time>2017-07-30T07:46:45Z</time>
      </trkpt>
      <trkpt lat="44.88937" lon="-0.67486">
        <ele>15</ele>
        <time>2017-07-30T07:46:47Z</time>
      </trkpt>
      <trkpt lat="44.88936" lon="-0.67502">
        <ele>16</ele>
        <time>2017-07-30T07:46:49Z</time>
      </trkpt>
      <trkpt lat="44.88935" lon="-0.67518">
        <ele>16</ele>
        <time>2017-07-30T07:46:51Z</time>
      </trkpt>
      <trkpt lat="44.88935" lon="-0.67536">
        <ele>17</ele>
        <time>2017-07-30T07:46:53Z</time>
      </trkpt>
      <trkpt lat="44.88934" lon="-0.67554">
        <ele>18</ele>
        <time>2017-07-30T07:46:55Z</time>
      </trkpt>
      <trkpt lat="44.88934" lon="-0.6757">
        <ele>18</ele>
        <time>2017-07-30T07:46:57Z</time>
      </trkpt>
      <trkpt lat="44.88934" lon="-0.67586">
        <ele>19</ele>
        <time>2017-07-30T07:46:59Z</time>
      </trkpt>
      <trkpt lat="44.88933" lon="-0.67603">
        <ele>19</ele>
        <time>2017-07-30T07:47:01Z</time>
      </trkpt>
      <trkpt lat="44.88933" lon="-0.6762">
        <ele>19</ele>
        <time>2017-07-30T07:47:03Z</time>
      </trkpt>
      <trkpt lat="44.88932" lon="-0.67638">
        <ele>19</ele>
        <time>2017-07-30T07:47:05Z</time>
      </trkpt>
      <trkpt lat="44.88932" lon="-0.67654">
        <ele>19</ele>
        <time>2017-07-30T07:47:07Z</time>
      </trkpt>
      <trkpt lat="44.88932" lon="-0.67672">
        <ele>18</ele>
        <time>2017-07-30T07:47:09Z</time>
      </trkpt>
      <trkpt lat="44.88935" lon="-0.67689">
        <ele>17</ele>
        <time>2017-07-30T07:47:11Z</time>
      </trkpt>
      <trkpt lat="44.88934" lon="-0.67705">
        <ele>17</ele>
        <time>2017-07-30T07:47:13Z</time>
      </trkpt>
      <trkpt lat="44.88933" lon="-0.6772">
        <ele>17</ele>
        <time>2017-07-30T07:47:15Z</time>
      </trkpt>
      <trkpt lat="44.88931" lon="-0.67738">
        <ele>17</ele>
        <time>2017-07-30T07:47:17Z</time>
      </trkpt>
      <trkpt lat="44.88928" lon="-0.67755">
        <ele>16</ele>
        <time>2017-07-30T07:47:19Z</time>
      </trkpt>
      <trkpt lat="44.88928" lon="-0.6777">
        <ele>16</ele>
        <time>2017-07-30T07:47:21Z</time>
      </trkpt>
      <trkpt lat="44.88927" lon="-0.67787">
        <ele>16</ele>
        <time>2017-07-30T07:47:23Z</time>
      </trkpt>
      <trkpt lat="44.88927" lon="-0.67803">
        <ele>16</ele>
        <time>2017-07-30T07:47:25Z</time>
      </trkpt>
      <trkpt lat="44.88926" lon="-0.67822">
        <ele>16</ele>
        <time>2017-07-30T07:47:27Z</time>
      </trkpt>
      <trkpt lat="44.88925" lon="-0.6784">
        <ele>16</ele>
        <time>2017-07-30T07:47:29Z</time>
      </trkpt>
      <trkpt lat="44.88925" lon="-0.67858">
        <ele>16</ele>
        <time>2017-07-30T07:47:31Z</time>
      </trkpt>
      <trkpt lat="44.88924" lon="-0.67875">
        <ele>16</ele>
        <time>2017-07-30T07:47:33Z</time>
      </trkpt>
      <trkpt lat="44.88923" lon="-0.67892">
        <ele>16</ele>
        <time>2017-07-30T07:47:35Z</time>
      </trkpt>
      <trkpt lat="44.88922" lon="-0.67911">
        <ele>16</ele>
        <time>2017-07-30T07:47:37Z</time>
      </trkpt>
      <trkpt lat="44.88921" lon="-0.67927">
        <ele>16</ele>
        <time>2017-07-30T07:47:39Z</time>
      </trkpt>
      <trkpt lat="44.88921" lon="-0.67944">
        <ele>17</ele>
        <time>2017-07-30T07:47:41Z</time>
      </trkpt>
      <trkpt lat="44.88921" lon="-0.67962">
        <ele>17</ele>
        <time>2017-07-30T07:47:43Z</time>
      </trkpt>
      <trkpt lat="44.88919" lon="-0.67978">
        <ele>17</ele>
        <time>2017-07-30T07:47:45Z</time>
      </trkpt>
      <trkpt lat="44.88919" lon="-0.67997">
        <ele>17</ele>
        <time>2017-07-30T07:47:47Z</time>
      </trkpt>
      <trkpt lat="44.88918" lon="-0.68014">
        <ele>18</ele>
        <time>2017-07-30T07:47:49Z</time>
      </trkpt>
      <trkpt lat="44.88919" lon="-0.68032">
        <ele>18</ele>
        <time>2017-07-30T07:47:51Z</time>
      </trkpt>
      <trkpt lat="44.8892" lon="-0.68046">
        <ele>18</ele>
        <time>2017-07-30T07:47:53Z</time>
      </trkpt>
      <trkpt lat="44.88921" lon="-0.68064">
        <ele>19</ele>
        <time>2017-07-30T07:47:55Z</time>
      </trkpt>
      <trkpt lat="44.88921" lon="-0.68081">
        <ele>19</ele>
        <time>2017-07-30T07:47:57Z</time>
      </trkpt>
      <trkpt lat="44.88921" lon="-0.68101">
        <ele>19</ele>
        <time>2017-07-30T07:47:59Z</time>
      </trkpt>
      <trkpt lat="44.88921" lon="-0.68121">
        <ele>19</ele>
        <time>2017-07-30T07:48:01Z</time>
      </trkpt>
      <trkpt lat="44.88921" lon="-0.68135">
        <ele>19</ele>
        <time>2017-07-30T07:48:03Z</time>
      </trkpt>
      <trkpt lat="44.88922" lon="-0.6815">
        <ele>19</ele>
        <time>2017-07-30T07:48:05Z</time>
      </trkpt>
      <trkpt lat="44.88921" lon="-0.68166">
        <ele>18</ele>
        <time>2017-07-30T07:48:07Z</time>
      </trkpt>
      <trkpt lat="44.88921" lon="-0.68184">
        <ele>19</ele>
        <time>2017-07-30T07:48:09Z</time>
      </trkpt>
      <trkpt lat="44.88921" lon="-0.68201">
        <ele>19</ele>
        <time>2017-07-30T07:48:11Z</time>
      </trkpt>
      <trkpt lat="44.88922" lon="-0.6822">
        <ele>19</ele>
        <time>2017-07-30T07:48:13Z</time>
      </trkpt>
      <trkpt lat="44.88923" lon="-0.68237">
        <ele>19</ele>
        <time>2017-07-30T07:48:15Z</time>
      </trkpt>
      <trkpt lat="44.88924" lon="-0.68257">
        <ele>18</ele>
        <time>2017-07-30T07:48:17Z</time>
      </trkpt>
      <trkpt lat="44.88925" lon="-0.68276">
        <ele>19</ele>
        <time>2017-07-30T07:48:19Z</time>
      </trkpt>
      <trkpt lat="44.88926" lon="-0.68292">
        <ele>19</ele>
        <time>2017-07-30T07:48:21Z</time>
      </trkpt>
      <trkpt lat="44.88928" lon="-0.68308">
        <ele>19</ele>
        <time>2017-07-30T07:48:23Z</time>
      </trkpt>
      <trkpt lat="44.8893" lon="-0.68329">
        <ele>19</ele>
        <time>2017-07-30T07:48:25Z</time>
      </trkpt>
      <trkpt lat="44.88931" lon="-0.68344">
        <ele>19</ele>
        <time>2017-07-30T07:48:27Z</time>
      </trkpt>
      <trkpt lat="44.88933" lon="-0.68364">
        <ele>19</ele>
        <time>2017-07-30T07:48:29Z</time>
      </trkpt>
      <trkpt lat="44.88934" lon="-0.68382">
        <ele>19</ele>
        <time>2017-07-30T07:48:31Z</time>
      </trkpt>
      <trkpt lat="44.88936" lon="-0.684">
        <ele>19</ele>
        <time>2017-07-30T07:48:33Z</time>
      </trkpt>
      <trkpt lat="44.88937" lon="-0.68419">
        <ele>18</ele>
        <time>2017-07-30T07:48:35Z</time>
      </trkpt>
      <trkpt lat="44.88938" lon="-0.68437">
        <ele>18</ele>
        <time>2017-07-30T07:48:37Z</time>
      </trkpt>
      <trkpt lat="44.8894" lon="-0.68454">
        <ele>18</ele>
        <time>2017-07-30T07:48:39Z</time>
      </trkpt>
      <trkpt lat="44.88941" lon="-0.68472">
        <ele>17</ele>
        <time>2017-07-30T07:48:41Z</time>
      </trkpt>
      <trkpt lat="44.88943" lon="-0.68489">
        <ele>17</ele>
        <time>2017-07-30T07:48:43Z</time>
      </trkpt>
      <trkpt lat="44.88944" lon="-0.68507">
        <ele>16</ele>
        <time>2017-07-30T07:48:45Z</time>
      </trkpt>
      <trkpt lat="44.88945" lon="-0.68525">
        <ele>16</ele>
        <time>2017-07-30T07:48:47Z</time>
      </trkpt>
      <trkpt lat="44.88946" lon="-0.68545">
        <ele>15</ele>
        <time>2017-07-30T07:48:49Z</time>
      </trkpt>
      <trkpt lat="44.88947" lon="-0.68563">
        <ele>15</ele>
        <time>2017-07-30T07:48:51Z</time>
      </trkpt>
      <trkpt lat="44.88949" lon="-0.6858">
        <ele>15</ele>
        <time>2017-07-30T07:48:53Z</time>
      </trkpt>
      <trkpt lat="44.88951" lon="-0.686">
        <ele>15</ele>
        <time>2017-07-30T07:48:55Z</time>
      </trkpt>
      <trkpt lat="44.88953" lon="-0.6862">
        <ele>15</ele>
        <time>2017-07-30T07:48:57Z</time>
      </trkpt>
      <trkpt lat="44.88955" lon="-0.68639">
        <ele>15</ele>
        <time>2017-07-30T07:48:59Z</time>
      </trkpt>
      <trkpt lat="44.88957" lon="-0.68656">
        <ele>15</ele>
        <time>2017-07-30T07:49:01Z</time>
      </trkpt>
      <trkpt lat="44.88959" lon="-0.68675">
        <ele>17</ele>
        <time>2017-07-30T07:49:03Z</time>
      </trkpt>
      <trkpt lat="44.88961" lon="-0.68692">
        <ele>17</ele>
        <time>2017-07-30T07:49:05Z</time>
      </trkpt>
      <trkpt lat="44.88964" lon="-0.68709">
        <ele>18</ele>
        <time>2017-07-30T07:49:07Z</time>
      </trkpt>
      <trkpt lat="44.88967" lon="-0.68727">
        <ele>18</ele>
        <time>2017-07-30T07:49:09Z</time>
      </trkpt>
      <trkpt lat="44.8897" lon="-0.68743">
        <ele>18</ele>
        <time>2017-07-30T07:49:11Z</time>
      </trkpt>
      <trkpt lat="44.88972" lon="-0.6876">
        <ele>19</ele>
        <time>2017-07-30T07:49:13Z</time>
      </trkpt>
      <trkpt lat="44.88976" lon="-0.68775">
        <ele>18</ele>
        <time>2017-07-30T07:49:15Z</time>
      </trkpt>
      <trkpt lat="44.8898" lon="-0.68791">
        <ele>18</ele>
        <time>2017-07-30T07:49:17Z</time>
      </trkpt>
      <trkpt lat="44.88984" lon="-0.68808">
        <ele>18</ele>
        <time>2017-07-30T07:49:19Z</time>
      </trkpt>
      <trkpt lat="44.88987" lon="-0.68824">
        <ele>18</ele>
        <time>2017-07-30T07:49:21Z</time>
      </trkpt>
      <trkpt lat="44.8899" lon="-0.68841">
        <ele>17</ele>
        <time>2017-07-30T07:49:23Z</time>
      </trkpt>
      <trkpt lat="44.88994" lon="-0.68859">
        <ele>18</ele>
        <time>2017-07-30T07:49:25Z</time>
      </trkpt>
      <trkpt lat="44.88998" lon="-0.68876">
        <ele>18</ele>
        <time>2017-07-30T07:49:27Z</time>
      </trkpt>
      <trkpt lat="44.89001" lon="-0.68893">
        <ele>18</ele>
        <time>2017-07-30T07:49:29Z</time>
      </trkpt>
      <trkpt lat="44.89005" lon="-0.6891">
        <ele>19</ele>
        <time>2017-07-30T07:49:31Z</time>
      </trkpt>
      <trkpt lat="44.8901" lon="-0.6893">
        <ele>20</ele>
        <time>2017-07-30T07:49:33Z</time>
      </trkpt>
      <trkpt lat="44.89013" lon="-0.68948">
        <ele>20</ele>
        <time>2017-07-30T07:49:35Z</time>
      </trkpt>
      <trkpt lat="44.89017" lon="-0.68964">
        <ele>20</ele>
        <time>2017-07-30T07:49:37Z</time>
      </trkpt>
      <trkpt lat="44.8902" lon="-0.68981">
        <ele>20</ele>
        <time>2017-07-30T07:49:39Z</time>
      </trkpt>
      <trkpt lat="44.89024" lon="-0.68995">
        <ele>21</ele>
        <time>2017-07-30T07:49:41Z</time>
      </trkpt>
      <trkpt lat="44.89029" lon="-0.69012">
        <ele>21</ele>
        <time>2017-07-30T07:49:43Z</time>
      </trkpt>
      <trkpt lat="44.89033" lon="-0.69028">
        <ele>22</ele>
        <time>2017-07-30T07:49:45Z</time>
      </trkpt>
      <trkpt lat="44.89038" lon="-0.69043">
        <ele>22</ele>
        <time>2017-07-30T07:49:47Z</time>
      </trkpt>
      <trkpt lat="44.89042" lon="-0.69061">
        <ele>22</ele>
        <time>2017-07-30T07:49:49Z</time>
      </trkpt>
      <trkpt lat="44.89046" lon="-0.69079">
        <ele>22</ele>
        <time>2017-07-30T07:49:51Z</time>
      </trkpt>
      <trkpt lat="44.8905" lon="-0.69097">
        <ele>21</ele>
        <time>2017-07-30T07:49:53Z</time>
      </trkpt>
      <trkpt lat="44.89053" lon="-0.69113">
        <ele>21</ele>
        <time>2017-07-30T07:49:55Z</time>
      </trkpt>
      <trkpt lat="44.89057" lon="-0.69132">
        <ele>21</ele>
        <time>2017-07-30T07:49:57Z</time>
      </trkpt>
      <trkpt lat="44.8906" lon="-0.69149">
        <ele>21</ele>
        <time>2017-07-30T07:49:59Z</time>
      </trkpt>
      <trkpt lat="44.89064" lon="-0.69168">
        <ele>20</ele>
        <time>2017-07-30T07:50:01Z</time>
      </trkpt>
      <trkpt lat="44.89068" lon="-0.69184">
        <ele>20</ele>
        <time>2017-07-30T07:50:03Z</time>
      </trkpt>
      <trkpt lat="44.89072" lon="-0.69202">
        <ele>20</ele>
        <time>2017-07-30T07:50:05Z</time>
      </trkpt>
      <trkpt lat="44.89076" lon="-0.69218">
        <ele>19</ele>
        <time>2017-07-30T07:50:07Z</time>
      </trkpt>
      <trkpt lat="44.8908" lon="-0.69235">
        <ele>19</ele>
        <time>2017-07-30T07:50:09Z</time>
      </trkpt>
      <trkpt lat="44.89084" lon="-0.69252">
        <ele>19</ele>
        <time>2017-07-30T07:50:11Z</time>
      </trkpt>
      <trkpt lat="44.89088" lon="-0.69269">
        <ele>20</ele>
        <time>2017-07-30T07:50:13Z</time>
      </trkpt>
      <trkpt lat="44.89092" lon="-0.69287">
        <ele>20</ele>
        <time>2017-07-30T07:50:15Z</time>
      </trkpt>
      <trkpt lat="44.89095" lon="-0.69304">
        <ele>20</ele>
        <time>2017-07-30T07:50:17Z</time>
      </trkpt>
      <trkpt lat="44.891" lon="-0.69321">
        <ele>20</ele>
        <time>2017-07-30T07:50:19Z</time>
      </trkpt>
      <trkpt lat="44.89104" lon="-0.6934">
        <ele>20</ele>
        <time>2017-07-30T07:50:21Z</time>
      </trkpt>
      <trkpt lat="44.89109" lon="-0.69356">
        <ele>20</ele>
        <time>2017-07-30T07:50:23Z</time>
      </trkpt>
      <trkpt lat="44.89114" lon="-0.69375">
        <ele>20</ele>
        <time>2017-07-30T07:50:25Z</time>
      </trkpt>
      <trkpt lat="44.89118" lon="-0.6939">
        <ele>20</ele>
        <time>2017-07-30T07:50:27Z</time>
      </trkpt>
      <trkpt lat="44.8912" lon="-0.69405">
        <ele>20</ele>
        <time>2017-07-30T07:50:29Z</time>
      </trkpt>
      <trkpt lat="44.89124" lon="-0.69423">
        <ele>20</ele>
        <time>2017-07-30T07:50:31Z</time>
      </trkpt>
      <trkpt lat="44.89128" lon="-0.69441">
        <ele>20</ele>
        <time>2017-07-30T07:50:33Z</time>
      </trkpt>
      <trkpt lat="44.89131" lon="-0.69454">
        <ele>20</ele>
        <time>2017-07-30T07:50:35Z</time>
      </trkpt>
      <trkpt lat="44.89134" lon="-0.69466">
        <ele>20</ele>
        <time>2017-07-30T07:50:37Z</time>
      </trkpt>
      <trkpt lat="44.89137" lon="-0.69481">
        <ele>20</ele>
        <time>2017-07-30T07:50:39Z</time>
      </trkpt>
      <trkpt lat="44.8914" lon="-0.69496">
        <ele>20</ele>
        <time>2017-07-30T07:50:41Z</time>
      </trkpt>
      <trkpt lat="44.89143" lon="-0.6951">
        <ele>20</ele>
        <time>2017-07-30T07:50:43Z</time>
      </trkpt>
      <trkpt lat="44.89146" lon="-0.69528">
        <ele>20</ele>
        <time>2017-07-30T07:50:45Z</time>
      </trkpt>
      <trkpt lat="44.89152" lon="-0.69543">
        <ele>20</ele>
        <time>2017-07-30T07:50:47Z</time>
      </trkpt>
      <trkpt lat="44.89158" lon="-0.6956">
        <ele>20</ele>
        <time>2017-07-30T07:50:49Z</time>
      </trkpt>
      <trkpt lat="44.89162" lon="-0.69578">
        <ele>20</ele>
        <time>2017-07-30T07:50:51Z</time>
      </trkpt>
      <trkpt lat="44.89166" lon="-0.69596">
        <ele>20</ele>
        <time>2017-07-30T07:50:53Z</time>
      </trkpt>
      <trkpt lat="44.8917" lon="-0.69613">
        <ele>19</ele>
        <time>2017-07-30T07:50:55Z</time>
      </trkpt>
      <trkpt lat="44.89174" lon="-0.69632">
        <ele>19</ele>
        <time>2017-07-30T07:50:57Z</time>
      </trkpt>
      <trkpt lat="44.89178" lon="-0.69651">
        <ele>19</ele>
        <time>2017-07-30T07:50:59Z</time>
      </trkpt>
      <trkpt lat="44.89181" lon="-0.69667">
        <ele>18</ele>
        <time>2017-07-30T07:51:01Z</time>
      </trkpt>
      <trkpt lat="44.89185" lon="-0.69684">
        <ele>18</ele>
        <time>2017-07-30T07:51:03Z</time>
      </trkpt>
      <trkpt lat="44.89189" lon="-0.697">
        <ele>18</ele>
        <time>2017-07-30T07:51:05Z</time>
      </trkpt>
      <trkpt lat="44.89194" lon="-0.6972">
        <ele>18</ele>
        <time>2017-07-30T07:51:07Z</time>
      </trkpt>
      <trkpt lat="44.89198" lon="-0.6974">
        <ele>18</ele>
        <time>2017-07-30T07:51:09Z</time>
      </trkpt>
      <trkpt lat="44.89202" lon="-0.69756">
        <ele>17</ele>
        <time>2017-07-30T07:51:11Z</time>
      </trkpt>
      <trkpt lat="44.89206" lon="-0.69774">
        <ele>17</ele>
        <time>2017-07-30T07:51:13Z</time>
      </trkpt>
      <trkpt lat="44.89209" lon="-0.69791">
        <ele>17</ele>
        <time>2017-07-30T07:51:15Z</time>
      </trkpt>
      <trkpt lat="44.89213" lon="-0.69808">
        <ele>17</ele>
        <time>2017-07-30T07:51:17Z</time>
      </trkpt>
      <trkpt lat="44.89217" lon="-0.69825">
        <ele>17</ele>
        <time>2017-07-30T07:51:19Z</time>
      </trkpt>
      <trkpt lat="44.89222" lon="-0.69846">
        <ele>16</ele>
        <time>2017-07-30T07:51:21Z</time>
      </trkpt>
      <trkpt lat="44.89226" lon="-0.69861">
        <ele>16</ele>
        <time>2017-07-30T07:51:23Z</time>
      </trkpt>
      <trkpt lat="44.8923" lon="-0.69878">
        <ele>16</ele>
        <time>2017-07-30T07:51:25Z</time>
      </trkpt>
      <trkpt lat="44.89234" lon="-0.69896">
        <ele>17</ele>
        <time>2017-07-30T07:51:27Z</time>
      </trkpt>
      <trkpt lat="44.89238" lon="-0.69915">
        <ele>17</ele>
        <time>2017-07-30T07:51:29Z</time>
      </trkpt>
      <trkpt lat="44.89242" lon="-0.69934">
        <ele>16</ele>
        <time>2017-07-30T07:51:31Z</time>
      </trkpt>
      <trkpt lat="44.89245" lon="-0.69953">
        <ele>16</ele>
        <time>2017-07-30T07:51:33Z</time>
      </trkpt>
      <trkpt lat="44.89249" lon="-0.69969">
        <ele>15</ele>
        <time>2017-07-30T07:51:35Z</time>
      </trkpt>
      <trkpt lat="44.89254" lon="-0.69987">
        <ele>16</ele>
        <time>2017-07-30T07:51:37Z</time>
      </trkpt>
      <trkpt lat="44.89258" lon="-0.70003">
        <ele>15</ele>
        <time>2017-07-30T07:51:39Z</time>
      </trkpt>
      <trkpt lat="44.89263" lon="-0.70018">
        <ele>15</ele>
        <time>2017-07-30T07:51:41Z</time>
      </trkpt>
      <trkpt lat="44.89267" lon="-0.70036">
        <ele>14</ele>
        <time>2017-07-30T07:51:43Z</time>
      </trkpt>
      <trkpt lat="44.8927" lon="-0.70049">
        <ele>14</ele>
        <time>2017-07-30T07:51:45Z</time>
      </trkpt>
      <trkpt lat="44.89273" lon="-0.70067">
        <ele>14</ele>
        <time>2017-07-30T07:51:47Z</time>
      </trkpt>
      <trkpt lat="44.89276" lon="-0.70085">
        <ele>14</ele>
        <time>2017-07-30T07:51:49Z</time>
      </trkpt>
      <trkpt lat="44.8928" lon="-0.70103">
        <ele>14</ele>
        <time>2017-07-30T07:51:51Z</time>
      </trkpt>
      <trkpt lat="44.89284" lon="-0.70121">
        <ele>15</ele>
        <time>2017-07-30T07:51:53Z</time>
      </trkpt>
      <trkpt lat="44.89287" lon="-0.70137">
        <ele>15</ele>
        <time>2017-07-30T07:51:55Z</time>
      </trkpt>
      <trkpt lat="44.89291" lon="-0.70155">
        <ele>15</ele>
        <time>2017-07-30T07:51:57Z</time>
      </trkpt>
      <trkpt lat="44.89293" lon="-0.70168">
        <ele>17</ele>
        <time>2017-07-30T07:51:59Z</time>
      </trkpt>
      <trkpt lat="44.89296" lon="-0.70182">
        <ele>17</ele>
        <time>2017-07-30T07:52:01Z</time>
      </trkpt>
      <trkpt lat="44.89301" lon="-0.70195">
        <ele>17</ele>
        <time>2017-07-30T07:52:03Z</time>
      </trkpt>
      <trkpt lat="44.89311" lon="-0.70199">
        <ele>17</ele>
        <time>2017-07-30T07:52:05Z</time>
      </trkpt>
      <trkpt lat="44.89321" lon="-0.70207">
        <ele>17</ele>
        <time>2017-07-30T07:52:07Z</time>
      </trkpt>
      <trkpt lat="44.89332" lon="-0.70215">
        <ele>17</ele>
        <time>2017-07-30T07:52:09Z</time>
      </trkpt>
      <trkpt lat="44.8934" lon="-0.70226">
        <ele>18</ele>
        <time>2017-07-30T07:52:11Z</time>
      </trkpt>
      <trkpt lat="44.89348" lon="-0.70238">
        <ele>19</ele>
        <time>2017-07-30T07:52:13Z</time>
      </trkpt>
      <trkpt lat="44.89357" lon="-0.70251">
        <ele>20</ele>
        <time>2017-07-30T07:52:15Z</time>
      </trkpt>
      <trkpt lat="44.89365" lon="-0.70261">
        <ele>20</ele>
        <time>2017-07-30T07:52:17Z</time>
      </trkpt>
      <trkpt lat="44.89375" lon="-0.70267">
        <ele>20</ele>
        <time>2017-07-30T07:52:19Z</time>
      </trkpt>
      <trkpt lat="44.89382" lon="-0.70266">
        <ele>20</ele>
        <time>2017-07-30T07:52:21Z</time>
      </trkpt>
      <trkpt lat="44.89393" lon="-0.7026">
        <ele>20</ele>
        <time>2017-07-30T07:52:23Z</time>
      </trkpt>
      <trkpt lat="44.89405" lon="-0.70257">
        <ele>21</ele>
        <time>2017-07-30T07:52:25Z</time>
      </trkpt>
      <trkpt lat="44.89417" lon="-0.70254">
        <ele>22</ele>
        <time>2017-07-30T07:52:27Z</time>
      </trkpt>
      <trkpt lat="44.89428" lon="-0.70253">
        <ele>22</ele>
        <time>2017-07-30T07:52:29Z</time>
      </trkpt>
      <trkpt lat="44.89437" lon="-0.70249">
        <ele>21</ele>
        <time>2017-07-30T07:52:31Z</time>
      </trkpt>
      <trkpt lat="44.89446" lon="-0.70244">
        <ele>21</ele>
        <time>2017-07-30T07:52:33Z</time>
      </trkpt>
      <trkpt lat="44.8946" lon="-0.70244">
        <ele>21</ele>
        <time>2017-07-30T07:52:41Z</time>
      </trkpt>
      <trkpt lat="44.89467" lon="-0.70239">
        <ele>21</ele>
        <time>2017-07-30T07:52:43Z</time>
      </trkpt>
      <trkpt lat="44.89474" lon="-0.70235">
        <ele>21</ele>
        <time>2017-07-30T07:52:45Z</time>
      </trkpt>
      <trkpt lat="44.89482" lon="-0.70232">
        <ele>21</ele>
        <time>2017-07-30T07:52:47Z</time>
      </trkpt>
      <trkpt lat="44.89489" lon="-0.70231">
        <ele>21</ele>
        <time>2017-07-30T07:52:49Z</time>
      </trkpt>
      <trkpt lat="44.89496" lon="-0.7023">
        <ele>21</ele>
        <time>2017-07-30T07:52:51Z</time>
      </trkpt>
      <trkpt lat="44.89503" lon="-0.70227">
        <ele>21</ele>
        <time>2017-07-30T07:52:53Z</time>
      </trkpt>
      <trkpt lat="44.89508" lon="-0.70225">
        <ele>21</ele>
        <time>2017-07-30T07:52:55Z</time>
      </trkpt>
      <trkpt lat="44.89514" lon="-0.70221">
        <ele>21</ele>
        <time>2017-07-30T07:52:57Z</time>
      </trkpt>
      <trkpt lat="44.89521" lon="-0.70219">
        <ele>21</ele>
        <time>2017-07-30T07:52:59Z</time>
      </trkpt>
      <trkpt lat="44.89527" lon="-0.70217">
        <ele>22</ele>
        <time>2017-07-30T07:53:01Z</time>
      </trkpt>
      <trkpt lat="44.89533" lon="-0.70215">
        <ele>22</ele>
        <time>2017-07-30T07:53:03Z</time>
      </trkpt>
      <trkpt lat="44.89538" lon="-0.70213">
        <ele>22</ele>
        <time>2017-07-30T07:53:05Z</time>
      </trkpt>
      <trkpt lat="44.89545" lon="-0.7021">
        <ele>22</ele>
        <time>2017-07-30T07:53:07Z</time>
      </trkpt>
      <trkpt lat="44.89552" lon="-0.70207">
        <ele>21</ele>
        <time>2017-07-30T07:53:09Z</time>
      </trkpt>
      <trkpt lat="44.89558" lon="-0.70203">
        <ele>21</ele>
        <time>2017-07-30T07:53:11Z</time>
      </trkpt>
      <trkpt lat="44.89563" lon="-0.70198">
        <ele>21</ele>
        <time>2017-07-30T07:53:13Z</time>
      </trkpt>
      <trkpt lat="44.89568" lon="-0.70195">
        <ele>21</ele>
        <time>2017-07-30T07:53:15Z</time>
      </trkpt>
      <trkpt lat="44.89573" lon="-0.70191">
        <ele>21</ele>
        <time>2017-07-30T07:53:17Z</time>
      </trkpt>
      <trkpt lat="44.89575" lon="-0.70183">
        <ele>21</ele>
        <time>2017-07-30T07:53:19Z</time>
      </trkpt>
      <trkpt lat="44.89574" lon="-0.70174">
        <ele>21</ele>
        <time>2017-07-30T07:53:21Z</time>
      </trkpt>
      <trkpt lat="44.89575" lon="-0.70163">
        <ele>20</ele>
        <time>2017-07-30T07:53:23Z</time>
      </trkpt>
      <trkpt lat="44.89575" lon="-0.70154">
        <ele>20</ele>
        <time>2017-07-30T07:53:25Z</time>
      </trkpt>
      <trkpt lat="44.89574" lon="-0.70144">
        <ele>20</ele>
        <time>2017-07-30T07:53:27Z</time>
      </trkpt>
      <trkpt lat="44.89573" lon="-0.70134">
        <ele>20</ele>
        <time>2017-07-30T07:53:29Z</time>
      </trkpt>
      <trkpt lat="44.89572" lon="-0.70127">
        <ele>20</ele>
        <time>2017-07-30T07:53:31Z</time>
      </trkpt>
      <trkpt lat="44.8957" lon="-0.70119">
        <ele>20</ele>
        <time>2017-07-30T07:53:33Z</time>
      </trkpt>
      <trkpt lat="44.89568" lon="-0.70107">
        <ele>20</ele>
        <time>2017-07-30T07:53:35Z</time>
      </trkpt>
      <trkpt lat="44.89566" lon="-0.70097">
        <ele>20</ele>
        <time>2017-07-30T07:53:37Z</time>
      </trkpt>
      <trkpt lat="44.89565" lon="-0.70089">
        <ele>20</ele>
        <time>2017-07-30T07:53:39Z</time>
      </trkpt>
      <trkpt lat="44.89565" lon="-0.70079">
        <ele>19</ele>
        <time>2017-07-30T07:53:41Z</time>
      </trkpt>
      <trkpt lat="44.89564" lon="-0.70067">
        <ele>19</ele>
        <time>2017-07-30T07:53:43Z</time>
      </trkpt>
      <trkpt lat="44.89563" lon="-0.70058">
        <ele>19</ele>
        <time>2017-07-30T07:53:45Z</time>
      </trkpt>
      <trkpt lat="44.89561" lon="-0.70048">
        <ele>19</ele>
        <time>2017-07-30T07:53:47Z</time>
      </trkpt>
      <trkpt lat="44.89558" lon="-0.70036">
        <ele>19</ele>
        <time>2017-07-30T07:53:49Z</time>
      </trkpt>
      <trkpt lat="44.89556" lon="-0.70024">
        <ele>19</ele>
        <time>2017-07-30T07:53:51Z</time>
      </trkpt>
      <trkpt lat="44.89556" lon="-0.70012">
        <ele>19</ele>
        <time>2017-07-30T07:53:53Z</time>
      </trkpt>
      <trkpt lat="44.89555" lon="-0.7">
        <ele>19</ele>
        <time>2017-07-30T07:53:55Z</time>
      </trkpt>
      <trkpt lat="44.89554" lon="-0.69991">
        <ele>19</ele>
        <time>2017-07-30T07:53:57Z</time>
      </trkpt>
      <trkpt lat="44.89554" lon="-0.69981">
        <ele>19</ele>
        <time>2017-07-30T07:53:59Z</time>
      </trkpt>
      <trkpt lat="44.89553" lon="-0.6997">
        <ele>20</ele>
        <time>2017-07-30T07:54:01Z</time>
      </trkpt>
      <trkpt lat="44.89552" lon="-0.69958">
        <ele>20</ele>
        <time>2017-07-30T07:54:03Z</time>
      </trkpt>
      <trkpt lat="44.89552" lon="-0.69949">
        <ele>20</ele>
        <time>2017-07-30T07:54:05Z</time>
      </trkpt>
      <trkpt lat="44.89551" lon="-0.6994">
        <ele>20</ele>
        <time>2017-07-30T07:54:07Z</time>
      </trkpt>
      <trkpt lat="44.89554" lon="-0.69932">
        <ele>20</ele>
        <time>2017-07-30T07:54:13Z</time>
      </trkpt>
      <trkpt lat="44.89552" lon="-0.69914">
        <ele>21</ele>
        <time>2017-07-30T07:54:41Z</time>
      </trkpt>
      <trkpt lat="44.89549" lon="-0.69901">
        <ele>21</ele>
        <time>2017-07-30T07:54:45Z</time>
      </trkpt>
      <trkpt lat="44.89547" lon="-0.69894">
        <ele>21</ele>
        <time>2017-07-30T07:54:47Z</time>
      </trkpt>
      <trkpt lat="44.89544" lon="-0.69888">
        <ele>21</ele>
        <time>2017-07-30T07:54:49Z</time>
      </trkpt>
      <trkpt lat="44.8954" lon="-0.69866">
        <ele>21</ele>
        <time>2017-07-30T07:54:53Z</time>
      </trkpt>
      <trkpt lat="44.89539" lon="-0.69853">
        <ele>21</ele>
        <time>2017-07-30T07:54:55Z</time>
      </trkpt>
      <trkpt lat="44.89537" lon="-0.6984">
        <ele>21</ele>
        <time>2017-07-30T07:54:57Z</time>
      </trkpt>
      <trkpt lat="44.89535" lon="-0.69828">
        <ele>21</ele>
        <time>2017-07-30T07:54:59Z</time>
      </trkpt>
      <trkpt lat="44.89533" lon="-0.69812">
        <ele>21</ele>
        <time>2017-07-30T07:55:01Z</time>
      </trkpt>
      <trkpt lat="44.8953" lon="-0.69805">
        <ele>21</ele>
        <time>2017-07-30T07:55:03Z</time>
      </trkpt>
      <trkpt lat="44.89519" lon="-0.69806">
        <ele>21</ele>
        <time>2017-07-30T07:55:07Z</time>
      </trkpt>
      <trkpt lat="44.89514" lon="-0.6981">
        <ele>21</ele>
        <time>2017-07-30T07:55:09Z</time>
      </trkpt>
      <trkpt lat="44.89506" lon="-0.69809">
        <ele>21</ele>
        <time>2017-07-30T07:55:11Z</time>
      </trkpt>
      <trkpt lat="44.89496" lon="-0.69808">
        <ele>20</ele>
        <time>2017-07-30T07:55:13Z</time>
      </trkpt>
      <trkpt lat="44.89488" lon="-0.69806">
        <ele>20</ele>
        <time>2017-07-30T07:55:15Z</time>
      </trkpt>
      <trkpt lat="44.89481" lon="-0.69807">
        <ele>20</ele>
        <time>2017-07-30T07:55:17Z</time>
      </trkpt>
      <trkpt lat="44.89472" lon="-0.69801">
        <ele>21</ele>
        <time>2017-07-30T07:55:19Z</time>
      </trkpt>
      <trkpt lat="44.89464" lon="-0.69798">
        <ele>21</ele>
        <time>2017-07-30T07:55:21Z</time>
      </trkpt>
      <trkpt lat="44.89455" lon="-0.69797">
        <ele>21</ele>
        <time>2017-07-30T07:55:23Z</time>
      </trkpt>
      <trkpt lat="44.89451" lon="-0.69803">
        <ele>21</ele>
        <time>2017-07-30T07:55:25Z</time>
      </trkpt>
      <trkpt lat="44.89442" lon="-0.69808">
        <ele>21</ele>
        <time>2017-07-30T07:55:27Z</time>
      </trkpt>
      <trkpt lat="44.89437" lon="-0.69816">
        <ele>21</ele>
        <time>2017-07-30T07:55:29Z</time>
      </trkpt>
      <trkpt lat="44.89432" lon="-0.69823">
        <ele>21</ele>
        <time>2017-07-30T07:55:31Z</time>
      </trkpt>
      <trkpt lat="44.89431" lon="-0.69833">
        <ele>22</ele>
        <time>2017-07-30T07:55:39Z</time>
      </trkpt>
      <trkpt lat="44.89427" lon="-0.69846">
        <ele>22</ele>
        <time>2017-07-30T07:55:41Z</time>
      </trkpt>
      <trkpt lat="44.89425" lon="-0.69858">
        <ele>21</ele>
        <time>2017-07-30T07:55:43Z</time>
      </trkpt>
      <trkpt lat="44.8942" lon="-0.6987">
        <ele>21</ele>
        <time>2017-07-30T07:55:45Z</time>
      </trkpt>
      <trkpt lat="44.89417" lon="-0.69882">
        <ele>21</ele>
        <time>2017-07-30T07:55:47Z</time>
      </trkpt>
      <trkpt lat="44.89416" lon="-0.69894">
        <ele>21</ele>
        <time>2017-07-30T07:55:49Z</time>
      </trkpt>
      <trkpt lat="44.89418" lon="-0.69904">
        <ele>22</ele>
        <time>2017-07-30T07:55:51Z</time>
      </trkpt>
      <trkpt lat="44.89419" lon="-0.69916">
        <ele>22</ele>
        <time>2017-07-30T07:55:53Z</time>
      </trkpt>
      <trkpt lat="44.89422" lon="-0.69927">
        <ele>22</ele>
        <time>2017-07-30T07:55:55Z</time>
      </trkpt>
      <trkpt lat="44.89421" lon="-0.69936">
        <ele>21</ele>
        <time>2017-07-30T07:55:57Z</time>
      </trkpt>
      <trkpt lat="44.89417" lon="-0.69947">
        <ele>21</ele>
        <time>2017-07-30T07:55:59Z</time>
      </trkpt>
      <trkpt lat="44.89411" lon="-0.69966">
        <ele>20</ele>
        <time>2017-07-30T07:56:01Z</time>
      </trkpt>
      <trkpt lat="44.8941" lon="-0.69982">
        <ele>20</ele>
        <time>2017-07-30T07:56:03Z</time>
      </trkpt>
      <trkpt lat="44.89411" lon="-0.69994">
        <ele>20</ele>
        <time>2017-07-30T07:56:05Z</time>
      </trkpt>
      <trkpt lat="44.89412" lon="-0.70009">
        <ele>20</ele>
        <time>2017-07-30T07:56:07Z</time>
      </trkpt>
      <trkpt lat="44.89407" lon="-0.70016">
        <ele>19</ele>
        <time>2017-07-30T07:56:09Z</time>
      </trkpt>
      <trkpt lat="44.89405" lon="-0.70023">
        <ele>18</ele>
        <time>2017-07-30T07:56:11Z</time>
      </trkpt>
      <trkpt lat="44.89395" lon="-0.70034">
        <ele>18</ele>
        <time>2017-07-30T07:56:15Z</time>
      </trkpt>
      <trkpt lat="44.89387" lon="-0.70041">
        <ele>17</ele>
        <time>2017-07-30T07:56:17Z</time>
      </trkpt>
      <trkpt lat="44.8938" lon="-0.70047">
        <ele>17</ele>
        <time>2017-07-30T07:56:19Z</time>
      </trkpt>
      <trkpt lat="44.89373" lon="-0.70058">
        <ele>16</ele>
        <time>2017-07-30T07:56:21Z</time>
      </trkpt>
      <trkpt lat="44.89366" lon="-0.70067">
        <ele>16</ele>
        <time>2017-07-30T07:56:23Z</time>
      </trkpt>
      <trkpt lat="44.89356" lon="-0.7007">
        <ele>15</ele>
        <time>2017-07-30T07:56:25Z</time>
      </trkpt>
      <trkpt lat="44.89347" lon="-0.70073">
        <ele>15</ele>
        <time>2017-07-30T07:56:27Z</time>
      </trkpt>
      <trkpt lat="44.89337" lon="-0.70069">
        <ele>15</ele>
        <time>2017-07-30T07:56:29Z</time>
      </trkpt>
      <trkpt lat="44.89328" lon="-0.70067">
        <ele>14</ele>
        <time>2017-07-30T07:56:31Z</time>
      </trkpt>
      <trkpt lat="44.89319" lon="-0.70068">
        <ele>14</ele>
        <time>2017-07-30T07:56:33Z</time>
      </trkpt>
      <trkpt lat="44.8931" lon="-0.70067">
        <ele>14</ele>
        <time>2017-07-30T07:56:35Z</time>
      </trkpt>
      <trkpt lat="44.89302" lon="-0.70068">
        <ele>14</ele>
        <time>2017-07-30T07:56:37Z</time>
      </trkpt>
      <trkpt lat="44.89294" lon="-0.70069">
        <ele>14</ele>
        <time>2017-07-30T07:56:39Z</time>
      </trkpt>
      <trkpt lat="44.89287" lon="-0.70066">
        <ele>14</ele>
        <time>2017-07-30T07:56:41Z</time>
      </trkpt>
      <trkpt lat="44.89282" lon="-0.70066">
        <ele>14</ele>
        <time>2017-07-30T07:56:43Z</time>
      </trkpt>
      <trkpt lat="44.89278" lon="-0.70071">
        <ele>14</ele>
        <time>2017-07-30T07:56:45Z</time>
      </trkpt>
      <trkpt lat="44.89278" lon="-0.7008">
        <ele>14</ele>
        <time>2017-07-30T07:56:47Z</time>
      </trkpt>
      <trkpt lat="44.89276" lon="-0.7009">
        <ele>14</ele>
        <time>2017-07-30T07:56:49Z</time>
      </trkpt>
      <trkpt lat="44.89279" lon="-0.70099">
        <ele>14</ele>
        <time>2017-07-30T07:56:51Z</time>
      </trkpt>
      <trkpt lat="44.89281" lon="-0.70111">
        <ele>14</ele>
        <time>2017-07-30T07:56:53Z</time>
      </trkpt>
      <trkpt lat="44.89284" lon="-0.70124">
        <ele>15</ele>
        <time>2017-07-30T07:56:55Z</time>
      </trkpt>
      <trkpt lat="44.89287" lon="-0.70139">
        <ele>15</ele>
        <time>2017-07-30T07:56:57Z</time>
      </trkpt>
      <trkpt lat="44.89291" lon="-0.70154">
        <ele>15</ele>
        <time>2017-07-30T07:56:59Z</time>
      </trkpt>
      <trkpt lat="44.89294" lon="-0.70167">
        <ele>17</ele>
        <time>2017-07-30T07:57:01Z</time>
      </trkpt>
      <trkpt lat="44.89298" lon="-0.70182">
        <ele>17</ele>
        <time>2017-07-30T07:57:03Z</time>
      </trkpt>
      <trkpt lat="44.89302" lon="-0.70198">
        <ele>17</ele>
        <time>2017-07-30T07:57:05Z</time>
      </trkpt>
      <trkpt lat="44.89304" lon="-0.70212">
        <ele>17</ele>
        <time>2017-07-30T07:57:07Z</time>
      </trkpt>
      <trkpt lat="44.89306" lon="-0.70229">
        <ele>18</ele>
        <time>2017-07-30T07:57:09Z</time>
      </trkpt>
      <trkpt lat="44.89307" lon="-0.70244">
        <ele>18</ele>
        <time>2017-07-30T07:57:11Z</time>
      </trkpt>
      <trkpt lat="44.89311" lon="-0.70258">
        <ele>19</ele>
        <time>2017-07-30T07:57:13Z</time>
      </trkpt>
      <trkpt lat="44.89312" lon="-0.70275">
        <ele>18</ele>
        <time>2017-07-30T07:57:15Z</time>
      </trkpt>
      <trkpt lat="44.89314" lon="-0.70288">
        <ele>18</ele>
        <time>2017-07-30T07:57:17Z</time>
      </trkpt>
      <trkpt lat="44.89317" lon="-0.70302">
        <ele>18</ele>
        <time>2017-07-30T07:57:19Z</time>
      </trkpt>
      <trkpt lat="44.89319" lon="-0.70319">
        <ele>18</ele>
        <time>2017-07-30T07:57:21Z</time>
      </trkpt>
      <trkpt lat="44.89322" lon="-0.70336">
        <ele>18</ele>
        <time>2017-07-30T07:57:23Z</time>
      </trkpt>
      <trkpt lat="44.89325" lon="-0.70354">
        <ele>17</ele>
        <time>2017-07-30T07:57:25Z</time>
      </trkpt>
      <trkpt lat="44.89327" lon="-0.70372">
        <ele>17</ele>
        <time>2017-07-30T07:57:27Z</time>
      </trkpt>
      <trkpt lat="44.89328" lon="-0.7039">
        <ele>17</ele>
        <time>2017-07-30T07:57:29Z</time>
      </trkpt>
      <trkpt lat="44.8933" lon="-0.70408">
        <ele>18</ele>
        <time>2017-07-30T07:57:31Z</time>
      </trkpt>
      <trkpt lat="44.89331" lon="-0.70425">
        <ele>17</ele>
        <time>2017-07-30T07:57:33Z</time>
      </trkpt>
      <trkpt lat="44.89332" lon="-0.70442">
        <ele>16</ele>
        <time>2017-07-30T07:57:35Z</time>
      </trkpt>
      <trkpt lat="44.89332" lon="-0.7046">
        <ele>16</ele>
        <time>2017-07-30T07:57:37Z</time>
      </trkpt>
      <trkpt lat="44.89332" lon="-0.70477">
        <ele>16</ele>
        <time>2017-07-30T07:57:39Z</time>
      </trkpt>
      <trkpt lat="44.89332" lon="-0.70494">
        <ele>16</ele>
        <time>2017-07-30T07:57:41Z</time>
      </trkpt>
      <trkpt lat="44.89331" lon="-0.70512">
        <ele>15</ele>
        <time>2017-07-30T07:57:43Z</time>
      </trkpt>
      <trkpt lat="44.89331" lon="-0.7053">
        <ele>15</ele>
        <time>2017-07-30T07:57:45Z</time>
      </trkpt>
      <trkpt lat="44.89331" lon="-0.70547">
        <ele>15</ele>
        <time>2017-07-30T07:57:47Z</time>
      </trkpt>
      <trkpt lat="44.89331" lon="-0.70564">
        <ele>14</ele>
        <time>2017-07-30T07:57:49Z</time>
      </trkpt>
      <trkpt lat="44.89331" lon="-0.70582">
        <ele>14</ele>
        <time>2017-07-30T07:57:51Z</time>
      </trkpt>
      <trkpt lat="44.89331" lon="-0.70597">
        <ele>14</ele>
        <time>2017-07-30T07:57:53Z</time>
      </trkpt>
      <trkpt lat="44.8933" lon="-0.70616">
        <ele>15</ele>
        <time>2017-07-30T07:57:55Z</time>
      </trkpt>
      <trkpt lat="44.89329" lon="-0.70633">
        <ele>15</ele>
        <time>2017-07-30T07:57:57Z</time>
      </trkpt>
      <trkpt lat="44.89328" lon="-0.70649">
        <ele>15</ele>
        <time>2017-07-30T07:57:59Z</time>
      </trkpt>
      <trkpt lat="44.89327" lon="-0.70665">
        <ele>15</ele>
        <time>2017-07-30T07:58:01Z</time>
      </trkpt>
      <trkpt lat="44.89326" lon="-0.70681">
        <ele>15</ele>
        <time>2017-07-30T07:58:03Z</time>
      </trkpt>
      <trkpt lat="44.89324" lon="-0.70697">
        <ele>15</ele>
        <time>2017-07-30T07:58:05Z</time>
      </trkpt>
      <trkpt lat="44.89322" lon="-0.70712">
        <ele>16</ele>
        <time>2017-07-30T07:58:07Z</time>
      </trkpt>
      <trkpt lat="44.89321" lon="-0.70728">
        <ele>16</ele>
        <time>2017-07-30T07:58:09Z</time>
      </trkpt>
      <trkpt lat="44.89323" lon="-0.7074">
        <ele>16</ele>
        <time>2017-07-30T07:58:11Z</time>
      </trkpt>
      <trkpt lat="44.8932" lon="-0.70755">
        <ele>16</ele>
        <time>2017-07-30T07:58:13Z</time>
      </trkpt>
      <trkpt lat="44.89317" lon="-0.70769">
        <ele>16</ele>
        <time>2017-07-30T07:58:15Z</time>
      </trkpt>
      <trkpt lat="44.89315" lon="-0.70783">
        <ele>16</ele>
        <time>2017-07-30T07:58:17Z</time>
      </trkpt>
      <trkpt lat="44.89313" lon="-0.70799">
        <ele>16</ele>
        <time>2017-07-30T07:58:19Z</time>
      </trkpt>
      <trkpt lat="44.8931" lon="-0.70816">
        <ele>16</ele>
        <time>2017-07-30T07:58:21Z</time>
      </trkpt>
      <trkpt lat="44.89307" lon="-0.70832">
        <ele>16</ele>
        <time>2017-07-30T07:58:23Z</time>
      </trkpt>
      <trkpt lat="44.89305" lon="-0.70847">
        <ele>16</ele>
        <time>2017-07-30T07:58:25Z</time>
      </trkpt>
      <trkpt lat="44.89302" lon="-0.70861">
        <ele>16</ele>
        <time>2017-07-30T07:58:27Z</time>
      </trkpt>
      <trkpt lat="44.893" lon="-0.70876">
        <ele>16</ele>
        <time>2017-07-30T07:58:29Z</time>
      </trkpt>
      <trkpt lat="44.89297" lon="-0.70892">
        <ele>16</ele>
        <time>2017-07-30T07:58:31Z</time>
      </trkpt>
      <trkpt lat="44.89294" lon="-0.70907">
        <ele>16</ele>
        <time>2017-07-30T07:58:33Z</time>
      </trkpt>
      <trkpt lat="44.8929" lon="-0.70922">
        <ele>16</ele>
        <time>2017-07-30T07:58:35Z</time>
      </trkpt>
      <trkpt lat="44.89286" lon="-0.70938">
        <ele>16</ele>
        <time>2017-07-30T07:58:37Z</time>
      </trkpt>
      <trkpt lat="44.89283" lon="-0.70953">
        <ele>16</ele>
        <time>2017-07-30T07:58:39Z</time>
      </trkpt>
      <trkpt lat="44.8928" lon="-0.70967">
        <ele>16</ele>
        <time>2017-07-30T07:58:41Z</time>
      </trkpt>
      <trkpt lat="44.89278" lon="-0.70978">
        <ele>16</ele>
        <time>2017-07-30T07:58:43Z</time>
      </trkpt>
      <trkpt lat="44.89277" lon="-0.70986">
        <ele>16</ele>
        <time>2017-07-30T07:58:45Z</time>
      </trkpt>
      <trkpt lat="44.89274" lon="-0.70992">
        <ele>16</ele>
        <time>2017-07-30T07:58:47Z</time>
      </trkpt>
      <trkpt lat="44.89272" lon="-0.71004">
        <ele>17</ele>
        <time>2017-07-30T07:58:49Z</time>
      </trkpt>
      <trkpt lat="44.8927" lon="-0.71015">
        <ele>17</ele>
        <time>2017-07-30T07:58:51Z</time>
      </trkpt>
      <trkpt lat="44.89269" lon="-0.71025">
        <ele>17</ele>
        <time>2017-07-30T07:58:53Z</time>
      </trkpt>
      <trkpt lat="44.89267" lon="-0.71037">
        <ele>18</ele>
        <time>2017-07-30T07:58:59Z</time>
      </trkpt>
      <trkpt lat="44.89265" lon="-0.71052">
        <ele>18</ele>
        <time>2017-07-30T07:59:09Z</time>
      </trkpt>
      <trkpt lat="44.89263" lon="-0.7106">
        <ele>18</ele>
        <time>2017-07-30T07:59:11Z</time>
      </trkpt>
      <trkpt lat="44.8926" lon="-0.7107">
        <ele>18</ele>
        <time>2017-07-30T07:59:13Z</time>
      </trkpt>
      <trkpt lat="44.89259" lon="-0.71082">
        <ele>19</ele>
        <time>2017-07-30T07:59:15Z</time>
      </trkpt>
      <trkpt lat="44.89259" lon="-0.71097">
        <ele>19</ele>
        <time>2017-07-30T07:59:17Z</time>
      </trkpt>
      <trkpt lat="44.89258" lon="-0.71115">
        <ele>19</ele>
        <time>2017-07-30T07:59:19Z</time>
      </trkpt>
      <trkpt lat="44.89257" lon="-0.71133">
        <ele>19</ele>
        <time>2017-07-30T07:59:21Z</time>
      </trkpt>
      <trkpt lat="44.89256" lon="-0.71149">
        <ele>19</ele>
        <time>2017-07-30T07:59:23Z</time>
      </trkpt>
      <trkpt lat="44.89256" lon="-0.71166">
        <ele>19</ele>
        <time>2017-07-30T07:59:25Z</time>
      </trkpt>
      <trkpt lat="44.89257" lon="-0.71185">
        <ele>19</ele>
        <time>2017-07-30T07:59:27Z</time>
      </trkpt>
      <trkpt lat="44.89258" lon="-0.71203">
        <ele>19</ele>
        <time>2017-07-30T07:59:29Z</time>
      </trkpt>
      <trkpt lat="44.89259" lon="-0.7122">
        <ele>19</ele>
        <time>2017-07-30T07:59:31Z</time>
      </trkpt>
      <trkpt lat="44.8926" lon="-0.71238">
        <ele>19</ele>
        <time>2017-07-30T07:59:33Z</time>
      </trkpt>
      <trkpt lat="44.89262" lon="-0.71255">
        <ele>19</ele>
        <time>2017-07-30T07:59:35Z</time>
      </trkpt>
      <trkpt lat="44.89264" lon="-0.71274">
        <ele>18</ele>
        <time>2017-07-30T07:59:37Z</time>
      </trkpt>
      <trkpt lat="44.89266" lon="-0.71292">
        <ele>18</ele>
        <time>2017-07-30T07:59:39Z</time>
      </trkpt>
      <trkpt lat="44.89269" lon="-0.71306">
        <ele>18</ele>
        <time>2017-07-30T07:59:41Z</time>
      </trkpt>
      <trkpt lat="44.89271" lon="-0.71321">
        <ele>18</ele>
        <time>2017-07-30T07:59:43Z</time>
      </trkpt>
      <trkpt lat="44.89274" lon="-0.71338">
        <ele>18</ele>
        <time>2017-07-30T07:59:45Z</time>
      </trkpt>
      <trkpt lat="44.89276" lon="-0.71353">
        <ele>18</ele>
        <time>2017-07-30T07:59:47Z</time>
      </trkpt>
      <trkpt lat="44.89278" lon="-0.71369">
        <ele>18</ele>
        <time>2017-07-30T07:59:49Z</time>
      </trkpt>
      <trkpt lat="44.8928" lon="-0.71382">
        <ele>18</ele>
        <time>2017-07-30T07:59:51Z</time>
      </trkpt>
      <trkpt lat="44.89284" lon="-0.71399">
        <ele>18</ele>
        <time>2017-07-30T07:59:53Z</time>
      </trkpt>
      <trkpt lat="44.89288" lon="-0.71414">
        <ele>18</ele>
        <time>2017-07-30T07:59:55Z</time>
      </trkpt>
      <trkpt lat="44.89291" lon="-0.71429">
        <ele>19</ele>
        <time>2017-07-30T07:59:57Z</time>
      </trkpt>
      <trkpt lat="44.89295" lon="-0.71445">
        <ele>19</ele>
        <time>2017-07-30T07:59:59Z</time>
      </trkpt>
      <trkpt lat="44.89299" lon="-0.71462">
        <ele>19</ele>
        <time>2017-07-30T08:00:01Z</time>
      </trkpt>
      <trkpt lat="44.89302" lon="-0.71476">
        <ele>19</ele>
        <time>2017-07-30T08:00:03Z</time>
      </trkpt>
      <trkpt lat="44.89306" lon="-0.7149">
        <ele>20</ele>
        <time>2017-07-30T08:00:05Z</time>
      </trkpt>
      <trkpt lat="44.8931" lon="-0.71499">
        <ele>20</ele>
        <time>2017-07-30T08:00:11Z</time>
      </trkpt>
      <trkpt lat="44.8931" lon="-0.71506">
        <ele>20</ele>
        <time>2017-07-30T08:00:13Z</time>
      </trkpt>
      <trkpt lat="44.89312" lon="-0.71516">
        <ele>20</ele>
        <time>2017-07-30T08:00:15Z</time>
      </trkpt>
      <trkpt lat="44.89313" lon="-0.71527">
        <ele>20</ele>
        <time>2017-07-30T08:00:17Z</time>
      </trkpt>
      <trkpt lat="44.89317" lon="-0.71541">
        <ele>20</ele>
        <time>2017-07-30T08:00:19Z</time>
      </trkpt>
      <trkpt lat="44.89322" lon="-0.71553">
        <ele>20</ele>
        <time>2017-07-30T08:00:21Z</time>
      </trkpt>
      <trkpt lat="44.89324" lon="-0.71564">
        <ele>20</ele>
        <time>2017-07-30T08:00:23Z</time>
      </trkpt>
      <trkpt lat="44.89326" lon="-0.71578">
        <ele>20</ele>
        <time>2017-07-30T08:00:25Z</time>
      </trkpt>
      <trkpt lat="44.89329" lon="-0.71593">
        <ele>20</ele>
        <time>2017-07-30T08:00:27Z</time>
      </trkpt>
      <trkpt lat="44.89332" lon="-0.71607">
        <ele>20</ele>
        <time>2017-07-30T08:00:29Z</time>
      </trkpt>
      <trkpt lat="44.89335" lon="-0.7162">
        <ele>21</ele>
        <time>2017-07-30T08:00:31Z</time>
      </trkpt>
      <trkpt lat="44.89338" lon="-0.71634">
        <ele>21</ele>
        <time>2017-07-30T08:00:33Z</time>
      </trkpt>
      <trkpt lat="44.89341" lon="-0.71648">
        <ele>21</ele>
        <time>2017-07-30T08:00:35Z</time>
      </trkpt>
      <trkpt lat="44.89344" lon="-0.71662">
        <ele>21</ele>
        <time>2017-07-30T08:00:37Z</time>
      </trkpt>
      <trkpt lat="44.89348" lon="-0.71678">
        <ele>22</ele>
        <time>2017-07-30T08:00:39Z</time>
      </trkpt>
      <trkpt lat="44.89352" lon="-0.71692">
        <ele>22</ele>
        <time>2017-07-30T08:00:41Z</time>
      </trkpt>
      <trkpt lat="44.89355" lon="-0.71707">
        <ele>22</ele>
        <time>2017-07-30T08:00:43Z</time>
      </trkpt>
      <trkpt lat="44.89359" lon="-0.71721">
        <ele>22</ele>
        <time>2017-07-30T08:00:45Z</time>
      </trkpt>
      <trkpt lat="44.89361" lon="-0.71736">
        <ele>22</ele>
        <time>2017-07-30T08:00:47Z</time>
      </trkpt>
      <trkpt lat="44.89365" lon="-0.7175">
        <ele>22</ele>
        <time>2017-07-30T08:00:49Z</time>
      </trkpt>
      <trkpt lat="44.89368" lon="-0.71763">
        <ele>22</ele>
        <time>2017-07-30T08:00:51Z</time>
      </trkpt>
      <trkpt lat="44.89371" lon="-0.71774">
        <ele>22</ele>
        <time>2017-07-30T08:00:53Z</time>
      </trkpt>
      <trkpt lat="44.89372" lon="-0.71788">
        <ele>22</ele>
        <time>2017-07-30T08:00:55Z</time>
      </trkpt>
      <trkpt lat="44.89374" lon="-0.71802">
        <ele>22</ele>
        <time>2017-07-30T08:00:57Z</time>
      </trkpt>
      <trkpt lat="44.89377" lon="-0.71817">
        <ele>22</ele>
        <time>2017-07-30T08:00:59Z</time>
      </trkpt>
      <trkpt lat="44.8938" lon="-0.71833">
        <ele>22</ele>
        <time>2017-07-30T08:01:01Z</time>
      </trkpt>
      <trkpt lat="44.89382" lon="-0.71848">
        <ele>23</ele>
        <time>2017-07-30T08:01:03Z</time>
      </trkpt>
      <trkpt lat="44.89384" lon="-0.71864">
        <ele>23</ele>
        <time>2017-07-30T08:01:05Z</time>
      </trkpt>
      <trkpt lat="44.89385" lon="-0.71881">
        <ele>23</ele>
        <time>2017-07-30T08:01:07Z</time>
      </trkpt>
      <trkpt lat="44.89387" lon="-0.71895">
        <ele>23</ele>
        <time>2017-07-30T08:01:09Z</time>
      </trkpt>
      <trkpt lat="44.89388" lon="-0.71909">
        <ele>23</ele>
        <time>2017-07-30T08:01:11Z</time>
      </trkpt>
      <trkpt lat="44.89389" lon="-0.71923">
        <ele>24</ele>
        <time>2017-07-30T08:01:13Z</time>
      </trkpt>
      <trkpt lat="44.89389" lon="-0.71936">
        <ele>24</ele>
        <time>2017-07-30T08:01:15Z</time>
      </trkpt>
      <trkpt lat="44.89389" lon="-0.71951">
        <ele>25</ele>
        <time>2017-07-30T08:01:17Z</time>
      </trkpt>
      <trkpt lat="44.89389" lon="-0.71966">
        <ele>25</ele>
        <time>2017-07-30T08:01:19Z</time>
      </trkpt>
      <trkpt lat="44.89389" lon="-0.71981">
        <ele>25</ele>
        <time>2017-07-30T08:01:21Z</time>
      </trkpt>
      <trkpt lat="44.89388" lon="-0.71996">
        <ele>25</ele>
        <time>2017-07-30T08:01:23Z</time>
      </trkpt>
      <trkpt lat="44.89387" lon="-0.72012">
        <ele>26</ele>
        <time>2017-07-30T08:01:25Z</time>
      </trkpt>
      <trkpt lat="44.89386" lon="-0.72029">
        <ele>26</ele>
        <time>2017-07-30T08:01:27Z</time>
      </trkpt>
      <trkpt lat="44.89385" lon="-0.72044">
        <ele>26</ele>
        <time>2017-07-30T08:01:29Z</time>
      </trkpt>
      <trkpt lat="44.89384" lon="-0.7206">
        <ele>26</ele>
        <time>2017-07-30T08:01:31Z</time>
      </trkpt>
      <trkpt lat="44.89383" lon="-0.72074">
        <ele>26</ele>
        <time>2017-07-30T08:01:33Z</time>
      </trkpt>
      <trkpt lat="44.89381" lon="-0.72088">
        <ele>26</ele>
        <time>2017-07-30T08:01:35Z</time>
      </trkpt>
      <trkpt lat="44.89379" lon="-0.72101">
        <ele>26</ele>
        <time>2017-07-30T08:01:37Z</time>
      </trkpt>
      <trkpt lat="44.89377" lon="-0.72117">
        <ele>26</ele>
        <time>2017-07-30T08:01:39Z</time>
      </trkpt>
      <trkpt lat="44.89374" lon="-0.72134">
        <ele>25</ele>
        <time>2017-07-30T08:01:41Z</time>
      </trkpt>
      <trkpt lat="44.8937" lon="-0.7215">
        <ele>25</ele>
        <time>2017-07-30T08:01:43Z</time>
      </trkpt>
      <trkpt lat="44.89367" lon="-0.72164">
        <ele>25</ele>
        <time>2017-07-30T08:01:45Z</time>
      </trkpt>
      <trkpt lat="44.89363" lon="-0.72178">
        <ele>25</ele>
        <time>2017-07-30T08:01:47Z</time>
      </trkpt>
      <trkpt lat="44.89358" lon="-0.72193">
        <ele>25</ele>
        <time>2017-07-30T08:01:49Z</time>
      </trkpt>
      <trkpt lat="44.89353" lon="-0.72206">
        <ele>25</ele>
        <time>2017-07-30T08:01:51Z</time>
      </trkpt>
      <trkpt lat="44.89349" lon="-0.7222">
        <ele>25</ele>
        <time>2017-07-30T08:01:53Z</time>
      </trkpt>
      <trkpt lat="44.89344" lon="-0.72234">
        <ele>24</ele>
        <time>2017-07-30T08:01:55Z</time>
      </trkpt>
      <trkpt lat="44.89339" lon="-0.72248">
        <ele>24</ele>
        <time>2017-07-30T08:01:57Z</time>
      </trkpt>
      <trkpt lat="44.89335" lon="-0.72262">
        <ele>24</ele>
        <time>2017-07-30T08:01:59Z</time>
      </trkpt>
      <trkpt lat="44.89331" lon="-0.72275">
        <ele>24</ele>
        <time>2017-07-30T08:02:01Z</time>
      </trkpt>
      <trkpt lat="44.89326" lon="-0.72286">
        <ele>24</ele>
        <time>2017-07-30T08:02:03Z</time>
      </trkpt>
      <trkpt lat="44.89321" lon="-0.72292">
        <ele>24</ele>
        <time>2017-07-30T08:02:05Z</time>
      </trkpt>
      <trkpt lat="44.89316" lon="-0.72302">
        <ele>24</ele>
        <time>2017-07-30T08:02:07Z</time>
      </trkpt>
      <trkpt lat="44.89312" lon="-0.72315">
        <ele>24</ele>
        <time>2017-07-30T08:02:09Z</time>
      </trkpt>
      <trkpt lat="44.89307" lon="-0.72327">
        <ele>24</ele>
        <time>2017-07-30T08:02:11Z</time>
      </trkpt>
      <trkpt lat="44.89303" lon="-0.72338">
        <ele>24</ele>
        <time>2017-07-30T08:02:13Z</time>
      </trkpt>
      <trkpt lat="44.89297" lon="-0.72352">
        <ele>24</ele>
        <time>2017-07-30T08:02:15Z</time>
      </trkpt>
      <trkpt lat="44.89291" lon="-0.72365">
        <ele>24</ele>
        <time>2017-07-30T08:02:17Z</time>
      </trkpt>
      <trkpt lat="44.89283" lon="-0.72378">
        <ele>24</ele>
        <time>2017-07-30T08:02:19Z</time>
      </trkpt>
      <trkpt lat="44.89276" lon="-0.72392">
        <ele>24</ele>
        <time>2017-07-30T08:02:21Z</time>
      </trkpt>
      <trkpt lat="44.8927" lon="-0.72404">
        <ele>24</ele>
        <time>2017-07-30T08:02:23Z</time>
      </trkpt>
      <trkpt lat="44.89264" lon="-0.72417">
        <ele>24</ele>
        <time>2017-07-30T08:02:25Z</time>
      </trkpt>
      <trkpt lat="44.89258" lon="-0.72431">
        <ele>24</ele>
        <time>2017-07-30T08:02:27Z</time>
      </trkpt>
      <trkpt lat="44.89253" lon="-0.72447">
        <ele>25</ele>
        <time>2017-07-30T08:02:29Z</time>
      </trkpt>
      <trkpt lat="44.89251" lon="-0.72462">
        <ele>25</ele>
        <time>2017-07-30T08:02:31Z</time>
      </trkpt>
      <trkpt lat="44.8925" lon="-0.72477">
        <ele>25</ele>
        <time>2017-07-30T08:02:33Z</time>
      </trkpt>
      <trkpt lat="44.8925" lon="-0.7249">
        <ele>25</ele>
        <time>2017-07-30T08:02:35Z</time>
      </trkpt>
      <trkpt lat="44.89246" lon="-0.72495">
        <ele>25</ele>
        <time>2017-07-30T08:02:39Z</time>
      </trkpt>
      <trkpt lat="44.89243" lon="-0.72505">
        <ele>25</ele>
        <time>2017-07-30T08:02:41Z</time>
      </trkpt>
      <trkpt lat="44.89239" lon="-0.72517">
        <ele>25</ele>
        <time>2017-07-30T08:02:43Z</time>
      </trkpt>
      <trkpt lat="44.89233" lon="-0.72534">
        <ele>25</ele>
        <time>2017-07-30T08:02:45Z</time>
      </trkpt>
      <trkpt lat="44.89231" lon="-0.72541">
        <ele>25</ele>
        <time>2017-07-30T08:02:47Z</time>
      </trkpt>
      <trkpt lat="44.89225" lon="-0.72546">
        <ele>25</ele>
        <time>2017-07-30T08:02:49Z</time>
      </trkpt>
      <trkpt lat="44.8922" lon="-0.72548">
        <ele>25</ele>
        <time>2017-07-30T08:02:51Z</time>
      </trkpt>
      <trkpt lat="44.89216" lon="-0.7256">
        <ele>25</ele>
        <time>2017-07-30T08:02:53Z</time>
      </trkpt>
      <trkpt lat="44.89212" lon="-0.72573">
        <ele>25</ele>
        <time>2017-07-30T08:02:55Z</time>
      </trkpt>
      <trkpt lat="44.89207" lon="-0.72587">
        <ele>25</ele>
        <time>2017-07-30T08:02:57Z</time>
      </trkpt>
      <trkpt lat="44.89204" lon="-0.72599">
        <ele>25</ele>
        <time>2017-07-30T08:02:59Z</time>
      </trkpt>
      <trkpt lat="44.89202" lon="-0.72612">
        <ele>25</ele>
        <time>2017-07-30T08:03:01Z</time>
      </trkpt>
      <trkpt lat="44.89199" lon="-0.72623">
        <ele>25</ele>
        <time>2017-07-30T08:03:03Z</time>
      </trkpt>
      <trkpt lat="44.89195" lon="-0.72638">
        <ele>25</ele>
        <time>2017-07-30T08:03:05Z</time>
      </trkpt>
      <trkpt lat="44.89193" lon="-0.72658">
        <ele>24</ele>
        <time>2017-07-30T08:03:07Z</time>
      </trkpt>
      <trkpt lat="44.89191" lon="-0.72674">
        <ele>24</ele>
        <time>2017-07-30T08:03:09Z</time>
      </trkpt>
      <trkpt lat="44.89189" lon="-0.72689">
        <ele>25</ele>
        <time>2017-07-30T08:03:11Z</time>
      </trkpt>
      <trkpt lat="44.89186" lon="-0.72705">
        <ele>25</ele>
        <time>2017-07-30T08:03:13Z</time>
      </trkpt>
      <trkpt lat="44.89184" lon="-0.72721">
        <ele>25</ele>
        <time>2017-07-30T08:03:15Z</time>
      </trkpt>
      <trkpt lat="44.8918" lon="-0.72739">
        <ele>25</ele>
        <time>2017-07-30T08:03:17Z</time>
      </trkpt>
      <trkpt lat="44.89177" lon="-0.72754">
        <ele>25</ele>
        <time>2017-07-30T08:03:19Z</time>
      </trkpt>
      <trkpt lat="44.89173" lon="-0.72771">
        <ele>26</ele>
        <time>2017-07-30T08:03:21Z</time>
      </trkpt>
      <trkpt lat="44.89168" lon="-0.72786">
        <ele>26</ele>
        <time>2017-07-30T08:03:23Z</time>
      </trkpt>
      <trkpt lat="44.89163" lon="-0.72802">
        <ele>27</ele>
        <time>2017-07-30T08:03:25Z</time>
      </trkpt>
      <trkpt lat="44.89158" lon="-0.72819">
        <ele>27</ele>
        <time>2017-07-30T08:03:27Z</time>
      </trkpt>
      <trkpt lat="44.89153" lon="-0.72834">
        <ele>28</ele>
        <time>2017-07-30T08:03:29Z</time>
      </trkpt>
      <trkpt lat="44.89148" lon="-0.72849">
        <ele>28</ele>
        <time>2017-07-30T08:03:31Z</time>
      </trkpt>
      <trkpt lat="44.89143" lon="-0.72865">
        <ele>29</ele>
        <time>2017-07-30T08:03:33Z</time>
      </trkpt>
      <trkpt lat="44.89137" lon="-0.72881">
        <ele>29</ele>
        <time>2017-07-30T08:03:35Z</time>
      </trkpt>
      <trkpt lat="44.89133" lon="-0.72896">
        <ele>29</ele>
        <time>2017-07-30T08:03:37Z</time>
      </trkpt>
      <trkpt lat="44.89128" lon="-0.72912">
        <ele>29</ele>
        <time>2017-07-30T08:03:39Z</time>
      </trkpt>
      <trkpt lat="44.89123" lon="-0.72927">
        <ele>29</ele>
        <time>2017-07-30T08:03:41Z</time>
      </trkpt>
      <trkpt lat="44.89118" lon="-0.72941">
        <ele>29</ele>
        <time>2017-07-30T08:03:43Z</time>
      </trkpt>
      <trkpt lat="44.89112" lon="-0.72958">
        <ele>29</ele>
        <time>2017-07-30T08:03:45Z</time>
      </trkpt>
      <trkpt lat="44.89108" lon="-0.72973">
        <ele>28</ele>
        <time>2017-07-30T08:03:47Z</time>
      </trkpt>
      <trkpt lat="44.89104" lon="-0.72988">
        <ele>28</ele>
        <time>2017-07-30T08:03:49Z</time>
      </trkpt>
      <trkpt lat="44.89099" lon="-0.73003">
        <ele>28</ele>
        <time>2017-07-30T08:03:51Z</time>
      </trkpt>
      <trkpt lat="44.89095" lon="-0.73016">
        <ele>28</ele>
        <time>2017-07-30T08:03:53Z</time>
      </trkpt>
      <trkpt lat="44.89091" lon="-0.73033">
        <ele>27</ele>
        <time>2017-07-30T08:03:55Z</time>
      </trkpt>
      <trkpt lat="44.89087" lon="-0.73049">
        <ele>27</ele>
        <time>2017-07-30T08:03:57Z</time>
      </trkpt>
      <trkpt lat="44.89083" lon="-0.73064">
        <ele>28</ele>
        <time>2017-07-30T08:03:59Z</time>
      </trkpt>
      <trkpt lat="44.89078" lon="-0.73078">
        <ele>27</ele>
        <time>2017-07-30T08:04:01Z</time>
      </trkpt>
      <trkpt lat="44.89076" lon="-0.73096">
        <ele>27</ele>
        <time>2017-07-30T08:04:03Z</time>
      </trkpt>
      <trkpt lat="44.89073" lon="-0.73115">
        <ele>27</ele>
        <time>2017-07-30T08:04:05Z</time>
      </trkpt>
      <trkpt lat="44.89067" lon="-0.7313">
        <ele>27</ele>
        <time>2017-07-30T08:04:07Z</time>
      </trkpt>
      <trkpt lat="44.89062" lon="-0.73145">
        <ele>27</ele>
        <time>2017-07-30T08:04:09Z</time>
      </trkpt>
      <trkpt lat="44.89059" lon="-0.73158">
        <ele>27</ele>
        <time>2017-07-30T08:04:11Z</time>
      </trkpt>
      <trkpt lat="44.89055" lon="-0.73173">
        <ele>26</ele>
        <time>2017-07-30T08:04:13Z</time>
      </trkpt>
      <trkpt lat="44.89051" lon="-0.73186">
        <ele>26</ele>
        <time>2017-07-30T08:04:15Z</time>
      </trkpt>
      <trkpt lat="44.89048" lon="-0.73198">
        <ele>26</ele>
        <time>2017-07-30T08:04:17Z</time>
      </trkpt>
      <trkpt lat="44.89042" lon="-0.73212">
        <ele>26</ele>
        <time>2017-07-30T08:04:19Z</time>
      </trkpt>
      <trkpt lat="44.89039" lon="-0.73228">
        <ele>26</ele>
        <time>2017-07-30T08:04:21Z</time>
      </trkpt>
      <trkpt lat="44.89037" lon="-0.73245">
        <ele>26</ele>
        <time>2017-07-30T08:04:23Z</time>
      </trkpt>
      <trkpt lat="44.89033" lon="-0.73262">
        <ele>25</ele>
        <time>2017-07-30T08:04:25Z</time>
      </trkpt>
      <trkpt lat="44.8903" lon="-0.73279">
        <ele>25</ele>
        <time>2017-07-30T08:04:27Z</time>
      </trkpt>
      <trkpt lat="44.89027" lon="-0.73295">
        <ele>26</ele>
        <time>2017-07-30T08:04:29Z</time>
      </trkpt>
      <trkpt lat="44.89024" lon="-0.73311">
        <ele>26</ele>
        <time>2017-07-30T08:04:31Z</time>
      </trkpt>
      <trkpt lat="44.89021" lon="-0.73327">
        <ele>26</ele>
        <time>2017-07-30T08:04:33Z</time>
      </trkpt>
      <trkpt lat="44.89017" lon="-0.73344">
        <ele>26</ele>
        <time>2017-07-30T08:04:35Z</time>
      </trkpt>
      <trkpt lat="44.89015" lon="-0.73361">
        <ele>26</ele>
        <time>2017-07-30T08:04:37Z</time>
      </trkpt>
      <trkpt lat="44.89012" lon="-0.73379">
        <ele>27</ele>
        <time>2017-07-30T08:04:39Z</time>
      </trkpt>
      <trkpt lat="44.89009" lon="-0.73396">
        <ele>27</ele>
        <time>2017-07-30T08:04:41Z</time>
      </trkpt>
      <trkpt lat="44.89007" lon="-0.73414">
        <ele>27</ele>
        <time>2017-07-30T08:04:43Z</time>
      </trkpt>
      <trkpt lat="44.89005" lon="-0.73431">
        <ele>28</ele>
        <time>2017-07-30T08:04:45Z</time>
      </trkpt>
      <trkpt lat="44.89002" lon="-0.73449">
        <ele>29</ele>
        <time>2017-07-30T08:04:47Z</time>
      </trkpt>
      <trkpt lat="44.88999" lon="-0.73466">
        <ele>28</ele>
        <time>2017-07-30T08:04:49Z</time>
      </trkpt>
      <trkpt lat="44.88997" lon="-0.73483">
        <ele>29</ele>
        <time>2017-07-30T08:04:51Z</time>
      </trkpt>
      <trkpt lat="44.88995" lon="-0.73497">
        <ele>29</ele>
        <time>2017-07-30T08:04:53Z</time>
      </trkpt>
      <trkpt lat="44.88993" lon="-0.73512">
        <ele>30</ele>
        <time>2017-07-30T08:04:55Z</time>
      </trkpt>
      <trkpt lat="44.88991" lon="-0.7353">
        <ele>30</ele>
        <time>2017-07-30T08:04:57Z</time>
      </trkpt>
      <trkpt lat="44.88988" lon="-0.73547">
        <ele>30</ele>
        <time>2017-07-30T08:04:59Z</time>
      </trkpt>
      <trkpt lat="44.88986" lon="-0.73563">
        <ele>30</ele>
        <time>2017-07-30T08:05:01Z</time>
      </trkpt>
      <trkpt lat="44.88985" lon="-0.73577">
        <ele>31</ele>
        <time>2017-07-30T08:05:03Z</time>
      </trkpt>
      <trkpt lat="44.88984" lon="-0.73591">
        <ele>31</ele>
        <time>2017-07-30T08:05:05Z</time>
      </trkpt>
      <trkpt lat="44.88981" lon="-0.73604">
        <ele>30</ele>
        <time>2017-07-30T08:05:07Z</time>
      </trkpt>
      <trkpt lat="44.88981" lon="-0.73618">
        <ele>30</ele>
        <time>2017-07-30T08:05:09Z</time>
      </trkpt>
      <trkpt lat="44.8898" lon="-0.73634">
        <ele>30</ele>
        <time>2017-07-30T08:05:11Z</time>
      </trkpt>
      <trkpt lat="44.88979" lon="-0.7365">
        <ele>30</ele>
        <time>2017-07-30T08:05:13Z</time>
      </trkpt>
      <trkpt lat="44.88977" lon="-0.73667">
        <ele>30</ele>
        <time>2017-07-30T08:05:15Z</time>
      </trkpt>
      <trkpt lat="44.88976" lon="-0.73685">
        <ele>30</ele>
        <time>2017-07-30T08:05:17Z</time>
      </trkpt>
      <trkpt lat="44.88974" lon="-0.73703">
        <ele>30</ele>
        <time>2017-07-30T08:05:19Z</time>
      </trkpt>
      <trkpt lat="44.88973" lon="-0.73719">
        <ele>30</ele>
        <time>2017-07-30T08:05:21Z</time>
      </trkpt>
      <trkpt lat="44.88971" lon="-0.73737">
        <ele>30</ele>
        <time>2017-07-30T08:05:23Z</time>
      </trkpt>
      <trkpt lat="44.8897" lon="-0.73753">
        <ele>30</ele>
        <time>2017-07-30T08:05:25Z</time>
      </trkpt>
      <trkpt lat="44.88969" lon="-0.7377">
        <ele>31</ele>
        <time>2017-07-30T08:05:27Z</time>
      </trkpt>
      <trkpt lat="44.88968" lon="-0.73788">
        <ele>31</ele>
        <time>2017-07-30T08:05:29Z</time>
      </trkpt>
      <trkpt lat="44.88968" lon="-0.73805">
        <ele>31</ele>
        <time>2017-07-30T08:05:31Z</time>
      </trkpt>
      <trkpt lat="44.88967" lon="-0.73822">
        <ele>30</ele>
        <time>2017-07-30T08:05:33Z</time>
      </trkpt>
      <trkpt lat="44.88967" lon="-0.73839">
        <ele>30</ele>
        <time>2017-07-30T08:05:35Z</time>
      </trkpt>
      <trkpt lat="44.88966" lon="-0.73858">
        <ele>30</ele>
        <time>2017-07-30T08:05:37Z</time>
      </trkpt>
      <trkpt lat="44.88965" lon="-0.73875">
        <ele>30</ele>
        <time>2017-07-30T08:05:39Z</time>
      </trkpt>
      <trkpt lat="44.8896" lon="-0.73883">
        <ele>30</ele>
        <time>2017-07-30T08:05:41Z</time>
      </trkpt>
      <trkpt lat="44.8895" lon="-0.73887">
        <ele>31</ele>
        <time>2017-07-30T08:05:43Z</time>
      </trkpt>
      <trkpt lat="44.88941" lon="-0.7389">
        <ele>31</ele>
        <time>2017-07-30T08:05:45Z</time>
      </trkpt>
      <trkpt lat="44.88932" lon="-0.73893">
        <ele>31</ele>
        <time>2017-07-30T08:05:47Z</time>
      </trkpt>
      <trkpt lat="44.88922" lon="-0.73896">
        <ele>31</ele>
        <time>2017-07-30T08:05:49Z</time>
      </trkpt>
      <trkpt lat="44.88911" lon="-0.73899">
        <ele>31</ele>
        <time>2017-07-30T08:05:51Z</time>
      </trkpt>
      <trkpt lat="44.889" lon="-0.73901">
        <ele>31</ele>
        <time>2017-07-30T08:05:53Z</time>
      </trkpt>
      <trkpt lat="44.8889" lon="-0.739">
        <ele>31</ele>
        <time>2017-07-30T08:05:55Z</time>
      </trkpt>
      <trkpt lat="44.88879" lon="-0.73902">
        <ele>30</ele>
        <time>2017-07-30T08:05:57Z</time>
      </trkpt>
      <trkpt lat="44.88869" lon="-0.73903">
        <ele>30</ele>
        <time>2017-07-30T08:05:59Z</time>
      </trkpt>
      <trkpt lat="44.88857" lon="-0.73904">
        <ele>30</ele>
        <time>2017-07-30T08:06:00Z</time>
      </trkpt>
      <trkpt lat="44.88845" lon="-0.73906">
        <ele>30</ele>
        <time>2017-07-30T08:06:02Z</time>
      </trkpt>
      <trkpt lat="44.88838" lon="-0.73909">
        <ele>29</ele>
        <time>2017-07-30T08:06:04Z</time>
      </trkpt>
      <trkpt lat="44.88833" lon="-0.73917">
        <ele>29</ele>
        <time>2017-07-30T08:06:06Z</time>
      </trkpt>
      <trkpt lat="44.88826" lon="-0.73922">
        <ele>29</ele>
        <time>2017-07-30T08:06:08Z</time>
      </trkpt>
      <trkpt lat="44.88819" lon="-0.73928">
        <ele>28</ele>
        <time>2017-07-30T08:06:10Z</time>
      </trkpt>
      <trkpt lat="44.88815" lon="-0.73935">
        <ele>28</ele>
        <time>2017-07-30T08:06:12Z</time>
      </trkpt>
      <trkpt lat="44.8881" lon="-0.73947">
        <ele>28</ele>
        <time>2017-07-30T08:06:14Z</time>
      </trkpt>
      <trkpt lat="44.88803" lon="-0.73953">
        <ele>28</ele>
        <time>2017-07-30T08:06:16Z</time>
      </trkpt>
      <trkpt lat="44.88796" lon="-0.73961">
        <ele>28</ele>
        <time>2017-07-30T08:06:18Z</time>
      </trkpt>
      <trkpt lat="44.8879" lon="-0.73972">
        <ele>28</ele>
        <time>2017-07-30T08:06:20Z</time>
      </trkpt>
      <trkpt lat="44.88783" lon="-0.73978">
        <ele>28</ele>
        <time>2017-07-30T08:06:22Z</time>
      </trkpt>
      <trkpt lat="44.88777" lon="-0.73984">
        <ele>28</ele>
        <time>2017-07-30T08:06:24Z</time>
      </trkpt>
      <trkpt lat="44.8877" lon="-0.73991">
        <ele>28</ele>
        <time>2017-07-30T08:06:26Z</time>
      </trkpt>
      <trkpt lat="44.88763" lon="-0.74003">
        <ele>28</ele>
        <time>2017-07-30T08:06:28Z</time>
      </trkpt>
      <trkpt lat="44.88754" lon="-0.74014">
        <ele>28</ele>
        <time>2017-07-30T08:06:30Z</time>
      </trkpt>
      <trkpt lat="44.88748" lon="-0.74024">
        <ele>27</ele>
        <time>2017-07-30T08:06:32Z</time>
      </trkpt>
      <trkpt lat="44.88741" lon="-0.74031">
        <ele>27</ele>
        <time>2017-07-30T08:06:34Z</time>
      </trkpt>
      <trkpt lat="44.88737" lon="-0.74043">
        <ele>27</ele>
        <time>2017-07-30T08:06:36Z</time>
      </trkpt>
      <trkpt lat="44.88728" lon="-0.7405">
        <ele>27</ele>
        <time>2017-07-30T08:06:38Z</time>
      </trkpt>
      <trkpt lat="44.88721" lon="-0.74052">
        <ele>27</ele>
        <time>2017-07-30T08:06:40Z</time>
      </trkpt>
      <trkpt lat="44.88717" lon="-0.74061">
        <ele>27</ele>
        <time>2017-07-30T08:06:42Z</time>
      </trkpt>
      <trkpt lat="44.88717" lon="-0.74068">
        <ele>27</ele>
        <time>2017-07-30T08:06:44Z</time>
      </trkpt>
      <trkpt lat="44.88714" lon="-0.74077">
        <ele>27</ele>
        <time>2017-07-30T08:06:46Z</time>
      </trkpt>
      <trkpt lat="44.88709" lon="-0.74086">
        <ele>27</ele>
        <time>2017-07-30T08:06:48Z</time>
      </trkpt>
      <trkpt lat="44.88706" lon="-0.74097">
        <ele>27</ele>
        <time>2017-07-30T08:06:50Z</time>
      </trkpt>
      <trkpt lat="44.88706" lon="-0.74111">
        <ele>27</ele>
        <time>2017-07-30T08:06:52Z</time>
      </trkpt>
      <trkpt lat="44.88706" lon="-0.74125">
        <ele>27</ele>
        <time>2017-07-30T08:06:54Z</time>
      </trkpt>
      <trkpt lat="44.88708" lon="-0.74134">
        <ele>28</ele>
        <time>2017-07-30T08:06:56Z</time>
      </trkpt>
      <trkpt lat="44.88702" lon="-0.7414">
        <ele>28</ele>
        <time>2017-07-30T08:06:58Z</time>
      </trkpt>
      <trkpt lat="44.88696" lon="-0.74137">
        <ele>27</ele>
        <time>2017-07-30T08:07:00Z</time>
      </trkpt>
      <trkpt lat="44.88688" lon="-0.74134">
        <ele>27</ele>
        <time>2017-07-30T08:07:02Z</time>
      </trkpt>
      <trkpt lat="44.8868" lon="-0.74138">
        <ele>27</ele>
        <time>2017-07-30T08:07:04Z</time>
      </trkpt>
      <trkpt lat="44.88672" lon="-0.74143">
        <ele>27</ele>
        <time>2017-07-30T08:07:06Z</time>
      </trkpt>
      <trkpt lat="44.88663" lon="-0.74146">
        <ele>27</ele>
        <time>2017-07-30T08:07:08Z</time>
      </trkpt>
      <trkpt lat="44.88653" lon="-0.74151">
        <ele>27</ele>
        <time>2017-07-30T08:07:10Z</time>
      </trkpt>
      <trkpt lat="44.88645" lon="-0.74156">
        <ele>27</ele>
        <time>2017-07-30T08:07:12Z</time>
      </trkpt>
      <trkpt lat="44.88637" lon="-0.74164">
        <ele>27</ele>
        <time>2017-07-30T08:07:14Z</time>
      </trkpt>
      <trkpt lat="44.8863" lon="-0.74175">
        <ele>28</ele>
        <time>2017-07-30T08:07:16Z</time>
      </trkpt>
      <trkpt lat="44.88624" lon="-0.74185">
        <ele>27</ele>
        <time>2017-07-30T08:07:18Z</time>
      </trkpt>
      <trkpt lat="44.88618" lon="-0.74194">
        <ele>27</ele>
        <time>2017-07-30T08:07:20Z</time>
      </trkpt>
      <trkpt lat="44.88608" lon="-0.74203">
        <ele>27</ele>
        <time>2017-07-30T08:07:22Z</time>
      </trkpt>
      <trkpt lat="44.886" lon="-0.74212">
        <ele>27</ele>
        <time>2017-07-30T08:07:24Z</time>
      </trkpt>
      <trkpt lat="44.88592" lon="-0.74225">
        <ele>27</ele>
        <time>2017-07-30T08:07:26Z</time>
      </trkpt>
      <trkpt lat="44.88586" lon="-0.74238">
        <ele>27</ele>
        <time>2017-07-30T08:07:28Z</time>
      </trkpt>
      <trkpt lat="44.88578" lon="-0.74248">
        <ele>26</ele>
        <time>2017-07-30T08:07:30Z</time>
      </trkpt>
      <trkpt lat="44.88571" lon="-0.7426">
        <ele>26</ele>
        <time>2017-07-30T08:07:32Z</time>
      </trkpt>
      <trkpt lat="44.88563" lon="-0.74271">
        <ele>26</ele>
        <time>2017-07-30T08:07:34Z</time>
      </trkpt>
      <trkpt lat="44.88555" lon="-0.74283">
        <ele>26</ele>
        <time>2017-07-30T08:07:36Z</time>
      </trkpt>
      <trkpt lat="44.88547" lon="-0.74295">
        <ele>26</ele>
        <time>2017-07-30T08:07:38Z</time>
      </trkpt>
      <trkpt lat="44.88538" lon="-0.74307">
        <ele>26</ele>
        <time>2017-07-30T08:07:40Z</time>
      </trkpt>
      <trkpt lat="44.88529" lon="-0.7432">
        <ele>26</ele>
        <time>2017-07-30T08:07:42Z</time>
      </trkpt>
      <trkpt lat="44.8852" lon="-0.74332">
        <ele>26</ele>
        <time>2017-07-30T08:07:44Z</time>
      </trkpt>
      <trkpt lat="44.8851" lon="-0.74344">
        <ele>27</ele>
        <time>2017-07-30T08:07:46Z</time>
      </trkpt>
      <trkpt lat="44.88501" lon="-0.74356">
        <ele>28</ele>
        <time>2017-07-30T08:07:48Z</time>
      </trkpt>
      <trkpt lat="44.88492" lon="-0.74367">
        <ele>27</ele>
        <time>2017-07-30T08:07:50Z</time>
      </trkpt>
      <trkpt lat="44.88483" lon="-0.7438">
        <ele>28</ele>
        <time>2017-07-30T08:07:52Z</time>
      </trkpt>
      <trkpt lat="44.88474" lon="-0.74391">
        <ele>28</ele>
        <time>2017-07-30T08:07:54Z</time>
      </trkpt>
      <trkpt lat="44.88465" lon="-0.74405">
        <ele>28</ele>
        <time>2017-07-30T08:07:56Z</time>
      </trkpt>
      <trkpt lat="44.88456" lon="-0.74417">
        <ele>29</ele>
        <time>2017-07-30T08:07:58Z</time>
      </trkpt>
      <trkpt lat="44.88448" lon="-0.74428">
        <ele>29</ele>
        <time>2017-07-30T08:08:00Z</time>
      </trkpt>
      <trkpt lat="44.88439" lon="-0.74439">
        <ele>29</ele>
        <time>2017-07-30T08:08:02Z</time>
      </trkpt>
      <trkpt lat="44.8843" lon="-0.7445">
        <ele>29</ele>
        <time>2017-07-30T08:08:04Z</time>
      </trkpt>
      <trkpt lat="44.8842" lon="-0.74464">
        <ele>29</ele>
        <time>2017-07-30T08:08:06Z</time>
      </trkpt>
      <trkpt lat="44.8841" lon="-0.74476">
        <ele>30</ele>
        <time>2017-07-30T08:08:08Z</time>
      </trkpt>
      <trkpt lat="44.88401" lon="-0.74488">
        <ele>30</ele>
        <time>2017-07-30T08:08:10Z</time>
      </trkpt>
      <trkpt lat="44.88392" lon="-0.74499">
        <ele>30</ele>
        <time>2017-07-30T08:08:12Z</time>
      </trkpt>
      <trkpt lat="44.88384" lon="-0.7451">
        <ele>31</ele>
        <time>2017-07-30T08:08:14Z</time>
      </trkpt>
      <trkpt lat="44.88374" lon="-0.74522">
        <ele>31</ele>
        <time>2017-07-30T08:08:16Z</time>
      </trkpt>
      <trkpt lat="44.88365" lon="-0.74534">
        <ele>31</ele>
        <time>2017-07-30T08:08:18Z</time>
      </trkpt>
      <trkpt lat="44.88357" lon="-0.74545">
        <ele>30</ele>
        <time>2017-07-30T08:08:20Z</time>
      </trkpt>
      <trkpt lat="44.8835" lon="-0.74553">
        <ele>30</ele>
        <time>2017-07-30T08:08:22Z</time>
      </trkpt>
      <trkpt lat="44.88342" lon="-0.74564">
        <ele>30</ele>
        <time>2017-07-30T08:08:24Z</time>
      </trkpt>
      <trkpt lat="44.88334" lon="-0.74575">
        <ele>30</ele>
        <time>2017-07-30T08:08:26Z</time>
      </trkpt>
      <trkpt lat="44.88325" lon="-0.74585">
        <ele>29</ele>
        <time>2017-07-30T08:08:28Z</time>
      </trkpt>
      <trkpt lat="44.88318" lon="-0.74596">
        <ele>29</ele>
        <time>2017-07-30T08:08:30Z</time>
      </trkpt>
      <trkpt lat="44.88309" lon="-0.74607">
        <ele>29</ele>
        <time>2017-07-30T08:08:32Z</time>
      </trkpt>
      <trkpt lat="44.88301" lon="-0.74619">
        <ele>29</ele>
        <time>2017-07-30T08:08:34Z</time>
      </trkpt>
      <trkpt lat="44.88292" lon="-0.74632">
        <ele>29</ele>
        <time>2017-07-30T08:08:36Z</time>
      </trkpt>
      <trkpt lat="44.88282" lon="-0.74644">
        <ele>29</ele>
        <time>2017-07-30T08:08:38Z</time>
      </trkpt>
      <trkpt lat="44.88272" lon="-0.74656">
        <ele>29</ele>
        <time>2017-07-30T08:08:40Z</time>
      </trkpt>
      <trkpt lat="44.88264" lon="-0.74666">
        <ele>28</ele>
        <time>2017-07-30T08:08:42Z</time>
      </trkpt>
      <trkpt lat="44.88256" lon="-0.74678">
        <ele>30</ele>
        <time>2017-07-30T08:08:44Z</time>
      </trkpt>
      <trkpt lat="44.88247" lon="-0.74691">
        <ele>28</ele>
        <time>2017-07-30T08:08:46Z</time>
      </trkpt>
      <trkpt lat="44.88239" lon="-0.74703">
        <ele>29</ele>
        <time>2017-07-30T08:08:48Z</time>
      </trkpt>
      <trkpt lat="44.88231" lon="-0.74715">
        <ele>29</ele>
        <time>2017-07-30T08:08:50Z</time>
      </trkpt>
      <trkpt lat="44.88223" lon="-0.74724">
        <ele>29</ele>
        <time>2017-07-30T08:08:52Z</time>
      </trkpt>
      <trkpt lat="44.88215" lon="-0.74723">
        <ele>29</ele>
        <time>2017-07-30T08:08:54Z</time>
      </trkpt>
      <trkpt lat="44.88214" lon="-0.74716">
        <ele>28</ele>
        <time>2017-07-30T08:08:56Z</time>
      </trkpt>
      <trkpt lat="44.88211" lon="-0.74706">
        <ele>28</ele>
        <time>2017-07-30T08:08:58Z</time>
      </trkpt>
      <trkpt lat="44.88208" lon="-0.74702">
        <ele>28</ele>
        <time>2017-07-30T08:09:00Z</time>
      </trkpt>
      <trkpt lat="44.88206" lon="-0.74695">
        <ele>28</ele>
        <time>2017-07-30T08:09:02Z</time>
      </trkpt>
      <trkpt lat="44.88202" lon="-0.74689">
        <ele>28</ele>
        <time>2017-07-30T08:09:04Z</time>
      </trkpt>
      <trkpt lat="44.88198" lon="-0.74683">
        <ele>28</ele>
        <time>2017-07-30T08:09:06Z</time>
      </trkpt>
      <trkpt lat="44.88195" lon="-0.74672">
        <ele>27</ele>
        <time>2017-07-30T08:09:08Z</time>
      </trkpt>
      <trkpt lat="44.8819" lon="-0.74662">
        <ele>27</ele>
        <time>2017-07-30T08:09:10Z</time>
      </trkpt>
      <trkpt lat="44.88183" lon="-0.74654">
        <ele>27</ele>
        <time>2017-07-30T08:09:12Z</time>
      </trkpt>
      <trkpt lat="44.88174" lon="-0.74647">
        <ele>27</ele>
        <time>2017-07-30T08:09:14Z</time>
      </trkpt>
      <trkpt lat="44.88167" lon="-0.74641">
        <ele>26</ele>
        <time>2017-07-30T08:09:16Z</time>
      </trkpt>
      <trkpt lat="44.88161" lon="-0.74633">
        <ele>26</ele>
        <time>2017-07-30T08:09:18Z</time>
      </trkpt>
      <trkpt lat="44.88153" lon="-0.74622">
        <ele>27</ele>
        <time>2017-07-30T08:09:20Z</time>
      </trkpt>
      <trkpt lat="44.88146" lon="-0.74611">
        <ele>27</ele>
        <time>2017-07-30T08:09:22Z</time>
      </trkpt>
      <trkpt lat="44.88142" lon="-0.74598">
        <ele>27</ele>
        <time>2017-07-30T08:09:24Z</time>
      </trkpt>
      <trkpt lat="44.88133" lon="-0.74592">
        <ele>26</ele>
        <time>2017-07-30T08:09:26Z</time>
      </trkpt>
      <trkpt lat="44.88126" lon="-0.74598">
        <ele>26</ele>
        <time>2017-07-30T08:09:28Z</time>
      </trkpt>
      <trkpt lat="44.88116" lon="-0.746">
        <ele>26</ele>
        <time>2017-07-30T08:09:30Z</time>
      </trkpt>
      <trkpt lat="44.88109" lon="-0.74605">
        <ele>25</ele>
        <time>2017-07-30T08:09:32Z</time>
      </trkpt>
      <trkpt lat="44.88101" lon="-0.74612">
        <ele>25</ele>
        <time>2017-07-30T08:09:36Z</time>
      </trkpt>
      <trkpt lat="44.88097" lon="-0.74619">
        <ele>25</ele>
        <time>2017-07-30T08:09:42Z</time>
      </trkpt>
      <trkpt lat="44.88091" lon="-0.74619">
        <ele>25</ele>
        <time>2017-07-30T08:09:46Z</time>
      </trkpt>
      <trkpt lat="44.88082" lon="-0.74622">
        <ele>24</ele>
        <time>2017-07-30T08:09:50Z</time>
      </trkpt>
      <trkpt lat="44.88078" lon="-0.74629">
        <ele>24</ele>
        <time>2017-07-30T08:09:52Z</time>
      </trkpt>
      <trkpt lat="44.88074" lon="-0.7464">
        <ele>25</ele>
        <time>2017-07-30T08:09:54Z</time>
      </trkpt>
      <trkpt lat="44.88073" lon="-0.74651">
        <ele>25</ele>
        <time>2017-07-30T08:09:56Z</time>
      </trkpt>
      <trkpt lat="44.8807" lon="-0.74663">
        <ele>25</ele>
        <time>2017-07-30T08:09:58Z</time>
      </trkpt>
      <trkpt lat="44.88066" lon="-0.74672">
        <ele>26</ele>
        <time>2017-07-30T08:10:00Z</time>
      </trkpt>
      <trkpt lat="44.8806" lon="-0.7469">
        <ele>26</ele>
        <time>2017-07-30T08:10:10Z</time>
      </trkpt>
      <trkpt lat="44.88056" lon="-0.74703">
        <ele>26</ele>
        <time>2017-07-30T08:10:14Z</time>
      </trkpt>
      <trkpt lat="44.88051" lon="-0.74711">
        <ele>27</ele>
        <time>2017-07-30T08:10:24Z</time>
      </trkpt>
      <trkpt lat="44.88047" lon="-0.74717">
        <ele>27</ele>
        <time>2017-07-30T08:10:26Z</time>
      </trkpt>
      <trkpt lat="44.88043" lon="-0.74723">
        <ele>27</ele>
        <time>2017-07-30T08:10:28Z</time>
      </trkpt>
      <trkpt lat="44.8804" lon="-0.74731">
        <ele>27</ele>
        <time>2017-07-30T08:10:30Z</time>
      </trkpt>
      <trkpt lat="44.88038" lon="-0.74739">
        <ele>27</ele>
        <time>2017-07-30T08:10:32Z</time>
      </trkpt>
      <trkpt lat="44.88039" lon="-0.74746">
        <ele>27</ele>
        <time>2017-07-30T08:10:34Z</time>
      </trkpt>
      <trkpt lat="44.88038" lon="-0.74756">
        <ele>28</ele>
        <time>2017-07-30T08:10:36Z</time>
      </trkpt>
      <trkpt lat="44.88033" lon="-0.74769">
        <ele>28</ele>
        <time>2017-07-30T08:10:40Z</time>
      </trkpt>
      <trkpt lat="44.88031" lon="-0.74777">
        <ele>28</ele>
        <time>2017-07-30T08:10:42Z</time>
      </trkpt>
      <trkpt lat="44.8803" lon="-0.7479">
        <ele>28</ele>
        <time>2017-07-30T08:10:46Z</time>
      </trkpt>
      <trkpt lat="44.88028" lon="-0.74799">
        <ele>28</ele>
        <time>2017-07-30T08:10:48Z</time>
      </trkpt>
      <trkpt lat="44.88026" lon="-0.74814">
        <ele>28</ele>
        <time>2017-07-30T08:11:06Z</time>
      </trkpt>
      <trkpt lat="44.88023" lon="-0.74827">
        <ele>28</ele>
        <time>2017-07-30T08:11:10Z</time>
      </trkpt>
      <trkpt lat="44.8802" lon="-0.74833">
        <ele>28</ele>
        <time>2017-07-30T08:11:12Z</time>
      </trkpt>
      <trkpt lat="44.88018" lon="-0.7484">
        <ele>29</ele>
        <time>2017-07-30T08:11:14Z</time>
      </trkpt>
      <trkpt lat="44.88015" lon="-0.74847">
        <ele>29</ele>
        <time>2017-07-30T08:11:16Z</time>
      </trkpt>
      <trkpt lat="44.88014" lon="-0.74858">
        <ele>29</ele>
        <time>2017-07-30T08:11:18Z</time>
      </trkpt>
      <trkpt lat="44.88013" lon="-0.74868">
        <ele>29</ele>
        <time>2017-07-30T08:11:20Z</time>
      </trkpt>
      <trkpt lat="44.88006" lon="-0.74876">
        <ele>29</ele>
        <time>2017-07-30T08:11:22Z</time>
      </trkpt>
      <trkpt lat="44.88" lon="-0.7489">
        <ele>29</ele>
        <time>2017-07-30T08:11:24Z</time>
      </trkpt>
      <trkpt lat="44.87997" lon="-0.74897">
        <ele>29</ele>
        <time>2017-07-30T08:11:26Z</time>
      </trkpt>
      <trkpt lat="44.87994" lon="-0.74904">
        <ele>29</ele>
        <time>2017-07-30T08:11:28Z</time>
      </trkpt>
      <trkpt lat="44.87991" lon="-0.74917">
        <ele>29</ele>
        <time>2017-07-30T08:11:30Z</time>
      </trkpt>
      <trkpt lat="44.87991" lon="-0.74926">
        <ele>29</ele>
        <time>2017-07-30T08:11:32Z</time>
      </trkpt>
      <trkpt lat="44.8799" lon="-0.74935">
        <ele>29</ele>
        <time>2017-07-30T08:11:34Z</time>
      </trkpt>
      <trkpt lat="44.87989" lon="-0.74942">
        <ele>29</ele>
        <time>2017-07-30T08:11:36Z</time>
      </trkpt>
      <trkpt lat="44.87989" lon="-0.74949">
        <ele>29</ele>
        <time>2017-07-30T08:11:38Z</time>
      </trkpt>
      <trkpt lat="44.8799" lon="-0.74957">
        <ele>29</ele>
        <time>2017-07-30T08:11:40Z</time>
      </trkpt>
      <trkpt lat="44.87984" lon="-0.74966">
        <ele>29</ele>
        <time>2017-07-30T08:11:44Z</time>
      </trkpt>
      <trkpt lat="44.87979" lon="-0.7497">
        <ele>29</ele>
        <time>2017-07-30T08:11:46Z</time>
      </trkpt>
      <trkpt lat="44.87971" lon="-0.74976">
        <ele>29</ele>
        <time>2017-07-30T08:11:48Z</time>
      </trkpt>
      <trkpt lat="44.87964" lon="-0.74981">
        <ele>28</ele>
        <time>2017-07-30T08:11:50Z</time>
      </trkpt>
      <trkpt lat="44.87958" lon="-0.74989">
        <ele>28</ele>
        <time>2017-07-30T08:11:52Z</time>
      </trkpt>
      <trkpt lat="44.87951" lon="-0.74991">
        <ele>28</ele>
        <time>2017-07-30T08:11:54Z</time>
      </trkpt>
      <trkpt lat="44.87945" lon="-0.74995">
        <ele>28</ele>
        <time>2017-07-30T08:11:56Z</time>
      </trkpt>
      <trkpt lat="44.8794" lon="-0.74997">
        <ele>28</ele>
        <time>2017-07-30T08:11:58Z</time>
      </trkpt>
      <trkpt lat="44.87932" lon="-0.74998">
        <ele>28</ele>
        <time>2017-07-30T08:12:00Z</time>
      </trkpt>
      <trkpt lat="44.87925" lon="-0.74999">
        <ele>27</ele>
        <time>2017-07-30T08:12:02Z</time>
      </trkpt>
      <trkpt lat="44.87922" lon="-0.75005">
        <ele>27</ele>
        <time>2017-07-30T08:12:04Z</time>
      </trkpt>
      <trkpt lat="44.87919" lon="-0.7501">
        <ele>27</ele>
        <time>2017-07-30T08:12:06Z</time>
      </trkpt>
      <trkpt lat="44.87915" lon="-0.75023">
        <ele>27</ele>
        <time>2017-07-30T08:12:10Z</time>
      </trkpt>
      <trkpt lat="44.87914" lon="-0.75033">
        <ele>27</ele>
        <time>2017-07-30T08:12:12Z</time>
      </trkpt>
      <trkpt lat="44.87913" lon="-0.75044">
        <ele>28</ele>
        <time>2017-07-30T08:12:14Z</time>
      </trkpt>
      <trkpt lat="44.87914" lon="-0.75058">
        <ele>28</ele>
        <time>2017-07-30T08:12:16Z</time>
      </trkpt>
      <trkpt lat="44.87916" lon="-0.75067">
        <ele>28</ele>
        <time>2017-07-30T08:12:18Z</time>
      </trkpt>
      <trkpt lat="44.8792" lon="-0.75074">
        <ele>28</ele>
        <time>2017-07-30T08:12:20Z</time>
      </trkpt>
      <trkpt lat="44.87922" lon="-0.75082">
        <ele>28</ele>
        <time>2017-07-30T08:12:22Z</time>
      </trkpt>
      <trkpt lat="44.87924" lon="-0.75093">
        <ele>28</ele>
        <time>2017-07-30T08:12:24Z</time>
      </trkpt>
      <trkpt lat="44.87925" lon="-0.75107">
        <ele>28</ele>
        <time>2017-07-30T08:12:26Z</time>
      </trkpt>
      <trkpt lat="44.87923" lon="-0.75116">
        <ele>27</ele>
        <time>2017-07-30T08:12:28Z</time>
      </trkpt>
      <trkpt lat="44.87915" lon="-0.75124">
        <ele>27</ele>
        <time>2017-07-30T08:12:30Z</time>
      </trkpt>
      <trkpt lat="44.8791" lon="-0.75135">
        <ele>27</ele>
        <time>2017-07-30T08:12:32Z</time>
      </trkpt>
      <trkpt lat="44.87904" lon="-0.75145">
        <ele>27</ele>
        <time>2017-07-30T08:12:34Z</time>
      </trkpt>
      <trkpt lat="44.87899" lon="-0.75153">
        <ele>27</ele>
        <time>2017-07-30T08:12:36Z</time>
      </trkpt>
      <trkpt lat="44.87892" lon="-0.75158">
        <ele>27</ele>
        <time>2017-07-30T08:12:38Z</time>
      </trkpt>
      <trkpt lat="44.87887" lon="-0.75164">
        <ele>27</ele>
        <time>2017-07-30T08:12:40Z</time>
      </trkpt>
      <trkpt lat="44.87884" lon="-0.75167">
        <ele>27</ele>
        <time>2017-07-30T08:12:42Z</time>
      </trkpt>
      <trkpt lat="44.87883" lon="-0.75202">
        <ele>28</ele>
        <time>2017-07-30T08:13:02Z</time>
      </trkpt>
      <trkpt lat="44.87887" lon="-0.75209">
        <ele>28</ele>
        <time>2017-07-30T08:13:04Z</time>
      </trkpt>
      <trkpt lat="44.87891" lon="-0.75214">
        <ele>28</ele>
        <time>2017-07-30T08:13:06Z</time>
      </trkpt>
      <trkpt lat="44.87896" lon="-0.75222">
        <ele>29</ele>
        <time>2017-07-30T08:13:08Z</time>
      </trkpt>
      <trkpt lat="44.87899" lon="-0.75228">
        <ele>29</ele>
        <time>2017-07-30T08:13:10Z</time>
      </trkpt>
      <trkpt lat="44.87905" lon="-0.75245">
        <ele>30</ele>
        <time>2017-07-30T08:13:20Z</time>
      </trkpt>
      <trkpt lat="44.8791" lon="-0.75259">
        <ele>30</ele>
        <time>2017-07-30T08:13:24Z</time>
      </trkpt>
      <trkpt lat="44.87916" lon="-0.75267">
        <ele>30</ele>
        <time>2017-07-30T08:13:26Z</time>
      </trkpt>
      <trkpt lat="44.87923" lon="-0.7527">
        <ele>32</ele>
        <time>2017-07-30T08:13:28Z</time>
      </trkpt>
      <trkpt lat="44.8793" lon="-0.75265">
        <ele>32</ele>
        <time>2017-07-30T08:13:30Z</time>
      </trkpt>
      <trkpt lat="44.87939" lon="-0.75264">
        <ele>32</ele>
        <time>2017-07-30T08:13:32Z</time>
      </trkpt>
      <trkpt lat="44.87948" lon="-0.75261">
        <ele>33</ele>
        <time>2017-07-30T08:13:34Z</time>
      </trkpt>
      <trkpt lat="44.87953" lon="-0.75254">
        <ele>33</ele>
        <time>2017-07-30T08:13:36Z</time>
      </trkpt>
      <trkpt lat="44.87958" lon="-0.75245">
        <ele>31</ele>
        <time>2017-07-30T08:13:38Z</time>
      </trkpt>
      <trkpt lat="44.87962" lon="-0.75238">
        <ele>31</ele>
        <time>2017-07-30T08:13:40Z</time>
      </trkpt>
      <trkpt lat="44.87966" lon="-0.75233">
        <ele>31</ele>
        <time>2017-07-30T08:13:42Z</time>
      </trkpt>
      <trkpt lat="44.87973" lon="-0.75225">
        <ele>31</ele>
        <time>2017-07-30T08:13:46Z</time>
      </trkpt>
      <trkpt lat="44.87976" lon="-0.75218">
        <ele>31</ele>
        <time>2017-07-30T08:13:48Z</time>
      </trkpt>
      <trkpt lat="44.87981" lon="-0.75211">
        <ele>30</ele>
        <time>2017-07-30T08:13:50Z</time>
      </trkpt>
      <trkpt lat="44.87987" lon="-0.75204">
        <ele>30</ele>
        <time>2017-07-30T08:13:52Z</time>
      </trkpt>
      <trkpt lat="44.87995" lon="-0.75202">
        <ele>30</ele>
        <time>2017-07-30T08:13:54Z</time>
      </trkpt>
      <trkpt lat="44.88001" lon="-0.75204">
        <ele>31</ele>
        <time>2017-07-30T08:13:56Z</time>
      </trkpt>
      <trkpt lat="44.88007" lon="-0.75205">
        <ele>31</ele>
        <time>2017-07-30T08:13:58Z</time>
      </trkpt>
      <trkpt lat="44.88015" lon="-0.75209">
        <ele>31</ele>
        <time>2017-07-30T08:14:00Z</time>
      </trkpt>
      <trkpt lat="44.88022" lon="-0.75215">
        <ele>31</ele>
        <time>2017-07-30T08:14:02Z</time>
      </trkpt>
      <trkpt lat="44.8803" lon="-0.75217">
        <ele>31</ele>
        <time>2017-07-30T08:14:04Z</time>
      </trkpt>
      <trkpt lat="44.88035" lon="-0.75224">
        <ele>31</ele>
        <time>2017-07-30T08:14:06Z</time>
      </trkpt>
      <trkpt lat="44.88041" lon="-0.75229">
        <ele>31</ele>
        <time>2017-07-30T08:14:08Z</time>
      </trkpt>
      <trkpt lat="44.88049" lon="-0.75231">
        <ele>31</ele>
        <time>2017-07-30T08:14:10Z</time>
      </trkpt>
      <trkpt lat="44.88057" lon="-0.75235">
        <ele>31</ele>
        <time>2017-07-30T08:14:12Z</time>
      </trkpt>
      <trkpt lat="44.88065" lon="-0.75242">
        <ele>31</ele>
        <time>2017-07-30T08:14:14Z</time>
      </trkpt>
      <trkpt lat="44.8807" lon="-0.75246">
        <ele>31</ele>
        <time>2017-07-30T08:14:16Z</time>
      </trkpt>
      <trkpt lat="44.88079" lon="-0.75248">
        <ele>31</ele>
        <time>2017-07-30T08:14:20Z</time>
      </trkpt>
      <trkpt lat="44.88085" lon="-0.75246">
        <ele>31</ele>
        <time>2017-07-30T08:14:22Z</time>
      </trkpt>
      <trkpt lat="44.88092" lon="-0.75245">
        <ele>30</ele>
        <time>2017-07-30T08:14:24Z</time>
      </trkpt>
      <trkpt lat="44.88098" lon="-0.75245">
        <ele>30</ele>
        <time>2017-07-30T08:14:26Z</time>
      </trkpt>
      <trkpt lat="44.88106" lon="-0.75246">
        <ele>30</ele>
        <time>2017-07-30T08:14:28Z</time>
      </trkpt>
      <trkpt lat="44.88114" lon="-0.7525">
        <ele>31</ele>
        <time>2017-07-30T08:14:30Z</time>
      </trkpt>
      <trkpt lat="44.88118" lon="-0.75257">
        <ele>31</ele>
        <time>2017-07-30T08:14:32Z</time>
      </trkpt>
      <trkpt lat="44.88122" lon="-0.75266">
        <ele>31</ele>
        <time>2017-07-30T08:14:34Z</time>
      </trkpt>
      <trkpt lat="44.88125" lon="-0.75279">
        <ele>31</ele>
        <time>2017-07-30T08:14:36Z</time>
      </trkpt>
      <trkpt lat="44.88125" lon="-0.75289">
        <ele>31</ele>
        <time>2017-07-30T08:14:38Z</time>
      </trkpt>
      <trkpt lat="44.88127" lon="-0.75298">
        <ele>31</ele>
        <time>2017-07-30T08:14:40Z</time>
      </trkpt>
      <trkpt lat="44.8813" lon="-0.75308">
        <ele>31</ele>
        <time>2017-07-30T08:14:42Z</time>
      </trkpt>
      <trkpt lat="44.88129" lon="-0.75317">
        <ele>31</ele>
        <time>2017-07-30T08:14:44Z</time>
      </trkpt>
      <trkpt lat="44.88126" lon="-0.75329">
        <ele>31</ele>
        <time>2017-07-30T08:14:48Z</time>
      </trkpt>
      <trkpt lat="44.88124" lon="-0.75338">
        <ele>31</ele>
        <time>2017-07-30T08:14:50Z</time>
      </trkpt>
      <trkpt lat="44.88123" lon="-0.75345">
        <ele>31</ele>
        <time>2017-07-30T08:14:52Z</time>
      </trkpt>
      <trkpt lat="44.88124" lon="-0.75354">
        <ele>31</ele>
        <time>2017-07-30T08:14:54Z</time>
      </trkpt>
      <trkpt lat="44.88125" lon="-0.75365">
        <ele>31</ele>
        <time>2017-07-30T08:14:56Z</time>
      </trkpt>
      <trkpt lat="44.8812" lon="-0.75374">
        <ele>31</ele>
        <time>2017-07-30T08:14:58Z</time>
      </trkpt>
      <trkpt lat="44.88122" lon="-0.75383">
        <ele>31</ele>
        <time>2017-07-30T08:15:00Z</time>
      </trkpt>
      <trkpt lat="44.88116" lon="-0.75392">
        <ele>32</ele>
        <time>2017-07-30T08:15:02Z</time>
      </trkpt>
      <trkpt lat="44.88115" lon="-0.75402">
        <ele>32</ele>
        <time>2017-07-30T08:15:04Z</time>
      </trkpt>
      <trkpt lat="44.88114" lon="-0.75408">
        <ele>32</ele>
        <time>2017-07-30T08:15:06Z</time>
      </trkpt>
      <trkpt lat="44.88117" lon="-0.75419">
        <ele>31</ele>
        <time>2017-07-30T08:15:08Z</time>
      </trkpt>
      <trkpt lat="44.88119" lon="-0.75434">
        <ele>31</ele>
        <time>2017-07-30T08:15:10Z</time>
      </trkpt>
      <trkpt lat="44.88115" lon="-0.75444">
        <ele>31</ele>
        <time>2017-07-30T08:15:12Z</time>
      </trkpt>
      <trkpt lat="44.88116" lon="-0.75459">
        <ele>30</ele>
        <time>2017-07-30T08:15:14Z</time>
      </trkpt>
      <trkpt lat="44.88113" lon="-0.75471">
        <ele>30</ele>
        <time>2017-07-30T08:15:16Z</time>
      </trkpt>
      <trkpt lat="44.88111" lon="-0.75484">
        <ele>30</ele>
        <time>2017-07-30T08:15:18Z</time>
      </trkpt>
      <trkpt lat="44.88108" lon="-0.75494">
        <ele>30</ele>
        <time>2017-07-30T08:15:20Z</time>
      </trkpt>
      <trkpt lat="44.88106" lon="-0.75501">
        <ele>30</ele>
        <time>2017-07-30T08:15:22Z</time>
      </trkpt>
      <trkpt lat="44.88102" lon="-0.75509">
        <ele>30</ele>
        <time>2017-07-30T08:15:24Z</time>
      </trkpt>
      <trkpt lat="44.88103" lon="-0.75518">
        <ele>30</ele>
        <time>2017-07-30T08:15:26Z</time>
      </trkpt>
      <trkpt lat="44.88106" lon="-0.75528">
        <ele>30</ele>
        <time>2017-07-30T08:15:28Z</time>
      </trkpt>
      <trkpt lat="44.88109" lon="-0.7554">
        <ele>30</ele>
        <time>2017-07-30T08:15:30Z</time>
      </trkpt>
      <trkpt lat="44.88111" lon="-0.75552">
        <ele>30</ele>
        <time>2017-07-30T08:15:32Z</time>
      </trkpt>
      <trkpt lat="44.88116" lon="-0.75557">
        <ele>30</ele>
        <time>2017-07-30T08:15:34Z</time>
      </trkpt>
      <trkpt lat="44.88122" lon="-0.75567">
        <ele>30</ele>
        <time>2017-07-30T08:15:36Z</time>
      </trkpt>
      <trkpt lat="44.88126" lon="-0.75577">
        <ele>30</ele>
        <time>2017-07-30T08:15:38Z</time>
      </trkpt>
      <trkpt lat="44.88129" lon="-0.75588">
        <ele>31</ele>
        <time>2017-07-30T08:15:40Z</time>
      </trkpt>
      <trkpt lat="44.88135" lon="-0.75599">
        <ele>31</ele>
        <time>2017-07-30T08:15:42Z</time>
      </trkpt>
      <trkpt lat="44.88139" lon="-0.75608">
        <ele>31</ele>
        <time>2017-07-30T08:15:44Z</time>
      </trkpt>
      <trkpt lat="44.88141" lon="-0.75617">
        <ele>31</ele>
        <time>2017-07-30T08:15:46Z</time>
      </trkpt>
      <trkpt lat="44.88142" lon="-0.75628">
        <ele>31</ele>
        <time>2017-07-30T08:15:48Z</time>
      </trkpt>
      <trkpt lat="44.88142" lon="-0.75635">
        <ele>31</ele>
        <time>2017-07-30T08:15:50Z</time>
      </trkpt>
      <trkpt lat="44.88143" lon="-0.75645">
        <ele>31</ele>
        <time>2017-07-30T08:15:54Z</time>
      </trkpt>
      <trkpt lat="44.88148" lon="-0.75654">
        <ele>31</ele>
        <time>2017-07-30T08:15:58Z</time>
      </trkpt>
      <trkpt lat="44.88154" lon="-0.75664">
        <ele>31</ele>
        <time>2017-07-30T08:16:02Z</time>
      </trkpt>
      <trkpt lat="44.88162" lon="-0.75669">
        <ele>31</ele>
        <time>2017-07-30T08:16:04Z</time>
      </trkpt>
      <trkpt lat="44.88167" lon="-0.75676">
        <ele>31</ele>
        <time>2017-07-30T08:16:06Z</time>
      </trkpt>
      <trkpt lat="44.88168" lon="-0.75689">
        <ele>32</ele>
        <time>2017-07-30T08:16:10Z</time>
      </trkpt>
      <trkpt lat="44.88168" lon="-0.75695">
        <ele>32</ele>
        <time>2017-07-30T08:16:12Z</time>
      </trkpt>
      <trkpt lat="44.88167" lon="-0.75703">
        <ele>32</ele>
        <time>2017-07-30T08:16:14Z</time>
      </trkpt>
      <trkpt lat="44.88168" lon="-0.75712">
        <ele>32</ele>
        <time>2017-07-30T08:16:16Z</time>
      </trkpt>
      <trkpt lat="44.88171" lon="-0.75726">
        <ele>32</ele>
        <time>2017-07-30T08:16:18Z</time>
      </trkpt>
      <trkpt lat="44.8817" lon="-0.75743">
        <ele>33</ele>
        <time>2017-07-30T08:16:20Z</time>
      </trkpt>
      <trkpt lat="44.88172" lon="-0.75759">
        <ele>33</ele>
        <time>2017-07-30T08:16:22Z</time>
      </trkpt>
      <trkpt lat="44.88171" lon="-0.75772">
        <ele>33</ele>
        <time>2017-07-30T08:16:24Z</time>
      </trkpt>
      <trkpt lat="44.88169" lon="-0.75779">
        <ele>33</ele>
        <time>2017-07-30T08:16:26Z</time>
      </trkpt>
      <trkpt lat="44.8817" lon="-0.75788">
        <ele>33</ele>
        <time>2017-07-30T08:16:28Z</time>
      </trkpt>
      <trkpt lat="44.88169" lon="-0.75795">
        <ele>34</ele>
        <time>2017-07-30T08:16:30Z</time>
      </trkpt>
      <trkpt lat="44.88165" lon="-0.7581">
        <ele>34</ele>
        <time>2017-07-30T08:16:34Z</time>
      </trkpt>
      <trkpt lat="44.88164" lon="-0.75824">
        <ele>34</ele>
        <time>2017-07-30T08:16:36Z</time>
      </trkpt>
      <trkpt lat="44.88165" lon="-0.7584">
        <ele>34</ele>
        <time>2017-07-30T08:16:38Z</time>
      </trkpt>
      <trkpt lat="44.88164" lon="-0.75851">
        <ele>34</ele>
        <time>2017-07-30T08:16:40Z</time>
      </trkpt>
      <trkpt lat="44.88166" lon="-0.75864">
        <ele>33</ele>
        <time>2017-07-30T08:16:42Z</time>
      </trkpt>
      <trkpt lat="44.88172" lon="-0.75877">
        <ele>33</ele>
        <time>2017-07-30T08:16:44Z</time>
      </trkpt>
      <trkpt lat="44.88173" lon="-0.75888">
        <ele>33</ele>
        <time>2017-07-30T08:16:46Z</time>
      </trkpt>
      <trkpt lat="44.88176" lon="-0.75903">
        <ele>33</ele>
        <time>2017-07-30T08:16:50Z</time>
      </trkpt>
      <trkpt lat="44.8818" lon="-0.75916">
        <ele>32</ele>
        <time>2017-07-30T08:16:54Z</time>
      </trkpt>
      <trkpt lat="44.88186" lon="-0.75923">
        <ele>32</ele>
        <time>2017-07-30T08:16:56Z</time>
      </trkpt>
      <trkpt lat="44.88192" lon="-0.75935">
        <ele>32</ele>
        <time>2017-07-30T08:16:58Z</time>
      </trkpt>
      <trkpt lat="44.88199" lon="-0.75946">
        <ele>32</ele>
        <time>2017-07-30T08:17:00Z</time>
      </trkpt>
      <trkpt lat="44.88206" lon="-0.75949">
        <ele>32</ele>
        <time>2017-07-30T08:17:02Z</time>
      </trkpt>
      <trkpt lat="44.88214" lon="-0.7595">
        <ele>32</ele>
        <time>2017-07-30T08:17:04Z</time>
      </trkpt>
      <trkpt lat="44.88224" lon="-0.75949">
        <ele>32</ele>
        <time>2017-07-30T08:17:06Z</time>
      </trkpt>
      <trkpt lat="44.88234" lon="-0.75956">
        <ele>32</ele>
        <time>2017-07-30T08:17:08Z</time>
      </trkpt>
      <trkpt lat="44.8824" lon="-0.75965">
        <ele>33</ele>
        <time>2017-07-30T08:17:10Z</time>
      </trkpt>
      <trkpt lat="44.88246" lon="-0.75966">
        <ele>33</ele>
        <time>2017-07-30T08:17:12Z</time>
      </trkpt>
      <trkpt lat="44.88251" lon="-0.75963">
        <ele>33</ele>
        <time>2017-07-30T08:17:16Z</time>
      </trkpt>
      <trkpt lat="44.88257" lon="-0.75962">
        <ele>33</ele>
        <time>2017-07-30T08:17:20Z</time>
      </trkpt>
      <trkpt lat="44.88263" lon="-0.75962">
        <ele>33</ele>
        <time>2017-07-30T08:17:26Z</time>
      </trkpt>
      <trkpt lat="44.88268" lon="-0.75959">
        <ele>33</ele>
        <time>2017-07-30T08:17:28Z</time>
      </trkpt>
      <trkpt lat="44.88275" lon="-0.75959">
        <ele>33</ele>
        <time>2017-07-30T08:17:32Z</time>
      </trkpt>
      <trkpt lat="44.8828" lon="-0.7596">
        <ele>32</ele>
        <time>2017-07-30T08:17:34Z</time>
      </trkpt>
      <trkpt lat="44.88284" lon="-0.75966">
        <ele>32</ele>
        <time>2017-07-30T08:17:36Z</time>
      </trkpt>
      <trkpt lat="44.88287" lon="-0.75972">
        <ele>32</ele>
        <time>2017-07-30T08:17:38Z</time>
      </trkpt>
      <trkpt lat="44.88286" lon="-0.75965">
        <ele>32</ele>
        <time>2017-07-30T08:17:44Z</time>
      </trkpt>
      <trkpt lat="44.88284" lon="-0.75959">
        <ele>32</ele>
        <time>2017-07-30T08:17:52Z</time>
      </trkpt>
      <trkpt lat="44.88281" lon="-0.75965">
        <ele>32</ele>
        <time>2017-07-30T08:18:08Z</time>
      </trkpt>
      <trkpt lat="44.88279" lon="-0.75975">
        <ele>32</ele>
        <time>2017-07-30T08:18:12Z</time>
      </trkpt>
      <trkpt lat="44.8828" lon="-0.75982">
        <ele>32</ele>
        <time>2017-07-30T08:18:16Z</time>
      </trkpt>
      <trkpt lat="44.88282" lon="-0.7599">
        <ele>32</ele>
        <time>2017-07-30T08:18:18Z</time>
      </trkpt>
      <trkpt lat="44.88288" lon="-0.75997">
        <ele>32</ele>
        <time>2017-07-30T08:18:20Z</time>
      </trkpt>
      <trkpt lat="44.88296" lon="-0.76">
        <ele>32</ele>
        <time>2017-07-30T08:18:22Z</time>
      </trkpt>
      <trkpt lat="44.88302" lon="-0.76005">
        <ele>32</ele>
        <time>2017-07-30T08:18:24Z</time>
      </trkpt>
      <trkpt lat="44.88305" lon="-0.7601">
        <ele>32</ele>
        <time>2017-07-30T08:18:26Z</time>
      </trkpt>
      <trkpt lat="44.88307" lon="-0.76017">
        <ele>32</ele>
        <time>2017-07-30T08:18:28Z</time>
      </trkpt>
      <trkpt lat="44.88313" lon="-0.76025">
        <ele>32</ele>
        <time>2017-07-30T08:18:30Z</time>
      </trkpt>
      <trkpt lat="44.88319" lon="-0.76036">
        <ele>33</ele>
        <time>2017-07-30T08:18:32Z</time>
      </trkpt>
      <trkpt lat="44.88322" lon="-0.76047">
        <ele>33</ele>
        <time>2017-07-30T08:18:34Z</time>
      </trkpt>
      <trkpt lat="44.88328" lon="-0.76063">
        <ele>33</ele>
        <time>2017-07-30T08:18:36Z</time>
      </trkpt>
      <trkpt lat="44.8833" lon="-0.76073">
        <ele>33</ele>
        <time>2017-07-30T08:18:38Z</time>
      </trkpt>
      <trkpt lat="44.88329" lon="-0.76081">
        <ele>33</ele>
        <time>2017-07-30T08:18:40Z</time>
      </trkpt>
      <trkpt lat="44.88333" lon="-0.76091">
        <ele>33</ele>
        <time>2017-07-30T08:18:42Z</time>
      </trkpt>
      <trkpt lat="44.88338" lon="-0.761">
        <ele>33</ele>
        <time>2017-07-30T08:18:44Z</time>
      </trkpt>
      <trkpt lat="44.88348" lon="-0.76109">
        <ele>33</ele>
        <time>2017-07-30T08:18:48Z</time>
      </trkpt>
      <trkpt lat="44.88349" lon="-0.76127">
        <ele>34</ele>
        <time>2017-07-30T08:18:52Z</time>
      </trkpt>
      <trkpt lat="44.88356" lon="-0.76136">
        <ele>34</ele>
        <time>2017-07-30T08:18:54Z</time>
      </trkpt>
      <trkpt lat="44.88362" lon="-0.76145">
        <ele>34</ele>
        <time>2017-07-30T08:18:56Z</time>
      </trkpt>
      <trkpt lat="44.88363" lon="-0.76151">
        <ele>34</ele>
        <time>2017-07-30T08:18:58Z</time>
      </trkpt>
      <trkpt lat="44.88361" lon="-0.76157">
        <ele>34</ele>
        <time>2017-07-30T08:19:00Z</time>
      </trkpt>
      <trkpt lat="44.88357" lon="-0.76164">
        <ele>34</ele>
        <time>2017-07-30T08:19:02Z</time>
      </trkpt>
      <trkpt lat="44.88352" lon="-0.7616">
        <ele>34</ele>
        <time>2017-07-30T08:19:08Z</time>
      </trkpt>
      <trkpt lat="44.8835" lon="-0.76154">
        <ele>34</ele>
        <time>2017-07-30T08:19:10Z</time>
      </trkpt>
      <trkpt lat="44.88347" lon="-0.76147">
        <ele>34</ele>
        <time>2017-07-30T08:19:14Z</time>
      </trkpt>
      <trkpt lat="44.88346" lon="-0.76135">
        <ele>34</ele>
        <time>2017-07-30T08:19:20Z</time>
      </trkpt>
      <trkpt lat="44.88346" lon="-0.76128">
        <ele>34</ele>
        <time>2017-07-30T08:19:22Z</time>
      </trkpt>
      <trkpt lat="44.88344" lon="-0.7612">
        <ele>33</ele>
        <time>2017-07-30T08:19:24Z</time>
      </trkpt>
      <trkpt lat="44.88342" lon="-0.76113">
        <ele>33</ele>
        <time>2017-07-30T08:19:26Z</time>
      </trkpt>
      <trkpt lat="44.88339" lon="-0.76103">
        <ele>33</ele>
        <time>2017-07-30T08:19:28Z</time>
      </trkpt>
      <trkpt lat="44.88335" lon="-0.76092">
        <ele>33</ele>
        <time>2017-07-30T08:19:30Z</time>
      </trkpt>
      <trkpt lat="44.88332" lon="-0.76082">
        <ele>33</ele>
        <time>2017-07-30T08:19:32Z</time>
      </trkpt>
      <trkpt lat="44.88327" lon="-0.76085">
        <ele>33</ele>
        <time>2017-07-30T08:19:34Z</time>
      </trkpt>
      <trkpt lat="44.88319" lon="-0.76088">
        <ele>33</ele>
        <time>2017-07-30T08:19:38Z</time>
      </trkpt>
      <trkpt lat="44.88317" lon="-0.76094">
        <ele>34</ele>
        <time>2017-07-30T08:19:40Z</time>
      </trkpt>
      <trkpt lat="44.88316" lon="-0.76105">
        <ele>34</ele>
        <time>2017-07-30T08:19:48Z</time>
      </trkpt>
      <trkpt lat="44.88321" lon="-0.76114">
        <ele>34</ele>
        <time>2017-07-30T08:19:50Z</time>
      </trkpt>
      <trkpt lat="44.88325" lon="-0.76122">
        <ele>34</ele>
        <time>2017-07-30T08:19:52Z</time>
      </trkpt>
      <trkpt lat="44.88326" lon="-0.76131">
        <ele>34</ele>
        <time>2017-07-30T08:19:54Z</time>
      </trkpt>
      <trkpt lat="44.88327" lon="-0.76137">
        <ele>34</ele>
        <time>2017-07-30T08:19:56Z</time>
      </trkpt>
      <trkpt lat="44.88327" lon="-0.76144">
        <ele>34</ele>
        <time>2017-07-30T08:19:58Z</time>
      </trkpt>
      <trkpt lat="44.88324" lon="-0.76137">
        <ele>34</ele>
        <time>2017-07-30T08:20:06Z</time>
      </trkpt>
      <trkpt lat="44.8832" lon="-0.76142">
        <ele>34</ele>
        <time>2017-07-30T08:20:08Z</time>
      </trkpt>
      <trkpt lat="44.88322" lon="-0.76152">
        <ele>34</ele>
        <time>2017-07-30T08:20:12Z</time>
      </trkpt>
      <trkpt lat="44.88332" lon="-0.76155">
        <ele>34</ele>
        <time>2017-07-30T08:20:16Z</time>
      </trkpt>
      <trkpt lat="44.88336" lon="-0.76164">
        <ele>34</ele>
        <time>2017-07-30T08:20:18Z</time>
      </trkpt>
      <trkpt lat="44.88333" lon="-0.7617">
        <ele>34</ele>
        <time>2017-07-30T08:20:32Z</time>
      </trkpt>
      <trkpt lat="44.88336" lon="-0.76179">
        <ele>34</ele>
        <time>2017-07-30T08:20:36Z</time>
      </trkpt>
      <trkpt lat="44.88341" lon="-0.76181">
        <ele>34</ele>
        <time>2017-07-30T08:20:40Z</time>
      </trkpt>
      <trkpt lat="44.88346" lon="-0.76186">
        <ele>34</ele>
        <time>2017-07-30T08:20:48Z</time>
      </trkpt>
      <trkpt lat="44.88347" lon="-0.76198">
        <ele>34</ele>
        <time>2017-07-30T08:20:52Z</time>
      </trkpt>
      <trkpt lat="44.88346" lon="-0.76206">
        <ele>34</ele>
        <time>2017-07-30T08:20:54Z</time>
      </trkpt>
      <trkpt lat="44.88343" lon="-0.76213">
        <ele>34</ele>
        <time>2017-07-30T08:20:56Z</time>
      </trkpt>
      <trkpt lat="44.88346" lon="-0.76206">
        <ele>34</ele>
        <time>2017-07-30T08:21:02Z</time>
      </trkpt>
      <trkpt lat="44.88345" lon="-0.76198">
        <ele>34</ele>
        <time>2017-07-30T08:21:04Z</time>
      </trkpt>
      <trkpt lat="44.8834" lon="-0.76199">
        <ele>34</ele>
        <time>2017-07-30T08:21:06Z</time>
      </trkpt>
      <trkpt lat="44.88335" lon="-0.76197">
        <ele>34</ele>
        <time>2017-07-30T08:21:08Z</time>
      </trkpt>
      <trkpt lat="44.88335" lon="-0.76208">
        <ele>34</ele>
        <time>2017-07-30T08:21:14Z</time>
      </trkpt>
      <trkpt lat="44.88336" lon="-0.76214">
        <ele>34</ele>
        <time>2017-07-30T08:21:16Z</time>
      </trkpt>
      <trkpt lat="44.88339" lon="-0.76223">
        <ele>34</ele>
        <time>2017-07-30T08:21:18Z</time>
      </trkpt>
      <trkpt lat="44.88342" lon="-0.76231">
        <ele>34</ele>
        <time>2017-07-30T08:21:20Z</time>
      </trkpt>
      <trkpt lat="44.88344" lon="-0.76237">
        <ele>35</ele>
        <time>2017-07-30T08:21:22Z</time>
      </trkpt>
      <trkpt lat="44.8835" lon="-0.76242">
        <ele>34</ele>
        <time>2017-07-30T08:21:24Z</time>
      </trkpt>
      <trkpt lat="44.88356" lon="-0.76236">
        <ele>34</ele>
        <time>2017-07-30T08:21:28Z</time>
      </trkpt>
      <trkpt lat="44.88364" lon="-0.76235">
        <ele>34</ele>
        <time>2017-07-30T08:21:34Z</time>
      </trkpt>
      <trkpt lat="44.88367" lon="-0.76242">
        <ele>34</ele>
        <time>2017-07-30T08:21:36Z</time>
      </trkpt>
      <trkpt lat="44.88373" lon="-0.76247">
        <ele>34</ele>
        <time>2017-07-30T08:21:38Z</time>
      </trkpt>
      <trkpt lat="44.88378" lon="-0.7625">
        <ele>35</ele>
        <time>2017-07-30T08:21:40Z</time>
      </trkpt>
      <trkpt lat="44.88383" lon="-0.76255">
        <ele>35</ele>
        <time>2017-07-30T08:21:44Z</time>
      </trkpt>
      <trkpt lat="44.88383" lon="-0.76264">
        <ele>35</ele>
        <time>2017-07-30T08:21:48Z</time>
      </trkpt>
      <trkpt lat="44.88379" lon="-0.76255">
        <ele>35</ele>
        <time>2017-07-30T08:21:54Z</time>
      </trkpt>
      <trkpt lat="44.88379" lon="-0.76265">
        <ele>35</ele>
        <time>2017-07-30T08:21:58Z</time>
      </trkpt>
      <trkpt lat="44.88384" lon="-0.7627">
        <ele>35</ele>
        <time>2017-07-30T08:22:00Z</time>
      </trkpt>
      <trkpt lat="44.88389" lon="-0.76276">
        <ele>35</ele>
        <time>2017-07-30T08:22:02Z</time>
      </trkpt>
      <trkpt lat="44.88396" lon="-0.76274">
        <ele>35</ele>
        <time>2017-07-30T08:22:06Z</time>
      </trkpt>
      <trkpt lat="44.88402" lon="-0.76276">
        <ele>35</ele>
        <time>2017-07-30T08:22:08Z</time>
      </trkpt>
      <trkpt lat="44.88397" lon="-0.76282">
        <ele>35</ele>
        <time>2017-07-30T08:22:12Z</time>
      </trkpt>
      <trkpt lat="44.88399" lon="-0.76288">
        <ele>35</ele>
        <time>2017-07-30T08:22:16Z</time>
      </trkpt>
      <trkpt lat="44.88403" lon="-0.7629">
        <ele>35</ele>
        <time>2017-07-30T08:22:20Z</time>
      </trkpt>
      <trkpt lat="44.88402" lon="-0.76296">
        <ele>35</ele>
        <time>2017-07-30T08:22:22Z</time>
      </trkpt>
      <trkpt lat="44.88397" lon="-0.763">
        <ele>35</ele>
        <time>2017-07-30T08:22:24Z</time>
      </trkpt>
      <trkpt lat="44.88395" lon="-0.76308">
        <ele>35</ele>
        <time>2017-07-30T08:22:26Z</time>
      </trkpt>
      <trkpt lat="44.88398" lon="-0.76318">
        <ele>35</ele>
        <time>2017-07-30T08:22:30Z</time>
      </trkpt>
      <trkpt lat="44.88399" lon="-0.76325">
        <ele>35</ele>
        <time>2017-07-30T08:22:32Z</time>
      </trkpt>
      <trkpt lat="44.88407" lon="-0.76324">
        <ele>35</ele>
        <time>2017-07-30T08:22:38Z</time>
      </trkpt>
      <trkpt lat="44.88412" lon="-0.76327">
        <ele>35</ele>
        <time>2017-07-30T08:22:40Z</time>
      </trkpt>
      <trkpt lat="44.88419" lon="-0.76335">
        <ele>35</ele>
        <time>2017-07-30T08:22:42Z</time>
      </trkpt>
      <trkpt lat="44.88423" lon="-0.76341">
        <ele>35</ele>
        <time>2017-07-30T08:22:44Z</time>
      </trkpt>
      <trkpt lat="44.88418" lon="-0.76344">
        <ele>35</ele>
        <time>2017-07-30T08:22:48Z</time>
      </trkpt>
      <trkpt lat="44.88411" lon="-0.76345">
        <ele>35</ele>
        <time>2017-07-30T08:22:50Z</time>
      </trkpt>
      <trkpt lat="44.88405" lon="-0.76341">
        <ele>35</ele>
        <time>2017-07-30T08:22:54Z</time>
      </trkpt>
      <trkpt lat="44.88404" lon="-0.76351">
        <ele>35</ele>
        <time>2017-07-30T08:23:00Z</time>
      </trkpt>
      <trkpt lat="44.88401" lon="-0.76359">
        <ele>35</ele>
        <time>2017-07-30T08:23:02Z</time>
      </trkpt>
      <trkpt lat="44.88402" lon="-0.76369">
        <ele>35</ele>
        <time>2017-07-30T08:23:04Z</time>
      </trkpt>
      <trkpt lat="44.88403" lon="-0.76376">
        <ele>35</ele>
        <time>2017-07-30T08:23:06Z</time>
      </trkpt>
      <trkpt lat="44.88408" lon="-0.76387">
        <ele>35</ele>
        <time>2017-07-30T08:23:10Z</time>
      </trkpt>
      <trkpt lat="44.88414" lon="-0.76387">
        <ele>35</ele>
        <time>2017-07-30T08:23:12Z</time>
      </trkpt>
      <trkpt lat="44.88423" lon="-0.76386">
        <ele>36</ele>
        <time>2017-07-30T08:23:16Z</time>
      </trkpt>
      <trkpt lat="44.8843" lon="-0.7638">
        <ele>36</ele>
        <time>2017-07-30T08:23:20Z</time>
      </trkpt>
      <trkpt lat="44.88436" lon="-0.76383">
        <ele>36</ele>
        <time>2017-07-30T08:23:22Z</time>
      </trkpt>
      <trkpt lat="44.8844" lon="-0.76389">
        <ele>36</ele>
        <time>2017-07-30T08:23:24Z</time>
      </trkpt>
      <trkpt lat="44.88444" lon="-0.76394">
        <ele>36</ele>
        <time>2017-07-30T08:23:26Z</time>
      </trkpt>
      <trkpt lat="44.88448" lon="-0.76401">
        <ele>35</ele>
        <time>2017-07-30T08:23:28Z</time>
      </trkpt>
      <trkpt lat="44.8845" lon="-0.76408">
        <ele>35</ele>
        <time>2017-07-30T08:23:30Z</time>
      </trkpt>
      <trkpt lat="44.88448" lon="-0.76417">
        <ele>34</ele>
        <time>2017-07-30T08:23:34Z</time>
      </trkpt>
      <trkpt lat="44.88443" lon="-0.76412">
        <ele>36</ele>
        <time>2017-07-30T08:23:38Z</time>
      </trkpt>
      <trkpt lat="44.88438" lon="-0.7641">
        <ele>36</ele>
        <time>2017-07-30T08:23:40Z</time>
      </trkpt>
      <trkpt lat="44.88433" lon="-0.76405">
        <ele>36</ele>
        <time>2017-07-30T08:23:42Z</time>
      </trkpt>
      <trkpt lat="44.88427" lon="-0.76405">
        <ele>36</ele>
        <time>2017-07-30T08:23:46Z</time>
      </trkpt>
      <trkpt lat="44.8843" lon="-0.76413">
        <ele>36</ele>
        <time>2017-07-30T08:23:50Z</time>
      </trkpt>
      <trkpt lat="44.88437" lon="-0.76421">
        <ele>35</ele>
        <time>2017-07-30T08:23:52Z</time>
      </trkpt>
      <trkpt lat="44.88438" lon="-0.76433">
        <ele>34</ele>
        <time>2017-07-30T08:23:54Z</time>
      </trkpt>
      <trkpt lat="44.8844" lon="-0.76441">
        <ele>34</ele>
        <time>2017-07-30T08:23:56Z</time>
      </trkpt>
      <trkpt lat="44.88444" lon="-0.76447">
        <ele>34</ele>
        <time>2017-07-30T08:23:58Z</time>
      </trkpt>
      <trkpt lat="44.88445" lon="-0.76454">
        <ele>34</ele>
        <time>2017-07-30T08:24:02Z</time>
      </trkpt>
      <trkpt lat="44.88446" lon="-0.76462">
        <ele>34</ele>
        <time>2017-07-30T08:24:04Z</time>
      </trkpt>
      <trkpt lat="44.88449" lon="-0.76471">
        <ele>34</ele>
        <time>2017-07-30T08:24:06Z</time>
      </trkpt>
      <trkpt lat="44.88451" lon="-0.76479">
        <ele>34</ele>
        <time>2017-07-30T08:24:08Z</time>
      </trkpt>
      <trkpt lat="44.8845" lon="-0.76485">
        <ele>33</ele>
        <time>2017-07-30T08:24:10Z</time>
      </trkpt>
      <trkpt lat="44.8845" lon="-0.76492">
        <ele>33</ele>
        <time>2017-07-30T08:24:12Z</time>
      </trkpt>
      <trkpt lat="44.88452" lon="-0.76503">
        <ele>33</ele>
        <time>2017-07-30T08:24:14Z</time>
      </trkpt>
      <trkpt lat="44.88458" lon="-0.76514">
        <ele>33</ele>
        <time>2017-07-30T08:24:16Z</time>
      </trkpt>
      <trkpt lat="44.88464" lon="-0.76524">
        <ele>33</ele>
        <time>2017-07-30T08:24:18Z</time>
      </trkpt>
      <trkpt lat="44.8847" lon="-0.76534">
        <ele>33</ele>
        <time>2017-07-30T08:24:20Z</time>
      </trkpt>
      <trkpt lat="44.88474" lon="-0.76544">
        <ele>33</ele>
        <time>2017-07-30T08:24:22Z</time>
      </trkpt>
      <trkpt lat="44.88478" lon="-0.76555">
        <ele>33</ele>
        <time>2017-07-30T08:24:24Z</time>
      </trkpt>
      <trkpt lat="44.88484" lon="-0.76568">
        <ele>34</ele>
        <time>2017-07-30T08:24:26Z</time>
      </trkpt>
      <trkpt lat="44.88489" lon="-0.76579">
        <ele>34</ele>
        <time>2017-07-30T08:24:28Z</time>
      </trkpt>
      <trkpt lat="44.88493" lon="-0.76588">
        <ele>34</ele>
        <time>2017-07-30T08:24:30Z</time>
      </trkpt>
      <trkpt lat="44.88499" lon="-0.76597">
        <ele>34</ele>
        <time>2017-07-30T08:24:32Z</time>
      </trkpt>
      <trkpt lat="44.88503" lon="-0.76599">
        <ele>34</ele>
        <time>2017-07-30T08:24:36Z</time>
      </trkpt>
      <trkpt lat="44.88507" lon="-0.76607">
        <ele>34</ele>
        <time>2017-07-30T08:24:38Z</time>
      </trkpt>
      <trkpt lat="44.88509" lon="-0.76616">
        <ele>34</ele>
        <time>2017-07-30T08:24:40Z</time>
      </trkpt>
      <trkpt lat="44.88512" lon="-0.76623">
        <ele>34</ele>
        <time>2017-07-30T08:24:42Z</time>
      </trkpt>
      <trkpt lat="44.88518" lon="-0.76635">
        <ele>34</ele>
        <time>2017-07-30T08:24:46Z</time>
      </trkpt>
      <trkpt lat="44.88526" lon="-0.76632">
        <ele>34</ele>
        <time>2017-07-30T08:24:50Z</time>
      </trkpt>
      <trkpt lat="44.88531" lon="-0.76628">
        <ele>34</ele>
        <time>2017-07-30T08:24:52Z</time>
      </trkpt>
      <trkpt lat="44.88535" lon="-0.7662">
        <ele>34</ele>
        <time>2017-07-30T08:24:54Z</time>
      </trkpt>
      <trkpt lat="44.88534" lon="-0.76613">
        <ele>34</ele>
        <time>2017-07-30T08:24:56Z</time>
      </trkpt>
      <trkpt lat="44.88531" lon="-0.76608">
        <ele>34</ele>
        <time>2017-07-30T08:24:58Z</time>
      </trkpt>
      <trkpt lat="44.88527" lon="-0.76601">
        <ele>34</ele>
        <time>2017-07-30T08:25:00Z</time>
      </trkpt>
      <trkpt lat="44.88526" lon="-0.76588">
        <ele>34</ele>
        <time>2017-07-30T08:25:05Z</time>
      </trkpt>
      <trkpt lat="44.8853" lon="-0.76582">
        <ele>33</ele>
        <time>2017-07-30T08:25:09Z</time>
      </trkpt>
      <trkpt lat="44.88531" lon="-0.76574">
        <ele>33</ele>
        <time>2017-07-30T08:25:11Z</time>
      </trkpt>
      <trkpt lat="44.88525" lon="-0.7656">
        <ele>33</ele>
        <time>2017-07-30T08:25:15Z</time>
      </trkpt>
      <trkpt lat="44.88521" lon="-0.76552">
        <ele>33</ele>
        <time>2017-07-30T08:25:17Z</time>
      </trkpt>
      <trkpt lat="44.88517" lon="-0.76551">
        <ele>33</ele>
        <time>2017-07-30T08:25:19Z</time>
      </trkpt>
      <trkpt lat="44.88512" lon="-0.76547">
        <ele>33</ele>
        <time>2017-07-30T08:25:21Z</time>
      </trkpt>
      <trkpt lat="44.88504" lon="-0.7655">
        <ele>33</ele>
        <time>2017-07-30T08:25:25Z</time>
      </trkpt>
      <trkpt lat="44.88502" lon="-0.76558">
        <ele>33</ele>
        <time>2017-07-30T08:25:27Z</time>
      </trkpt>
      <trkpt lat="44.88497" lon="-0.76563">
        <ele>34</ele>
        <time>2017-07-30T08:25:29Z</time>
      </trkpt>
      <trkpt lat="44.88499" lon="-0.7655">
        <ele>33</ele>
        <time>2017-07-30T08:25:35Z</time>
      </trkpt>
      <trkpt lat="44.88504" lon="-0.76539">
        <ele>33</ele>
        <time>2017-07-30T08:25:37Z</time>
      </trkpt>
      <trkpt lat="44.88506" lon="-0.76531">
        <ele>33</ele>
        <time>2017-07-30T08:25:39Z</time>
      </trkpt>
      <trkpt lat="44.88511" lon="-0.76529">
        <ele>33</ele>
        <time>2017-07-30T08:25:43Z</time>
      </trkpt>
      <trkpt lat="44.88515" lon="-0.76533">
        <ele>33</ele>
        <time>2017-07-30T08:25:45Z</time>
      </trkpt>
      <trkpt lat="44.8852" lon="-0.76531">
        <ele>33</ele>
        <time>2017-07-30T08:25:47Z</time>
      </trkpt>
      <trkpt lat="44.88526" lon="-0.76532">
        <ele>33</ele>
        <time>2017-07-30T08:25:49Z</time>
      </trkpt>
      <trkpt lat="44.88532" lon="-0.76528">
        <ele>33</ele>
        <time>2017-07-30T08:25:51Z</time>
      </trkpt>
      <trkpt lat="44.88538" lon="-0.76529">
        <ele>33</ele>
        <time>2017-07-30T08:25:53Z</time>
      </trkpt>
      <trkpt lat="44.88542" lon="-0.76521">
        <ele>33</ele>
        <time>2017-07-30T08:25:59Z</time>
      </trkpt>
      <trkpt lat="44.88538" lon="-0.76513">
        <ele>33</ele>
        <time>2017-07-30T08:26:03Z</time>
      </trkpt>
      <trkpt lat="44.8853" lon="-0.76515">
        <ele>33</ele>
        <time>2017-07-30T08:26:07Z</time>
      </trkpt>
      <trkpt lat="44.88521" lon="-0.76515">
        <ele>33</ele>
        <time>2017-07-30T08:26:13Z</time>
      </trkpt>
      <trkpt lat="44.88516" lon="-0.76511">
        <ele>33</ele>
        <time>2017-07-30T08:26:15Z</time>
      </trkpt>
      <trkpt lat="44.88509" lon="-0.76507">
        <ele>32</ele>
        <time>2017-07-30T08:26:17Z</time>
      </trkpt>
      <trkpt lat="44.88503" lon="-0.76508">
        <ele>32</ele>
        <time>2017-07-30T08:26:19Z</time>
      </trkpt>
      <trkpt lat="44.88498" lon="-0.7651">
        <ele>32</ele>
        <time>2017-07-30T08:26:21Z</time>
      </trkpt>
      <trkpt lat="44.8849" lon="-0.76511">
        <ele>33</ele>
        <time>2017-07-30T08:26:25Z</time>
      </trkpt>
      <trkpt lat="44.88495" lon="-0.76501">
        <ele>32</ele>
        <time>2017-07-30T08:26:33Z</time>
      </trkpt>
      <trkpt lat="44.88499" lon="-0.76498">
        <ele>32</ele>
        <time>2017-07-30T08:26:37Z</time>
      </trkpt>
      <trkpt lat="44.88504" lon="-0.76497">
        <ele>32</ele>
        <time>2017-07-30T08:26:41Z</time>
      </trkpt>
      <trkpt lat="44.8851" lon="-0.76497">
        <ele>32</ele>
        <time>2017-07-30T08:26:43Z</time>
      </trkpt>
      <trkpt lat="44.88518" lon="-0.76501">
        <ele>32</ele>
        <time>2017-07-30T08:26:47Z</time>
      </trkpt>
      <trkpt lat="44.88522" lon="-0.76496">
        <ele>33</ele>
        <time>2017-07-30T08:26:51Z</time>
      </trkpt>
      <trkpt lat="44.88519" lon="-0.7649">
        <ele>33</ele>
        <time>2017-07-30T08:26:53Z</time>
      </trkpt>
      <trkpt lat="44.88514" lon="-0.76481">
        <ele>33</ele>
        <time>2017-07-30T08:26:57Z</time>
      </trkpt>
      <trkpt lat="44.8851" lon="-0.76476">
        <ele>33</ele>
        <time>2017-07-30T08:26:59Z</time>
      </trkpt>
      <trkpt lat="44.88503" lon="-0.76474">
        <ele>33</ele>
        <time>2017-07-30T08:27:03Z</time>
      </trkpt>
      <trkpt lat="44.88496" lon="-0.76472">
        <ele>33</ele>
        <time>2017-07-30T08:27:05Z</time>
      </trkpt>
      <trkpt lat="44.88493" lon="-0.76466">
        <ele>33</ele>
        <time>2017-07-30T08:27:07Z</time>
      </trkpt>
      <trkpt lat="44.88488" lon="-0.76465">
        <ele>33</ele>
        <time>2017-07-30T08:27:09Z</time>
      </trkpt>
      <trkpt lat="44.88482" lon="-0.76466">
        <ele>33</ele>
        <time>2017-07-30T08:27:13Z</time>
      </trkpt>
      <trkpt lat="44.88479" lon="-0.76456">
        <ele>34</ele>
        <time>2017-07-30T08:27:17Z</time>
      </trkpt>
      <trkpt lat="44.88479" lon="-0.76449">
        <ele>34</ele>
        <time>2017-07-30T08:27:19Z</time>
      </trkpt>
      <trkpt lat="44.88481" lon="-0.76439">
        <ele>34</ele>
        <time>2017-07-30T08:27:21Z</time>
      </trkpt>
      <trkpt lat="44.88482" lon="-0.76431">
        <ele>34</ele>
        <time>2017-07-30T08:27:23Z</time>
      </trkpt>
      <trkpt lat="44.88484" lon="-0.76426">
        <ele>34</ele>
        <time>2017-07-30T08:27:25Z</time>
      </trkpt>
      <trkpt lat="44.88489" lon="-0.76424">
        <ele>34</ele>
        <time>2017-07-30T08:27:27Z</time>
      </trkpt>
      <trkpt lat="44.88495" lon="-0.76427">
        <ele>34</ele>
        <time>2017-07-30T08:27:29Z</time>
      </trkpt>
      <trkpt lat="44.88502" lon="-0.76433">
        <ele>34</ele>
        <time>2017-07-30T08:27:31Z</time>
      </trkpt>
      <trkpt lat="44.88506" lon="-0.76436">
        <ele>33</ele>
        <time>2017-07-30T08:27:33Z</time>
      </trkpt>
      <trkpt lat="44.88505" lon="-0.76445">
        <ele>33</ele>
        <time>2017-07-30T08:27:35Z</time>
      </trkpt>
      <trkpt lat="44.88507" lon="-0.76454">
        <ele>33</ele>
        <time>2017-07-30T08:27:37Z</time>
      </trkpt>
      <trkpt lat="44.88512" lon="-0.76463">
        <ele>33</ele>
        <time>2017-07-30T08:27:39Z</time>
      </trkpt>
      <trkpt lat="44.88517" lon="-0.76472">
        <ele>33</ele>
        <time>2017-07-30T08:27:41Z</time>
      </trkpt>
      <trkpt lat="44.88525" lon="-0.76481">
        <ele>33</ele>
        <time>2017-07-30T08:27:43Z</time>
      </trkpt>
      <trkpt lat="44.8853" lon="-0.7649">
        <ele>33</ele>
        <time>2017-07-30T08:27:45Z</time>
      </trkpt>
      <trkpt lat="44.88536" lon="-0.76493">
        <ele>33</ele>
        <time>2017-07-30T08:27:47Z</time>
      </trkpt>
      <trkpt lat="44.88542" lon="-0.76499">
        <ele>33</ele>
        <time>2017-07-30T08:27:49Z</time>
      </trkpt>
      <trkpt lat="44.88548" lon="-0.76504">
        <ele>33</ele>
        <time>2017-07-30T08:27:51Z</time>
      </trkpt>
      <trkpt lat="44.88558" lon="-0.7651">
        <ele>33</ele>
        <time>2017-07-30T08:27:53Z</time>
      </trkpt>
      <trkpt lat="44.88566" lon="-0.76517">
        <ele>33</ele>
        <time>2017-07-30T08:27:55Z</time>
      </trkpt>
      <trkpt lat="44.88575" lon="-0.76524">
        <ele>33</ele>
        <time>2017-07-30T08:27:57Z</time>
      </trkpt>
      <trkpt lat="44.88578" lon="-0.76535">
        <ele>33</ele>
        <time>2017-07-30T08:27:59Z</time>
      </trkpt>
      <trkpt lat="44.88578" lon="-0.76543">
        <ele>33</ele>
        <time>2017-07-30T08:28:01Z</time>
      </trkpt>
      <trkpt lat="44.88573" lon="-0.76549">
        <ele>33</ele>
        <time>2017-07-30T08:28:03Z</time>
      </trkpt>
      <trkpt lat="44.88569" lon="-0.76554">
        <ele>33</ele>
        <time>2017-07-30T08:28:05Z</time>
      </trkpt>
      <trkpt lat="44.88564" lon="-0.76557">
        <ele>33</ele>
        <time>2017-07-30T08:28:07Z</time>
      </trkpt>
      <trkpt lat="44.88558" lon="-0.7656">
        <ele>33</ele>
        <time>2017-07-30T08:28:09Z</time>
      </trkpt>
      <trkpt lat="44.88553" lon="-0.76564">
        <ele>33</ele>
        <time>2017-07-30T08:28:11Z</time>
      </trkpt>
      <trkpt lat="44.88549" lon="-0.76572">
        <ele>33</ele>
        <time>2017-07-30T08:28:13Z</time>
      </trkpt>
      <trkpt lat="44.88547" lon="-0.76581">
        <ele>33</ele>
        <time>2017-07-30T08:28:15Z</time>
      </trkpt>
      <trkpt lat="44.88545" lon="-0.76588">
        <ele>34</ele>
        <time>2017-07-30T08:28:17Z</time>
      </trkpt>
      <trkpt lat="44.88549" lon="-0.76595">
        <ele>34</ele>
        <time>2017-07-30T08:28:19Z</time>
      </trkpt>
      <trkpt lat="44.88552" lon="-0.76609">
        <ele>34</ele>
        <time>2017-07-30T08:28:21Z</time>
      </trkpt>
      <trkpt lat="44.88552" lon="-0.76618">
        <ele>34</ele>
        <time>2017-07-30T08:28:23Z</time>
      </trkpt>
      <trkpt lat="44.88548" lon="-0.76627">
        <ele>34</ele>
        <time>2017-07-30T08:28:25Z</time>
      </trkpt>
      <trkpt lat="44.88542" lon="-0.76638">
        <ele>34</ele>
        <time>2017-07-30T08:28:27Z</time>
      </trkpt>
      <trkpt lat="44.88541" lon="-0.7665">
        <ele>34</ele>
        <time>2017-07-30T08:28:29Z</time>
      </trkpt>
      <trkpt lat="44.88539" lon="-0.7666">
        <ele>34</ele>
        <time>2017-07-30T08:28:31Z</time>
      </trkpt>
      <trkpt lat="44.88539" lon="-0.7667">
        <ele>34</ele>
        <time>2017-07-30T08:28:33Z</time>
      </trkpt>
      <trkpt lat="44.88537" lon="-0.76679">
        <ele>34</ele>
        <time>2017-07-30T08:28:35Z</time>
      </trkpt>
      <trkpt lat="44.88536" lon="-0.7669">
        <ele>34</ele>
        <time>2017-07-30T08:28:37Z</time>
      </trkpt>
      <trkpt lat="44.8854" lon="-0.76698">
        <ele>33</ele>
        <time>2017-07-30T08:28:39Z</time>
      </trkpt>
      <trkpt lat="44.88549" lon="-0.76702">
        <ele>34</ele>
        <time>2017-07-30T08:28:41Z</time>
      </trkpt>
      <trkpt lat="44.88557" lon="-0.76713">
        <ele>34</ele>
        <time>2017-07-30T08:28:43Z</time>
      </trkpt>
      <trkpt lat="44.88563" lon="-0.76721">
        <ele>34</ele>
        <time>2017-07-30T08:28:45Z</time>
      </trkpt>
      <trkpt lat="44.88569" lon="-0.76726">
        <ele>34</ele>
        <time>2017-07-30T08:28:47Z</time>
      </trkpt>
      <trkpt lat="44.88573" lon="-0.76738">
        <ele>34</ele>
        <time>2017-07-30T08:28:49Z</time>
      </trkpt>
      <trkpt lat="44.88571" lon="-0.76748">
        <ele>34</ele>
        <time>2017-07-30T08:28:51Z</time>
      </trkpt>
      <trkpt lat="44.88576" lon="-0.76759">
        <ele>35</ele>
        <time>2017-07-30T08:28:53Z</time>
      </trkpt>
      <trkpt lat="44.88583" lon="-0.76767">
        <ele>35</ele>
        <time>2017-07-30T08:28:55Z</time>
      </trkpt>
      <trkpt lat="44.88588" lon="-0.7678">
        <ele>37</ele>
        <time>2017-07-30T08:28:57Z</time>
      </trkpt>
      <trkpt lat="44.88594" lon="-0.76792">
        <ele>37</ele>
        <time>2017-07-30T08:28:59Z</time>
      </trkpt>
      <trkpt lat="44.88595" lon="-0.76798">
        <ele>37</ele>
        <time>2017-07-30T08:29:01Z</time>
      </trkpt>
      <trkpt lat="44.88599" lon="-0.76804">
        <ele>37</ele>
        <time>2017-07-30T08:29:03Z</time>
      </trkpt>
      <trkpt lat="44.88604" lon="-0.76812">
        <ele>37</ele>
        <time>2017-07-30T08:29:05Z</time>
      </trkpt>
      <trkpt lat="44.88611" lon="-0.76822">
        <ele>37</ele>
        <time>2017-07-30T08:29:07Z</time>
      </trkpt>
      <trkpt lat="44.88616" lon="-0.76834">
        <ele>38</ele>
        <time>2017-07-30T08:29:09Z</time>
      </trkpt>
      <trkpt lat="44.88619" lon="-0.76843">
        <ele>38</ele>
        <time>2017-07-30T08:29:11Z</time>
      </trkpt>
      <trkpt lat="44.88625" lon="-0.76851">
        <ele>38</ele>
        <time>2017-07-30T08:29:13Z</time>
      </trkpt>
      <trkpt lat="44.88629" lon="-0.7686">
        <ele>38</ele>
        <time>2017-07-30T08:29:15Z</time>
      </trkpt>
      <trkpt lat="44.88633" lon="-0.76868">
        <ele>38</ele>
        <time>2017-07-30T08:29:17Z</time>
      </trkpt>
      <trkpt lat="44.88639" lon="-0.76876">
        <ele>38</ele>
        <time>2017-07-30T08:29:19Z</time>
      </trkpt>
      <trkpt lat="44.88646" lon="-0.76881">
        <ele>38</ele>
        <time>2017-07-30T08:29:21Z</time>
      </trkpt>
      <trkpt lat="44.88654" lon="-0.76887">
        <ele>38</ele>
        <time>2017-07-30T08:29:23Z</time>
      </trkpt>
      <trkpt lat="44.88661" lon="-0.76897">
        <ele>39</ele>
        <time>2017-07-30T08:29:25Z</time>
      </trkpt>
      <trkpt lat="44.88668" lon="-0.76903">
        <ele>39</ele>
        <time>2017-07-30T08:29:27Z</time>
      </trkpt>
      <trkpt lat="44.88674" lon="-0.76904">
        <ele>39</ele>
        <time>2017-07-30T08:29:31Z</time>
      </trkpt>
      <trkpt lat="44.88679" lon="-0.76908">
        <ele>39</ele>
        <time>2017-07-30T08:29:33Z</time>
      </trkpt>
      <trkpt lat="44.88689" lon="-0.76918">
        <ele>39</ele>
        <time>2017-07-30T08:29:35Z</time>
      </trkpt>
      <trkpt lat="44.88693" lon="-0.76928">
        <ele>39</ele>
        <time>2017-07-30T08:29:37Z</time>
      </trkpt>
      <trkpt lat="44.887" lon="-0.76938">
        <ele>39</ele>
        <time>2017-07-30T08:29:39Z</time>
      </trkpt>
      <trkpt lat="44.88703" lon="-0.76949">
        <ele>39</ele>
        <time>2017-07-30T08:29:41Z</time>
      </trkpt>
      <trkpt lat="44.88708" lon="-0.76961">
        <ele>38</ele>
        <time>2017-07-30T08:29:43Z</time>
      </trkpt>
      <trkpt lat="44.88711" lon="-0.76973">
        <ele>38</ele>
        <time>2017-07-30T08:29:45Z</time>
      </trkpt>
      <trkpt lat="44.88714" lon="-0.76983">
        <ele>38</ele>
        <time>2017-07-30T08:29:47Z</time>
      </trkpt>
      <trkpt lat="44.8872" lon="-0.7699">
        <ele>38</ele>
        <time>2017-07-30T08:29:49Z</time>
      </trkpt>
      <trkpt lat="44.88727" lon="-0.76993">
        <ele>38</ele>
        <time>2017-07-30T08:29:51Z</time>
      </trkpt>
      <trkpt lat="44.88735" lon="-0.76997">
        <ele>38</ele>
        <time>2017-07-30T08:29:53Z</time>
      </trkpt>
      <trkpt lat="44.88742" lon="-0.77">
        <ele>38</ele>
        <time>2017-07-30T08:29:55Z</time>
      </trkpt>
      <trkpt lat="44.8875" lon="-0.77002">
        <ele>38</ele>
        <time>2017-07-30T08:29:57Z</time>
      </trkpt>
      <trkpt lat="44.88759" lon="-0.77003">
        <ele>39</ele>
        <time>2017-07-30T08:29:59Z</time>
      </trkpt>
      <trkpt lat="44.88767" lon="-0.77003">
        <ele>40</ele>
        <time>2017-07-30T08:30:01Z</time>
      </trkpt>
      <trkpt lat="44.88775" lon="-0.77003">
        <ele>40</ele>
        <time>2017-07-30T08:30:03Z</time>
      </trkpt>
      <trkpt lat="44.88782" lon="-0.77">
        <ele>39</ele>
        <time>2017-07-30T08:30:05Z</time>
      </trkpt>
      <trkpt lat="44.8879" lon="-0.77">
        <ele>39</ele>
        <time>2017-07-30T08:30:07Z</time>
      </trkpt>
      <trkpt lat="44.88797" lon="-0.77">
        <ele>39</ele>
        <time>2017-07-30T08:30:09Z</time>
      </trkpt>
      <trkpt lat="44.88804" lon="-0.77002">
        <ele>41</ele>
        <time>2017-07-30T08:30:11Z</time>
      </trkpt>
      <trkpt lat="44.88809" lon="-0.77007">
        <ele>41</ele>
        <time>2017-07-30T08:30:13Z</time>
      </trkpt>
      <trkpt lat="44.88814" lon="-0.77014">
        <ele>41</ele>
        <time>2017-07-30T08:30:15Z</time>
      </trkpt>
      <trkpt lat="44.8882" lon="-0.77018">
        <ele>41</ele>
        <time>2017-07-30T08:30:17Z</time>
      </trkpt>
      <trkpt lat="44.88827" lon="-0.77025">
        <ele>41</ele>
        <time>2017-07-30T08:30:19Z</time>
      </trkpt>
      <trkpt lat="44.88835" lon="-0.77031">
        <ele>42</ele>
        <time>2017-07-30T08:30:21Z</time>
      </trkpt>
      <trkpt lat="44.88839" lon="-0.77039">
        <ele>42</ele>
        <time>2017-07-30T08:30:23Z</time>
      </trkpt>
      <trkpt lat="44.88838" lon="-0.77045">
        <ele>42</ele>
        <time>2017-07-30T08:30:25Z</time>
      </trkpt>
      <trkpt lat="44.88836" lon="-0.77051">
        <ele>42</ele>
        <time>2017-07-30T08:30:27Z</time>
      </trkpt>
      <trkpt lat="44.88834" lon="-0.77061">
        <ele>43</ele>
        <time>2017-07-30T08:30:31Z</time>
      </trkpt>
      <trkpt lat="44.88842" lon="-0.77065">
        <ele>43</ele>
        <time>2017-07-30T08:30:35Z</time>
      </trkpt>
      <trkpt lat="44.88846" lon="-0.7707">
        <ele>43</ele>
        <time>2017-07-30T08:30:51Z</time>
      </trkpt>
      <trkpt lat="44.88846" lon="-0.77081">
        <ele>43</ele>
        <time>2017-07-30T08:31:13Z</time>
      </trkpt>
      <trkpt lat="44.88849" lon="-0.77076">
        <ele>43</ele>
        <time>2017-07-30T08:32:31Z</time>
      </trkpt>
      <trkpt lat="44.88849" lon="-0.77069">
        <ele>43</ele>
        <time>2017-07-30T08:32:45Z</time>
      </trkpt>
      <trkpt lat="44.88854" lon="-0.77078">
        <ele>43</ele>
        <time>2017-07-30T08:33:55Z</time>
      </trkpt>
      <trkpt lat="44.88854" lon="-0.77089">
        <ele>43</ele>
        <time>2017-07-30T08:33:59Z</time>
      </trkpt>
      <trkpt lat="44.88852" lon="-0.77097">
        <ele>43</ele>
        <time>2017-07-30T08:34:01Z</time>
      </trkpt>
      <trkpt lat="44.88851" lon="-0.77108">
        <ele>43</ele>
        <time>2017-07-30T08:34:03Z</time>
      </trkpt>
      <trkpt lat="44.88854" lon="-0.77117">
        <ele>43</ele>
        <time>2017-07-30T08:34:05Z</time>
      </trkpt>
      <trkpt lat="44.88853" lon="-0.77128">
        <ele>43</ele>
        <time>2017-07-30T08:34:07Z</time>
      </trkpt>
      <trkpt lat="44.88852" lon="-0.77137">
        <ele>43</ele>
        <time>2017-07-30T08:34:09Z</time>
      </trkpt>
      <trkpt lat="44.88852" lon="-0.77145">
        <ele>43</ele>
        <time>2017-07-30T08:34:11Z</time>
      </trkpt>
      <trkpt lat="44.88852" lon="-0.77151">
        <ele>44</ele>
        <time>2017-07-30T08:34:13Z</time>
      </trkpt>
      <trkpt lat="44.88861" lon="-0.77158">
        <ele>43</ele>
        <time>2017-07-30T08:34:17Z</time>
      </trkpt>
      <trkpt lat="44.88859" lon="-0.7717">
        <ele>44</ele>
        <time>2017-07-30T08:34:21Z</time>
      </trkpt>
      <trkpt lat="44.88859" lon="-0.77181">
        <ele>44</ele>
        <time>2017-07-30T08:34:23Z</time>
      </trkpt>
      <trkpt lat="44.88863" lon="-0.77189">
        <ele>43</ele>
        <time>2017-07-30T08:34:25Z</time>
      </trkpt>
      <trkpt lat="44.88866" lon="-0.77196">
        <ele>43</ele>
        <time>2017-07-30T08:34:27Z</time>
      </trkpt>
      <trkpt lat="44.88873" lon="-0.77201">
        <ele>43</ele>
        <time>2017-07-30T08:34:29Z</time>
      </trkpt>
      <trkpt lat="44.8888" lon="-0.77205">
        <ele>43</ele>
        <time>2017-07-30T08:34:31Z</time>
      </trkpt>
      <trkpt lat="44.88888" lon="-0.7721">
        <ele>43</ele>
        <time>2017-07-30T08:34:33Z</time>
      </trkpt>
      <trkpt lat="44.88895" lon="-0.77213">
        <ele>43</ele>
        <time>2017-07-30T08:34:35Z</time>
      </trkpt>
      <trkpt lat="44.88903" lon="-0.77214">
        <ele>43</ele>
        <time>2017-07-30T08:34:37Z</time>
      </trkpt>
      <trkpt lat="44.88912" lon="-0.77217">
        <ele>43</ele>
        <time>2017-07-30T08:34:39Z</time>
      </trkpt>
      <trkpt lat="44.88918" lon="-0.77222">
        <ele>42</ele>
        <time>2017-07-30T08:34:41Z</time>
      </trkpt>
      <trkpt lat="44.88925" lon="-0.77228">
        <ele>42</ele>
        <time>2017-07-30T08:34:43Z</time>
      </trkpt>
      <trkpt lat="44.88931" lon="-0.77233">
        <ele>42</ele>
        <time>2017-07-30T08:34:45Z</time>
      </trkpt>
      <trkpt lat="44.88937" lon="-0.77234">
        <ele>42</ele>
        <time>2017-07-30T08:34:47Z</time>
      </trkpt>
      <trkpt lat="44.88943" lon="-0.77244">
        <ele>42</ele>
        <time>2017-07-30T08:34:51Z</time>
      </trkpt>
      <trkpt lat="44.88944" lon="-0.77252">
        <ele>41</ele>
        <time>2017-07-30T08:34:53Z</time>
      </trkpt>
      <trkpt lat="44.88946" lon="-0.77261">
        <ele>41</ele>
        <time>2017-07-30T08:34:55Z</time>
      </trkpt>
      <trkpt lat="44.88949" lon="-0.77273">
        <ele>41</ele>
        <time>2017-07-30T08:34:57Z</time>
      </trkpt>
      <trkpt lat="44.88955" lon="-0.77282">
        <ele>41</ele>
        <time>2017-07-30T08:34:59Z</time>
      </trkpt>
      <trkpt lat="44.88961" lon="-0.77289">
        <ele>41</ele>
        <time>2017-07-30T08:35:01Z</time>
      </trkpt>
      <trkpt lat="44.88965" lon="-0.77286">
        <ele>41</ele>
        <time>2017-07-30T08:35:03Z</time>
      </trkpt>
      <trkpt lat="44.88966" lon="-0.77279">
        <ele>41</ele>
        <time>2017-07-30T08:35:05Z</time>
      </trkpt>
      <trkpt lat="44.88969" lon="-0.77269">
        <ele>41</ele>
        <time>2017-07-30T08:35:09Z</time>
      </trkpt>
      <trkpt lat="44.88976" lon="-0.77269">
        <ele>41</ele>
        <time>2017-07-30T08:35:11Z</time>
      </trkpt>
      <trkpt lat="44.88988" lon="-0.7727">
        <ele>41</ele>
        <time>2017-07-30T08:35:13Z</time>
      </trkpt>
      <trkpt lat="44.88996" lon="-0.77271">
        <ele>41</ele>
        <time>2017-07-30T08:35:15Z</time>
      </trkpt>
      <trkpt lat="44.89002" lon="-0.77271">
        <ele>41</ele>
        <time>2017-07-30T08:35:17Z</time>
      </trkpt>
      <trkpt lat="44.89008" lon="-0.77273">
        <ele>41</ele>
        <time>2017-07-30T08:35:19Z</time>
      </trkpt>
      <trkpt lat="44.89017" lon="-0.77272">
        <ele>41</ele>
        <time>2017-07-30T08:35:21Z</time>
      </trkpt>
      <trkpt lat="44.89024" lon="-0.77272">
        <ele>41</ele>
        <time>2017-07-30T08:35:23Z</time>
      </trkpt>
      <trkpt lat="44.8903" lon="-0.77275">
        <ele>41</ele>
        <time>2017-07-30T08:35:25Z</time>
      </trkpt>
      <trkpt lat="44.89034" lon="-0.77275">
        <ele>41</ele>
        <time>2017-07-30T08:35:27Z</time>
      </trkpt>
      <trkpt lat="44.89039" lon="-0.77282">
        <ele>41</ele>
        <time>2017-07-30T08:35:29Z</time>
      </trkpt>
      <trkpt lat="44.89044" lon="-0.77283">
        <ele>41</ele>
        <time>2017-07-30T08:35:31Z</time>
      </trkpt>
      <trkpt lat="44.8905" lon="-0.77284">
        <ele>41</ele>
        <time>2017-07-30T08:35:33Z</time>
      </trkpt>
      <trkpt lat="44.89056" lon="-0.77291">
        <ele>41</ele>
        <time>2017-07-30T08:35:35Z</time>
      </trkpt>
      <trkpt lat="44.89062" lon="-0.77297">
        <ele>41</ele>
        <time>2017-07-30T08:35:37Z</time>
      </trkpt>
      <trkpt lat="44.89066" lon="-0.77305">
        <ele>41</ele>
        <time>2017-07-30T08:35:39Z</time>
      </trkpt>
      <trkpt lat="44.89069" lon="-0.77313">
        <ele>40</ele>
        <time>2017-07-30T08:35:41Z</time>
      </trkpt>
      <trkpt lat="44.89071" lon="-0.77322">
        <ele>40</ele>
        <time>2017-07-30T08:35:43Z</time>
      </trkpt>
      <trkpt lat="44.89072" lon="-0.77333">
        <ele>40</ele>
        <time>2017-07-30T08:35:45Z</time>
      </trkpt>
      <trkpt lat="44.89075" lon="-0.77339">
        <ele>39</ele>
        <time>2017-07-30T08:35:47Z</time>
      </trkpt>
      <trkpt lat="44.89074" lon="-0.77348">
        <ele>40</ele>
        <time>2017-07-30T08:35:49Z</time>
      </trkpt>
      <trkpt lat="44.89074" lon="-0.77356">
        <ele>40</ele>
        <time>2017-07-30T08:35:51Z</time>
      </trkpt>
      <trkpt lat="44.89074" lon="-0.77364">
        <ele>40</ele>
        <time>2017-07-30T08:35:53Z</time>
      </trkpt>
      <trkpt lat="44.89072" lon="-0.7737">
        <ele>40</ele>
        <time>2017-07-30T08:35:55Z</time>
      </trkpt>
      <trkpt lat="44.89066" lon="-0.77372">
        <ele>40</ele>
        <time>2017-07-30T08:35:59Z</time>
      </trkpt>
      <trkpt lat="44.89058" lon="-0.7737">
        <ele>40</ele>
        <time>2017-07-30T08:36:05Z</time>
      </trkpt>
      <trkpt lat="44.89052" lon="-0.77372">
        <ele>40</ele>
        <time>2017-07-30T08:36:07Z</time>
      </trkpt>
      <trkpt lat="44.89046" lon="-0.77371">
        <ele>40</ele>
        <time>2017-07-30T08:36:09Z</time>
      </trkpt>
      <trkpt lat="44.89042" lon="-0.77378">
        <ele>40</ele>
        <time>2017-07-30T08:36:11Z</time>
      </trkpt>
      <trkpt lat="44.89038" lon="-0.77388">
        <ele>40</ele>
        <time>2017-07-30T08:36:13Z</time>
      </trkpt>
      <trkpt lat="44.89038" lon="-0.77395">
        <ele>40</ele>
        <time>2017-07-30T08:36:15Z</time>
      </trkpt>
      <trkpt lat="44.89039" lon="-0.77403">
        <ele>40</ele>
        <time>2017-07-30T08:36:17Z</time>
      </trkpt>
      <trkpt lat="44.89043" lon="-0.77411">
        <ele>40</ele>
        <time>2017-07-30T08:36:19Z</time>
      </trkpt>
      <trkpt lat="44.8905" lon="-0.77416">
        <ele>40</ele>
        <time>2017-07-30T08:36:21Z</time>
      </trkpt>
      <trkpt lat="44.89057" lon="-0.77424">
        <ele>40</ele>
        <time>2017-07-30T08:36:23Z</time>
      </trkpt>
      <trkpt lat="44.89066" lon="-0.77431">
        <ele>40</ele>
        <time>2017-07-30T08:36:25Z</time>
      </trkpt>
      <trkpt lat="44.89075" lon="-0.77436">
        <ele>40</ele>
        <time>2017-07-30T08:36:27Z</time>
      </trkpt>
      <trkpt lat="44.89084" lon="-0.77441">
        <ele>40</ele>
        <time>2017-07-30T08:36:29Z</time>
      </trkpt>
      <trkpt lat="44.89094" lon="-0.77446">
        <ele>40</ele>
        <time>2017-07-30T08:36:31Z</time>
      </trkpt>
      <trkpt lat="44.89106" lon="-0.77451">
        <ele>40</ele>
        <time>2017-07-30T08:36:33Z</time>
      </trkpt>
      <trkpt lat="44.89116" lon="-0.77454">
        <ele>41</ele>
        <time>2017-07-30T08:36:35Z</time>
      </trkpt>
      <trkpt lat="44.89125" lon="-0.77457">
        <ele>41</ele>
        <time>2017-07-30T08:36:37Z</time>
      </trkpt>
      <trkpt lat="44.89135" lon="-0.77459">
        <ele>41</ele>
        <time>2017-07-30T08:36:39Z</time>
      </trkpt>
      <trkpt lat="44.89142" lon="-0.77463">
        <ele>41</ele>
        <time>2017-07-30T08:36:41Z</time>
      </trkpt>
      <trkpt lat="44.89139" lon="-0.7747">
        <ele>41</ele>
        <time>2017-07-30T08:36:43Z</time>
      </trkpt>
      <trkpt lat="44.89133" lon="-0.77476">
        <ele>41</ele>
        <time>2017-07-30T08:36:45Z</time>
      </trkpt>
      <trkpt lat="44.89128" lon="-0.77481">
        <ele>41</ele>
        <time>2017-07-30T08:36:47Z</time>
      </trkpt>
      <trkpt lat="44.89134" lon="-0.77495">
        <ele>41</ele>
        <time>2017-07-30T08:36:51Z</time>
      </trkpt>
      <trkpt lat="44.89135" lon="-0.77508">
        <ele>41</ele>
        <time>2017-07-30T08:36:53Z</time>
      </trkpt>
      <trkpt lat="44.89134" lon="-0.7752">
        <ele>41</ele>
        <time>2017-07-30T08:36:55Z</time>
      </trkpt>
      <trkpt lat="44.89132" lon="-0.7753">
        <ele>41</ele>
        <time>2017-07-30T08:36:57Z</time>
      </trkpt>
      <trkpt lat="44.8913" lon="-0.7754">
        <ele>41</ele>
        <time>2017-07-30T08:36:59Z</time>
      </trkpt>
      <trkpt lat="44.89136" lon="-0.77548">
        <ele>41</ele>
        <time>2017-07-30T08:37:01Z</time>
      </trkpt>
      <trkpt lat="44.8914" lon="-0.77559">
        <ele>41</ele>
        <time>2017-07-30T08:37:03Z</time>
      </trkpt>
      <trkpt lat="44.89133" lon="-0.77566">
        <ele>41</ele>
        <time>2017-07-30T08:37:05Z</time>
      </trkpt>
      <trkpt lat="44.89129" lon="-0.77575">
        <ele>41</ele>
        <time>2017-07-30T08:37:07Z</time>
      </trkpt>
      <trkpt lat="44.89126" lon="-0.77582">
        <ele>41</ele>
        <time>2017-07-30T08:37:09Z</time>
      </trkpt>
      <trkpt lat="44.89124" lon="-0.7759">
        <ele>41</ele>
        <time>2017-07-30T08:37:11Z</time>
      </trkpt>
      <trkpt lat="44.89124" lon="-0.77602">
        <ele>41</ele>
        <time>2017-07-30T08:37:13Z</time>
      </trkpt>
      <trkpt lat="44.89124" lon="-0.77613">
        <ele>41</ele>
        <time>2017-07-30T08:37:15Z</time>
      </trkpt>
      <trkpt lat="44.89118" lon="-0.77621">
        <ele>41</ele>
        <time>2017-07-30T08:37:17Z</time>
      </trkpt>
      <trkpt lat="44.89112" lon="-0.7763">
        <ele>41</ele>
        <time>2017-07-30T08:37:19Z</time>
      </trkpt>
      <trkpt lat="44.89109" lon="-0.77645">
        <ele>41</ele>
        <time>2017-07-30T08:37:21Z</time>
      </trkpt>
      <trkpt lat="44.89101" lon="-0.77648">
        <ele>41</ele>
        <time>2017-07-30T08:37:23Z</time>
      </trkpt>
      <trkpt lat="44.89094" lon="-0.77652">
        <ele>42</ele>
        <time>2017-07-30T08:37:25Z</time>
      </trkpt>
      <trkpt lat="44.89091" lon="-0.77662">
        <ele>42</ele>
        <time>2017-07-30T08:37:27Z</time>
      </trkpt>
      <trkpt lat="44.89082" lon="-0.77668">
        <ele>42</ele>
        <time>2017-07-30T08:37:31Z</time>
      </trkpt>
      <trkpt lat="44.89077" lon="-0.77673">
        <ele>42</ele>
        <time>2017-07-30T08:37:33Z</time>
      </trkpt>
      <trkpt lat="44.89076" lon="-0.77684">
        <ele>42</ele>
        <time>2017-07-30T08:37:37Z</time>
      </trkpt>
      <trkpt lat="44.89078" lon="-0.77694">
        <ele>42</ele>
        <time>2017-07-30T08:37:39Z</time>
      </trkpt>
      <trkpt lat="44.89078" lon="-0.77705">
        <ele>42</ele>
        <time>2017-07-30T08:37:41Z</time>
      </trkpt>
      <trkpt lat="44.89083" lon="-0.77713">
        <ele>42</ele>
        <time>2017-07-30T08:37:43Z</time>
      </trkpt>
      <trkpt lat="44.89076" lon="-0.77727">
        <ele>42</ele>
        <time>2017-07-30T08:37:47Z</time>
      </trkpt>
      <trkpt lat="44.89079" lon="-0.77738">
        <ele>42</ele>
        <time>2017-07-30T08:37:49Z</time>
      </trkpt>
      <trkpt lat="44.89085" lon="-0.77748">
        <ele>42</ele>
        <time>2017-07-30T08:37:51Z</time>
      </trkpt>
      <trkpt lat="44.89084" lon="-0.77756">
        <ele>42</ele>
        <time>2017-07-30T08:37:53Z</time>
      </trkpt>
      <trkpt lat="44.89084" lon="-0.77765">
        <ele>42</ele>
        <time>2017-07-30T08:37:55Z</time>
      </trkpt>
      <trkpt lat="44.89078" lon="-0.77773">
        <ele>43</ele>
        <time>2017-07-30T08:37:57Z</time>
      </trkpt>
      <trkpt lat="44.89079" lon="-0.77788">
        <ele>43</ele>
        <time>2017-07-30T08:37:59Z</time>
      </trkpt>
      <trkpt lat="44.89077" lon="-0.77799">
        <ele>43</ele>
        <time>2017-07-30T08:38:01Z</time>
      </trkpt>
      <trkpt lat="44.89075" lon="-0.7781">
        <ele>44</ele>
        <time>2017-07-30T08:38:03Z</time>
      </trkpt>
      <trkpt lat="44.89069" lon="-0.77823">
        <ele>44</ele>
        <time>2017-07-30T08:38:05Z</time>
      </trkpt>
      <trkpt lat="44.89064" lon="-0.77834">
        <ele>44</ele>
        <time>2017-07-30T08:38:07Z</time>
      </trkpt>
      <trkpt lat="44.89059" lon="-0.77842">
        <ele>44</ele>
        <time>2017-07-30T08:38:09Z</time>
      </trkpt>
      <trkpt lat="44.89052" lon="-0.77848">
        <ele>44</ele>
        <time>2017-07-30T08:38:11Z</time>
      </trkpt>
      <trkpt lat="44.89044" lon="-0.77854">
        <ele>44</ele>
        <time>2017-07-30T08:38:13Z</time>
      </trkpt>
      <trkpt lat="44.89041" lon="-0.7786">
        <ele>44</ele>
        <time>2017-07-30T08:38:15Z</time>
      </trkpt>
      <trkpt lat="44.89045" lon="-0.77873">
        <ele>44</ele>
        <time>2017-07-30T08:38:17Z</time>
      </trkpt>
      <trkpt lat="44.8905" lon="-0.77888">
        <ele>43</ele>
        <time>2017-07-30T08:38:19Z</time>
      </trkpt>
      <trkpt lat="44.89051" lon="-0.77906">
        <ele>43</ele>
        <time>2017-07-30T08:38:21Z</time>
      </trkpt>
      <trkpt lat="44.89049" lon="-0.77919">
        <ele>43</ele>
        <time>2017-07-30T08:38:23Z</time>
      </trkpt>
      <trkpt lat="44.89044" lon="-0.77929">
        <ele>43</ele>
        <time>2017-07-30T08:38:25Z</time>
      </trkpt>
      <trkpt lat="44.89036" lon="-0.77944">
        <ele>43</ele>
        <time>2017-07-30T08:38:27Z</time>
      </trkpt>
      <trkpt lat="44.89033" lon="-0.77959">
        <ele>42</ele>
        <time>2017-07-30T08:38:29Z</time>
      </trkpt>
      <trkpt lat="44.8903" lon="-0.77971">
        <ele>42</ele>
        <time>2017-07-30T08:38:31Z</time>
      </trkpt>
      <trkpt lat="44.89028" lon="-0.77985">
        <ele>42</ele>
        <time>2017-07-30T08:38:33Z</time>
      </trkpt>
      <trkpt lat="44.8903" lon="-0.77998">
        <ele>42</ele>
        <time>2017-07-30T08:38:35Z</time>
      </trkpt>
      <trkpt lat="44.89027" lon="-0.78011">
        <ele>41</ele>
        <time>2017-07-30T08:38:37Z</time>
      </trkpt>
      <trkpt lat="44.8903" lon="-0.78026">
        <ele>41</ele>
        <time>2017-07-30T08:38:39Z</time>
      </trkpt>
      <trkpt lat="44.89034" lon="-0.78039">
        <ele>41</ele>
        <time>2017-07-30T08:38:41Z</time>
      </trkpt>
      <trkpt lat="44.8903" lon="-0.78045">
        <ele>41</ele>
        <time>2017-07-30T08:38:43Z</time>
      </trkpt>
      <trkpt lat="44.89024" lon="-0.78051">
        <ele>41</ele>
        <time>2017-07-30T08:38:45Z</time>
      </trkpt>
      <trkpt lat="44.8902" lon="-0.78058">
        <ele>41</ele>
        <time>2017-07-30T08:38:47Z</time>
      </trkpt>
      <trkpt lat="44.89015" lon="-0.78065">
        <ele>41</ele>
        <time>2017-07-30T08:38:49Z</time>
      </trkpt>
      <trkpt lat="44.89011" lon="-0.78076">
        <ele>41</ele>
        <time>2017-07-30T08:38:51Z</time>
      </trkpt>
      <trkpt lat="44.89003" lon="-0.78083">
        <ele>41</ele>
        <time>2017-07-30T08:38:53Z</time>
      </trkpt>
      <trkpt lat="44.88997" lon="-0.78092">
        <ele>41</ele>
        <time>2017-07-30T08:38:55Z</time>
      </trkpt>
      <trkpt lat="44.88986" lon="-0.78095">
        <ele>41</ele>
        <time>2017-07-30T08:38:57Z</time>
      </trkpt>
      <trkpt lat="44.88978" lon="-0.781">
        <ele>41</ele>
        <time>2017-07-30T08:38:59Z</time>
      </trkpt>
      <trkpt lat="44.88968" lon="-0.78102">
        <ele>41</ele>
        <time>2017-07-30T08:39:01Z</time>
      </trkpt>
      <trkpt lat="44.88958" lon="-0.78105">
        <ele>41</ele>
        <time>2017-07-30T08:39:03Z</time>
      </trkpt>
      <trkpt lat="44.88947" lon="-0.78111">
        <ele>41</ele>
        <time>2017-07-30T08:39:05Z</time>
      </trkpt>
      <trkpt lat="44.88937" lon="-0.78123">
        <ele>41</ele>
        <time>2017-07-30T08:39:07Z</time>
      </trkpt>
      <trkpt lat="44.8893" lon="-0.78138">
        <ele>42</ele>
        <time>2017-07-30T08:39:09Z</time>
      </trkpt>
      <trkpt lat="44.88925" lon="-0.78153">
        <ele>42</ele>
        <time>2017-07-30T08:39:11Z</time>
      </trkpt>
      <trkpt lat="44.88919" lon="-0.78168">
        <ele>42</ele>
        <time>2017-07-30T08:39:13Z</time>
      </trkpt>
      <trkpt lat="44.8891" lon="-0.78175">
        <ele>42</ele>
        <time>2017-07-30T08:39:15Z</time>
      </trkpt>
      <trkpt lat="44.889" lon="-0.78177">
        <ele>42</ele>
        <time>2017-07-30T08:39:17Z</time>
      </trkpt>
      <trkpt lat="44.88893" lon="-0.78185">
        <ele>42</ele>
        <time>2017-07-30T08:39:19Z</time>
      </trkpt>
      <trkpt lat="44.88888" lon="-0.78198">
        <ele>42</ele>
        <time>2017-07-30T08:39:21Z</time>
      </trkpt>
      <trkpt lat="44.88884" lon="-0.7821">
        <ele>42</ele>
        <time>2017-07-30T08:39:23Z</time>
      </trkpt>
      <trkpt lat="44.88878" lon="-0.78217">
        <ele>42</ele>
        <time>2017-07-30T08:39:25Z</time>
      </trkpt>
      <trkpt lat="44.88872" lon="-0.78227">
        <ele>42</ele>
        <time>2017-07-30T08:39:27Z</time>
      </trkpt>
      <trkpt lat="44.88864" lon="-0.78232">
        <ele>42</ele>
        <time>2017-07-30T08:39:29Z</time>
      </trkpt>
      <trkpt lat="44.88854" lon="-0.78237">
        <ele>42</ele>
        <time>2017-07-30T08:39:31Z</time>
      </trkpt>
      <trkpt lat="44.88843" lon="-0.78245">
        <ele>43</ele>
        <time>2017-07-30T08:39:33Z</time>
      </trkpt>
      <trkpt lat="44.88831" lon="-0.78252">
        <ele>43</ele>
        <time>2017-07-30T08:39:35Z</time>
      </trkpt>
      <trkpt lat="44.88821" lon="-0.78257">
        <ele>43</ele>
        <time>2017-07-30T08:39:37Z</time>
      </trkpt>
      <trkpt lat="44.88812" lon="-0.78263">
        <ele>43</ele>
        <time>2017-07-30T08:39:39Z</time>
      </trkpt>
      <trkpt lat="44.88803" lon="-0.78269">
        <ele>43</ele>
        <time>2017-07-30T08:39:41Z</time>
      </trkpt>
      <trkpt lat="44.88792" lon="-0.78275">
        <ele>43</ele>
        <time>2017-07-30T08:39:43Z</time>
      </trkpt>
      <trkpt lat="44.88782" lon="-0.78282">
        <ele>43</ele>
        <time>2017-07-30T08:39:45Z</time>
      </trkpt>
      <trkpt lat="44.88774" lon="-0.78289">
        <ele>43</ele>
        <time>2017-07-30T08:39:47Z</time>
      </trkpt>
      <trkpt lat="44.88763" lon="-0.78298">
        <ele>43</ele>
        <time>2017-07-30T08:39:49Z</time>
      </trkpt>
      <trkpt lat="44.88754" lon="-0.78304">
        <ele>43</ele>
        <time>2017-07-30T08:39:51Z</time>
      </trkpt>
      <trkpt lat="44.88746" lon="-0.7831">
        <ele>42</ele>
        <time>2017-07-30T08:39:53Z</time>
      </trkpt>
      <trkpt lat="44.88738" lon="-0.78315">
        <ele>42</ele>
        <time>2017-07-30T08:39:55Z</time>
      </trkpt>
      <trkpt lat="44.88731" lon="-0.78325">
        <ele>42</ele>
        <time>2017-07-30T08:39:57Z</time>
      </trkpt>
      <trkpt lat="44.88729" lon="-0.7834">
        <ele>42</ele>
        <time>2017-07-30T08:39:59Z</time>
      </trkpt>
      <trkpt lat="44.88727" lon="-0.78356">
        <ele>42</ele>
        <time>2017-07-30T08:40:01Z</time>
      </trkpt>
      <trkpt lat="44.88724" lon="-0.78372">
        <ele>41</ele>
        <time>2017-07-30T08:40:03Z</time>
      </trkpt>
      <trkpt lat="44.8872" lon="-0.78387">
        <ele>41</ele>
        <time>2017-07-30T08:40:05Z</time>
      </trkpt>
      <trkpt lat="44.88717" lon="-0.78402">
        <ele>41</ele>
        <time>2017-07-30T08:40:07Z</time>
      </trkpt>
      <trkpt lat="44.88714" lon="-0.78416">
        <ele>41</ele>
        <time>2017-07-30T08:40:09Z</time>
      </trkpt>
      <trkpt lat="44.88711" lon="-0.78431">
        <ele>42</ele>
        <time>2017-07-30T08:40:11Z</time>
      </trkpt>
      <trkpt lat="44.88708" lon="-0.78443">
        <ele>42</ele>
        <time>2017-07-30T08:40:13Z</time>
      </trkpt>
      <trkpt lat="44.88706" lon="-0.78457">
        <ele>42</ele>
        <time>2017-07-30T08:40:15Z</time>
      </trkpt>
      <trkpt lat="44.88703" lon="-0.78472">
        <ele>43</ele>
        <time>2017-07-30T08:40:17Z</time>
      </trkpt>
      <trkpt lat="44.88701" lon="-0.78489">
        <ele>43</ele>
        <time>2017-07-30T08:40:19Z</time>
      </trkpt>
      <trkpt lat="44.88697" lon="-0.78505">
        <ele>43</ele>
        <time>2017-07-30T08:40:21Z</time>
      </trkpt>
      <trkpt lat="44.88694" lon="-0.7852">
        <ele>43</ele>
        <time>2017-07-30T08:40:23Z</time>
      </trkpt>
      <trkpt lat="44.88692" lon="-0.78535">
        <ele>44</ele>
        <time>2017-07-30T08:40:25Z</time>
      </trkpt>
      <trkpt lat="44.88688" lon="-0.78549">
        <ele>44</ele>
        <time>2017-07-30T08:40:27Z</time>
      </trkpt>
      <trkpt lat="44.88686" lon="-0.78565">
        <ele>44</ele>
        <time>2017-07-30T08:40:29Z</time>
      </trkpt>
      <trkpt lat="44.88683" lon="-0.78582">
        <ele>44</ele>
        <time>2017-07-30T08:40:31Z</time>
      </trkpt>
      <trkpt lat="44.88681" lon="-0.78597">
        <ele>44</ele>
        <time>2017-07-30T08:40:33Z</time>
      </trkpt>
      <trkpt lat="44.88677" lon="-0.78614">
        <ele>44</ele>
        <time>2017-07-30T08:40:35Z</time>
      </trkpt>
      <trkpt lat="44.88674" lon="-0.7863">
        <ele>43</ele>
        <time>2017-07-30T08:40:37Z</time>
      </trkpt>
      <trkpt lat="44.88672" lon="-0.78644">
        <ele>44</ele>
        <time>2017-07-30T08:40:39Z</time>
      </trkpt>
      <trkpt lat="44.88669" lon="-0.7866">
        <ele>44</ele>
        <time>2017-07-30T08:40:41Z</time>
      </trkpt>
      <trkpt lat="44.88666" lon="-0.78674">
        <ele>44</ele>
        <time>2017-07-30T08:40:43Z</time>
      </trkpt>
      <trkpt lat="44.88664" lon="-0.78688">
        <ele>43</ele>
        <time>2017-07-30T08:40:45Z</time>
      </trkpt>
      <trkpt lat="44.88661" lon="-0.78702">
        <ele>43</ele>
        <time>2017-07-30T08:40:47Z</time>
      </trkpt>
      <trkpt lat="44.88657" lon="-0.78718">
        <ele>43</ele>
        <time>2017-07-30T08:40:49Z</time>
      </trkpt>
      <trkpt lat="44.88655" lon="-0.78734">
        <ele>42</ele>
        <time>2017-07-30T08:40:51Z</time>
      </trkpt>
      <trkpt lat="44.88652" lon="-0.7875">
        <ele>41</ele>
        <time>2017-07-30T08:40:53Z</time>
      </trkpt>
      <trkpt lat="44.88649" lon="-0.78763">
        <ele>41</ele>
        <time>2017-07-30T08:40:55Z</time>
      </trkpt>
      <trkpt lat="44.88645" lon="-0.78776">
        <ele>41</ele>
        <time>2017-07-30T08:40:57Z</time>
      </trkpt>
      <trkpt lat="44.88643" lon="-0.78791">
        <ele>41</ele>
        <time>2017-07-30T08:40:59Z</time>
      </trkpt>
      <trkpt lat="44.8864" lon="-0.78808">
        <ele>41</ele>
        <time>2017-07-30T08:41:01Z</time>
      </trkpt>
      <trkpt lat="44.88638" lon="-0.78823">
        <ele>40</ele>
        <time>2017-07-30T08:41:03Z</time>
      </trkpt>
      <trkpt lat="44.88635" lon="-0.78838">
        <ele>40</ele>
        <time>2017-07-30T08:41:05Z</time>
      </trkpt>
      <trkpt lat="44.88632" lon="-0.78854">
        <ele>40</ele>
        <time>2017-07-30T08:41:07Z</time>
      </trkpt>
      <trkpt lat="44.88629" lon="-0.78869">
        <ele>41</ele>
        <time>2017-07-30T08:41:09Z</time>
      </trkpt>
      <trkpt lat="44.88627" lon="-0.78884">
        <ele>41</ele>
        <time>2017-07-30T08:41:11Z</time>
      </trkpt>
      <trkpt lat="44.88624" lon="-0.789">
        <ele>41</ele>
        <time>2017-07-30T08:41:13Z</time>
      </trkpt>
      <trkpt lat="44.88621" lon="-0.78915">
        <ele>41</ele>
        <time>2017-07-30T08:41:15Z</time>
      </trkpt>
      <trkpt lat="44.88618" lon="-0.78929">
        <ele>41</ele>
        <time>2017-07-30T08:41:17Z</time>
      </trkpt>
      <trkpt lat="44.88616" lon="-0.78943">
        <ele>41</ele>
        <time>2017-07-30T08:41:19Z</time>
      </trkpt>
      <trkpt lat="44.88614" lon="-0.78956">
        <ele>41</ele>
        <time>2017-07-30T08:41:21Z</time>
      </trkpt>
      <trkpt lat="44.88609" lon="-0.78971">
        <ele>41</ele>
        <time>2017-07-30T08:41:23Z</time>
      </trkpt>
      <trkpt lat="44.88607" lon="-0.78985">
        <ele>42</ele>
        <time>2017-07-30T08:41:25Z</time>
      </trkpt>
      <trkpt lat="44.88604" lon="-0.79001">
        <ele>41</ele>
        <time>2017-07-30T08:41:27Z</time>
      </trkpt>
      <trkpt lat="44.88601" lon="-0.79014">
        <ele>41</ele>
        <time>2017-07-30T08:41:29Z</time>
      </trkpt>
      <trkpt lat="44.88598" lon="-0.79026">
        <ele>40</ele>
        <time>2017-07-30T08:41:31Z</time>
      </trkpt>
      <trkpt lat="44.88594" lon="-0.79043">
        <ele>40</ele>
        <time>2017-07-30T08:41:33Z</time>
      </trkpt>
      <trkpt lat="44.88592" lon="-0.79062">
        <ele>39</ele>
        <time>2017-07-30T08:41:35Z</time>
      </trkpt>
      <trkpt lat="44.88589" lon="-0.79081">
        <ele>38</ele>
        <time>2017-07-30T08:41:37Z</time>
      </trkpt>
      <trkpt lat="44.88586" lon="-0.79098">
        <ele>38</ele>
        <time>2017-07-30T08:41:39Z</time>
      </trkpt>
      <trkpt lat="44.88584" lon="-0.79113">
        <ele>38</ele>
        <time>2017-07-30T08:41:41Z</time>
      </trkpt>
      <trkpt lat="44.88582" lon="-0.79129">
        <ele>38</ele>
        <time>2017-07-30T08:41:43Z</time>
      </trkpt>
      <trkpt lat="44.88577" lon="-0.79147">
        <ele>38</ele>
        <time>2017-07-30T08:41:45Z</time>
      </trkpt>
      <trkpt lat="44.88572" lon="-0.79165">
        <ele>38</ele>
        <time>2017-07-30T08:41:47Z</time>
      </trkpt>
      <trkpt lat="44.88569" lon="-0.7918">
        <ele>39</ele>
        <time>2017-07-30T08:41:49Z</time>
      </trkpt>
      <trkpt lat="44.88565" lon="-0.79193">
        <ele>40</ele>
        <time>2017-07-30T08:41:51Z</time>
      </trkpt>
      <trkpt lat="44.88563" lon="-0.79207">
        <ele>40</ele>
        <time>2017-07-30T08:41:53Z</time>
      </trkpt>
      <trkpt lat="44.88561" lon="-0.79223">
        <ele>40</ele>
        <time>2017-07-30T08:41:55Z</time>
      </trkpt>
      <trkpt lat="44.88557" lon="-0.79243">
        <ele>41</ele>
        <time>2017-07-30T08:41:57Z</time>
      </trkpt>
      <trkpt lat="44.88552" lon="-0.7926">
        <ele>42</ele>
        <time>2017-07-30T08:41:59Z</time>
      </trkpt>
      <trkpt lat="44.88549" lon="-0.79273">
        <ele>42</ele>
        <time>2017-07-30T08:42:01Z</time>
      </trkpt>
      <trkpt lat="44.88545" lon="-0.79283">
        <ele>42</ele>
        <time>2017-07-30T08:42:03Z</time>
      </trkpt>
      <trkpt lat="44.88538" lon="-0.79292">
        <ele>42</ele>
        <time>2017-07-30T08:42:05Z</time>
      </trkpt>
      <trkpt lat="44.88529" lon="-0.79299">
        <ele>42</ele>
        <time>2017-07-30T08:42:07Z</time>
      </trkpt>
      <trkpt lat="44.88521" lon="-0.79303">
        <ele>42</ele>
        <time>2017-07-30T08:42:09Z</time>
      </trkpt>
      <trkpt lat="44.88511" lon="-0.79307">
        <ele>42</ele>
        <time>2017-07-30T08:42:11Z</time>
      </trkpt>
      <trkpt lat="44.88502" lon="-0.79313">
        <ele>42</ele>
        <time>2017-07-30T08:42:13Z</time>
      </trkpt>
      <trkpt lat="44.88492" lon="-0.7932">
        <ele>41</ele>
        <time>2017-07-30T08:42:15Z</time>
      </trkpt>
      <trkpt lat="44.88482" lon="-0.79327">
        <ele>40</ele>
        <time>2017-07-30T08:42:17Z</time>
      </trkpt>
      <trkpt lat="44.88472" lon="-0.79332">
        <ele>40</ele>
        <time>2017-07-30T08:42:19Z</time>
      </trkpt>
      <trkpt lat="44.88463" lon="-0.79338">
        <ele>39</ele>
        <time>2017-07-30T08:42:21Z</time>
      </trkpt>
      <trkpt lat="44.88452" lon="-0.79346">
        <ele>39</ele>
        <time>2017-07-30T08:42:23Z</time>
      </trkpt>
      <trkpt lat="44.88438" lon="-0.79356">
        <ele>38</ele>
        <time>2017-07-30T08:42:25Z</time>
      </trkpt>
      <trkpt lat="44.88424" lon="-0.79364">
        <ele>38</ele>
        <time>2017-07-30T08:42:27Z</time>
      </trkpt>
      <trkpt lat="44.8841" lon="-0.79369">
        <ele>36</ele>
        <time>2017-07-30T08:42:29Z</time>
      </trkpt>
      <trkpt lat="44.88406" lon="-0.79374">
        <ele>36</ele>
        <time>2017-07-30T08:42:31Z</time>
      </trkpt>
      <trkpt lat="44.88398" lon="-0.79386">
        <ele>36</ele>
        <time>2017-07-30T08:42:33Z</time>
      </trkpt>
      <trkpt lat="44.88388" lon="-0.79393">
        <ele>36</ele>
        <time>2017-07-30T08:42:35Z</time>
      </trkpt>
      <trkpt lat="44.88379" lon="-0.79401">
        <ele>36</ele>
        <time>2017-07-30T08:42:37Z</time>
      </trkpt>
      <trkpt lat="44.88371" lon="-0.79406">
        <ele>36</ele>
        <time>2017-07-30T08:42:39Z</time>
      </trkpt>
      <trkpt lat="44.88364" lon="-0.79412">
        <ele>36</ele>
        <time>2017-07-30T08:42:41Z</time>
      </trkpt>
      <trkpt lat="44.88355" lon="-0.7942">
        <ele>35</ele>
        <time>2017-07-30T08:42:43Z</time>
      </trkpt>
      <trkpt lat="44.88344" lon="-0.79424">
        <ele>35</ele>
        <time>2017-07-30T08:42:45Z</time>
      </trkpt>
      <trkpt lat="44.88333" lon="-0.79419">
        <ele>35</ele>
        <time>2017-07-30T08:42:47Z</time>
      </trkpt>
      <trkpt lat="44.88325" lon="-0.79419">
        <ele>34</ele>
        <time>2017-07-30T08:42:49Z</time>
      </trkpt>
      <trkpt lat="44.88319" lon="-0.79412">
        <ele>34</ele>
        <time>2017-07-30T08:42:51Z</time>
      </trkpt>
      <trkpt lat="44.88315" lon="-0.79404">
        <ele>34</ele>
        <time>2017-07-30T08:42:53Z</time>
      </trkpt>
      <trkpt lat="44.88314" lon="-0.79393">
        <ele>34</ele>
        <time>2017-07-30T08:42:55Z</time>
      </trkpt>
      <trkpt lat="44.88314" lon="-0.79386">
        <ele>34</ele>
        <time>2017-07-30T08:42:57Z</time>
      </trkpt>
      <trkpt lat="44.88316" lon="-0.79392">
        <ele>34</ele>
        <time>2017-07-30T08:43:21Z</time>
      </trkpt>
      <trkpt lat="44.88311" lon="-0.79399">
        <ele>34</ele>
        <time>2017-07-30T08:43:23Z</time>
      </trkpt>
      <trkpt lat="44.88306" lon="-0.79396">
        <ele>34</ele>
        <time>2017-07-30T08:43:25Z</time>
      </trkpt>
      <trkpt lat="44.88299" lon="-0.79393">
        <ele>34</ele>
        <time>2017-07-30T08:43:27Z</time>
      </trkpt>
      <trkpt lat="44.88291" lon="-0.7939">
        <ele>34</ele>
        <time>2017-07-30T08:43:29Z</time>
      </trkpt>
      <trkpt lat="44.88287" lon="-0.79385">
        <ele>34</ele>
        <time>2017-07-30T08:43:31Z</time>
      </trkpt>
      <trkpt lat="44.88282" lon="-0.79376">
        <ele>34</ele>
        <time>2017-07-30T08:43:33Z</time>
      </trkpt>
      <trkpt lat="44.88275" lon="-0.7937">
        <ele>34</ele>
        <time>2017-07-30T08:43:35Z</time>
      </trkpt>
      <trkpt lat="44.88268" lon="-0.79365">
        <ele>34</ele>
        <time>2017-07-30T08:43:37Z</time>
      </trkpt>
      <trkpt lat="44.88262" lon="-0.79359">
        <ele>34</ele>
        <time>2017-07-30T08:43:39Z</time>
      </trkpt>
      <trkpt lat="44.8826" lon="-0.79352">
        <ele>34</ele>
        <time>2017-07-30T08:43:41Z</time>
      </trkpt>
      <trkpt lat="44.88259" lon="-0.79344">
        <ele>34</ele>
        <time>2017-07-30T08:43:43Z</time>
      </trkpt>
      <trkpt lat="44.88259" lon="-0.79332">
        <ele>34</ele>
        <time>2017-07-30T08:43:45Z</time>
      </trkpt>
      <trkpt lat="44.88262" lon="-0.79317">
        <ele>35</ele>
        <time>2017-07-30T08:43:47Z</time>
      </trkpt>
      <trkpt lat="44.88258" lon="-0.79306">
        <ele>35</ele>
        <time>2017-07-30T08:43:49Z</time>
      </trkpt>
      <trkpt lat="44.88262" lon="-0.79296">
        <ele>35</ele>
        <time>2017-07-30T08:43:51Z</time>
      </trkpt>
      <trkpt lat="44.88266" lon="-0.79291">
        <ele>35</ele>
        <time>2017-07-30T08:43:53Z</time>
      </trkpt>
      <trkpt lat="44.88266" lon="-0.79279">
        <ele>35</ele>
        <time>2017-07-30T08:43:55Z</time>
      </trkpt>
      <trkpt lat="44.88273" lon="-0.79272">
        <ele>35</ele>
        <time>2017-07-30T08:43:57Z</time>
      </trkpt>
      <trkpt lat="44.88276" lon="-0.79261">
        <ele>35</ele>
        <time>2017-07-30T08:43:59Z</time>
      </trkpt>
      <trkpt lat="44.88277" lon="-0.79251">
        <ele>35</ele>
        <time>2017-07-30T08:44:01Z</time>
      </trkpt>
      <trkpt lat="44.88277" lon="-0.79239">
        <ele>35</ele>
        <time>2017-07-30T08:44:03Z</time>
      </trkpt>
      <trkpt lat="44.88277" lon="-0.7923">
        <ele>35</ele>
        <time>2017-07-30T08:44:05Z</time>
      </trkpt>
      <trkpt lat="44.88276" lon="-0.7922">
        <ele>35</ele>
        <time>2017-07-30T08:44:06Z</time>
      </trkpt>
      <trkpt lat="44.88277" lon="-0.79209">
        <ele>35</ele>
        <time>2017-07-30T08:44:08Z</time>
      </trkpt>
      <trkpt lat="44.88278" lon="-0.79198">
        <ele>36</ele>
        <time>2017-07-30T08:44:10Z</time>
      </trkpt>
      <trkpt lat="44.88274" lon="-0.79184">
        <ele>36</ele>
        <time>2017-07-30T08:44:12Z</time>
      </trkpt>
      <trkpt lat="44.88274" lon="-0.79174">
        <ele>36</ele>
        <time>2017-07-30T08:44:14Z</time>
      </trkpt>
      <trkpt lat="44.8827" lon="-0.79162">
        <ele>36</ele>
        <time>2017-07-30T08:44:16Z</time>
      </trkpt>
      <trkpt lat="44.8827" lon="-0.7915">
        <ele>36</ele>
        <time>2017-07-30T08:44:18Z</time>
      </trkpt>
      <trkpt lat="44.88272" lon="-0.79139">
        <ele>36</ele>
        <time>2017-07-30T08:44:20Z</time>
      </trkpt>
      <trkpt lat="44.8827" lon="-0.79127">
        <ele>36</ele>
        <time>2017-07-30T08:44:22Z</time>
      </trkpt>
      <trkpt lat="44.88266" lon="-0.79116">
        <ele>36</ele>
        <time>2017-07-30T08:44:24Z</time>
      </trkpt>
      <trkpt lat="44.88263" lon="-0.79102">
        <ele>36</ele>
        <time>2017-07-30T08:44:26Z</time>
      </trkpt>
      <trkpt lat="44.88263" lon="-0.79091">
        <ele>36</ele>
        <time>2017-07-30T08:44:28Z</time>
      </trkpt>
      <trkpt lat="44.88262" lon="-0.79081">
        <ele>36</ele>
        <time>2017-07-30T08:44:30Z</time>
      </trkpt>
      <trkpt lat="44.88258" lon="-0.79071">
        <ele>36</ele>
        <time>2017-07-30T08:44:32Z</time>
      </trkpt>
      <trkpt lat="44.88251" lon="-0.79065">
        <ele>36</ele>
        <time>2017-07-30T08:44:34Z</time>
      </trkpt>
      <trkpt lat="44.88246" lon="-0.79058">
        <ele>36</ele>
        <time>2017-07-30T08:44:36Z</time>
      </trkpt>
      <trkpt lat="44.88242" lon="-0.79051">
        <ele>36</ele>
        <time>2017-07-30T08:44:38Z</time>
      </trkpt>
      <trkpt lat="44.88238" lon="-0.79041">
        <ele>35</ele>
        <time>2017-07-30T08:44:40Z</time>
      </trkpt>
      <trkpt lat="44.88232" lon="-0.79034">
        <ele>35</ele>
        <time>2017-07-30T08:44:42Z</time>
      </trkpt>
      <trkpt lat="44.88225" lon="-0.79032">
        <ele>35</ele>
        <time>2017-07-30T08:44:44Z</time>
      </trkpt>
      <trkpt lat="44.88218" lon="-0.79027">
        <ele>35</ele>
        <time>2017-07-30T08:44:46Z</time>
      </trkpt>
      <trkpt lat="44.88209" lon="-0.79029">
        <ele>35</ele>
        <time>2017-07-30T08:44:48Z</time>
      </trkpt>
      <trkpt lat="44.882" lon="-0.79031">
        <ele>36</ele>
        <time>2017-07-30T08:44:50Z</time>
      </trkpt>
      <trkpt lat="44.88196" lon="-0.79025">
        <ele>36</ele>
        <time>2017-07-30T08:44:52Z</time>
      </trkpt>
      <trkpt lat="44.8819" lon="-0.79023">
        <ele>36</ele>
        <time>2017-07-30T08:44:54Z</time>
      </trkpt>
      <trkpt lat="44.88182" lon="-0.79022">
        <ele>36</ele>
        <time>2017-07-30T08:44:56Z</time>
      </trkpt>
      <trkpt lat="44.88176" lon="-0.79022">
        <ele>36</ele>
        <time>2017-07-30T08:44:58Z</time>
      </trkpt>
      <trkpt lat="44.88171" lon="-0.7902">
        <ele>36</ele>
        <time>2017-07-30T08:45:00Z</time>
      </trkpt>
      <trkpt lat="44.88167" lon="-0.79013">
        <ele>36</ele>
        <time>2017-07-30T08:45:04Z</time>
      </trkpt>
      <trkpt lat="44.88161" lon="-0.79003">
        <ele>35</ele>
        <time>2017-07-30T08:45:06Z</time>
      </trkpt>
      <trkpt lat="44.88154" lon="-0.78994">
        <ele>35</ele>
        <time>2017-07-30T08:45:08Z</time>
      </trkpt>
      <trkpt lat="44.88147" lon="-0.78984">
        <ele>35</ele>
        <time>2017-07-30T08:45:10Z</time>
      </trkpt>
      <trkpt lat="44.88142" lon="-0.78978">
        <ele>34</ele>
        <time>2017-07-30T08:45:12Z</time>
      </trkpt>
      <trkpt lat="44.88137" lon="-0.78971">
        <ele>34</ele>
        <time>2017-07-30T08:45:14Z</time>
      </trkpt>
      <trkpt lat="44.88132" lon="-0.78964">
        <ele>34</ele>
        <time>2017-07-30T08:45:16Z</time>
      </trkpt>
      <trkpt lat="44.88126" lon="-0.78957">
        <ele>34</ele>
        <time>2017-07-30T08:45:18Z</time>
      </trkpt>
      <trkpt lat="44.88119" lon="-0.78951">
        <ele>34</ele>
        <time>2017-07-30T08:45:20Z</time>
      </trkpt>
      <trkpt lat="44.8811" lon="-0.78949">
        <ele>34</ele>
        <time>2017-07-30T08:45:22Z</time>
      </trkpt>
      <trkpt lat="44.88103" lon="-0.78945">
        <ele>34</ele>
        <time>2017-07-30T08:45:24Z</time>
      </trkpt>
      <trkpt lat="44.88094" lon="-0.78944">
        <ele>34</ele>
        <time>2017-07-30T08:45:26Z</time>
      </trkpt>
      <trkpt lat="44.88087" lon="-0.78946">
        <ele>33</ele>
        <time>2017-07-30T08:45:28Z</time>
      </trkpt>
      <trkpt lat="44.8808" lon="-0.78948">
        <ele>33</ele>
        <time>2017-07-30T08:45:30Z</time>
      </trkpt>
      <trkpt lat="44.88068" lon="-0.78949">
        <ele>33</ele>
        <time>2017-07-30T08:45:34Z</time>
      </trkpt>
      <trkpt lat="44.88059" lon="-0.78951">
        <ele>33</ele>
        <time>2017-07-30T08:45:36Z</time>
      </trkpt>
      <trkpt lat="44.88053" lon="-0.78951">
        <ele>33</ele>
        <time>2017-07-30T08:45:38Z</time>
      </trkpt>
      <trkpt lat="44.88047" lon="-0.78942">
        <ele>33</ele>
        <time>2017-07-30T08:45:40Z</time>
      </trkpt>
      <trkpt lat="44.88041" lon="-0.78932">
        <ele>33</ele>
        <time>2017-07-30T08:45:42Z</time>
      </trkpt>
      <trkpt lat="44.88031" lon="-0.7892">
        <ele>33</ele>
        <time>2017-07-30T08:45:44Z</time>
      </trkpt>
      <trkpt lat="44.88029" lon="-0.78908">
        <ele>33</ele>
        <time>2017-07-30T08:45:46Z</time>
      </trkpt>
      <trkpt lat="44.8802" lon="-0.78898">
        <ele>33</ele>
        <time>2017-07-30T08:45:48Z</time>
      </trkpt>
      <trkpt lat="44.88012" lon="-0.7889">
        <ele>33</ele>
        <time>2017-07-30T08:45:50Z</time>
      </trkpt>
      <trkpt lat="44.88007" lon="-0.78881">
        <ele>33</ele>
        <time>2017-07-30T08:45:52Z</time>
      </trkpt>
      <trkpt lat="44.88002" lon="-0.78876">
        <ele>33</ele>
        <time>2017-07-30T08:45:54Z</time>
      </trkpt>
      <trkpt lat="44.87995" lon="-0.78878">
        <ele>33</ele>
        <time>2017-07-30T08:45:56Z</time>
      </trkpt>
      <trkpt lat="44.87985" lon="-0.78887">
        <ele>33</ele>
        <time>2017-07-30T08:46:00Z</time>
      </trkpt>
      <trkpt lat="44.8798" lon="-0.78894">
        <ele>34</ele>
        <time>2017-07-30T08:46:02Z</time>
      </trkpt>
      <trkpt lat="44.87974" lon="-0.78901">
        <ele>34</ele>
        <time>2017-07-30T08:46:04Z</time>
      </trkpt>
      <trkpt lat="44.87968" lon="-0.78908">
        <ele>34</ele>
        <time>2017-07-30T08:46:06Z</time>
      </trkpt>
      <trkpt lat="44.87963" lon="-0.78913">
        <ele>34</ele>
        <time>2017-07-30T08:46:08Z</time>
      </trkpt>
      <trkpt lat="44.87959" lon="-0.78917">
        <ele>34</ele>
        <time>2017-07-30T08:46:10Z</time>
      </trkpt>
      <trkpt lat="44.87955" lon="-0.78922">
        <ele>34</ele>
        <time>2017-07-30T08:46:12Z</time>
      </trkpt>
      <trkpt lat="44.8795" lon="-0.78931">
        <ele>34</ele>
        <time>2017-07-30T08:46:16Z</time>
      </trkpt>
      <trkpt lat="44.87952" lon="-0.78939">
        <ele>34</ele>
        <time>2017-07-30T08:46:34Z</time>
      </trkpt>
      <trkpt lat="44.87957" lon="-0.78946">
        <ele>34</ele>
        <time>2017-07-30T08:46:36Z</time>
      </trkpt>
      <trkpt lat="44.87961" lon="-0.78952">
        <ele>34</ele>
        <time>2017-07-30T08:46:38Z</time>
      </trkpt>
      <trkpt lat="44.87963" lon="-0.78958">
        <ele>34</ele>
        <time>2017-07-30T08:46:40Z</time>
      </trkpt>
      <trkpt lat="44.87968" lon="-0.78965">
        <ele>34</ele>
        <time>2017-07-30T08:46:42Z</time>
      </trkpt>
      <trkpt lat="44.87975" lon="-0.78976">
        <ele>34</ele>
        <time>2017-07-30T08:46:44Z</time>
      </trkpt>
      <trkpt lat="44.8798" lon="-0.78985">
        <ele>34</ele>
        <time>2017-07-30T08:46:46Z</time>
      </trkpt>
      <trkpt lat="44.87985" lon="-0.78993">
        <ele>34</ele>
        <time>2017-07-30T08:46:48Z</time>
      </trkpt>
      <trkpt lat="44.87991" lon="-0.78996">
        <ele>34</ele>
        <time>2017-07-30T08:46:50Z</time>
      </trkpt>
      <trkpt lat="44.87998" lon="-0.79002">
        <ele>34</ele>
        <time>2017-07-30T08:46:52Z</time>
      </trkpt>
      <trkpt lat="44.88007" lon="-0.79006">
        <ele>34</ele>
        <time>2017-07-30T08:46:54Z</time>
      </trkpt>
      <trkpt lat="44.88015" lon="-0.79012">
        <ele>34</ele>
        <time>2017-07-30T08:46:56Z</time>
      </trkpt>
      <trkpt lat="44.88023" lon="-0.79016">
        <ele>33</ele>
        <time>2017-07-30T08:46:58Z</time>
      </trkpt>
      <trkpt lat="44.88029" lon="-0.7902">
        <ele>33</ele>
        <time>2017-07-30T08:47:00Z</time>
      </trkpt>
      <trkpt lat="44.88037" lon="-0.79027">
        <ele>33</ele>
        <time>2017-07-30T08:47:02Z</time>
      </trkpt>
      <trkpt lat="44.88044" lon="-0.79033">
        <ele>33</ele>
        <time>2017-07-30T08:47:04Z</time>
      </trkpt>
      <trkpt lat="44.88051" lon="-0.79032">
        <ele>33</ele>
        <time>2017-07-30T08:47:06Z</time>
      </trkpt>
      <trkpt lat="44.88058" lon="-0.79039">
        <ele>33</ele>
        <time>2017-07-30T08:47:08Z</time>
      </trkpt>
      <trkpt lat="44.88067" lon="-0.79047">
        <ele>33</ele>
        <time>2017-07-30T08:47:10Z</time>
      </trkpt>
      <trkpt lat="44.88076" lon="-0.79051">
        <ele>32</ele>
        <time>2017-07-30T08:47:12Z</time>
      </trkpt>
      <trkpt lat="44.88086" lon="-0.79053">
        <ele>33</ele>
        <time>2017-07-30T08:47:16Z</time>
      </trkpt>
      <trkpt lat="44.88092" lon="-0.79066">
        <ele>32</ele>
        <time>2017-07-30T08:47:18Z</time>
      </trkpt>
      <trkpt lat="44.88098" lon="-0.79075">
        <ele>32</ele>
        <time>2017-07-30T08:47:20Z</time>
      </trkpt>
      <trkpt lat="44.88106" lon="-0.79078">
        <ele>33</ele>
        <time>2017-07-30T08:47:22Z</time>
      </trkpt>
      <trkpt lat="44.88117" lon="-0.79077">
        <ele>33</ele>
        <time>2017-07-30T08:47:24Z</time>
      </trkpt>
      <trkpt lat="44.88126" lon="-0.79083">
        <ele>33</ele>
        <time>2017-07-30T08:47:26Z</time>
      </trkpt>
      <trkpt lat="44.88134" lon="-0.79087">
        <ele>34</ele>
        <time>2017-07-30T08:47:28Z</time>
      </trkpt>
      <trkpt lat="44.88142" lon="-0.79087">
        <ele>34</ele>
        <time>2017-07-30T08:47:30Z</time>
      </trkpt>
      <trkpt lat="44.88149" lon="-0.79087">
        <ele>35</ele>
        <time>2017-07-30T08:47:32Z</time>
      </trkpt>
      <trkpt lat="44.88156" lon="-0.79093">
        <ele>35</ele>
        <time>2017-07-30T08:47:34Z</time>
      </trkpt>
      <trkpt lat="44.88164" lon="-0.79098">
        <ele>35</ele>
        <time>2017-07-30T08:47:36Z</time>
      </trkpt>
      <trkpt lat="44.8817" lon="-0.79098">
        <ele>35</ele>
        <time>2017-07-30T08:47:38Z</time>
      </trkpt>
      <trkpt lat="44.88179" lon="-0.79104">
        <ele>36</ele>
        <time>2017-07-30T08:47:42Z</time>
      </trkpt>
      <trkpt lat="44.88185" lon="-0.79107">
        <ele>36</ele>
        <time>2017-07-30T08:47:44Z</time>
      </trkpt>
      <trkpt lat="44.8819" lon="-0.79113">
        <ele>36</ele>
        <time>2017-07-30T08:47:46Z</time>
      </trkpt>
      <trkpt lat="44.88194" lon="-0.7912">
        <ele>36</ele>
        <time>2017-07-30T08:47:48Z</time>
      </trkpt>
      <trkpt lat="44.88199" lon="-0.79129">
        <ele>36</ele>
        <time>2017-07-30T08:47:50Z</time>
      </trkpt>
      <trkpt lat="44.88203" lon="-0.79138">
        <ele>36</ele>
        <time>2017-07-30T08:47:52Z</time>
      </trkpt>
      <trkpt lat="44.88207" lon="-0.79144">
        <ele>36</ele>
        <time>2017-07-30T08:47:54Z</time>
      </trkpt>
      <trkpt lat="44.88212" lon="-0.79154">
        <ele>36</ele>
        <time>2017-07-30T08:47:56Z</time>
      </trkpt>
      <trkpt lat="44.88216" lon="-0.79162">
        <ele>36</ele>
        <time>2017-07-30T08:47:58Z</time>
      </trkpt>
      <trkpt lat="44.8822" lon="-0.7917">
        <ele>36</ele>
        <time>2017-07-30T08:48:00Z</time>
      </trkpt>
      <trkpt lat="44.88222" lon="-0.79176">
        <ele>36</ele>
        <time>2017-07-30T08:48:02Z</time>
      </trkpt>
      <trkpt lat="44.88226" lon="-0.79184">
        <ele>36</ele>
        <time>2017-07-30T08:48:04Z</time>
      </trkpt>
      <trkpt lat="44.88226" lon="-0.79195">
        <ele>36</ele>
        <time>2017-07-30T08:48:06Z</time>
      </trkpt>
      <trkpt lat="44.88226" lon="-0.79207">
        <ele>36</ele>
        <time>2017-07-30T08:48:08Z</time>
      </trkpt>
      <trkpt lat="44.88227" lon="-0.79218">
        <ele>36</ele>
        <time>2017-07-30T08:48:10Z</time>
      </trkpt>
      <trkpt lat="44.88227" lon="-0.7923">
        <ele>36</ele>
        <time>2017-07-30T08:48:12Z</time>
      </trkpt>
      <trkpt lat="44.88225" lon="-0.79239">
        <ele>36</ele>
        <time>2017-07-30T08:48:14Z</time>
      </trkpt>
      <trkpt lat="44.88222" lon="-0.79248">
        <ele>36</ele>
        <time>2017-07-30T08:48:16Z</time>
      </trkpt>
      <trkpt lat="44.88216" lon="-0.79256">
        <ele>35</ele>
        <time>2017-07-30T08:48:18Z</time>
      </trkpt>
      <trkpt lat="44.8821" lon="-0.79258">
        <ele>35</ele>
        <time>2017-07-30T08:48:20Z</time>
      </trkpt>
      <trkpt lat="44.88206" lon="-0.79263">
        <ele>36</ele>
        <time>2017-07-30T08:48:22Z</time>
      </trkpt>
      <trkpt lat="44.88203" lon="-0.79269">
        <ele>36</ele>
        <time>2017-07-30T08:48:24Z</time>
      </trkpt>
      <trkpt lat="44.88202" lon="-0.79278">
        <ele>36</ele>
        <time>2017-07-30T08:48:26Z</time>
      </trkpt>
      <trkpt lat="44.88201" lon="-0.79286">
        <ele>36</ele>
        <time>2017-07-30T08:48:28Z</time>
      </trkpt>
      <trkpt lat="44.88202" lon="-0.79298">
        <ele>36</ele>
        <time>2017-07-30T08:48:30Z</time>
      </trkpt>
      <trkpt lat="44.88203" lon="-0.79306">
        <ele>36</ele>
        <time>2017-07-30T08:48:32Z</time>
      </trkpt>
      <trkpt lat="44.88204" lon="-0.79314">
        <ele>36</ele>
        <time>2017-07-30T08:48:34Z</time>
      </trkpt>
      <trkpt lat="44.88206" lon="-0.79322">
        <ele>36</ele>
        <time>2017-07-30T08:48:36Z</time>
      </trkpt>
      <trkpt lat="44.8821" lon="-0.79335">
        <ele>35</ele>
        <time>2017-07-30T08:48:40Z</time>
      </trkpt>
      <trkpt lat="44.88213" lon="-0.79345">
        <ele>35</ele>
        <time>2017-07-30T08:48:42Z</time>
      </trkpt>
      <trkpt lat="44.88213" lon="-0.79353">
        <ele>34</ele>
        <time>2017-07-30T08:48:44Z</time>
      </trkpt>
      <trkpt lat="44.88211" lon="-0.79362">
        <ele>34</ele>
        <time>2017-07-30T08:48:46Z</time>
      </trkpt>
      <trkpt lat="44.88208" lon="-0.79375">
        <ele>34</ele>
        <time>2017-07-30T08:48:50Z</time>
      </trkpt>
      <trkpt lat="44.88206" lon="-0.79384">
        <ele>34</ele>
        <time>2017-07-30T08:48:54Z</time>
      </trkpt>
      <trkpt lat="44.88205" lon="-0.79393">
        <ele>34</ele>
        <time>2017-07-30T08:48:58Z</time>
      </trkpt>
      <trkpt lat="44.88204" lon="-0.79401">
        <ele>34</ele>
        <time>2017-07-30T08:49:04Z</time>
      </trkpt>
      <trkpt lat="44.88203" lon="-0.79409">
        <ele>34</ele>
        <time>2017-07-30T08:49:10Z</time>
      </trkpt>
      <trkpt lat="44.88199" lon="-0.79423">
        <ele>34</ele>
        <time>2017-07-30T08:49:18Z</time>
      </trkpt>
      <trkpt lat="44.88196" lon="-0.79431">
        <ele>34</ele>
        <time>2017-07-30T08:49:20Z</time>
      </trkpt>
      <trkpt lat="44.88195" lon="-0.79442">
        <ele>34</ele>
        <time>2017-07-30T08:49:22Z</time>
      </trkpt>
      <trkpt lat="44.88196" lon="-0.79454">
        <ele>34</ele>
        <time>2017-07-30T08:49:30Z</time>
      </trkpt>
      <trkpt lat="44.88198" lon="-0.79464">
        <ele>34</ele>
        <time>2017-07-30T08:49:34Z</time>
      </trkpt>
      <trkpt lat="44.88202" lon="-0.79468">
        <ele>34</ele>
        <time>2017-07-30T08:49:38Z</time>
      </trkpt>
      <trkpt lat="44.88206" lon="-0.79474">
        <ele>34</ele>
        <time>2017-07-30T08:49:42Z</time>
      </trkpt>
      <trkpt lat="44.8821" lon="-0.79478">
        <ele>34</ele>
        <time>2017-07-30T08:49:48Z</time>
      </trkpt>
      <trkpt lat="44.88215" lon="-0.79486">
        <ele>33</ele>
        <time>2017-07-30T08:49:54Z</time>
      </trkpt>
      <trkpt lat="44.88218" lon="-0.79491">
        <ele>33</ele>
        <time>2017-07-30T08:50:00Z</time>
      </trkpt>
      <trkpt lat="44.88221" lon="-0.79498">
        <ele>33</ele>
        <time>2017-07-30T08:50:06Z</time>
      </trkpt>
      <trkpt lat="44.88224" lon="-0.79508">
        <ele>35</ele>
        <time>2017-07-30T08:50:10Z</time>
      </trkpt>
      <trkpt lat="44.88225" lon="-0.79518">
        <ele>35</ele>
        <time>2017-07-30T08:50:12Z</time>
      </trkpt>
      <trkpt lat="44.88226" lon="-0.7953">
        <ele>36</ele>
        <time>2017-07-30T08:50:14Z</time>
      </trkpt>
      <trkpt lat="44.88218" lon="-0.79541">
        <ele>36</ele>
        <time>2017-07-30T08:50:18Z</time>
      </trkpt>
      <trkpt lat="44.88214" lon="-0.79551">
        <ele>36</ele>
        <time>2017-07-30T08:50:22Z</time>
      </trkpt>
      <trkpt lat="44.88215" lon="-0.79561">
        <ele>37</ele>
        <time>2017-07-30T08:50:24Z</time>
      </trkpt>
      <trkpt lat="44.88219" lon="-0.79569">
        <ele>37</ele>
        <time>2017-07-30T08:50:26Z</time>
      </trkpt>
      <trkpt lat="44.88219" lon="-0.7958">
        <ele>37</ele>
        <time>2017-07-30T08:50:28Z</time>
      </trkpt>
      <trkpt lat="44.88222" lon="-0.79589">
        <ele>39</ele>
        <time>2017-07-30T08:50:30Z</time>
      </trkpt>
      <trkpt lat="44.88226" lon="-0.79597">
        <ele>39</ele>
        <time>2017-07-30T08:50:32Z</time>
      </trkpt>
      <trkpt lat="44.88229" lon="-0.79605">
        <ele>39</ele>
        <time>2017-07-30T08:50:34Z</time>
      </trkpt>
      <trkpt lat="44.88234" lon="-0.79613">
        <ele>39</ele>
        <time>2017-07-30T08:50:36Z</time>
      </trkpt>
      <trkpt lat="44.88239" lon="-0.79623">
        <ele>39</ele>
        <time>2017-07-30T08:50:38Z</time>
      </trkpt>
      <trkpt lat="44.88244" lon="-0.79628">
        <ele>39</ele>
        <time>2017-07-30T08:50:40Z</time>
      </trkpt>
      <trkpt lat="44.88249" lon="-0.79634">
        <ele>39</ele>
        <time>2017-07-30T08:50:42Z</time>
      </trkpt>
      <trkpt lat="44.88254" lon="-0.79644">
        <ele>37</ele>
        <time>2017-07-30T08:50:44Z</time>
      </trkpt>
      <trkpt lat="44.8826" lon="-0.79652">
        <ele>37</ele>
        <time>2017-07-30T08:50:46Z</time>
      </trkpt>
      <trkpt lat="44.88263" lon="-0.79663">
        <ele>38</ele>
        <time>2017-07-30T08:50:48Z</time>
      </trkpt>
      <trkpt lat="44.88267" lon="-0.79672">
        <ele>38</ele>
        <time>2017-07-30T08:50:50Z</time>
      </trkpt>
      <trkpt lat="44.88274" lon="-0.79682">
        <ele>37</ele>
        <time>2017-07-30T08:50:52Z</time>
      </trkpt>
      <trkpt lat="44.8828" lon="-0.7969">
        <ele>37</ele>
        <time>2017-07-30T08:50:54Z</time>
      </trkpt>
      <trkpt lat="44.88287" lon="-0.79697">
        <ele>37</ele>
        <time>2017-07-30T08:50:58Z</time>
      </trkpt>
      <trkpt lat="44.88292" lon="-0.79704">
        <ele>36</ele>
        <time>2017-07-30T08:51:00Z</time>
      </trkpt>
      <trkpt lat="44.88294" lon="-0.79714">
        <ele>36</ele>
        <time>2017-07-30T08:51:02Z</time>
      </trkpt>
      <trkpt lat="44.88296" lon="-0.79722">
        <ele>37</ele>
        <time>2017-07-30T08:51:04Z</time>
      </trkpt>
      <trkpt lat="44.88298" lon="-0.79732">
        <ele>37</ele>
        <time>2017-07-30T08:51:06Z</time>
      </trkpt>
      <trkpt lat="44.88297" lon="-0.79743">
        <ele>37</ele>
        <time>2017-07-30T08:51:08Z</time>
      </trkpt>
      <trkpt lat="44.88294" lon="-0.79749">
        <ele>37</ele>
        <time>2017-07-30T08:51:10Z</time>
      </trkpt>
      <trkpt lat="44.88293" lon="-0.79757">
        <ele>37</ele>
        <time>2017-07-30T08:51:12Z</time>
      </trkpt>
      <trkpt lat="44.88291" lon="-0.79766">
        <ele>37</ele>
        <time>2017-07-30T08:51:14Z</time>
      </trkpt>
      <trkpt lat="44.88291" lon="-0.79777">
        <ele>37</ele>
        <time>2017-07-30T08:51:16Z</time>
      </trkpt>
      <trkpt lat="44.88297" lon="-0.7979">
        <ele>37</ele>
        <time>2017-07-30T08:51:20Z</time>
      </trkpt>
      <trkpt lat="44.883" lon="-0.79801">
        <ele>37</ele>
        <time>2017-07-30T08:51:22Z</time>
      </trkpt>
      <trkpt lat="44.88301" lon="-0.79811">
        <ele>37</ele>
        <time>2017-07-30T08:51:24Z</time>
      </trkpt>
      <trkpt lat="44.88305" lon="-0.79824">
        <ele>37</ele>
        <time>2017-07-30T08:51:26Z</time>
      </trkpt>
      <trkpt lat="44.88307" lon="-0.79834">
        <ele>38</ele>
        <time>2017-07-30T08:51:28Z</time>
      </trkpt>
      <trkpt lat="44.88308" lon="-0.79846">
        <ele>38</ele>
        <time>2017-07-30T08:51:30Z</time>
      </trkpt>
      <trkpt lat="44.88306" lon="-0.79859">
        <ele>38</ele>
        <time>2017-07-30T08:51:32Z</time>
      </trkpt>
      <trkpt lat="44.88303" lon="-0.7987">
        <ele>38</ele>
        <time>2017-07-30T08:51:34Z</time>
      </trkpt>
      <trkpt lat="44.883" lon="-0.79881">
        <ele>38</ele>
        <time>2017-07-30T08:51:36Z</time>
      </trkpt>
      <trkpt lat="44.88297" lon="-0.7989">
        <ele>38</ele>
        <time>2017-07-30T08:51:38Z</time>
      </trkpt>
      <trkpt lat="44.88294" lon="-0.79901">
        <ele>38</ele>
        <time>2017-07-30T08:51:40Z</time>
      </trkpt>
      <trkpt lat="44.88291" lon="-0.79913">
        <ele>38</ele>
        <time>2017-07-30T08:51:42Z</time>
      </trkpt>
      <trkpt lat="44.88287" lon="-0.79924">
        <ele>39</ele>
        <time>2017-07-30T08:51:44Z</time>
      </trkpt>
      <trkpt lat="44.88284" lon="-0.79935">
        <ele>39</ele>
        <time>2017-07-30T08:51:46Z</time>
      </trkpt>
      <trkpt lat="44.88283" lon="-0.79946">
        <ele>39</ele>
        <time>2017-07-30T08:51:48Z</time>
      </trkpt>
      <trkpt lat="44.88281" lon="-0.79957">
        <ele>39</ele>
        <time>2017-07-30T08:51:50Z</time>
      </trkpt>
      <trkpt lat="44.88277" lon="-0.79971">
        <ele>39</ele>
        <time>2017-07-30T08:51:52Z</time>
      </trkpt>
      <trkpt lat="44.88271" lon="-0.79985">
        <ele>39</ele>
        <time>2017-07-30T08:51:54Z</time>
      </trkpt>
      <trkpt lat="44.8827" lon="-0.79995">
        <ele>39</ele>
        <time>2017-07-30T08:51:56Z</time>
      </trkpt>
      <trkpt lat="44.88269" lon="-0.80006">
        <ele>39</ele>
        <time>2017-07-30T08:51:58Z</time>
      </trkpt>
      <trkpt lat="44.8827" lon="-0.80017">
        <ele>39</ele>
        <time>2017-07-30T08:52:00Z</time>
      </trkpt>
      <trkpt lat="44.88273" lon="-0.80033">
        <ele>39</ele>
        <time>2017-07-30T08:52:02Z</time>
      </trkpt>
      <trkpt lat="44.88278" lon="-0.80042">
        <ele>39</ele>
        <time>2017-07-30T08:52:04Z</time>
      </trkpt>
      <trkpt lat="44.88283" lon="-0.80054">
        <ele>39</ele>
        <time>2017-07-30T08:52:06Z</time>
      </trkpt>
      <trkpt lat="44.88289" lon="-0.80064">
        <ele>39</ele>
        <time>2017-07-30T08:52:08Z</time>
      </trkpt>
      <trkpt lat="44.88297" lon="-0.80069">
        <ele>38</ele>
        <time>2017-07-30T08:52:10Z</time>
      </trkpt>
      <trkpt lat="44.88302" lon="-0.80075">
        <ele>38</ele>
        <time>2017-07-30T08:52:12Z</time>
      </trkpt>
      <trkpt lat="44.88311" lon="-0.80085">
        <ele>38</ele>
        <time>2017-07-30T08:52:14Z</time>
      </trkpt>
      <trkpt lat="44.88317" lon="-0.80097">
        <ele>38</ele>
        <time>2017-07-30T08:52:16Z</time>
      </trkpt>
      <trkpt lat="44.8832" lon="-0.8011">
        <ele>38</ele>
        <time>2017-07-30T08:52:18Z</time>
      </trkpt>
      <trkpt lat="44.88323" lon="-0.80117">
        <ele>38</ele>
        <time>2017-07-30T08:52:20Z</time>
      </trkpt>
      <trkpt lat="44.88326" lon="-0.80133">
        <ele>38</ele>
        <time>2017-07-30T08:52:24Z</time>
      </trkpt>
      <trkpt lat="44.88329" lon="-0.80141">
        <ele>38</ele>
        <time>2017-07-30T08:52:26Z</time>
      </trkpt>
      <trkpt lat="44.88331" lon="-0.80148">
        <ele>38</ele>
        <time>2017-07-30T08:52:28Z</time>
      </trkpt>
      <trkpt lat="44.88331" lon="-0.80157">
        <ele>38</ele>
        <time>2017-07-30T08:52:30Z</time>
      </trkpt>
      <trkpt lat="44.88332" lon="-0.80166">
        <ele>38</ele>
        <time>2017-07-30T08:52:32Z</time>
      </trkpt>
      <trkpt lat="44.88335" lon="-0.80176">
        <ele>38</ele>
        <time>2017-07-30T08:52:34Z</time>
      </trkpt>
      <trkpt lat="44.88339" lon="-0.80187">
        <ele>38</ele>
        <time>2017-07-30T08:52:36Z</time>
      </trkpt>
      <trkpt lat="44.88334" lon="-0.80198">
        <ele>37</ele>
        <time>2017-07-30T08:52:40Z</time>
      </trkpt>
      <trkpt lat="44.88329" lon="-0.80202">
        <ele>38</ele>
        <time>2017-07-30T08:52:42Z</time>
      </trkpt>
      <trkpt lat="44.88325" lon="-0.80208">
        <ele>38</ele>
        <time>2017-07-30T08:52:44Z</time>
      </trkpt>
      <trkpt lat="44.88324" lon="-0.80218">
        <ele>38</ele>
        <time>2017-07-30T08:52:46Z</time>
      </trkpt>
      <trkpt lat="44.88324" lon="-0.8023">
        <ele>37</ele>
        <time>2017-07-30T08:52:48Z</time>
      </trkpt>
      <trkpt lat="44.88324" lon="-0.80244">
        <ele>37</ele>
        <time>2017-07-30T08:52:50Z</time>
      </trkpt>
      <trkpt lat="44.88325" lon="-0.80258">
        <ele>37</ele>
        <time>2017-07-30T08:52:52Z</time>
      </trkpt>
      <trkpt lat="44.8832" lon="-0.80272">
        <ele>37</ele>
        <time>2017-07-30T08:52:54Z</time>
      </trkpt>
      <trkpt lat="44.88317" lon="-0.80283">
        <ele>37</ele>
        <time>2017-07-30T08:52:56Z</time>
      </trkpt>
      <trkpt lat="44.88313" lon="-0.80291">
        <ele>37</ele>
        <time>2017-07-30T08:52:58Z</time>
      </trkpt>
      <trkpt lat="44.88313" lon="-0.80303">
        <ele>37</ele>
        <time>2017-07-30T08:53:00Z</time>
      </trkpt>
      <trkpt lat="44.8831" lon="-0.80314">
        <ele>37</ele>
        <time>2017-07-30T08:53:02Z</time>
      </trkpt>
      <trkpt lat="44.88311" lon="-0.80321">
        <ele>37</ele>
        <time>2017-07-30T08:53:04Z</time>
      </trkpt>
      <trkpt lat="44.88312" lon="-0.80332">
        <ele>37</ele>
        <time>2017-07-30T08:53:06Z</time>
      </trkpt>
      <trkpt lat="44.88313" lon="-0.80344">
        <ele>37</ele>
        <time>2017-07-30T08:53:08Z</time>
      </trkpt>
      <trkpt lat="44.88315" lon="-0.80356">
        <ele>37</ele>
        <time>2017-07-30T08:53:10Z</time>
      </trkpt>
      <trkpt lat="44.88316" lon="-0.80365">
        <ele>37</ele>
        <time>2017-07-30T08:53:12Z</time>
      </trkpt>
      <trkpt lat="44.88317" lon="-0.80377">
        <ele>37</ele>
        <time>2017-07-30T08:53:14Z</time>
      </trkpt>
      <trkpt lat="44.88318" lon="-0.80387">
        <ele>38</ele>
        <time>2017-07-30T08:53:16Z</time>
      </trkpt>
      <trkpt lat="44.88318" lon="-0.80395">
        <ele>38</ele>
        <time>2017-07-30T08:53:18Z</time>
      </trkpt>
      <trkpt lat="44.88314" lon="-0.80402">
        <ele>38</ele>
        <time>2017-07-30T08:53:20Z</time>
      </trkpt>
      <trkpt lat="44.8831" lon="-0.80406">
        <ele>38</ele>
        <time>2017-07-30T08:53:22Z</time>
      </trkpt>
      <trkpt lat="44.8831" lon="-0.80413">
        <ele>38</ele>
        <time>2017-07-30T08:53:24Z</time>
      </trkpt>
      <trkpt lat="44.88312" lon="-0.80421">
        <ele>38</ele>
        <time>2017-07-30T08:53:26Z</time>
      </trkpt>
      <trkpt lat="44.88313" lon="-0.8043">
        <ele>38</ele>
        <time>2017-07-30T08:53:28Z</time>
      </trkpt>
      <trkpt lat="44.8831" lon="-0.80437">
        <ele>38</ele>
        <time>2017-07-30T08:53:30Z</time>
      </trkpt>
      <trkpt lat="44.88307" lon="-0.80445">
        <ele>39</ele>
        <time>2017-07-30T08:53:32Z</time>
      </trkpt>
      <trkpt lat="44.88303" lon="-0.80453">
        <ele>39</ele>
        <time>2017-07-30T08:53:34Z</time>
      </trkpt>
      <trkpt lat="44.88303" lon="-0.80464">
        <ele>39</ele>
        <time>2017-07-30T08:53:36Z</time>
      </trkpt>
      <trkpt lat="44.88304" lon="-0.80475">
        <ele>39</ele>
        <time>2017-07-30T08:53:38Z</time>
      </trkpt>
      <trkpt lat="44.88306" lon="-0.80486">
        <ele>39</ele>
        <time>2017-07-30T08:53:40Z</time>
      </trkpt>
      <trkpt lat="44.88311" lon="-0.80489">
        <ele>39</ele>
        <time>2017-07-30T08:53:42Z</time>
      </trkpt>
      <trkpt lat="44.88316" lon="-0.805">
        <ele>39</ele>
        <time>2017-07-30T08:53:44Z</time>
      </trkpt>
      <trkpt lat="44.88319" lon="-0.80507">
        <ele>39</ele>
        <time>2017-07-30T08:53:46Z</time>
      </trkpt>
      <trkpt lat="44.88322" lon="-0.80514">
        <ele>38</ele>
        <time>2017-07-30T08:53:48Z</time>
      </trkpt>
      <trkpt lat="44.88326" lon="-0.80521">
        <ele>39</ele>
        <time>2017-07-30T08:53:50Z</time>
      </trkpt>
      <trkpt lat="44.88327" lon="-0.80531">
        <ele>39</ele>
        <time>2017-07-30T08:53:52Z</time>
      </trkpt>
      <trkpt lat="44.8833" lon="-0.8054">
        <ele>38</ele>
        <time>2017-07-30T08:53:54Z</time>
      </trkpt>
      <trkpt lat="44.88331" lon="-0.80553">
        <ele>38</ele>
        <time>2017-07-30T08:53:56Z</time>
      </trkpt>
      <trkpt lat="44.8833" lon="-0.80565">
        <ele>38</ele>
        <time>2017-07-30T08:53:58Z</time>
      </trkpt>
      <trkpt lat="44.88335" lon="-0.80571">
        <ele>37</ele>
        <time>2017-07-30T08:54:00Z</time>
      </trkpt>
      <trkpt lat="44.88337" lon="-0.80581">
        <ele>37</ele>
        <time>2017-07-30T08:54:02Z</time>
      </trkpt>
      <trkpt lat="44.88337" lon="-0.80589">
        <ele>37</ele>
        <time>2017-07-30T08:54:04Z</time>
      </trkpt>
      <trkpt lat="44.88337" lon="-0.80599">
        <ele>37</ele>
        <time>2017-07-30T08:54:06Z</time>
      </trkpt>
      <trkpt lat="44.88337" lon="-0.80607">
        <ele>37</ele>
        <time>2017-07-30T08:54:08Z</time>
      </trkpt>
      <trkpt lat="44.88336" lon="-0.8062">
        <ele>37</ele>
        <time>2017-07-30T08:54:10Z</time>
      </trkpt>
      <trkpt lat="44.88336" lon="-0.80632">
        <ele>37</ele>
        <time>2017-07-30T08:54:12Z</time>
      </trkpt>
      <trkpt lat="44.88332" lon="-0.8064">
        <ele>38</ele>
        <time>2017-07-30T08:54:14Z</time>
      </trkpt>
      <trkpt lat="44.88328" lon="-0.80649">
        <ele>38</ele>
        <time>2017-07-30T08:54:16Z</time>
      </trkpt>
      <trkpt lat="44.88324" lon="-0.80659">
        <ele>37</ele>
        <time>2017-07-30T08:54:18Z</time>
      </trkpt>
      <trkpt lat="44.88319" lon="-0.80671">
        <ele>37</ele>
        <time>2017-07-30T08:54:20Z</time>
      </trkpt>
      <trkpt lat="44.88313" lon="-0.80676">
        <ele>37</ele>
        <time>2017-07-30T08:54:22Z</time>
      </trkpt>
      <trkpt lat="44.88308" lon="-0.8068">
        <ele>38</ele>
        <time>2017-07-30T08:54:24Z</time>
      </trkpt>
      <trkpt lat="44.88303" lon="-0.80686">
        <ele>38</ele>
        <time>2017-07-30T08:54:26Z</time>
      </trkpt>
      <trkpt lat="44.88304" lon="-0.80697">
        <ele>38</ele>
        <time>2017-07-30T08:54:28Z</time>
      </trkpt>
      <trkpt lat="44.88297" lon="-0.80707">
        <ele>38</ele>
        <time>2017-07-30T08:54:30Z</time>
      </trkpt>
      <trkpt lat="44.88296" lon="-0.80719">
        <ele>38</ele>
        <time>2017-07-30T08:54:32Z</time>
      </trkpt>
      <trkpt lat="44.88293" lon="-0.80728">
        <ele>38</ele>
        <time>2017-07-30T08:54:34Z</time>
      </trkpt>
      <trkpt lat="44.88294" lon="-0.80738">
        <ele>38</ele>
        <time>2017-07-30T08:54:36Z</time>
      </trkpt>
      <trkpt lat="44.883" lon="-0.80739">
        <ele>37</ele>
        <time>2017-07-30T08:54:38Z</time>
      </trkpt>
      <trkpt lat="44.883" lon="-0.80733">
        <ele>37</ele>
        <time>2017-07-30T08:55:44Z</time>
      </trkpt>
      <trkpt lat="44.88299" lon="-0.80739">
        <ele>37</ele>
        <time>2017-07-30T08:56:14Z</time>
      </trkpt>
      <trkpt lat="44.88305" lon="-0.8074">
        <ele>37</ele>
        <time>2017-07-30T08:56:40Z</time>
      </trkpt>
      <trkpt lat="44.88311" lon="-0.80735">
        <ele>37</ele>
        <time>2017-07-30T08:56:42Z</time>
      </trkpt>
      <trkpt lat="44.88315" lon="-0.80726">
        <ele>37</ele>
        <time>2017-07-30T08:56:44Z</time>
      </trkpt>
      <trkpt lat="44.8832" lon="-0.80719">
        <ele>37</ele>
        <time>2017-07-30T08:56:46Z</time>
      </trkpt>
      <trkpt lat="44.88326" lon="-0.80713">
        <ele>37</ele>
        <time>2017-07-30T08:56:48Z</time>
      </trkpt>
      <trkpt lat="44.88331" lon="-0.80703">
        <ele>37</ele>
        <time>2017-07-30T08:56:50Z</time>
      </trkpt>
      <trkpt lat="44.88336" lon="-0.80692">
        <ele>37</ele>
        <time>2017-07-30T08:56:52Z</time>
      </trkpt>
      <trkpt lat="44.88337" lon="-0.80683">
        <ele>37</ele>
        <time>2017-07-30T08:56:54Z</time>
      </trkpt>
      <trkpt lat="44.88341" lon="-0.80675">
        <ele>37</ele>
        <time>2017-07-30T08:56:56Z</time>
      </trkpt>
      <trkpt lat="44.88341" lon="-0.80666">
        <ele>37</ele>
        <time>2017-07-30T08:56:58Z</time>
      </trkpt>
      <trkpt lat="44.88344" lon="-0.80657">
        <ele>37</ele>
        <time>2017-07-30T08:57:00Z</time>
      </trkpt>
      <trkpt lat="44.88348" lon="-0.80649">
        <ele>37</ele>
        <time>2017-07-30T08:57:02Z</time>
      </trkpt>
      <trkpt lat="44.88349" lon="-0.80638">
        <ele>37</ele>
        <time>2017-07-30T08:57:04Z</time>
      </trkpt>
      <trkpt lat="44.8835" lon="-0.80629">
        <ele>37</ele>
        <time>2017-07-30T08:57:06Z</time>
      </trkpt>
      <trkpt lat="44.88348" lon="-0.80619">
        <ele>37</ele>
        <time>2017-07-30T08:57:08Z</time>
      </trkpt>
      <trkpt lat="44.88347" lon="-0.80611">
        <ele>37</ele>
        <time>2017-07-30T08:57:10Z</time>
      </trkpt>
      <trkpt lat="44.88347" lon="-0.806">
        <ele>37</ele>
        <time>2017-07-30T08:57:12Z</time>
      </trkpt>
      <trkpt lat="44.88348" lon="-0.8059">
        <ele>37</ele>
        <time>2017-07-30T08:57:14Z</time>
      </trkpt>
      <trkpt lat="44.88351" lon="-0.80579">
        <ele>37</ele>
        <time>2017-07-30T08:57:16Z</time>
      </trkpt>
      <trkpt lat="44.88352" lon="-0.80566">
        <ele>37</ele>
        <time>2017-07-30T08:57:18Z</time>
      </trkpt>
      <trkpt lat="44.88354" lon="-0.80557">
        <ele>37</ele>
        <time>2017-07-30T08:57:20Z</time>
      </trkpt>
      <trkpt lat="44.88349" lon="-0.80544">
        <ele>37</ele>
        <time>2017-07-30T08:57:22Z</time>
      </trkpt>
      <trkpt lat="44.88344" lon="-0.80535">
        <ele>37</ele>
        <time>2017-07-30T08:57:24Z</time>
      </trkpt>
      <trkpt lat="44.88341" lon="-0.80525">
        <ele>37</ele>
        <time>2017-07-30T08:57:26Z</time>
      </trkpt>
      <trkpt lat="44.8834" lon="-0.80516">
        <ele>37</ele>
        <time>2017-07-30T08:57:28Z</time>
      </trkpt>
      <trkpt lat="44.88336" lon="-0.80504">
        <ele>38</ele>
        <time>2017-07-30T08:57:30Z</time>
      </trkpt>
      <trkpt lat="44.88337" lon="-0.80496">
        <ele>38</ele>
        <time>2017-07-30T08:57:32Z</time>
      </trkpt>
      <trkpt lat="44.88331" lon="-0.80483">
        <ele>38</ele>
        <time>2017-07-30T08:57:36Z</time>
      </trkpt>
      <trkpt lat="44.88325" lon="-0.80479">
        <ele>39</ele>
        <time>2017-07-30T08:57:38Z</time>
      </trkpt>
      <trkpt lat="44.88318" lon="-0.80473">
        <ele>39</ele>
        <time>2017-07-30T08:57:40Z</time>
      </trkpt>
      <trkpt lat="44.88314" lon="-0.80463">
        <ele>39</ele>
        <time>2017-07-30T08:57:42Z</time>
      </trkpt>
      <trkpt lat="44.88315" lon="-0.80453">
        <ele>39</ele>
        <time>2017-07-30T08:57:44Z</time>
      </trkpt>
      <trkpt lat="44.88319" lon="-0.80447">
        <ele>38</ele>
        <time>2017-07-30T08:57:46Z</time>
      </trkpt>
      <trkpt lat="44.88323" lon="-0.80444">
        <ele>38</ele>
        <time>2017-07-30T08:57:48Z</time>
      </trkpt>
      <trkpt lat="44.88328" lon="-0.80437">
        <ele>38</ele>
        <time>2017-07-30T08:57:50Z</time>
      </trkpt>
      <trkpt lat="44.88327" lon="-0.80427">
        <ele>38</ele>
        <time>2017-07-30T08:57:52Z</time>
      </trkpt>
      <trkpt lat="44.88326" lon="-0.80418">
        <ele>38</ele>
        <time>2017-07-30T08:57:54Z</time>
      </trkpt>
      <trkpt lat="44.88327" lon="-0.80409">
        <ele>37</ele>
        <time>2017-07-30T08:57:56Z</time>
      </trkpt>
      <trkpt lat="44.88332" lon="-0.80405">
        <ele>37</ele>
        <time>2017-07-30T08:57:58Z</time>
      </trkpt>
      <trkpt lat="44.88334" lon="-0.80398">
        <ele>37</ele>
        <time>2017-07-30T08:58:00Z</time>
      </trkpt>
      <trkpt lat="44.88336" lon="-0.80387">
        <ele>37</ele>
        <time>2017-07-30T08:58:02Z</time>
      </trkpt>
      <trkpt lat="44.88337" lon="-0.80378">
        <ele>37</ele>
        <time>2017-07-30T08:58:04Z</time>
      </trkpt>
      <trkpt lat="44.88338" lon="-0.80367">
        <ele>37</ele>
        <time>2017-07-30T08:58:06Z</time>
      </trkpt>
      <trkpt lat="44.88336" lon="-0.80357">
        <ele>36</ele>
        <time>2017-07-30T08:58:08Z</time>
      </trkpt>
      <trkpt lat="44.88335" lon="-0.80346">
        <ele>36</ele>
        <time>2017-07-30T08:58:10Z</time>
      </trkpt>
      <trkpt lat="44.88332" lon="-0.80335">
        <ele>35</ele>
        <time>2017-07-30T08:58:12Z</time>
      </trkpt>
      <trkpt lat="44.8833" lon="-0.80324">
        <ele>36</ele>
        <time>2017-07-30T08:58:14Z</time>
      </trkpt>
      <trkpt lat="44.8833" lon="-0.80314">
        <ele>36</ele>
        <time>2017-07-30T08:58:16Z</time>
      </trkpt>
      <trkpt lat="44.8833" lon="-0.80304">
        <ele>37</ele>
        <time>2017-07-30T08:58:18Z</time>
      </trkpt>
      <trkpt lat="44.88332" lon="-0.80296">
        <ele>37</ele>
        <time>2017-07-30T08:58:20Z</time>
      </trkpt>
      <trkpt lat="44.88335" lon="-0.80281">
        <ele>37</ele>
        <time>2017-07-30T08:58:24Z</time>
      </trkpt>
      <trkpt lat="44.88337" lon="-0.80271">
        <ele>37</ele>
        <time>2017-07-30T08:58:26Z</time>
      </trkpt>
      <trkpt lat="44.88337" lon="-0.80263">
        <ele>36</ele>
        <time>2017-07-30T08:58:28Z</time>
      </trkpt>
      <trkpt lat="44.88336" lon="-0.80247">
        <ele>36</ele>
        <time>2017-07-30T08:58:32Z</time>
      </trkpt>
      <trkpt lat="44.88333" lon="-0.80235">
        <ele>37</ele>
        <time>2017-07-30T08:58:34Z</time>
      </trkpt>
      <trkpt lat="44.88336" lon="-0.80227">
        <ele>37</ele>
        <time>2017-07-30T08:58:36Z</time>
      </trkpt>
      <trkpt lat="44.8834" lon="-0.80222">
        <ele>37</ele>
        <time>2017-07-30T08:58:38Z</time>
      </trkpt>
      <trkpt lat="44.88344" lon="-0.80216">
        <ele>37</ele>
        <time>2017-07-30T08:58:40Z</time>
      </trkpt>
      <trkpt lat="44.88347" lon="-0.80211">
        <ele>37</ele>
        <time>2017-07-30T08:58:42Z</time>
      </trkpt>
      <trkpt lat="44.88355" lon="-0.80206">
        <ele>37</ele>
        <time>2017-07-30T08:58:46Z</time>
      </trkpt>
      <trkpt lat="44.88361" lon="-0.80201">
        <ele>37</ele>
        <time>2017-07-30T08:58:48Z</time>
      </trkpt>
      <trkpt lat="44.88365" lon="-0.80196">
        <ele>37</ele>
        <time>2017-07-30T08:58:50Z</time>
      </trkpt>
      <trkpt lat="44.88367" lon="-0.80189">
        <ele>38</ele>
        <time>2017-07-30T08:58:52Z</time>
      </trkpt>
      <trkpt lat="44.88366" lon="-0.8018">
        <ele>38</ele>
        <time>2017-07-30T08:58:54Z</time>
      </trkpt>
      <trkpt lat="44.88363" lon="-0.80171">
        <ele>38</ele>
        <time>2017-07-30T08:58:56Z</time>
      </trkpt>
      <trkpt lat="44.8836" lon="-0.80165">
        <ele>37</ele>
        <time>2017-07-30T08:58:58Z</time>
      </trkpt>
      <trkpt lat="44.88358" lon="-0.80157">
        <ele>37</ele>
        <time>2017-07-30T08:59:00Z</time>
      </trkpt>
      <trkpt lat="44.88357" lon="-0.80143">
        <ele>37</ele>
        <time>2017-07-30T08:59:02Z</time>
      </trkpt>
      <trkpt lat="44.88353" lon="-0.80133">
        <ele>37</ele>
        <time>2017-07-30T08:59:04Z</time>
      </trkpt>
      <trkpt lat="44.8835" lon="-0.8012">
        <ele>37</ele>
        <time>2017-07-30T08:59:06Z</time>
      </trkpt>
      <trkpt lat="44.88347" lon="-0.80107">
        <ele>37</ele>
        <time>2017-07-30T08:59:08Z</time>
      </trkpt>
      <trkpt lat="44.88345" lon="-0.80098">
        <ele>36</ele>
        <time>2017-07-30T08:59:10Z</time>
      </trkpt>
      <trkpt lat="44.88341" lon="-0.80093">
        <ele>36</ele>
        <time>2017-07-30T08:59:12Z</time>
      </trkpt>
      <trkpt lat="44.88336" lon="-0.80081">
        <ele>36</ele>
        <time>2017-07-30T08:59:14Z</time>
      </trkpt>
      <trkpt lat="44.88329" lon="-0.80073">
        <ele>37</ele>
        <time>2017-07-30T08:59:16Z</time>
      </trkpt>
      <trkpt lat="44.88324" lon="-0.80069">
        <ele>37</ele>
        <time>2017-07-30T08:59:18Z</time>
      </trkpt>
      <trkpt lat="44.88321" lon="-0.80063">
        <ele>38</ele>
        <time>2017-07-30T08:59:20Z</time>
      </trkpt>
      <trkpt lat="44.88316" lon="-0.80054">
        <ele>38</ele>
        <time>2017-07-30T08:59:22Z</time>
      </trkpt>
      <trkpt lat="44.8831" lon="-0.80049">
        <ele>38</ele>
        <time>2017-07-30T08:59:24Z</time>
      </trkpt>
      <trkpt lat="44.88306" lon="-0.8004">
        <ele>38</ele>
        <time>2017-07-30T08:59:26Z</time>
      </trkpt>
      <trkpt lat="44.88301" lon="-0.80032">
        <ele>38</ele>
        <time>2017-07-30T08:59:28Z</time>
      </trkpt>
      <trkpt lat="44.88298" lon="-0.80022">
        <ele>38</ele>
        <time>2017-07-30T08:59:30Z</time>
      </trkpt>
      <trkpt lat="44.88297" lon="-0.80011">
        <ele>38</ele>
        <time>2017-07-30T08:59:32Z</time>
      </trkpt>
      <trkpt lat="44.88296" lon="-0.80003">
        <ele>38</ele>
        <time>2017-07-30T08:59:34Z</time>
      </trkpt>
      <trkpt lat="44.88299" lon="-0.79995">
        <ele>38</ele>
        <time>2017-07-30T08:59:36Z</time>
      </trkpt>
      <trkpt lat="44.88304" lon="-0.79981">
        <ele>38</ele>
        <time>2017-07-30T08:59:38Z</time>
      </trkpt>
      <trkpt lat="44.88306" lon="-0.79974">
        <ele>38</ele>
        <time>2017-07-30T08:59:40Z</time>
      </trkpt>
      <trkpt lat="44.88309" lon="-0.79968">
        <ele>38</ele>
        <time>2017-07-30T08:59:42Z</time>
      </trkpt>
      <trkpt lat="44.88311" lon="-0.79959">
        <ele>38</ele>
        <time>2017-07-30T08:59:44Z</time>
      </trkpt>
      <trkpt lat="44.88313" lon="-0.79947">
        <ele>38</ele>
        <time>2017-07-30T08:59:46Z</time>
      </trkpt>
      <trkpt lat="44.88315" lon="-0.79936">
        <ele>38</ele>
        <time>2017-07-30T08:59:48Z</time>
      </trkpt>
      <trkpt lat="44.8832" lon="-0.7992">
        <ele>38</ele>
        <time>2017-07-30T08:59:50Z</time>
      </trkpt>
      <trkpt lat="44.88326" lon="-0.79903">
        <ele>38</ele>
        <time>2017-07-30T08:59:52Z</time>
      </trkpt>
      <trkpt lat="44.88324" lon="-0.79892">
        <ele>38</ele>
        <time>2017-07-30T08:59:54Z</time>
      </trkpt>
      <trkpt lat="44.88324" lon="-0.79882">
        <ele>38</ele>
        <time>2017-07-30T08:59:56Z</time>
      </trkpt>
      <trkpt lat="44.88328" lon="-0.79877">
        <ele>38</ele>
        <time>2017-07-30T08:59:58Z</time>
      </trkpt>
      <trkpt lat="44.8833" lon="-0.79871">
        <ele>38</ele>
        <time>2017-07-30T09:00:00Z</time>
      </trkpt>
      <trkpt lat="44.88329" lon="-0.79857">
        <ele>38</ele>
        <time>2017-07-30T09:00:04Z</time>
      </trkpt>
      <trkpt lat="44.88328" lon="-0.79847">
        <ele>37</ele>
        <time>2017-07-30T09:00:06Z</time>
      </trkpt>
      <trkpt lat="44.88332" lon="-0.79838">
        <ele>37</ele>
        <time>2017-07-30T09:00:08Z</time>
      </trkpt>
      <trkpt lat="44.88329" lon="-0.79831">
        <ele>37</ele>
        <time>2017-07-30T09:00:12Z</time>
      </trkpt>
      <trkpt lat="44.88327" lon="-0.7982">
        <ele>37</ele>
        <time>2017-07-30T09:00:16Z</time>
      </trkpt>
      <trkpt lat="44.88324" lon="-0.79813">
        <ele>37</ele>
        <time>2017-07-30T09:00:20Z</time>
      </trkpt>
      <trkpt lat="44.88325" lon="-0.79806">
        <ele>37</ele>
        <time>2017-07-30T09:00:22Z</time>
      </trkpt>
      <trkpt lat="44.88323" lon="-0.79798">
        <ele>37</ele>
        <time>2017-07-30T09:00:24Z</time>
      </trkpt>
      <trkpt lat="44.88324" lon="-0.79791">
        <ele>37</ele>
        <time>2017-07-30T09:00:26Z</time>
      </trkpt>
      <trkpt lat="44.88326" lon="-0.79782">
        <ele>37</ele>
        <time>2017-07-30T09:00:28Z</time>
      </trkpt>
      <trkpt lat="44.88327" lon="-0.79771">
        <ele>37</ele>
        <time>2017-07-30T09:00:30Z</time>
      </trkpt>
      <trkpt lat="44.88329" lon="-0.79763">
        <ele>36</ele>
        <time>2017-07-30T09:00:32Z</time>
      </trkpt>
      <trkpt lat="44.88331" lon="-0.79754">
        <ele>36</ele>
        <time>2017-07-30T09:00:34Z</time>
      </trkpt>
      <trkpt lat="44.88334" lon="-0.79748">
        <ele>36</ele>
        <time>2017-07-30T09:00:36Z</time>
      </trkpt>
      <trkpt lat="44.88337" lon="-0.79741">
        <ele>36</ele>
        <time>2017-07-30T09:00:38Z</time>
      </trkpt>
      <trkpt lat="44.88339" lon="-0.79734">
        <ele>35</ele>
        <time>2017-07-30T09:00:40Z</time>
      </trkpt>
      <trkpt lat="44.8834" lon="-0.79722">
        <ele>35</ele>
        <time>2017-07-30T09:00:42Z</time>
      </trkpt>
      <trkpt lat="44.88345" lon="-0.79712">
        <ele>35</ele>
        <time>2017-07-30T09:00:44Z</time>
      </trkpt>
      <trkpt lat="44.88347" lon="-0.79701">
        <ele>35</ele>
        <time>2017-07-30T09:00:46Z</time>
      </trkpt>
      <trkpt lat="44.88351" lon="-0.79694">
        <ele>35</ele>
        <time>2017-07-30T09:00:48Z</time>
      </trkpt>
      <trkpt lat="44.88358" lon="-0.79694">
        <ele>35</ele>
        <time>2017-07-30T09:00:50Z</time>
      </trkpt>
      <trkpt lat="44.88364" lon="-0.79695">
        <ele>35</ele>
        <time>2017-07-30T09:00:52Z</time>
      </trkpt>
      <trkpt lat="44.88373" lon="-0.797">
        <ele>35</ele>
        <time>2017-07-30T09:00:54Z</time>
      </trkpt>
      <trkpt lat="44.88381" lon="-0.79709">
        <ele>35</ele>
        <time>2017-07-30T09:00:56Z</time>
      </trkpt>
      <trkpt lat="44.8839" lon="-0.79718">
        <ele>35</ele>
        <time>2017-07-30T09:01:00Z</time>
      </trkpt>
      <trkpt lat="44.884" lon="-0.79719">
        <ele>35</ele>
        <time>2017-07-30T09:01:02Z</time>
      </trkpt>
      <trkpt lat="44.88407" lon="-0.79717">
        <ele>35</ele>
        <time>2017-07-30T09:01:04Z</time>
      </trkpt>
      <trkpt lat="44.88412" lon="-0.7972">
        <ele>36</ele>
        <time>2017-07-30T09:01:06Z</time>
      </trkpt>
      <trkpt lat="44.88419" lon="-0.79723">
        <ele>36</ele>
        <time>2017-07-30T09:01:08Z</time>
      </trkpt>
      <trkpt lat="44.88423" lon="-0.79725">
        <ele>36</ele>
        <time>2017-07-30T09:01:10Z</time>
      </trkpt>
      <trkpt lat="44.88427" lon="-0.79728">
        <ele>36</ele>
        <time>2017-07-30T09:01:12Z</time>
      </trkpt>
      <trkpt lat="44.88433" lon="-0.79732">
        <ele>36</ele>
        <time>2017-07-30T09:01:14Z</time>
      </trkpt>
      <trkpt lat="44.88437" lon="-0.79736">
        <ele>36</ele>
        <time>2017-07-30T09:01:16Z</time>
      </trkpt>
      <trkpt lat="44.88441" lon="-0.7974">
        <ele>36</ele>
        <time>2017-07-30T09:01:20Z</time>
      </trkpt>
      <trkpt lat="44.88435" lon="-0.79735">
        <ele>36</ele>
        <time>2017-07-30T09:01:34Z</time>
      </trkpt>
      <trkpt lat="44.88431" lon="-0.7973">
        <ele>36</ele>
        <time>2017-07-30T09:01:36Z</time>
      </trkpt>
      <trkpt lat="44.88426" lon="-0.79725">
        <ele>36</ele>
        <time>2017-07-30T09:01:38Z</time>
      </trkpt>
      <trkpt lat="44.88422" lon="-0.79719">
        <ele>36</ele>
        <time>2017-07-30T09:01:40Z</time>
      </trkpt>
      <trkpt lat="44.88418" lon="-0.79709">
        <ele>35</ele>
        <time>2017-07-30T09:01:44Z</time>
      </trkpt>
      <trkpt lat="44.88412" lon="-0.79701">
        <ele>35</ele>
        <time>2017-07-30T09:01:48Z</time>
      </trkpt>
      <trkpt lat="44.88409" lon="-0.79696">
        <ele>35</ele>
        <time>2017-07-30T09:01:50Z</time>
      </trkpt>
      <trkpt lat="44.88404" lon="-0.79689">
        <ele>35</ele>
        <time>2017-07-30T09:01:52Z</time>
      </trkpt>
      <trkpt lat="44.88396" lon="-0.79682">
        <ele>35</ele>
        <time>2017-07-30T09:01:54Z</time>
      </trkpt>
      <trkpt lat="44.88389" lon="-0.79675">
        <ele>35</ele>
        <time>2017-07-30T09:01:56Z</time>
      </trkpt>
      <trkpt lat="44.88384" lon="-0.79668">
        <ele>34</ele>
        <time>2017-07-30T09:01:58Z</time>
      </trkpt>
      <trkpt lat="44.88378" lon="-0.79662">
        <ele>34</ele>
        <time>2017-07-30T09:02:00Z</time>
      </trkpt>
      <trkpt lat="44.88373" lon="-0.7966">
        <ele>33</ele>
        <time>2017-07-30T09:02:02Z</time>
      </trkpt>
      <trkpt lat="44.88369" lon="-0.79655">
        <ele>33</ele>
        <time>2017-07-30T09:02:06Z</time>
      </trkpt>
      <trkpt lat="44.88365" lon="-0.79649">
        <ele>33</ele>
        <time>2017-07-30T09:02:10Z</time>
      </trkpt>
      <trkpt lat="44.88358" lon="-0.79647">
        <ele>33</ele>
        <time>2017-07-30T09:02:12Z</time>
      </trkpt>
      <trkpt lat="44.88353" lon="-0.79644">
        <ele>33</ele>
        <time>2017-07-30T09:02:14Z</time>
      </trkpt>
      <trkpt lat="44.88348" lon="-0.79636">
        <ele>33</ele>
        <time>2017-07-30T09:02:16Z</time>
      </trkpt>
      <trkpt lat="44.88342" lon="-0.79633">
        <ele>33</ele>
        <time>2017-07-30T09:02:18Z</time>
      </trkpt>
      <trkpt lat="44.88337" lon="-0.79628">
        <ele>33</ele>
        <time>2017-07-30T09:02:20Z</time>
      </trkpt>
      <trkpt lat="44.88333" lon="-0.7962">
        <ele>35</ele>
        <time>2017-07-30T09:02:22Z</time>
      </trkpt>
      <trkpt lat="44.88329" lon="-0.79615">
        <ele>35</ele>
        <time>2017-07-30T09:02:24Z</time>
      </trkpt>
      <trkpt lat="44.88324" lon="-0.79612">
        <ele>35</ele>
        <time>2017-07-30T09:02:26Z</time>
      </trkpt>
      <trkpt lat="44.88318" lon="-0.79614">
        <ele>35</ele>
        <time>2017-07-30T09:02:34Z</time>
      </trkpt>
      <trkpt lat="44.8831" lon="-0.79614">
        <ele>35</ele>
        <time>2017-07-30T09:02:38Z</time>
      </trkpt>
      <trkpt lat="44.88305" lon="-0.79608">
        <ele>35</ele>
        <time>2017-07-30T09:02:40Z</time>
      </trkpt>
      <trkpt lat="44.88302" lon="-0.79601">
        <ele>35</ele>
        <time>2017-07-30T09:02:42Z</time>
      </trkpt>
      <trkpt lat="44.88294" lon="-0.79602">
        <ele>36</ele>
        <time>2017-07-30T09:02:48Z</time>
      </trkpt>
      <trkpt lat="44.88288" lon="-0.79601">
        <ele>36</ele>
        <time>2017-07-30T09:02:50Z</time>
      </trkpt>
      <trkpt lat="44.88282" lon="-0.79601">
        <ele>36</ele>
        <time>2017-07-30T09:02:52Z</time>
      </trkpt>
      <trkpt lat="44.88277" lon="-0.79595">
        <ele>36</ele>
        <time>2017-07-30T09:02:54Z</time>
      </trkpt>
      <trkpt lat="44.88269" lon="-0.7959">
        <ele>36</ele>
        <time>2017-07-30T09:02:56Z</time>
      </trkpt>
      <trkpt lat="44.88263" lon="-0.79585">
        <ele>36</ele>
        <time>2017-07-30T09:02:58Z</time>
      </trkpt>
      <trkpt lat="44.88259" lon="-0.79578">
        <ele>36</ele>
        <time>2017-07-30T09:03:00Z</time>
      </trkpt>
      <trkpt lat="44.88257" lon="-0.7957">
        <ele>36</ele>
        <time>2017-07-30T09:03:02Z</time>
      </trkpt>
      <trkpt lat="44.88257" lon="-0.7956">
        <ele>35</ele>
        <time>2017-07-30T09:03:04Z</time>
      </trkpt>
      <trkpt lat="44.88255" lon="-0.79546">
        <ele>35</ele>
        <time>2017-07-30T09:03:06Z</time>
      </trkpt>
      <trkpt lat="44.88249" lon="-0.79535">
        <ele>35</ele>
        <time>2017-07-30T09:03:08Z</time>
      </trkpt>
      <trkpt lat="44.88252" lon="-0.79524">
        <ele>34</ele>
        <time>2017-07-30T09:03:10Z</time>
      </trkpt>
      <trkpt lat="44.88245" lon="-0.79514">
        <ele>34</ele>
        <time>2017-07-30T09:03:12Z</time>
      </trkpt>
      <trkpt lat="44.88242" lon="-0.79505">
        <ele>33</ele>
        <time>2017-07-30T09:03:14Z</time>
      </trkpt>
      <trkpt lat="44.8824" lon="-0.79495">
        <ele>33</ele>
        <time>2017-07-30T09:03:16Z</time>
      </trkpt>
      <trkpt lat="44.88239" lon="-0.79484">
        <ele>33</ele>
        <time>2017-07-30T09:03:19Z</time>
      </trkpt>
      <trkpt lat="44.88238" lon="-0.79474">
        <ele>33</ele>
        <time>2017-07-30T09:03:21Z</time>
      </trkpt>
      <trkpt lat="44.88235" lon="-0.79466">
        <ele>33</ele>
        <time>2017-07-30T09:03:23Z</time>
      </trkpt>
      <trkpt lat="44.88233" lon="-0.79456">
        <ele>33</ele>
        <time>2017-07-30T09:03:25Z</time>
      </trkpt>
      <trkpt lat="44.88235" lon="-0.79444">
        <ele>33</ele>
        <time>2017-07-30T09:03:27Z</time>
      </trkpt>
      <trkpt lat="44.88241" lon="-0.79433">
        <ele>32</ele>
        <time>2017-07-30T09:03:29Z</time>
      </trkpt>
      <trkpt lat="44.88245" lon="-0.79418">
        <ele>31</ele>
        <time>2017-07-30T09:03:31Z</time>
      </trkpt>
      <trkpt lat="44.88245" lon="-0.79408">
        <ele>32</ele>
        <time>2017-07-30T09:03:33Z</time>
      </trkpt>
      <trkpt lat="44.88246" lon="-0.79395">
        <ele>33</ele>
        <time>2017-07-30T09:03:35Z</time>
      </trkpt>
      <trkpt lat="44.88249" lon="-0.79387">
        <ele>33</ele>
        <time>2017-07-30T09:03:37Z</time>
      </trkpt>
      <trkpt lat="44.88252" lon="-0.79379">
        <ele>33</ele>
        <time>2017-07-30T09:03:39Z</time>
      </trkpt>
      <trkpt lat="44.88252" lon="-0.79362">
        <ele>34</ele>
        <time>2017-07-30T09:03:43Z</time>
      </trkpt>
      <trkpt lat="44.88256" lon="-0.79355">
        <ele>34</ele>
        <time>2017-07-30T09:03:45Z</time>
      </trkpt>
      <trkpt lat="44.88256" lon="-0.79346">
        <ele>34</ele>
        <time>2017-07-30T09:03:47Z</time>
      </trkpt>
      <trkpt lat="44.88256" lon="-0.79336">
        <ele>34</ele>
        <time>2017-07-30T09:03:49Z</time>
      </trkpt>
      <trkpt lat="44.88257" lon="-0.79328">
        <ele>34</ele>
        <time>2017-07-30T09:03:51Z</time>
      </trkpt>
      <trkpt lat="44.88259" lon="-0.79319">
        <ele>35</ele>
        <time>2017-07-30T09:03:53Z</time>
      </trkpt>
      <trkpt lat="44.88259" lon="-0.79308">
        <ele>35</ele>
        <time>2017-07-30T09:03:55Z</time>
      </trkpt>
      <trkpt lat="44.88261" lon="-0.79298">
        <ele>35</ele>
        <time>2017-07-30T09:03:57Z</time>
      </trkpt>
      <trkpt lat="44.88265" lon="-0.79292">
        <ele>35</ele>
        <time>2017-07-30T09:03:59Z</time>
      </trkpt>
      <trkpt lat="44.88268" lon="-0.79288">
        <ele>35</ele>
        <time>2017-07-30T09:04:01Z</time>
      </trkpt>
      <trkpt lat="44.88273" lon="-0.79275">
        <ele>35</ele>
        <time>2017-07-30T09:04:05Z</time>
      </trkpt>
      <trkpt lat="44.88278" lon="-0.7927">
        <ele>35</ele>
        <time>2017-07-30T09:04:07Z</time>
      </trkpt>
      <trkpt lat="44.8828" lon="-0.79262">
        <ele>35</ele>
        <time>2017-07-30T09:04:09Z</time>
      </trkpt>
      <trkpt lat="44.88279" lon="-0.79248">
        <ele>35</ele>
        <time>2017-07-30T09:04:13Z</time>
      </trkpt>
      <trkpt lat="44.88279" lon="-0.79238">
        <ele>35</ele>
        <time>2017-07-30T09:04:15Z</time>
      </trkpt>
      <trkpt lat="44.88279" lon="-0.7923">
        <ele>35</ele>
        <time>2017-07-30T09:04:17Z</time>
      </trkpt>
      <trkpt lat="44.88277" lon="-0.79222">
        <ele>35</ele>
        <time>2017-07-30T09:04:19Z</time>
      </trkpt>
      <trkpt lat="44.88277" lon="-0.79215">
        <ele>35</ele>
        <time>2017-07-30T09:04:21Z</time>
      </trkpt>
      <trkpt lat="44.88279" lon="-0.79208">
        <ele>36</ele>
        <time>2017-07-30T09:04:23Z</time>
      </trkpt>
      <trkpt lat="44.8828" lon="-0.79199">
        <ele>36</ele>
        <time>2017-07-30T09:04:25Z</time>
      </trkpt>
      <trkpt lat="44.88279" lon="-0.79192">
        <ele>36</ele>
        <time>2017-07-30T09:04:27Z</time>
      </trkpt>
      <trkpt lat="44.88276" lon="-0.79184">
        <ele>36</ele>
        <time>2017-07-30T09:04:29Z</time>
      </trkpt>
      <trkpt lat="44.88276" lon="-0.79175">
        <ele>36</ele>
        <time>2017-07-30T09:04:31Z</time>
      </trkpt>
      <trkpt lat="44.88273" lon="-0.79161">
        <ele>36</ele>
        <time>2017-07-30T09:04:35Z</time>
      </trkpt>
      <trkpt lat="44.88272" lon="-0.79152">
        <ele>36</ele>
        <time>2017-07-30T09:04:37Z</time>
      </trkpt>
      <trkpt lat="44.88273" lon="-0.79139">
        <ele>36</ele>
        <time>2017-07-30T09:04:39Z</time>
      </trkpt>
      <trkpt lat="44.88274" lon="-0.79128">
        <ele>36</ele>
        <time>2017-07-30T09:04:41Z</time>
      </trkpt>
      <trkpt lat="44.88272" lon="-0.79119">
        <ele>36</ele>
        <time>2017-07-30T09:04:43Z</time>
      </trkpt>
      <trkpt lat="44.88269" lon="-0.79109">
        <ele>36</ele>
        <time>2017-07-30T09:04:45Z</time>
      </trkpt>
      <trkpt lat="44.88265" lon="-0.79097">
        <ele>36</ele>
        <time>2017-07-30T09:04:47Z</time>
      </trkpt>
      <trkpt lat="44.88263" lon="-0.79089">
        <ele>36</ele>
        <time>2017-07-30T09:04:49Z</time>
      </trkpt>
      <trkpt lat="44.88263" lon="-0.79081">
        <ele>36</ele>
        <time>2017-07-30T09:04:51Z</time>
      </trkpt>
      <trkpt lat="44.88262" lon="-0.79074">
        <ele>36</ele>
        <time>2017-07-30T09:04:53Z</time>
      </trkpt>
      <trkpt lat="44.88257" lon="-0.79067">
        <ele>36</ele>
        <time>2017-07-30T09:04:55Z</time>
      </trkpt>
      <trkpt lat="44.88252" lon="-0.79063">
        <ele>36</ele>
        <time>2017-07-30T09:04:57Z</time>
      </trkpt>
      <trkpt lat="44.88247" lon="-0.7906">
        <ele>36</ele>
        <time>2017-07-30T09:04:59Z</time>
      </trkpt>
      <trkpt lat="44.88244" lon="-0.79052">
        <ele>36</ele>
        <time>2017-07-30T09:05:01Z</time>
      </trkpt>
      <trkpt lat="44.8824" lon="-0.79045">
        <ele>36</ele>
        <time>2017-07-30T09:05:03Z</time>
      </trkpt>
      <trkpt lat="44.88237" lon="-0.79037">
        <ele>35</ele>
        <time>2017-07-30T09:05:05Z</time>
      </trkpt>
      <trkpt lat="44.88232" lon="-0.79032">
        <ele>35</ele>
        <time>2017-07-30T09:05:07Z</time>
      </trkpt>
      <trkpt lat="44.88228" lon="-0.79028">
        <ele>35</ele>
        <time>2017-07-30T09:05:09Z</time>
      </trkpt>
      <trkpt lat="44.88222" lon="-0.79025">
        <ele>35</ele>
        <time>2017-07-30T09:05:11Z</time>
      </trkpt>
      <trkpt lat="44.88216" lon="-0.79023">
        <ele>35</ele>
        <time>2017-07-30T09:05:13Z</time>
      </trkpt>
      <trkpt lat="44.88211" lon="-0.79023">
        <ele>35</ele>
        <time>2017-07-30T09:05:15Z</time>
      </trkpt>
      <trkpt lat="44.88205" lon="-0.79025">
        <ele>36</ele>
        <time>2017-07-30T09:05:17Z</time>
      </trkpt>
      <trkpt lat="44.882" lon="-0.79025">
        <ele>36</ele>
        <time>2017-07-30T09:05:19Z</time>
      </trkpt>
      <trkpt lat="44.88195" lon="-0.79021">
        <ele>36</ele>
        <time>2017-07-30T09:05:23Z</time>
      </trkpt>
      <trkpt lat="44.8819" lon="-0.79019">
        <ele>36</ele>
        <time>2017-07-30T09:05:25Z</time>
      </trkpt>
      <trkpt lat="44.88183" lon="-0.79019">
        <ele>36</ele>
        <time>2017-07-30T09:05:29Z</time>
      </trkpt>
      <trkpt lat="44.88177" lon="-0.79019">
        <ele>36</ele>
        <time>2017-07-30T09:05:31Z</time>
      </trkpt>
      <trkpt lat="44.88173" lon="-0.79018">
        <ele>36</ele>
        <time>2017-07-30T09:05:35Z</time>
      </trkpt>
      <trkpt lat="44.88168" lon="-0.79012">
        <ele>36</ele>
        <time>2017-07-30T09:05:39Z</time>
      </trkpt>
      <trkpt lat="44.88164" lon="-0.79006">
        <ele>35</ele>
        <time>2017-07-30T09:05:47Z</time>
      </trkpt>
      <trkpt lat="44.88156" lon="-0.78998">
        <ele>35</ele>
        <time>2017-07-30T09:05:51Z</time>
      </trkpt>
      <trkpt lat="44.88149" lon="-0.78988">
        <ele>35</ele>
        <time>2017-07-30T09:05:53Z</time>
      </trkpt>
      <trkpt lat="44.88143" lon="-0.7898">
        <ele>34</ele>
        <time>2017-07-30T09:05:55Z</time>
      </trkpt>
      <trkpt lat="44.88137" lon="-0.78975">
        <ele>34</ele>
        <time>2017-07-30T09:05:57Z</time>
      </trkpt>
      <trkpt lat="44.88133" lon="-0.78969">
        <ele>34</ele>
        <time>2017-07-30T09:05:59Z</time>
      </trkpt>
      <trkpt lat="44.88129" lon="-0.78963">
        <ele>34</ele>
        <time>2017-07-30T09:06:01Z</time>
      </trkpt>
      <trkpt lat="44.88124" lon="-0.78955">
        <ele>34</ele>
        <time>2017-07-30T09:06:03Z</time>
      </trkpt>
      <trkpt lat="44.88117" lon="-0.78948">
        <ele>34</ele>
        <time>2017-07-30T09:06:05Z</time>
      </trkpt>
      <trkpt lat="44.88111" lon="-0.78944">
        <ele>34</ele>
        <time>2017-07-30T09:06:07Z</time>
      </trkpt>
      <trkpt lat="44.88106" lon="-0.78934">
        <ele>34</ele>
        <time>2017-07-30T09:06:11Z</time>
      </trkpt>
      <trkpt lat="44.881" lon="-0.78933">
        <ele>34</ele>
        <time>2017-07-30T09:06:13Z</time>
      </trkpt>
      <trkpt lat="44.88092" lon="-0.7894">
        <ele>34</ele>
        <time>2017-07-30T09:06:15Z</time>
      </trkpt>
      <trkpt lat="44.88083" lon="-0.78941">
        <ele>33</ele>
        <time>2017-07-30T09:06:17Z</time>
      </trkpt>
      <trkpt lat="44.88076" lon="-0.78941">
        <ele>33</ele>
        <time>2017-07-30T09:06:19Z</time>
      </trkpt>
      <trkpt lat="44.88072" lon="-0.7894">
        <ele>33</ele>
        <time>2017-07-30T09:06:21Z</time>
      </trkpt>
      <trkpt lat="44.8806" lon="-0.78941">
        <ele>33</ele>
        <time>2017-07-30T09:06:25Z</time>
      </trkpt>
      <trkpt lat="44.88051" lon="-0.78942">
        <ele>33</ele>
        <time>2017-07-30T09:06:27Z</time>
      </trkpt>
      <trkpt lat="44.88044" lon="-0.78936">
        <ele>33</ele>
        <time>2017-07-30T09:06:29Z</time>
      </trkpt>
      <trkpt lat="44.88039" lon="-0.78928">
        <ele>33</ele>
        <time>2017-07-30T09:06:31Z</time>
      </trkpt>
      <trkpt lat="44.88032" lon="-0.78918">
        <ele>33</ele>
        <time>2017-07-30T09:06:33Z</time>
      </trkpt>
      <trkpt lat="44.88028" lon="-0.78907">
        <ele>33</ele>
        <time>2017-07-30T09:06:35Z</time>
      </trkpt>
      <trkpt lat="44.88026" lon="-0.78898">
        <ele>33</ele>
        <time>2017-07-30T09:06:37Z</time>
      </trkpt>
      <trkpt lat="44.88017" lon="-0.78889">
        <ele>33</ele>
        <time>2017-07-30T09:06:39Z</time>
      </trkpt>
      <trkpt lat="44.88011" lon="-0.78884">
        <ele>33</ele>
        <time>2017-07-30T09:06:41Z</time>
      </trkpt>
      <trkpt lat="44.88007" lon="-0.78876">
        <ele>33</ele>
        <time>2017-07-30T09:06:43Z</time>
      </trkpt>
      <trkpt lat="44.88004" lon="-0.78868">
        <ele>32</ele>
        <time>2017-07-30T09:06:45Z</time>
      </trkpt>
      <trkpt lat="44.88004" lon="-0.78861">
        <ele>32</ele>
        <time>2017-07-30T09:06:47Z</time>
      </trkpt>
      <trkpt lat="44.88006" lon="-0.78854">
        <ele>32</ele>
        <time>2017-07-30T09:06:49Z</time>
      </trkpt>
      <trkpt lat="44.88009" lon="-0.78845">
        <ele>32</ele>
        <time>2017-07-30T09:06:51Z</time>
      </trkpt>
      <trkpt lat="44.88012" lon="-0.78838">
        <ele>32</ele>
        <time>2017-07-30T09:06:53Z</time>
      </trkpt>
      <trkpt lat="44.88017" lon="-0.78829">
        <ele>31</ele>
        <time>2017-07-30T09:06:55Z</time>
      </trkpt>
      <trkpt lat="44.88021" lon="-0.7882">
        <ele>31</ele>
        <time>2017-07-30T09:06:57Z</time>
      </trkpt>
      <trkpt lat="44.88029" lon="-0.78813">
        <ele>31</ele>
        <time>2017-07-30T09:06:59Z</time>
      </trkpt>
      <trkpt lat="44.88039" lon="-0.78809">
        <ele>31</ele>
        <time>2017-07-30T09:07:01Z</time>
      </trkpt>
      <trkpt lat="44.88046" lon="-0.78812">
        <ele>31</ele>
        <time>2017-07-30T09:07:03Z</time>
      </trkpt>
      <trkpt lat="44.88054" lon="-0.78818">
        <ele>31</ele>
        <time>2017-07-30T09:07:05Z</time>
      </trkpt>
      <trkpt lat="44.88062" lon="-0.78826">
        <ele>31</ele>
        <time>2017-07-30T09:07:07Z</time>
      </trkpt>
      <trkpt lat="44.8807" lon="-0.78832">
        <ele>32</ele>
        <time>2017-07-30T09:07:09Z</time>
      </trkpt>
      <trkpt lat="44.88078" lon="-0.78841">
        <ele>32</ele>
        <time>2017-07-30T09:07:11Z</time>
      </trkpt>
      <trkpt lat="44.88086" lon="-0.78851">
        <ele>33</ele>
        <time>2017-07-30T09:07:13Z</time>
      </trkpt>
      <trkpt lat="44.88093" lon="-0.7886">
        <ele>33</ele>
        <time>2017-07-30T09:07:15Z</time>
      </trkpt>
      <trkpt lat="44.881" lon="-0.78868">
        <ele>34</ele>
        <time>2017-07-30T09:07:17Z</time>
      </trkpt>
      <trkpt lat="44.88107" lon="-0.78876">
        <ele>34</ele>
        <time>2017-07-30T09:07:19Z</time>
      </trkpt>
      <trkpt lat="44.88114" lon="-0.78884">
        <ele>34</ele>
        <time>2017-07-30T09:07:21Z</time>
      </trkpt>
      <trkpt lat="44.88121" lon="-0.78891">
        <ele>34</ele>
        <time>2017-07-30T09:07:23Z</time>
      </trkpt>
      <trkpt lat="44.88129" lon="-0.78898">
        <ele>34</ele>
        <time>2017-07-30T09:07:25Z</time>
      </trkpt>
      <trkpt lat="44.88136" lon="-0.78904">
        <ele>34</ele>
        <time>2017-07-30T09:07:27Z</time>
      </trkpt>
      <trkpt lat="44.88144" lon="-0.78911">
        <ele>34</ele>
        <time>2017-07-30T09:07:29Z</time>
      </trkpt>
      <trkpt lat="44.88152" lon="-0.7892">
        <ele>35</ele>
        <time>2017-07-30T09:07:31Z</time>
      </trkpt>
      <trkpt lat="44.88161" lon="-0.7893">
        <ele>35</ele>
        <time>2017-07-30T09:07:33Z</time>
      </trkpt>
      <trkpt lat="44.8817" lon="-0.78939">
        <ele>35</ele>
        <time>2017-07-30T09:07:35Z</time>
      </trkpt>
      <trkpt lat="44.88178" lon="-0.78948">
        <ele>36</ele>
        <time>2017-07-30T09:07:37Z</time>
      </trkpt>
      <trkpt lat="44.88188" lon="-0.78959">
        <ele>36</ele>
        <time>2017-07-30T09:07:39Z</time>
      </trkpt>
      <trkpt lat="44.88198" lon="-0.7897">
        <ele>36</ele>
        <time>2017-07-30T09:07:41Z</time>
      </trkpt>
      <trkpt lat="44.88208" lon="-0.7898">
        <ele>36</ele>
        <time>2017-07-30T09:07:43Z</time>
      </trkpt>
      <trkpt lat="44.88217" lon="-0.7899">
        <ele>36</ele>
        <time>2017-07-30T09:07:45Z</time>
      </trkpt>
      <trkpt lat="44.88226" lon="-0.79">
        <ele>35</ele>
        <time>2017-07-30T09:07:47Z</time>
      </trkpt>
      <trkpt lat="44.88235" lon="-0.7901">
        <ele>35</ele>
        <time>2017-07-30T09:07:49Z</time>
      </trkpt>
      <trkpt lat="44.88244" lon="-0.7902">
        <ele>35</ele>
        <time>2017-07-30T09:07:51Z</time>
      </trkpt>
      <trkpt lat="44.88254" lon="-0.79029">
        <ele>36</ele>
        <time>2017-07-30T09:07:53Z</time>
      </trkpt>
      <trkpt lat="44.88262" lon="-0.79039">
        <ele>36</ele>
        <time>2017-07-30T09:07:55Z</time>
      </trkpt>
      <trkpt lat="44.88271" lon="-0.79048">
        <ele>36</ele>
        <time>2017-07-30T09:07:57Z</time>
      </trkpt>
      <trkpt lat="44.88281" lon="-0.79058">
        <ele>36</ele>
        <time>2017-07-30T09:07:59Z</time>
      </trkpt>
      <trkpt lat="44.8829" lon="-0.79068">
        <ele>36</ele>
        <time>2017-07-30T09:08:01Z</time>
      </trkpt>
      <trkpt lat="44.88298" lon="-0.79076">
        <ele>36</ele>
        <time>2017-07-30T09:08:03Z</time>
      </trkpt>
      <trkpt lat="44.88306" lon="-0.79085">
        <ele>35</ele>
        <time>2017-07-30T09:08:05Z</time>
      </trkpt>
      <trkpt lat="44.88314" lon="-0.79093">
        <ele>35</ele>
        <time>2017-07-30T09:08:07Z</time>
      </trkpt>
      <trkpt lat="44.88322" lon="-0.79102">
        <ele>35</ele>
        <time>2017-07-30T09:08:09Z</time>
      </trkpt>
      <trkpt lat="44.88328" lon="-0.79109">
        <ele>35</ele>
        <time>2017-07-30T09:08:11Z</time>
      </trkpt>
      <trkpt lat="44.8833" lon="-0.79119">
        <ele>35</ele>
        <time>2017-07-30T09:10:13Z</time>
      </trkpt>
      <trkpt lat="44.88332" lon="-0.79128">
        <ele>35</ele>
        <time>2017-07-30T09:10:15Z</time>
      </trkpt>
      <trkpt lat="44.88332" lon="-0.79139">
        <ele>35</ele>
        <time>2017-07-30T09:10:17Z</time>
      </trkpt>
      <trkpt lat="44.88332" lon="-0.79152">
        <ele>35</ele>
        <time>2017-07-30T09:10:19Z</time>
      </trkpt>
      <trkpt lat="44.88331" lon="-0.79165">
        <ele>35</ele>
        <time>2017-07-30T09:10:21Z</time>
      </trkpt>
      <trkpt lat="44.88329" lon="-0.79179">
        <ele>35</ele>
        <time>2017-07-30T09:10:23Z</time>
      </trkpt>
      <trkpt lat="44.88328" lon="-0.79194">
        <ele>35</ele>
        <time>2017-07-30T09:10:25Z</time>
      </trkpt>
      <trkpt lat="44.88326" lon="-0.7921">
        <ele>36</ele>
        <time>2017-07-30T09:10:27Z</time>
      </trkpt>
      <trkpt lat="44.88324" lon="-0.79225">
        <ele>36</ele>
        <time>2017-07-30T09:10:29Z</time>
      </trkpt>
      <trkpt lat="44.88323" lon="-0.79241">
        <ele>36</ele>
        <time>2017-07-30T09:10:31Z</time>
      </trkpt>
      <trkpt lat="44.88322" lon="-0.79257">
        <ele>36</ele>
        <time>2017-07-30T09:10:33Z</time>
      </trkpt>
      <trkpt lat="44.88321" lon="-0.79273">
        <ele>36</ele>
        <time>2017-07-30T09:10:35Z</time>
      </trkpt>
      <trkpt lat="44.8832" lon="-0.79287">
        <ele>35</ele>
        <time>2017-07-30T09:10:37Z</time>
      </trkpt>
      <trkpt lat="44.88319" lon="-0.79302">
        <ele>35</ele>
        <time>2017-07-30T09:10:39Z</time>
      </trkpt>
      <trkpt lat="44.88318" lon="-0.79316">
        <ele>36</ele>
        <time>2017-07-30T09:10:41Z</time>
      </trkpt>
      <trkpt lat="44.88317" lon="-0.79329">
        <ele>36</ele>
        <time>2017-07-30T09:10:43Z</time>
      </trkpt>
      <trkpt lat="44.88316" lon="-0.79342">
        <ele>35</ele>
        <time>2017-07-30T09:10:45Z</time>
      </trkpt>
      <trkpt lat="44.88315" lon="-0.79355">
        <ele>35</ele>
        <time>2017-07-30T09:10:47Z</time>
      </trkpt>
      <trkpt lat="44.88314" lon="-0.79369">
        <ele>34</ele>
        <time>2017-07-30T09:10:49Z</time>
      </trkpt>
      <trkpt lat="44.88312" lon="-0.79382">
        <ele>34</ele>
        <time>2017-07-30T09:10:51Z</time>
      </trkpt>
      <trkpt lat="44.88311" lon="-0.79395">
        <ele>34</ele>
        <time>2017-07-30T09:10:53Z</time>
      </trkpt>
      <trkpt lat="44.88311" lon="-0.79406">
        <ele>34</ele>
        <time>2017-07-30T09:10:55Z</time>
      </trkpt>
      <trkpt lat="44.88318" lon="-0.79412">
        <ele>34</ele>
        <time>2017-07-30T09:10:57Z</time>
      </trkpt>
      <trkpt lat="44.88324" lon="-0.79418">
        <ele>34</ele>
        <time>2017-07-30T09:10:59Z</time>
      </trkpt>
      <trkpt lat="44.88331" lon="-0.79422">
        <ele>35</ele>
        <time>2017-07-30T09:11:01Z</time>
      </trkpt>
      <trkpt lat="44.88338" lon="-0.79424">
        <ele>35</ele>
        <time>2017-07-30T09:11:03Z</time>
      </trkpt>
      <trkpt lat="44.88342" lon="-0.79419">
        <ele>35</ele>
        <time>2017-07-30T09:11:05Z</time>
      </trkpt>
      <trkpt lat="44.88347" lon="-0.79415">
        <ele>35</ele>
        <time>2017-07-30T09:11:07Z</time>
      </trkpt>
      <trkpt lat="44.88353" lon="-0.7941">
        <ele>36</ele>
        <time>2017-07-30T09:11:09Z</time>
      </trkpt>
      <trkpt lat="44.88361" lon="-0.79406">
        <ele>36</ele>
        <time>2017-07-30T09:11:11Z</time>
      </trkpt>
      <trkpt lat="44.88368" lon="-0.79396">
        <ele>36</ele>
        <time>2017-07-30T09:11:13Z</time>
      </trkpt>
      <trkpt lat="44.88377" lon="-0.79389">
        <ele>36</ele>
        <time>2017-07-30T09:11:15Z</time>
      </trkpt>
      <trkpt lat="44.88385" lon="-0.79382">
        <ele>36</ele>
        <time>2017-07-30T09:11:17Z</time>
      </trkpt>
      <trkpt lat="44.88389" lon="-0.79372">
        <ele>36</ele>
        <time>2017-07-30T09:11:19Z</time>
      </trkpt>
      <trkpt lat="44.88397" lon="-0.7937">
        <ele>36</ele>
        <time>2017-07-30T09:11:21Z</time>
      </trkpt>
      <trkpt lat="44.88403" lon="-0.79368">
        <ele>36</ele>
        <time>2017-07-30T09:11:23Z</time>
      </trkpt>
      <trkpt lat="44.88411" lon="-0.79366">
        <ele>36</ele>
        <time>2017-07-30T09:11:25Z</time>
      </trkpt>
      <trkpt lat="44.88419" lon="-0.79363">
        <ele>38</ele>
        <time>2017-07-30T09:11:27Z</time>
      </trkpt>
      <trkpt lat="44.88425" lon="-0.79355">
        <ele>38</ele>
        <time>2017-07-30T09:11:29Z</time>
      </trkpt>
      <trkpt lat="44.88433" lon="-0.79353">
        <ele>38</ele>
        <time>2017-07-30T09:11:31Z</time>
      </trkpt>
      <trkpt lat="44.88441" lon="-0.79348">
        <ele>38</ele>
        <time>2017-07-30T09:11:33Z</time>
      </trkpt>
      <trkpt lat="44.8845" lon="-0.79344">
        <ele>38</ele>
        <time>2017-07-30T09:11:35Z</time>
      </trkpt>
      <trkpt lat="44.88457" lon="-0.79341">
        <ele>39</ele>
        <time>2017-07-30T09:11:37Z</time>
      </trkpt>
      <trkpt lat="44.88464" lon="-0.79336">
        <ele>39</ele>
        <time>2017-07-30T09:11:39Z</time>
      </trkpt>
      <trkpt lat="44.88471" lon="-0.79333">
        <ele>40</ele>
        <time>2017-07-30T09:11:41Z</time>
      </trkpt>
      <trkpt lat="44.8848" lon="-0.79328">
        <ele>40</ele>
        <time>2017-07-30T09:11:43Z</time>
      </trkpt>
      <trkpt lat="44.88488" lon="-0.79322">
        <ele>41</ele>
        <time>2017-07-30T09:11:45Z</time>
      </trkpt>
      <trkpt lat="44.88495" lon="-0.79317">
        <ele>41</ele>
        <time>2017-07-30T09:11:47Z</time>
      </trkpt>
      <trkpt lat="44.88505" lon="-0.79312">
        <ele>42</ele>
        <time>2017-07-30T09:11:49Z</time>
      </trkpt>
      <trkpt lat="44.88514" lon="-0.79307">
        <ele>42</ele>
        <time>2017-07-30T09:11:51Z</time>
      </trkpt>
      <trkpt lat="44.88522" lon="-0.79303">
        <ele>42</ele>
        <time>2017-07-30T09:11:53Z</time>
      </trkpt>
      <trkpt lat="44.8853" lon="-0.79298">
        <ele>42</ele>
        <time>2017-07-30T09:11:55Z</time>
      </trkpt>
      <trkpt lat="44.88538" lon="-0.79293">
        <ele>42</ele>
        <time>2017-07-30T09:11:57Z</time>
      </trkpt>
      <trkpt lat="44.88544" lon="-0.79284">
        <ele>42</ele>
        <time>2017-07-30T09:11:59Z</time>
      </trkpt>
      <trkpt lat="44.88547" lon="-0.79274">
        <ele>42</ele>
        <time>2017-07-30T09:12:01Z</time>
      </trkpt>
      <trkpt lat="44.88551" lon="-0.79263">
        <ele>42</ele>
        <time>2017-07-30T09:12:03Z</time>
      </trkpt>
      <trkpt lat="44.88555" lon="-0.79251">
        <ele>42</ele>
        <time>2017-07-30T09:12:05Z</time>
      </trkpt>
      <trkpt lat="44.88557" lon="-0.79236">
        <ele>41</ele>
        <time>2017-07-30T09:12:07Z</time>
      </trkpt>
      <trkpt lat="44.8856" lon="-0.79223">
        <ele>40</ele>
        <time>2017-07-30T09:12:09Z</time>
      </trkpt>
      <trkpt lat="44.88563" lon="-0.79211">
        <ele>40</ele>
        <time>2017-07-30T09:12:11Z</time>
      </trkpt>
      <trkpt lat="44.88566" lon="-0.79198">
        <ele>40</ele>
        <time>2017-07-30T09:12:13Z</time>
      </trkpt>
      <trkpt lat="44.8857" lon="-0.79186">
        <ele>39</ele>
        <time>2017-07-30T09:12:15Z</time>
      </trkpt>
      <trkpt lat="44.88574" lon="-0.7917">
        <ele>39</ele>
        <time>2017-07-30T09:12:17Z</time>
      </trkpt>
      <trkpt lat="44.88577" lon="-0.79153">
        <ele>38</ele>
        <time>2017-07-30T09:12:19Z</time>
      </trkpt>
      <trkpt lat="44.8858" lon="-0.79138">
        <ele>38</ele>
        <time>2017-07-30T09:12:21Z</time>
      </trkpt>
      <trkpt lat="44.88582" lon="-0.79123">
        <ele>38</ele>
        <time>2017-07-30T09:12:23Z</time>
      </trkpt>
      <trkpt lat="44.88584" lon="-0.79107">
        <ele>38</ele>
        <time>2017-07-30T09:12:25Z</time>
      </trkpt>
      <trkpt lat="44.88586" lon="-0.79092">
        <ele>38</ele>
        <time>2017-07-30T09:12:27Z</time>
      </trkpt>
      <trkpt lat="44.88589" lon="-0.79078">
        <ele>38</ele>
        <time>2017-07-30T09:12:29Z</time>
      </trkpt>
      <trkpt lat="44.88593" lon="-0.79062">
        <ele>39</ele>
        <time>2017-07-30T09:12:31Z</time>
      </trkpt>
      <trkpt lat="44.88595" lon="-0.79049">
        <ele>40</ele>
        <time>2017-07-30T09:12:33Z</time>
      </trkpt>
      <trkpt lat="44.88597" lon="-0.79037">
        <ele>40</ele>
        <time>2017-07-30T09:12:35Z</time>
      </trkpt>
      <trkpt lat="44.88599" lon="-0.79025">
        <ele>40</ele>
        <time>2017-07-30T09:12:37Z</time>
      </trkpt>
      <trkpt lat="44.88602" lon="-0.79012">
        <ele>41</ele>
        <time>2017-07-30T09:12:39Z</time>
      </trkpt>
      <trkpt lat="44.88605" lon="-0.78999">
        <ele>42</ele>
        <time>2017-07-30T09:12:41Z</time>
      </trkpt>
      <trkpt lat="44.88608" lon="-0.78985">
        <ele>42</ele>
        <time>2017-07-30T09:12:43Z</time>
      </trkpt>
      <trkpt lat="44.88612" lon="-0.78969">
        <ele>41</ele>
        <time>2017-07-30T09:12:45Z</time>
      </trkpt>
      <trkpt lat="44.88616" lon="-0.78953">
        <ele>41</ele>
        <time>2017-07-30T09:12:47Z</time>
      </trkpt>
      <trkpt lat="44.88619" lon="-0.78935">
        <ele>41</ele>
        <time>2017-07-30T09:12:49Z</time>
      </trkpt>
      <trkpt lat="44.88622" lon="-0.7892">
        <ele>41</ele>
        <time>2017-07-30T09:12:51Z</time>
      </trkpt>
      <trkpt lat="44.88624" lon="-0.78903">
        <ele>41</ele>
        <time>2017-07-30T09:12:53Z</time>
      </trkpt>
      <trkpt lat="44.88627" lon="-0.78886">
        <ele>41</ele>
        <time>2017-07-30T09:12:55Z</time>
      </trkpt>
      <trkpt lat="44.8863" lon="-0.7887">
        <ele>41</ele>
        <time>2017-07-30T09:12:57Z</time>
      </trkpt>
      <trkpt lat="44.88634" lon="-0.78852">
        <ele>40</ele>
        <time>2017-07-30T09:12:59Z</time>
      </trkpt>
      <trkpt lat="44.88637" lon="-0.78835">
        <ele>40</ele>
        <time>2017-07-30T09:13:01Z</time>
      </trkpt>
      <trkpt lat="44.88639" lon="-0.78819">
        <ele>40</ele>
        <time>2017-07-30T09:13:03Z</time>
      </trkpt>
      <trkpt lat="44.88642" lon="-0.78804">
        <ele>41</ele>
        <time>2017-07-30T09:13:05Z</time>
      </trkpt>
      <trkpt lat="44.88645" lon="-0.78786">
        <ele>41</ele>
        <time>2017-07-30T09:13:07Z</time>
      </trkpt>
      <trkpt lat="44.88648" lon="-0.78772">
        <ele>41</ele>
        <time>2017-07-30T09:13:09Z</time>
      </trkpt>
      <trkpt lat="44.8865" lon="-0.78755">
        <ele>41</ele>
        <time>2017-07-30T09:13:11Z</time>
      </trkpt>
      <trkpt lat="44.88653" lon="-0.78739">
        <ele>42</ele>
        <time>2017-07-30T09:13:13Z</time>
      </trkpt>
      <trkpt lat="44.88655" lon="-0.78722">
        <ele>43</ele>
        <time>2017-07-30T09:13:15Z</time>
      </trkpt>
      <trkpt lat="44.88659" lon="-0.78708">
        <ele>43</ele>
        <time>2017-07-30T09:13:17Z</time>
      </trkpt>
      <trkpt lat="44.88662" lon="-0.78694">
        <ele>43</ele>
        <time>2017-07-30T09:13:19Z</time>
      </trkpt>
      <trkpt lat="44.88666" lon="-0.78679">
        <ele>44</ele>
        <time>2017-07-30T09:13:21Z</time>
      </trkpt>
      <trkpt lat="44.88669" lon="-0.78664">
        <ele>44</ele>
        <time>2017-07-30T09:13:23Z</time>
      </trkpt>
      <trkpt lat="44.88672" lon="-0.78646">
        <ele>44</ele>
        <time>2017-07-30T09:13:25Z</time>
      </trkpt>
      <trkpt lat="44.88674" lon="-0.78629">
        <ele>43</ele>
        <time>2017-07-30T09:13:27Z</time>
      </trkpt>
      <trkpt lat="44.88677" lon="-0.78614">
        <ele>44</ele>
        <time>2017-07-30T09:13:29Z</time>
      </trkpt>
      <trkpt lat="44.8868" lon="-0.78597">
        <ele>44</ele>
        <time>2017-07-30T09:13:31Z</time>
      </trkpt>
      <trkpt lat="44.88683" lon="-0.78581">
        <ele>44</ele>
        <time>2017-07-30T09:13:33Z</time>
      </trkpt>
      <trkpt lat="44.88686" lon="-0.78563">
        <ele>44</ele>
        <time>2017-07-30T09:13:35Z</time>
      </trkpt>
      <trkpt lat="44.88689" lon="-0.78545">
        <ele>44</ele>
        <time>2017-07-30T09:13:37Z</time>
      </trkpt>
      <trkpt lat="44.88692" lon="-0.78527">
        <ele>44</ele>
        <time>2017-07-30T09:13:39Z</time>
      </trkpt>
      <trkpt lat="44.88695" lon="-0.78513">
        <ele>43</ele>
        <time>2017-07-30T09:13:41Z</time>
      </trkpt>
      <trkpt lat="44.88698" lon="-0.78496">
        <ele>43</ele>
        <time>2017-07-30T09:13:43Z</time>
      </trkpt>
      <trkpt lat="44.88701" lon="-0.78481">
        <ele>43</ele>
        <time>2017-07-30T09:13:45Z</time>
      </trkpt>
      <trkpt lat="44.88703" lon="-0.78467">
        <ele>43</ele>
        <time>2017-07-30T09:13:47Z</time>
      </trkpt>
      <trkpt lat="44.88706" lon="-0.78453">
        <ele>42</ele>
        <time>2017-07-30T09:13:49Z</time>
      </trkpt>
      <trkpt lat="44.88709" lon="-0.78438">
        <ele>42</ele>
        <time>2017-07-30T09:13:51Z</time>
      </trkpt>
      <trkpt lat="44.88712" lon="-0.78423">
        <ele>42</ele>
        <time>2017-07-30T09:13:53Z</time>
      </trkpt>
      <trkpt lat="44.88714" lon="-0.78409">
        <ele>41</ele>
        <time>2017-07-30T09:13:55Z</time>
      </trkpt>
      <trkpt lat="44.88718" lon="-0.78395">
        <ele>41</ele>
        <time>2017-07-30T09:13:57Z</time>
      </trkpt>
      <trkpt lat="44.88722" lon="-0.78378">
        <ele>41</ele>
        <time>2017-07-30T09:13:59Z</time>
      </trkpt>
      <trkpt lat="44.88726" lon="-0.78362">
        <ele>42</ele>
        <time>2017-07-30T09:14:01Z</time>
      </trkpt>
      <trkpt lat="44.88729" lon="-0.78346">
        <ele>42</ele>
        <time>2017-07-30T09:14:03Z</time>
      </trkpt>
      <trkpt lat="44.8873" lon="-0.78331">
        <ele>42</ele>
        <time>2017-07-30T09:14:05Z</time>
      </trkpt>
      <trkpt lat="44.88735" lon="-0.7832">
        <ele>42</ele>
        <time>2017-07-30T09:14:07Z</time>
      </trkpt>
      <trkpt lat="44.88741" lon="-0.78315">
        <ele>42</ele>
        <time>2017-07-30T09:14:09Z</time>
      </trkpt>
      <trkpt lat="44.88748" lon="-0.7831">
        <ele>42</ele>
        <time>2017-07-30T09:14:11Z</time>
      </trkpt>
      <trkpt lat="44.88755" lon="-0.78305">
        <ele>43</ele>
        <time>2017-07-30T09:14:13Z</time>
      </trkpt>
      <trkpt lat="44.88764" lon="-0.78299">
        <ele>43</ele>
        <time>2017-07-30T09:14:15Z</time>
      </trkpt>
      <trkpt lat="44.88772" lon="-0.78292">
        <ele>43</ele>
        <time>2017-07-30T09:14:17Z</time>
      </trkpt>
      <trkpt lat="44.8878" lon="-0.78285">
        <ele>43</ele>
        <time>2017-07-30T09:14:19Z</time>
      </trkpt>
      <trkpt lat="44.88788" lon="-0.78278">
        <ele>43</ele>
        <time>2017-07-30T09:14:21Z</time>
      </trkpt>
      <trkpt lat="44.88796" lon="-0.78272">
        <ele>43</ele>
        <time>2017-07-30T09:14:23Z</time>
      </trkpt>
      <trkpt lat="44.88804" lon="-0.78266">
        <ele>43</ele>
        <time>2017-07-30T09:14:25Z</time>
      </trkpt>
      <trkpt lat="44.88812" lon="-0.78261">
        <ele>43</ele>
        <time>2017-07-30T09:14:27Z</time>
      </trkpt>
      <trkpt lat="44.88822" lon="-0.78256">
        <ele>43</ele>
        <time>2017-07-30T09:14:29Z</time>
      </trkpt>
      <trkpt lat="44.8883" lon="-0.7825">
        <ele>43</ele>
        <time>2017-07-30T09:14:31Z</time>
      </trkpt>
      <trkpt lat="44.8884" lon="-0.78245">
        <ele>43</ele>
        <time>2017-07-30T09:14:33Z</time>
      </trkpt>
      <trkpt lat="44.88849" lon="-0.78239">
        <ele>42</ele>
        <time>2017-07-30T09:14:35Z</time>
      </trkpt>
      <trkpt lat="44.88857" lon="-0.78234">
        <ele>42</ele>
        <time>2017-07-30T09:14:37Z</time>
      </trkpt>
      <trkpt lat="44.88866" lon="-0.7823">
        <ele>42</ele>
        <time>2017-07-30T09:14:39Z</time>
      </trkpt>
      <trkpt lat="44.88873" lon="-0.78224">
        <ele>42</ele>
        <time>2017-07-30T09:14:41Z</time>
      </trkpt>
      <trkpt lat="44.8888" lon="-0.78216">
        <ele>42</ele>
        <time>2017-07-30T09:14:43Z</time>
      </trkpt>
      <trkpt lat="44.88884" lon="-0.7821">
        <ele>42</ele>
        <time>2017-07-30T09:14:45Z</time>
      </trkpt>
      <trkpt lat="44.88889" lon="-0.78204">
        <ele>42</ele>
        <time>2017-07-30T09:14:47Z</time>
      </trkpt>
      <trkpt lat="44.88892" lon="-0.78195">
        <ele>42</ele>
        <time>2017-07-30T09:14:49Z</time>
      </trkpt>
      <trkpt lat="44.88894" lon="-0.78187">
        <ele>42</ele>
        <time>2017-07-30T09:14:51Z</time>
      </trkpt>
      <trkpt lat="44.88899" lon="-0.7818">
        <ele>42</ele>
        <time>2017-07-30T09:14:53Z</time>
      </trkpt>
      <trkpt lat="44.88907" lon="-0.78176">
        <ele>42</ele>
        <time>2017-07-30T09:14:55Z</time>
      </trkpt>
      <trkpt lat="44.88915" lon="-0.78175">
        <ele>42</ele>
        <time>2017-07-30T09:14:57Z</time>
      </trkpt>
      <trkpt lat="44.88922" lon="-0.7817">
        <ele>42</ele>
        <time>2017-07-30T09:14:59Z</time>
      </trkpt>
      <trkpt lat="44.88927" lon="-0.7816">
        <ele>42</ele>
        <time>2017-07-30T09:15:01Z</time>
      </trkpt>
      <trkpt lat="44.88931" lon="-0.78147">
        <ele>42</ele>
        <time>2017-07-30T09:15:03Z</time>
      </trkpt>
      <trkpt lat="44.88936" lon="-0.78136">
        <ele>42</ele>
        <time>2017-07-30T09:15:05Z</time>
      </trkpt>
      <trkpt lat="44.88942" lon="-0.7813">
        <ele>41</ele>
        <time>2017-07-30T09:15:07Z</time>
      </trkpt>
      <trkpt lat="44.88949" lon="-0.78122">
        <ele>41</ele>
        <time>2017-07-30T09:15:09Z</time>
      </trkpt>
      <trkpt lat="44.88957" lon="-0.78114">
        <ele>41</ele>
        <time>2017-07-30T09:15:11Z</time>
      </trkpt>
      <trkpt lat="44.88967" lon="-0.78111">
        <ele>41</ele>
        <time>2017-07-30T09:15:13Z</time>
      </trkpt>
      <trkpt lat="44.88976" lon="-0.78109">
        <ele>41</ele>
        <time>2017-07-30T09:15:15Z</time>
      </trkpt>
      <trkpt lat="44.88986" lon="-0.78103">
        <ele>41</ele>
        <time>2017-07-30T09:15:17Z</time>
      </trkpt>
      <trkpt lat="44.88995" lon="-0.78098">
        <ele>41</ele>
        <time>2017-07-30T09:15:19Z</time>
      </trkpt>
      <trkpt lat="44.89002" lon="-0.78084">
        <ele>41</ele>
        <time>2017-07-30T09:15:21Z</time>
      </trkpt>
      <trkpt lat="44.8901" lon="-0.78074">
        <ele>41</ele>
        <time>2017-07-30T09:15:23Z</time>
      </trkpt>
      <trkpt lat="44.89014" lon="-0.78063">
        <ele>41</ele>
        <time>2017-07-30T09:15:25Z</time>
      </trkpt>
      <trkpt lat="44.89021" lon="-0.78056">
        <ele>41</ele>
        <time>2017-07-30T09:15:27Z</time>
      </trkpt>
      <trkpt lat="44.8903" lon="-0.78046">
        <ele>41</ele>
        <time>2017-07-30T09:15:29Z</time>
      </trkpt>
      <trkpt lat="44.89029" lon="-0.78039">
        <ele>41</ele>
        <time>2017-07-30T09:15:31Z</time>
      </trkpt>
      <trkpt lat="44.89027" lon="-0.7803">
        <ele>41</ele>
        <time>2017-07-30T09:15:33Z</time>
      </trkpt>
      <trkpt lat="44.89027" lon="-0.78019">
        <ele>41</ele>
        <time>2017-07-30T09:15:35Z</time>
      </trkpt>
      <trkpt lat="44.8903" lon="-0.78008">
        <ele>41</ele>
        <time>2017-07-30T09:15:37Z</time>
      </trkpt>
      <trkpt lat="44.8903" lon="-0.77996">
        <ele>42</ele>
        <time>2017-07-30T09:15:39Z</time>
      </trkpt>
      <trkpt lat="44.89029" lon="-0.77981">
        <ele>42</ele>
        <time>2017-07-30T09:15:41Z</time>
      </trkpt>
      <trkpt lat="44.89033" lon="-0.77968">
        <ele>42</ele>
        <time>2017-07-30T09:15:43Z</time>
      </trkpt>
      <trkpt lat="44.89034" lon="-0.77954">
        <ele>42</ele>
        <time>2017-07-30T09:15:45Z</time>
      </trkpt>
      <trkpt lat="44.89037" lon="-0.77942">
        <ele>43</ele>
        <time>2017-07-30T09:15:47Z</time>
      </trkpt>
      <trkpt lat="44.89042" lon="-0.77931">
        <ele>43</ele>
        <time>2017-07-30T09:15:49Z</time>
      </trkpt>
      <trkpt lat="44.89043" lon="-0.77917">
        <ele>43</ele>
        <time>2017-07-30T09:15:51Z</time>
      </trkpt>
      <trkpt lat="44.89046" lon="-0.77906">
        <ele>43</ele>
        <time>2017-07-30T09:15:53Z</time>
      </trkpt>
      <trkpt lat="44.8905" lon="-0.77896">
        <ele>43</ele>
        <time>2017-07-30T09:15:55Z</time>
      </trkpt>
      <trkpt lat="44.89051" lon="-0.77883">
        <ele>43</ele>
        <time>2017-07-30T09:15:57Z</time>
      </trkpt>
      <trkpt lat="44.89055" lon="-0.77871">
        <ele>44</ele>
        <time>2017-07-30T09:15:59Z</time>
      </trkpt>
      <trkpt lat="44.89056" lon="-0.77862">
        <ele>44</ele>
        <time>2017-07-30T09:16:01Z</time>
      </trkpt>
      <trkpt lat="44.89059" lon="-0.77857">
        <ele>44</ele>
        <time>2017-07-30T09:16:03Z</time>
      </trkpt>
      <trkpt lat="44.89067" lon="-0.77852">
        <ele>44</ele>
        <time>2017-07-30T09:16:07Z</time>
      </trkpt>
      <trkpt lat="44.89073" lon="-0.7785">
        <ele>44</ele>
        <time>2017-07-30T09:16:09Z</time>
      </trkpt>
      <trkpt lat="44.89085" lon="-0.77848">
        <ele>44</ele>
        <time>2017-07-30T09:16:13Z</time>
      </trkpt>
      <trkpt lat="44.89091" lon="-0.77848">
        <ele>44</ele>
        <time>2017-07-30T09:16:15Z</time>
      </trkpt>
      <trkpt lat="44.89098" lon="-0.77843">
        <ele>44</ele>
        <time>2017-07-30T09:16:17Z</time>
      </trkpt>
      <trkpt lat="44.89106" lon="-0.77845">
        <ele>44</ele>
        <time>2017-07-30T09:16:19Z</time>
      </trkpt>
      <trkpt lat="44.89115" lon="-0.77847">
        <ele>44</ele>
        <time>2017-07-30T09:16:21Z</time>
      </trkpt>
      <trkpt lat="44.89123" lon="-0.77847">
        <ele>44</ele>
        <time>2017-07-30T09:16:23Z</time>
      </trkpt>
      <trkpt lat="44.89132" lon="-0.77843">
        <ele>44</ele>
        <time>2017-07-30T09:16:25Z</time>
      </trkpt>
      <trkpt lat="44.89142" lon="-0.77842">
        <ele>44</ele>
        <time>2017-07-30T09:16:27Z</time>
      </trkpt>
      <trkpt lat="44.89148" lon="-0.77847">
        <ele>44</ele>
        <time>2017-07-30T09:16:29Z</time>
      </trkpt>
      <trkpt lat="44.89151" lon="-0.77857">
        <ele>44</ele>
        <time>2017-07-30T09:16:31Z</time>
      </trkpt>
      <trkpt lat="44.89156" lon="-0.77866">
        <ele>43</ele>
        <time>2017-07-30T09:16:33Z</time>
      </trkpt>
      <trkpt lat="44.89159" lon="-0.77873">
        <ele>43</ele>
        <time>2017-07-30T09:16:35Z</time>
      </trkpt>
      <trkpt lat="44.89162" lon="-0.77884">
        <ele>43</ele>
        <time>2017-07-30T09:16:37Z</time>
      </trkpt>
      <trkpt lat="44.89167" lon="-0.77895">
        <ele>42</ele>
        <time>2017-07-30T09:16:39Z</time>
      </trkpt>
      <trkpt lat="44.89175" lon="-0.77901">
        <ele>42</ele>
        <time>2017-07-30T09:16:41Z</time>
      </trkpt>
      <trkpt lat="44.89177" lon="-0.7791">
        <ele>42</ele>
        <time>2017-07-30T09:16:43Z</time>
      </trkpt>
      <trkpt lat="44.89181" lon="-0.77916">
        <ele>42</ele>
        <time>2017-07-30T09:16:45Z</time>
      </trkpt>
      <trkpt lat="44.89186" lon="-0.77918">
        <ele>41</ele>
        <time>2017-07-30T09:16:47Z</time>
      </trkpt>
      <trkpt lat="44.89194" lon="-0.77918">
        <ele>41</ele>
        <time>2017-07-30T09:16:51Z</time>
      </trkpt>
      <trkpt lat="44.89198" lon="-0.77912">
        <ele>42</ele>
        <time>2017-07-30T09:16:53Z</time>
      </trkpt>
      <trkpt lat="44.89205" lon="-0.77909">
        <ele>42</ele>
        <time>2017-07-30T09:16:55Z</time>
      </trkpt>
      <trkpt lat="44.8921" lon="-0.77905">
        <ele>42</ele>
        <time>2017-07-30T09:16:57Z</time>
      </trkpt>
      <trkpt lat="44.89215" lon="-0.77908">
        <ele>42</ele>
        <time>2017-07-30T09:16:59Z</time>
      </trkpt>
      <trkpt lat="44.89223" lon="-0.77913">
        <ele>42</ele>
        <time>2017-07-30T09:17:01Z</time>
      </trkpt>
      <trkpt lat="44.89229" lon="-0.77918">
        <ele>42</ele>
        <time>2017-07-30T09:17:03Z</time>
      </trkpt>
      <trkpt lat="44.89225" lon="-0.77911">
        <ele>42</ele>
        <time>2017-07-30T09:17:13Z</time>
      </trkpt>
      <trkpt lat="44.8922" lon="-0.77906">
        <ele>42</ele>
        <time>2017-07-30T09:17:15Z</time>
      </trkpt>
      <trkpt lat="44.89213" lon="-0.7791">
        <ele>42</ele>
        <time>2017-07-30T09:17:17Z</time>
      </trkpt>
      <trkpt lat="44.89209" lon="-0.77912">
        <ele>42</ele>
        <time>2017-07-30T09:17:19Z</time>
      </trkpt>
      <trkpt lat="44.89203" lon="-0.77916">
        <ele>42</ele>
        <time>2017-07-30T09:17:21Z</time>
      </trkpt>
      <trkpt lat="44.89194" lon="-0.77916">
        <ele>42</ele>
        <time>2017-07-30T09:17:23Z</time>
      </trkpt>
      <trkpt lat="44.89184" lon="-0.77912">
        <ele>42</ele>
        <time>2017-07-30T09:17:25Z</time>
      </trkpt>
      <trkpt lat="44.8918" lon="-0.77905">
        <ele>42</ele>
        <time>2017-07-30T09:17:27Z</time>
      </trkpt>
      <trkpt lat="44.89173" lon="-0.77903">
        <ele>42</ele>
        <time>2017-07-30T09:17:29Z</time>
      </trkpt>
      <trkpt lat="44.89171" lon="-0.77893">
        <ele>42</ele>
        <time>2017-07-30T09:17:31Z</time>
      </trkpt>
      <trkpt lat="44.89166" lon="-0.7788">
        <ele>43</ele>
        <time>2017-07-30T09:17:33Z</time>
      </trkpt>
      <trkpt lat="44.89164" lon="-0.7787">
        <ele>43</ele>
        <time>2017-07-30T09:17:35Z</time>
      </trkpt>
      <trkpt lat="44.89159" lon="-0.77856">
        <ele>44</ele>
        <time>2017-07-30T09:17:37Z</time>
      </trkpt>
      <trkpt lat="44.89155" lon="-0.77847">
        <ele>44</ele>
        <time>2017-07-30T09:17:39Z</time>
      </trkpt>
      <trkpt lat="44.89148" lon="-0.77843">
        <ele>44</ele>
        <time>2017-07-30T09:17:41Z</time>
      </trkpt>
      <trkpt lat="44.89144" lon="-0.77834">
        <ele>44</ele>
        <time>2017-07-30T09:17:43Z</time>
      </trkpt>
      <trkpt lat="44.89142" lon="-0.77822">
        <ele>43</ele>
        <time>2017-07-30T09:17:45Z</time>
      </trkpt>
      <trkpt lat="44.89139" lon="-0.7781">
        <ele>43</ele>
        <time>2017-07-30T09:17:47Z</time>
      </trkpt>
      <trkpt lat="44.89137" lon="-0.77796">
        <ele>43</ele>
        <time>2017-07-30T09:17:49Z</time>
      </trkpt>
      <trkpt lat="44.89139" lon="-0.77781">
        <ele>43</ele>
        <time>2017-07-30T09:17:51Z</time>
      </trkpt>
      <trkpt lat="44.89147" lon="-0.77773">
        <ele>42</ele>
        <time>2017-07-30T09:17:53Z</time>
      </trkpt>
      <trkpt lat="44.89154" lon="-0.77768">
        <ele>42</ele>
        <time>2017-07-30T09:17:55Z</time>
      </trkpt>
      <trkpt lat="44.89161" lon="-0.77763">
        <ele>42</ele>
        <time>2017-07-30T09:17:57Z</time>
      </trkpt>
      <trkpt lat="44.89168" lon="-0.77763">
        <ele>41</ele>
        <time>2017-07-30T09:17:59Z</time>
      </trkpt>
      <trkpt lat="44.89177" lon="-0.77753">
        <ele>41</ele>
        <time>2017-07-30T09:18:01Z</time>
      </trkpt>
      <trkpt lat="44.89184" lon="-0.77747">
        <ele>41</ele>
        <time>2017-07-30T09:18:03Z</time>
      </trkpt>
      <trkpt lat="44.89193" lon="-0.77741">
        <ele>41</ele>
        <time>2017-07-30T09:18:05Z</time>
      </trkpt>
      <trkpt lat="44.89201" lon="-0.77737">
        <ele>41</ele>
        <time>2017-07-30T09:18:07Z</time>
      </trkpt>
      <trkpt lat="44.89206" lon="-0.77728">
        <ele>41</ele>
        <time>2017-07-30T09:18:09Z</time>
      </trkpt>
      <trkpt lat="44.89213" lon="-0.77719">
        <ele>41</ele>
        <time>2017-07-30T09:18:11Z</time>
      </trkpt>
      <trkpt lat="44.89221" lon="-0.77712">
        <ele>41</ele>
        <time>2017-07-30T09:18:13Z</time>
      </trkpt>
      <trkpt lat="44.89221" lon="-0.77693">
        <ele>41</ele>
        <time>2017-07-30T09:18:17Z</time>
      </trkpt>
      <trkpt lat="44.89226" lon="-0.77685">
        <ele>41</ele>
        <time>2017-07-30T09:18:19Z</time>
      </trkpt>
      <trkpt lat="44.89225" lon="-0.77673">
        <ele>41</ele>
        <time>2017-07-30T09:18:21Z</time>
      </trkpt>
      <trkpt lat="44.89225" lon="-0.7766">
        <ele>41</ele>
        <time>2017-07-30T09:18:23Z</time>
      </trkpt>
      <trkpt lat="44.89222" lon="-0.77645">
        <ele>41</ele>
        <time>2017-07-30T09:18:25Z</time>
      </trkpt>
      <trkpt lat="44.89218" lon="-0.77633">
        <ele>41</ele>
        <time>2017-07-30T09:18:27Z</time>
      </trkpt>
      <trkpt lat="44.89217" lon="-0.77621">
        <ele>41</ele>
        <time>2017-07-30T09:18:29Z</time>
      </trkpt>
      <trkpt lat="44.89217" lon="-0.77608">
        <ele>41</ele>
        <time>2017-07-30T09:18:31Z</time>
      </trkpt>
      <trkpt lat="44.89216" lon="-0.77597">
        <ele>41</ele>
        <time>2017-07-30T09:18:33Z</time>
      </trkpt>
      <trkpt lat="44.89216" lon="-0.77582">
        <ele>41</ele>
        <time>2017-07-30T09:18:35Z</time>
      </trkpt>
      <trkpt lat="44.89213" lon="-0.77569">
        <ele>41</ele>
        <time>2017-07-30T09:18:37Z</time>
      </trkpt>
      <trkpt lat="44.89219" lon="-0.77557">
        <ele>41</ele>
        <time>2017-07-30T09:18:39Z</time>
      </trkpt>
      <trkpt lat="44.89218" lon="-0.77548">
        <ele>40</ele>
        <time>2017-07-30T09:18:41Z</time>
      </trkpt>
      <trkpt lat="44.89219" lon="-0.77535">
        <ele>40</ele>
        <time>2017-07-30T09:18:43Z</time>
      </trkpt>
      <trkpt lat="44.89218" lon="-0.77524">
        <ele>40</ele>
        <time>2017-07-30T09:18:45Z</time>
      </trkpt>
      <trkpt lat="44.89219" lon="-0.77513">
        <ele>40</ele>
        <time>2017-07-30T09:18:47Z</time>
      </trkpt>
      <trkpt lat="44.89217" lon="-0.77501">
        <ele>40</ele>
        <time>2017-07-30T09:18:49Z</time>
      </trkpt>
      <trkpt lat="44.89218" lon="-0.77491">
        <ele>40</ele>
        <time>2017-07-30T09:18:51Z</time>
      </trkpt>
      <trkpt lat="44.89217" lon="-0.77476">
        <ele>40</ele>
        <time>2017-07-30T09:18:53Z</time>
      </trkpt>
      <trkpt lat="44.89213" lon="-0.77465">
        <ele>40</ele>
        <time>2017-07-30T09:18:55Z</time>
      </trkpt>
      <trkpt lat="44.8921" lon="-0.77453">
        <ele>40</ele>
        <time>2017-07-30T09:18:57Z</time>
      </trkpt>
      <trkpt lat="44.89205" lon="-0.77443">
        <ele>40</ele>
        <time>2017-07-30T09:18:59Z</time>
      </trkpt>
      <trkpt lat="44.89196" lon="-0.7744">
        <ele>41</ele>
        <time>2017-07-30T09:19:03Z</time>
      </trkpt>
      <trkpt lat="44.89191" lon="-0.77442">
        <ele>41</ele>
        <time>2017-07-30T09:19:05Z</time>
      </trkpt>
      <trkpt lat="44.89184" lon="-0.77445">
        <ele>41</ele>
        <time>2017-07-30T09:19:07Z</time>
      </trkpt>
      <trkpt lat="44.89178" lon="-0.77447">
        <ele>41</ele>
        <time>2017-07-30T09:19:09Z</time>
      </trkpt>
      <trkpt lat="44.8917" lon="-0.7745">
        <ele>41</ele>
        <time>2017-07-30T09:19:11Z</time>
      </trkpt>
      <trkpt lat="44.89163" lon="-0.77447">
        <ele>41</ele>
        <time>2017-07-30T09:19:13Z</time>
      </trkpt>
      <trkpt lat="44.89162" lon="-0.77436">
        <ele>41</ele>
        <time>2017-07-30T09:19:17Z</time>
      </trkpt>
      <trkpt lat="44.89162" lon="-0.77427">
        <ele>42</ele>
        <time>2017-07-30T09:19:19Z</time>
      </trkpt>
      <trkpt lat="44.89161" lon="-0.77417">
        <ele>42</ele>
        <time>2017-07-30T09:19:21Z</time>
      </trkpt>
      <trkpt lat="44.89164" lon="-0.7741">
        <ele>41</ele>
        <time>2017-07-30T09:19:23Z</time>
      </trkpt>
      <trkpt lat="44.89164" lon="-0.77401">
        <ele>41</ele>
        <time>2017-07-30T09:19:25Z</time>
      </trkpt>
      <trkpt lat="44.89166" lon="-0.77394">
        <ele>41</ele>
        <time>2017-07-30T09:19:27Z</time>
      </trkpt>
      <trkpt lat="44.89168" lon="-0.77385">
        <ele>41</ele>
        <time>2017-07-30T09:19:29Z</time>
      </trkpt>
      <trkpt lat="44.89169" lon="-0.77374">
        <ele>41</ele>
        <time>2017-07-30T09:19:31Z</time>
      </trkpt>
      <trkpt lat="44.89169" lon="-0.77361">
        <ele>40</ele>
        <time>2017-07-30T09:19:33Z</time>
      </trkpt>
      <trkpt lat="44.89169" lon="-0.77349">
        <ele>40</ele>
        <time>2017-07-30T09:19:35Z</time>
      </trkpt>
      <trkpt lat="44.89171" lon="-0.77338">
        <ele>40</ele>
        <time>2017-07-30T09:19:37Z</time>
      </trkpt>
      <trkpt lat="44.89177" lon="-0.77327">
        <ele>40</ele>
        <time>2017-07-30T09:19:39Z</time>
      </trkpt>
      <trkpt lat="44.8918" lon="-0.77312">
        <ele>40</ele>
        <time>2017-07-30T09:19:41Z</time>
      </trkpt>
      <trkpt lat="44.89182" lon="-0.773">
        <ele>41</ele>
        <time>2017-07-30T09:19:43Z</time>
      </trkpt>
      <trkpt lat="44.89176" lon="-0.77292">
        <ele>41</ele>
        <time>2017-07-30T09:19:45Z</time>
      </trkpt>
      <trkpt lat="44.89169" lon="-0.77285">
        <ele>41</ele>
        <time>2017-07-30T09:19:47Z</time>
      </trkpt>
      <trkpt lat="44.8916" lon="-0.77282">
        <ele>41</ele>
        <time>2017-07-30T09:19:49Z</time>
      </trkpt>
      <trkpt lat="44.89153" lon="-0.77292">
        <ele>41</ele>
        <time>2017-07-30T09:19:51Z</time>
      </trkpt>
      <trkpt lat="44.89146" lon="-0.77294">
        <ele>41</ele>
        <time>2017-07-30T09:19:53Z</time>
      </trkpt>
      <trkpt lat="44.89139" lon="-0.773">
        <ele>41</ele>
        <time>2017-07-30T09:19:55Z</time>
      </trkpt>
      <trkpt lat="44.89132" lon="-0.77301">
        <ele>41</ele>
        <time>2017-07-30T09:19:57Z</time>
      </trkpt>
      <trkpt lat="44.89129" lon="-0.7729">
        <ele>41</ele>
        <time>2017-07-30T09:20:01Z</time>
      </trkpt>
      <trkpt lat="44.89126" lon="-0.7728">
        <ele>41</ele>
        <time>2017-07-30T09:20:03Z</time>
      </trkpt>
      <trkpt lat="44.89122" lon="-0.77273">
        <ele>41</ele>
        <time>2017-07-30T09:20:05Z</time>
      </trkpt>
      <trkpt lat="44.89118" lon="-0.77267">
        <ele>41</ele>
        <time>2017-07-30T09:20:07Z</time>
      </trkpt>
      <trkpt lat="44.89115" lon="-0.77261">
        <ele>41</ele>
        <time>2017-07-30T09:20:09Z</time>
      </trkpt>
      <trkpt lat="44.89103" lon="-0.77261">
        <ele>42</ele>
        <time>2017-07-30T09:20:13Z</time>
      </trkpt>
      <trkpt lat="44.89096" lon="-0.77257">
        <ele>42</ele>
        <time>2017-07-30T09:20:15Z</time>
      </trkpt>
      <trkpt lat="44.89089" lon="-0.77256">
        <ele>42</ele>
        <time>2017-07-30T09:20:17Z</time>
      </trkpt>
      <trkpt lat="44.89081" lon="-0.77255">
        <ele>43</ele>
        <time>2017-07-30T09:20:19Z</time>
      </trkpt>
      <trkpt lat="44.89073" lon="-0.77251">
        <ele>42</ele>
        <time>2017-07-30T09:20:21Z</time>
      </trkpt>
      <trkpt lat="44.89067" lon="-0.77251">
        <ele>42</ele>
        <time>2017-07-30T09:20:23Z</time>
      </trkpt>
      <trkpt lat="44.89057" lon="-0.77243">
        <ele>43</ele>
        <time>2017-07-30T09:20:27Z</time>
      </trkpt>
      <trkpt lat="44.8905" lon="-0.77241">
        <ele>42</ele>
        <time>2017-07-30T09:20:29Z</time>
      </trkpt>
      <trkpt lat="44.89042" lon="-0.77239">
        <ele>42</ele>
        <time>2017-07-30T09:20:31Z</time>
      </trkpt>
      <trkpt lat="44.89037" lon="-0.77234">
        <ele>42</ele>
        <time>2017-07-30T09:20:33Z</time>
      </trkpt>
      <trkpt lat="44.89033" lon="-0.77231">
        <ele>42</ele>
        <time>2017-07-30T09:20:35Z</time>
      </trkpt>
      <trkpt lat="44.89027" lon="-0.77237">
        <ele>42</ele>
        <time>2017-07-30T09:20:37Z</time>
      </trkpt>
      <trkpt lat="44.89022" lon="-0.77239">
        <ele>42</ele>
        <time>2017-07-30T09:20:39Z</time>
      </trkpt>
      <trkpt lat="44.89015" lon="-0.77236">
        <ele>42</ele>
        <time>2017-07-30T09:20:41Z</time>
      </trkpt>
      <trkpt lat="44.89007" lon="-0.77234">
        <ele>42</ele>
        <time>2017-07-30T09:20:43Z</time>
      </trkpt>
      <trkpt lat="44.89005" lon="-0.77221">
        <ele>42</ele>
        <time>2017-07-30T09:20:49Z</time>
      </trkpt>
      <trkpt lat="44.89" lon="-0.77215">
        <ele>42</ele>
        <time>2017-07-30T09:20:51Z</time>
      </trkpt>
      <trkpt lat="44.88999" lon="-0.77204">
        <ele>42</ele>
        <time>2017-07-30T09:20:53Z</time>
      </trkpt>
      <trkpt lat="44.88992" lon="-0.77199">
        <ele>42</ele>
        <time>2017-07-30T09:20:55Z</time>
      </trkpt>
      <trkpt lat="44.88986" lon="-0.77194">
        <ele>42</ele>
        <time>2017-07-30T09:20:57Z</time>
      </trkpt>
      <trkpt lat="44.88984" lon="-0.77182">
        <ele>42</ele>
        <time>2017-07-30T09:20:59Z</time>
      </trkpt>
      <trkpt lat="44.88981" lon="-0.7717">
        <ele>43</ele>
        <time>2017-07-30T09:21:01Z</time>
      </trkpt>
      <trkpt lat="44.88978" lon="-0.77159">
        <ele>43</ele>
        <time>2017-07-30T09:21:03Z</time>
      </trkpt>
      <trkpt lat="44.88975" lon="-0.77148">
        <ele>43</ele>
        <time>2017-07-30T09:21:05Z</time>
      </trkpt>
      <trkpt lat="44.88971" lon="-0.77138">
        <ele>43</ele>
        <time>2017-07-30T09:21:07Z</time>
      </trkpt>
      <trkpt lat="44.88965" lon="-0.77137">
        <ele>43</ele>
        <time>2017-07-30T09:21:09Z</time>
      </trkpt>
      <trkpt lat="44.88955" lon="-0.77136">
        <ele>43</ele>
        <time>2017-07-30T09:21:11Z</time>
      </trkpt>
      <trkpt lat="44.88946" lon="-0.77136">
        <ele>43</ele>
        <time>2017-07-30T09:21:13Z</time>
      </trkpt>
      <trkpt lat="44.8894" lon="-0.7714">
        <ele>43</ele>
        <time>2017-07-30T09:21:15Z</time>
      </trkpt>
      <trkpt lat="44.88931" lon="-0.77143">
        <ele>43</ele>
        <time>2017-07-30T09:21:17Z</time>
      </trkpt>
      <trkpt lat="44.88921" lon="-0.77141">
        <ele>43</ele>
        <time>2017-07-30T09:21:19Z</time>
      </trkpt>
      <trkpt lat="44.88915" lon="-0.77139">
        <ele>43</ele>
        <time>2017-07-30T09:21:21Z</time>
      </trkpt>
      <trkpt lat="44.88909" lon="-0.77134">
        <ele>43</ele>
        <time>2017-07-30T09:21:23Z</time>
      </trkpt>
      <trkpt lat="44.88902" lon="-0.77128">
        <ele>43</ele>
        <time>2017-07-30T09:21:25Z</time>
      </trkpt>
      <trkpt lat="44.88896" lon="-0.77122">
        <ele>43</ele>
        <time>2017-07-30T09:21:27Z</time>
      </trkpt>
      <trkpt lat="44.88893" lon="-0.77117">
        <ele>43</ele>
        <time>2017-07-30T09:21:31Z</time>
      </trkpt>
      <trkpt lat="44.88893" lon="-0.77107">
        <ele>43</ele>
        <time>2017-07-30T09:21:35Z</time>
      </trkpt>
      <trkpt lat="44.88893" lon="-0.7709">
        <ele>43</ele>
        <time>2017-07-30T09:21:39Z</time>
      </trkpt>
      <trkpt lat="44.88894" lon="-0.77083">
        <ele>43</ele>
        <time>2017-07-30T09:21:41Z</time>
      </trkpt>
      <trkpt lat="44.88894" lon="-0.77074">
        <ele>43</ele>
        <time>2017-07-30T09:21:45Z</time>
      </trkpt>
      <trkpt lat="44.88892" lon="-0.77065">
        <ele>43</ele>
        <time>2017-07-30T09:21:47Z</time>
      </trkpt>
      <trkpt lat="44.88888" lon="-0.77059">
        <ele>43</ele>
        <time>2017-07-30T09:21:49Z</time>
      </trkpt>
      <trkpt lat="44.88883" lon="-0.77056">
        <ele>43</ele>
        <time>2017-07-30T09:21:51Z</time>
      </trkpt>
      <trkpt lat="44.88879" lon="-0.77051">
        <ele>43</ele>
        <time>2017-07-30T09:21:53Z</time>
      </trkpt>
      <trkpt lat="44.88879" lon="-0.77045">
        <ele>43</ele>
        <time>2017-07-30T09:21:55Z</time>
      </trkpt>
      <trkpt lat="44.88875" lon="-0.77033">
        <ele>42</ele>
        <time>2017-07-30T09:21:59Z</time>
      </trkpt>
      <trkpt lat="44.88871" lon="-0.77024">
        <ele>42</ele>
        <time>2017-07-30T09:22:01Z</time>
      </trkpt>
      <trkpt lat="44.88866" lon="-0.77019">
        <ele>42</ele>
        <time>2017-07-30T09:22:03Z</time>
      </trkpt>
      <trkpt lat="44.88861" lon="-0.77015">
        <ele>42</ele>
        <time>2017-07-30T09:22:05Z</time>
      </trkpt>
      <trkpt lat="44.88856" lon="-0.77011">
        <ele>42</ele>
        <time>2017-07-30T09:22:07Z</time>
      </trkpt>
      <trkpt lat="44.88851" lon="-0.77007">
        <ele>42</ele>
        <time>2017-07-30T09:22:09Z</time>
      </trkpt>
      <trkpt lat="44.88848" lon="-0.76999">
        <ele>41</ele>
        <time>2017-07-30T09:22:11Z</time>
      </trkpt>
      <trkpt lat="44.88841" lon="-0.76993">
        <ele>41</ele>
        <time>2017-07-30T09:22:13Z</time>
      </trkpt>
      <trkpt lat="44.88834" lon="-0.76989">
        <ele>41</ele>
        <time>2017-07-30T09:22:15Z</time>
      </trkpt>
      <trkpt lat="44.88825" lon="-0.76981">
        <ele>40</ele>
        <time>2017-07-30T09:22:17Z</time>
      </trkpt>
      <trkpt lat="44.88817" lon="-0.76973">
        <ele>39</ele>
        <time>2017-07-30T09:22:19Z</time>
      </trkpt>
      <trkpt lat="44.88809" lon="-0.76965">
        <ele>39</ele>
        <time>2017-07-30T09:22:21Z</time>
      </trkpt>
      <trkpt lat="44.88803" lon="-0.76956">
        <ele>39</ele>
        <time>2017-07-30T09:22:23Z</time>
      </trkpt>
      <trkpt lat="44.88795" lon="-0.76949">
        <ele>39</ele>
        <time>2017-07-30T09:22:25Z</time>
      </trkpt>
      <trkpt lat="44.88787" lon="-0.76953">
        <ele>39</ele>
        <time>2017-07-30T09:22:27Z</time>
      </trkpt>
      <trkpt lat="44.8878" lon="-0.76958">
        <ele>39</ele>
        <time>2017-07-30T09:22:29Z</time>
      </trkpt>
      <trkpt lat="44.88771" lon="-0.76964">
        <ele>39</ele>
        <time>2017-07-30T09:22:31Z</time>
      </trkpt>
      <trkpt lat="44.8876" lon="-0.7696">
        <ele>39</ele>
        <time>2017-07-30T09:22:32Z</time>
      </trkpt>
      <trkpt lat="44.88752" lon="-0.76954">
        <ele>38</ele>
        <time>2017-07-30T09:22:34Z</time>
      </trkpt>
      <trkpt lat="44.88747" lon="-0.76951">
        <ele>38</ele>
        <time>2017-07-30T09:22:36Z</time>
      </trkpt>
      <trkpt lat="44.88744" lon="-0.76945">
        <ele>38</ele>
        <time>2017-07-30T09:22:40Z</time>
      </trkpt>
      <trkpt lat="44.88736" lon="-0.76929">
        <ele>38</ele>
        <time>2017-07-30T09:22:44Z</time>
      </trkpt>
      <trkpt lat="44.88729" lon="-0.76915">
        <ele>38</ele>
        <time>2017-07-30T09:22:46Z</time>
      </trkpt>
      <trkpt lat="44.88722" lon="-0.76897">
        <ele>38</ele>
        <time>2017-07-30T09:22:48Z</time>
      </trkpt>
      <trkpt lat="44.88716" lon="-0.76882">
        <ele>38</ele>
        <time>2017-07-30T09:22:50Z</time>
      </trkpt>
      <trkpt lat="44.88714" lon="-0.76869">
        <ele>38</ele>
        <time>2017-07-30T09:22:52Z</time>
      </trkpt>
      <trkpt lat="44.88715" lon="-0.76861">
        <ele>38</ele>
        <time>2017-07-30T09:22:54Z</time>
      </trkpt>
      <trkpt lat="44.88711" lon="-0.76855">
        <ele>38</ele>
        <time>2017-07-30T09:22:56Z</time>
      </trkpt>
      <trkpt lat="44.88703" lon="-0.76848">
        <ele>38</ele>
        <time>2017-07-30T09:22:58Z</time>
      </trkpt>
      <trkpt lat="44.88697" lon="-0.76844">
        <ele>38</ele>
        <time>2017-07-30T09:23:00Z</time>
      </trkpt>
      <trkpt lat="44.88687" lon="-0.76844">
        <ele>38</ele>
        <time>2017-07-30T09:23:02Z</time>
      </trkpt>
      <trkpt lat="44.88674" lon="-0.76848">
        <ele>39</ele>
        <time>2017-07-30T09:23:04Z</time>
      </trkpt>
      <trkpt lat="44.88662" lon="-0.7685">
        <ele>38</ele>
        <time>2017-07-30T09:23:06Z</time>
      </trkpt>
      <trkpt lat="44.88654" lon="-0.7685">
        <ele>38</ele>
        <time>2017-07-30T09:23:08Z</time>
      </trkpt>
      <trkpt lat="44.88649" lon="-0.76847">
        <ele>38</ele>
        <time>2017-07-30T09:23:10Z</time>
      </trkpt>
      <trkpt lat="44.88644" lon="-0.76843">
        <ele>38</ele>
        <time>2017-07-30T09:23:12Z</time>
      </trkpt>
      <trkpt lat="44.88641" lon="-0.76837">
        <ele>38</ele>
        <time>2017-07-30T09:23:14Z</time>
      </trkpt>
      <trkpt lat="44.88638" lon="-0.76827">
        <ele>38</ele>
        <time>2017-07-30T09:23:16Z</time>
      </trkpt>
      <trkpt lat="44.88634" lon="-0.76817">
        <ele>38</ele>
        <time>2017-07-30T09:23:18Z</time>
      </trkpt>
      <trkpt lat="44.88627" lon="-0.76806">
        <ele>38</ele>
        <time>2017-07-30T09:23:20Z</time>
      </trkpt>
      <trkpt lat="44.88618" lon="-0.76799">
        <ele>37</ele>
        <time>2017-07-30T09:23:22Z</time>
      </trkpt>
      <trkpt lat="44.88613" lon="-0.76788">
        <ele>37</ele>
        <time>2017-07-30T09:23:24Z</time>
      </trkpt>
      <trkpt lat="44.8862" lon="-0.76785">
        <ele>37</ele>
        <time>2017-07-30T09:23:30Z</time>
      </trkpt>
      <trkpt lat="44.88626" lon="-0.76783">
        <ele>37</ele>
        <time>2017-07-30T09:23:32Z</time>
      </trkpt>
      <trkpt lat="44.88634" lon="-0.76782">
        <ele>38</ele>
        <time>2017-07-30T09:23:34Z</time>
      </trkpt>
      <trkpt lat="44.88638" lon="-0.76778">
        <ele>38</ele>
        <time>2017-07-30T09:23:38Z</time>
      </trkpt>
      <trkpt lat="44.88642" lon="-0.7677">
        <ele>38</ele>
        <time>2017-07-30T09:23:40Z</time>
      </trkpt>
      <trkpt lat="44.88643" lon="-0.76764">
        <ele>38</ele>
        <time>2017-07-30T09:23:42Z</time>
      </trkpt>
      <trkpt lat="44.88639" lon="-0.76757">
        <ele>38</ele>
        <time>2017-07-30T09:23:44Z</time>
      </trkpt>
      <trkpt lat="44.88634" lon="-0.76751">
        <ele>38</ele>
        <time>2017-07-30T09:23:46Z</time>
      </trkpt>
      <trkpt lat="44.88627" lon="-0.7674">
        <ele>36</ele>
        <time>2017-07-30T09:23:50Z</time>
      </trkpt>
      <trkpt lat="44.8863" lon="-0.76732">
        <ele>36</ele>
        <time>2017-07-30T09:23:52Z</time>
      </trkpt>
      <trkpt lat="44.88631" lon="-0.76724">
        <ele>36</ele>
        <time>2017-07-30T09:23:54Z</time>
      </trkpt>
      <trkpt lat="44.88629" lon="-0.76713">
        <ele>36</ele>
        <time>2017-07-30T09:23:56Z</time>
      </trkpt>
      <trkpt lat="44.88629" lon="-0.76706">
        <ele>36</ele>
        <time>2017-07-30T09:23:58Z</time>
      </trkpt>
      <trkpt lat="44.88629" lon="-0.76698">
        <ele>36</ele>
        <time>2017-07-30T09:24:00Z</time>
      </trkpt>
      <trkpt lat="44.88623" lon="-0.76687">
        <ele>36</ele>
        <time>2017-07-30T09:24:04Z</time>
      </trkpt>
      <trkpt lat="44.88619" lon="-0.76684">
        <ele>36</ele>
        <time>2017-07-30T09:24:06Z</time>
      </trkpt>
      <trkpt lat="44.88616" lon="-0.76691">
        <ele>36</ele>
        <time>2017-07-30T09:24:10Z</time>
      </trkpt>
      <trkpt lat="44.88611" lon="-0.76691">
        <ele>35</ele>
        <time>2017-07-30T09:24:14Z</time>
      </trkpt>
      <trkpt lat="44.88609" lon="-0.76685">
        <ele>35</ele>
        <time>2017-07-30T09:24:20Z</time>
      </trkpt>
      <trkpt lat="44.8861" lon="-0.76675">
        <ele>35</ele>
        <time>2017-07-30T09:24:28Z</time>
      </trkpt>
      <trkpt lat="44.88605" lon="-0.76678">
        <ele>35</ele>
        <time>2017-07-30T09:24:34Z</time>
      </trkpt>
      <trkpt lat="44.88597" lon="-0.76678">
        <ele>35</ele>
        <time>2017-07-30T09:24:36Z</time>
      </trkpt>
      <trkpt lat="44.88594" lon="-0.76673">
        <ele>34</ele>
        <time>2017-07-30T09:24:38Z</time>
      </trkpt>
      <trkpt lat="44.88594" lon="-0.76665">
        <ele>34</ele>
        <time>2017-07-30T09:24:42Z</time>
      </trkpt>
      <trkpt lat="44.88597" lon="-0.76658">
        <ele>34</ele>
        <time>2017-07-30T09:24:46Z</time>
      </trkpt>
      <trkpt lat="44.88604" lon="-0.76656">
        <ele>34</ele>
        <time>2017-07-30T09:24:52Z</time>
      </trkpt>
      <trkpt lat="44.88609" lon="-0.76663">
        <ele>35</ele>
        <time>2017-07-30T09:24:56Z</time>
      </trkpt>
      <trkpt lat="44.88613" lon="-0.76673">
        <ele>35</ele>
        <time>2017-07-30T09:25:00Z</time>
      </trkpt>
      <trkpt lat="44.88618" lon="-0.76678">
        <ele>35</ele>
        <time>2017-07-30T09:25:04Z</time>
      </trkpt>
      <trkpt lat="44.88623" lon="-0.76679">
        <ele>36</ele>
        <time>2017-07-30T09:25:10Z</time>
      </trkpt>
      <trkpt lat="44.88625" lon="-0.76686">
        <ele>36</ele>
        <time>2017-07-30T09:25:14Z</time>
      </trkpt>
      <trkpt lat="44.88631" lon="-0.76703">
        <ele>36</ele>
        <time>2017-07-30T09:25:18Z</time>
      </trkpt>
      <trkpt lat="44.88641" lon="-0.76717">
        <ele>36</ele>
        <time>2017-07-30T09:25:20Z</time>
      </trkpt>
      <trkpt lat="44.88648" lon="-0.76725">
        <ele>37</ele>
        <time>2017-07-30T09:25:22Z</time>
      </trkpt>
      <trkpt lat="44.8865" lon="-0.76736">
        <ele>37</ele>
        <time>2017-07-30T09:25:24Z</time>
      </trkpt>
      <trkpt lat="44.8865" lon="-0.76746">
        <ele>38</ele>
        <time>2017-07-30T09:25:26Z</time>
      </trkpt>
      <trkpt lat="44.8865" lon="-0.76756">
        <ele>38</ele>
        <time>2017-07-30T09:25:28Z</time>
      </trkpt>
      <trkpt lat="44.88651" lon="-0.76766">
        <ele>38</ele>
        <time>2017-07-30T09:25:30Z</time>
      </trkpt>
      <trkpt lat="44.8865" lon="-0.76775">
        <ele>38</ele>
        <time>2017-07-30T09:25:32Z</time>
      </trkpt>
      <trkpt lat="44.88645" lon="-0.76784">
        <ele>38</ele>
        <time>2017-07-30T09:25:36Z</time>
      </trkpt>
      <trkpt lat="44.88647" lon="-0.76794">
        <ele>38</ele>
        <time>2017-07-30T09:25:38Z</time>
      </trkpt>
      <trkpt lat="44.88649" lon="-0.76802">
        <ele>38</ele>
        <time>2017-07-30T09:25:40Z</time>
      </trkpt>
      <trkpt lat="44.88654" lon="-0.76805">
        <ele>38</ele>
        <time>2017-07-30T09:25:42Z</time>
      </trkpt>
      <trkpt lat="44.88659" lon="-0.76808">
        <ele>38</ele>
        <time>2017-07-30T09:25:44Z</time>
      </trkpt>
      <trkpt lat="44.88663" lon="-0.76814">
        <ele>38</ele>
        <time>2017-07-30T09:25:48Z</time>
      </trkpt>
      <trkpt lat="44.88667" lon="-0.76815">
        <ele>39</ele>
        <time>2017-07-30T09:25:50Z</time>
      </trkpt>
      <trkpt lat="44.88672" lon="-0.76815">
        <ele>38</ele>
        <time>2017-07-30T09:25:52Z</time>
      </trkpt>
      <trkpt lat="44.88678" lon="-0.76812">
        <ele>38</ele>
        <time>2017-07-30T09:25:54Z</time>
      </trkpt>
      <trkpt lat="44.88683" lon="-0.76806">
        <ele>38</ele>
        <time>2017-07-30T09:25:56Z</time>
      </trkpt>
      <trkpt lat="44.8869" lon="-0.76807">
        <ele>38</ele>
        <time>2017-07-30T09:25:58Z</time>
      </trkpt>
      <trkpt lat="44.88695" lon="-0.76802">
        <ele>38</ele>
        <time>2017-07-30T09:26:00Z</time>
      </trkpt>
      <trkpt lat="44.88696" lon="-0.76791">
        <ele>38</ele>
        <time>2017-07-30T09:26:04Z</time>
      </trkpt>
      <trkpt lat="44.88698" lon="-0.76784">
        <ele>38</ele>
        <time>2017-07-30T09:26:06Z</time>
      </trkpt>
      <trkpt lat="44.88695" lon="-0.76777">
        <ele>38</ele>
        <time>2017-07-30T09:26:08Z</time>
      </trkpt>
      <trkpt lat="44.88684" lon="-0.76782">
        <ele>38</ele>
        <time>2017-07-30T09:26:14Z</time>
      </trkpt>
      <trkpt lat="44.88679" lon="-0.76788">
        <ele>38</ele>
        <time>2017-07-30T09:26:16Z</time>
      </trkpt>
      <trkpt lat="44.88677" lon="-0.76796">
        <ele>38</ele>
        <time>2017-07-30T09:26:20Z</time>
      </trkpt>
      <trkpt lat="44.88672" lon="-0.76795">
        <ele>38</ele>
        <time>2017-07-30T09:26:22Z</time>
      </trkpt>
      <trkpt lat="44.88667" lon="-0.76795">
        <ele>38</ele>
        <time>2017-07-30T09:26:26Z</time>
      </trkpt>
      <trkpt lat="44.88668" lon="-0.76788">
        <ele>38</ele>
        <time>2017-07-30T09:26:28Z</time>
      </trkpt>
      <trkpt lat="44.8867" lon="-0.76781">
        <ele>38</ele>
        <time>2017-07-30T09:26:30Z</time>
      </trkpt>
      <trkpt lat="44.88672" lon="-0.76775">
        <ele>38</ele>
        <time>2017-07-30T09:26:32Z</time>
      </trkpt>
      <trkpt lat="44.88677" lon="-0.76767">
        <ele>39</ele>
        <time>2017-07-30T09:26:34Z</time>
      </trkpt>
      <trkpt lat="44.88679" lon="-0.76758">
        <ele>39</ele>
        <time>2017-07-30T09:26:36Z</time>
      </trkpt>
      <trkpt lat="44.88685" lon="-0.76758">
        <ele>38</ele>
        <time>2017-07-30T09:26:40Z</time>
      </trkpt>
      <trkpt lat="44.8869" lon="-0.76755">
        <ele>38</ele>
        <time>2017-07-30T09:26:42Z</time>
      </trkpt>
      <trkpt lat="44.88691" lon="-0.76745">
        <ele>38</ele>
        <time>2017-07-30T09:26:44Z</time>
      </trkpt>
      <trkpt lat="44.88687" lon="-0.7674">
        <ele>38</ele>
        <time>2017-07-30T09:26:46Z</time>
      </trkpt>
      <trkpt lat="44.88685" lon="-0.76735">
        <ele>38</ele>
        <time>2017-07-30T09:26:48Z</time>
      </trkpt>
      <trkpt lat="44.8868" lon="-0.76734">
        <ele>38</ele>
        <time>2017-07-30T09:26:52Z</time>
      </trkpt>
      <trkpt lat="44.88674" lon="-0.76732">
        <ele>38</ele>
        <time>2017-07-30T09:26:54Z</time>
      </trkpt>
      <trkpt lat="44.8867" lon="-0.76725">
        <ele>38</ele>
        <time>2017-07-30T09:26:58Z</time>
      </trkpt>
      <trkpt lat="44.88667" lon="-0.76715">
        <ele>38</ele>
        <time>2017-07-30T09:27:00Z</time>
      </trkpt>
      <trkpt lat="44.88664" lon="-0.76707">
        <ele>37</ele>
        <time>2017-07-30T09:27:02Z</time>
      </trkpt>
      <trkpt lat="44.88665" lon="-0.76695">
        <ele>37</ele>
        <time>2017-07-30T09:27:06Z</time>
      </trkpt>
      <trkpt lat="44.88668" lon="-0.76681">
        <ele>37</ele>
        <time>2017-07-30T09:27:10Z</time>
      </trkpt>
      <trkpt lat="44.88673" lon="-0.76675">
        <ele>37</ele>
        <time>2017-07-30T09:27:12Z</time>
      </trkpt>
      <trkpt lat="44.88679" lon="-0.76676">
        <ele>37</ele>
        <time>2017-07-30T09:27:18Z</time>
      </trkpt>
      <trkpt lat="44.88687" lon="-0.7667">
        <ele>37</ele>
        <time>2017-07-30T09:27:22Z</time>
      </trkpt>
      <trkpt lat="44.88692" lon="-0.76666">
        <ele>37</ele>
        <time>2017-07-30T09:27:24Z</time>
      </trkpt>
      <trkpt lat="44.88696" lon="-0.76661">
        <ele>37</ele>
        <time>2017-07-30T09:27:26Z</time>
      </trkpt>
      <trkpt lat="44.88697" lon="-0.76654">
        <ele>37</ele>
        <time>2017-07-30T09:27:28Z</time>
      </trkpt>
      <trkpt lat="44.88692" lon="-0.76648">
        <ele>37</ele>
        <time>2017-07-30T09:27:32Z</time>
      </trkpt>
      <trkpt lat="44.88691" lon="-0.7664">
        <ele>37</ele>
        <time>2017-07-30T09:27:34Z</time>
      </trkpt>
      <trkpt lat="44.88695" lon="-0.76629">
        <ele>37</ele>
        <time>2017-07-30T09:27:36Z</time>
      </trkpt>
      <trkpt lat="44.88695" lon="-0.76621">
        <ele>37</ele>
        <time>2017-07-30T09:27:38Z</time>
      </trkpt>
      <trkpt lat="44.88695" lon="-0.76611">
        <ele>37</ele>
        <time>2017-07-30T09:27:40Z</time>
      </trkpt>
      <trkpt lat="44.88695" lon="-0.76601">
        <ele>37</ele>
        <time>2017-07-30T09:27:42Z</time>
      </trkpt>
      <trkpt lat="44.88695" lon="-0.76592">
        <ele>37</ele>
        <time>2017-07-30T09:27:44Z</time>
      </trkpt>
      <trkpt lat="44.88691" lon="-0.76584">
        <ele>37</ele>
        <time>2017-07-30T09:27:46Z</time>
      </trkpt>
      <trkpt lat="44.88689" lon="-0.76575">
        <ele>38</ele>
        <time>2017-07-30T09:27:50Z</time>
      </trkpt>
      <trkpt lat="44.88685" lon="-0.76564">
        <ele>38</ele>
        <time>2017-07-30T09:27:54Z</time>
      </trkpt>
      <trkpt lat="44.8868" lon="-0.7656">
        <ele>38</ele>
        <time>2017-07-30T09:27:56Z</time>
      </trkpt>
      <trkpt lat="44.88674" lon="-0.7656">
        <ele>38</ele>
        <time>2017-07-30T09:28:00Z</time>
      </trkpt>
      <trkpt lat="44.8867" lon="-0.76565">
        <ele>38</ele>
        <time>2017-07-30T09:28:04Z</time>
      </trkpt>
      <trkpt lat="44.88668" lon="-0.76575">
        <ele>37</ele>
        <time>2017-07-30T09:28:06Z</time>
      </trkpt>
      <trkpt lat="44.88668" lon="-0.76583">
        <ele>37</ele>
        <time>2017-07-30T09:28:08Z</time>
      </trkpt>
      <trkpt lat="44.88667" lon="-0.7659">
        <ele>37</ele>
        <time>2017-07-30T09:28:10Z</time>
      </trkpt>
      <trkpt lat="44.88666" lon="-0.76598">
        <ele>36</ele>
        <time>2017-07-30T09:28:12Z</time>
      </trkpt>
      <trkpt lat="44.8866" lon="-0.76599">
        <ele>36</ele>
        <time>2017-07-30T09:28:14Z</time>
      </trkpt>
      <trkpt lat="44.88655" lon="-0.76601">
        <ele>36</ele>
        <time>2017-07-30T09:28:16Z</time>
      </trkpt>
      <trkpt lat="44.8865" lon="-0.76609">
        <ele>36</ele>
        <time>2017-07-30T09:28:18Z</time>
      </trkpt>
      <trkpt lat="44.88646" lon="-0.76614">
        <ele>36</ele>
        <time>2017-07-30T09:28:20Z</time>
      </trkpt>
      <trkpt lat="44.88645" lon="-0.76623">
        <ele>36</ele>
        <time>2017-07-30T09:28:22Z</time>
      </trkpt>
      <trkpt lat="44.88644" lon="-0.7663">
        <ele>36</ele>
        <time>2017-07-30T09:28:26Z</time>
      </trkpt>
      <trkpt lat="44.88635" lon="-0.76637">
        <ele>35</ele>
        <time>2017-07-30T09:28:30Z</time>
      </trkpt>
      <trkpt lat="44.88633" lon="-0.76646">
        <ele>35</ele>
        <time>2017-07-30T09:28:32Z</time>
      </trkpt>
      <trkpt lat="44.88628" lon="-0.76646">
        <ele>35</ele>
        <time>2017-07-30T09:28:34Z</time>
      </trkpt>
      <trkpt lat="44.88622" lon="-0.7665">
        <ele>35</ele>
        <time>2017-07-30T09:28:36Z</time>
      </trkpt>
      <trkpt lat="44.88619" lon="-0.76644">
        <ele>35</ele>
        <time>2017-07-30T09:28:42Z</time>
      </trkpt>
      <trkpt lat="44.88612" lon="-0.76642">
        <ele>35</ele>
        <time>2017-07-30T09:28:44Z</time>
      </trkpt>
      <trkpt lat="44.88608" lon="-0.76642">
        <ele>35</ele>
        <time>2017-07-30T09:28:48Z</time>
      </trkpt>
      <trkpt lat="44.88603" lon="-0.76639">
        <ele>35</ele>
        <time>2017-07-30T09:28:54Z</time>
      </trkpt>
      <trkpt lat="44.88605" lon="-0.76634">
        <ele>35</ele>
        <time>2017-07-30T09:28:58Z</time>
      </trkpt>
      <trkpt lat="44.88606" lon="-0.76623">
        <ele>35</ele>
        <time>2017-07-30T09:29:02Z</time>
      </trkpt>
      <trkpt lat="44.88606" lon="-0.76616">
        <ele>35</ele>
        <time>2017-07-30T09:29:04Z</time>
      </trkpt>
      <trkpt lat="44.88607" lon="-0.76609">
        <ele>35</ele>
        <time>2017-07-30T09:29:06Z</time>
      </trkpt>
      <trkpt lat="44.88611" lon="-0.76606">
        <ele>35</ele>
        <time>2017-07-30T09:29:12Z</time>
      </trkpt>
      <trkpt lat="44.88612" lon="-0.76595">
        <ele>35</ele>
        <time>2017-07-30T09:29:16Z</time>
      </trkpt>
      <trkpt lat="44.88606" lon="-0.76596">
        <ele>35</ele>
        <time>2017-07-30T09:29:24Z</time>
      </trkpt>
      <trkpt lat="44.88603" lon="-0.7659">
        <ele>35</ele>
        <time>2017-07-30T09:29:26Z</time>
      </trkpt>
      <trkpt lat="44.88602" lon="-0.76584">
        <ele>35</ele>
        <time>2017-07-30T09:29:28Z</time>
      </trkpt>
      <trkpt lat="44.88606" lon="-0.76577">
        <ele>35</ele>
        <time>2017-07-30T09:29:34Z</time>
      </trkpt>
      <trkpt lat="44.88612" lon="-0.76573">
        <ele>35</ele>
        <time>2017-07-30T09:29:38Z</time>
      </trkpt>
      <trkpt lat="44.88617" lon="-0.76577">
        <ele>35</ele>
        <time>2017-07-30T09:29:42Z</time>
      </trkpt>
      <trkpt lat="44.88624" lon="-0.76575">
        <ele>35</ele>
        <time>2017-07-30T09:29:46Z</time>
      </trkpt>
      <trkpt lat="44.88623" lon="-0.76569">
        <ele>35</ele>
        <time>2017-07-30T09:29:50Z</time>
      </trkpt>
      <trkpt lat="44.88617" lon="-0.76563">
        <ele>35</ele>
        <time>2017-07-30T09:29:54Z</time>
      </trkpt>
      <trkpt lat="44.8861" lon="-0.76566">
        <ele>35</ele>
        <time>2017-07-30T09:29:58Z</time>
      </trkpt>
      <trkpt lat="44.88607" lon="-0.76561">
        <ele>35</ele>
        <time>2017-07-30T09:30:02Z</time>
      </trkpt>
      <trkpt lat="44.88608" lon="-0.7655">
        <ele>35</ele>
        <time>2017-07-30T09:30:06Z</time>
      </trkpt>
      <trkpt lat="44.88613" lon="-0.76539">
        <ele>35</ele>
        <time>2017-07-30T09:30:10Z</time>
      </trkpt>
      <trkpt lat="44.88612" lon="-0.76531">
        <ele>35</ele>
        <time>2017-07-30T09:30:12Z</time>
      </trkpt>
      <trkpt lat="44.88607" lon="-0.76526">
        <ele>35</ele>
        <time>2017-07-30T09:30:14Z</time>
      </trkpt>
      <trkpt lat="44.88596" lon="-0.76513">
        <ele>34</ele>
        <time>2017-07-30T09:30:18Z</time>
      </trkpt>
      <trkpt lat="44.88597" lon="-0.76498">
        <ele>34</ele>
        <time>2017-07-30T09:30:20Z</time>
      </trkpt>
      <trkpt lat="44.88597" lon="-0.76487">
        <ele>34</ele>
        <time>2017-07-30T09:30:22Z</time>
      </trkpt>
      <trkpt lat="44.88602" lon="-0.76484">
        <ele>35</ele>
        <time>2017-07-30T09:30:24Z</time>
      </trkpt>
      <trkpt lat="44.88605" lon="-0.76475">
        <ele>35</ele>
        <time>2017-07-30T09:30:26Z</time>
      </trkpt>
      <trkpt lat="44.8861" lon="-0.76471">
        <ele>35</ele>
        <time>2017-07-30T09:30:28Z</time>
      </trkpt>
      <trkpt lat="44.88608" lon="-0.76463">
        <ele>36</ele>
        <time>2017-07-30T09:30:30Z</time>
      </trkpt>
      <trkpt lat="44.88604" lon="-0.76462">
        <ele>35</ele>
        <time>2017-07-30T09:30:32Z</time>
      </trkpt>
      <trkpt lat="44.88597" lon="-0.76461">
        <ele>35</ele>
        <time>2017-07-30T09:30:34Z</time>
      </trkpt>
      <trkpt lat="44.88594" lon="-0.76456">
        <ele>35</ele>
        <time>2017-07-30T09:30:36Z</time>
      </trkpt>
      <trkpt lat="44.88588" lon="-0.76448">
        <ele>35</ele>
        <time>2017-07-30T09:30:38Z</time>
      </trkpt>
      <trkpt lat="44.88585" lon="-0.76443">
        <ele>35</ele>
        <time>2017-07-30T09:30:40Z</time>
      </trkpt>
      <trkpt lat="44.8858" lon="-0.76438">
        <ele>33</ele>
        <time>2017-07-30T09:30:42Z</time>
      </trkpt>
      <trkpt lat="44.88574" lon="-0.76431">
        <ele>33</ele>
        <time>2017-07-30T09:30:44Z</time>
      </trkpt>
      <trkpt lat="44.88569" lon="-0.76425">
        <ele>34</ele>
        <time>2017-07-30T09:30:46Z</time>
      </trkpt>
      <trkpt lat="44.88561" lon="-0.7642">
        <ele>33</ele>
        <time>2017-07-30T09:30:48Z</time>
      </trkpt>
      <trkpt lat="44.88553" lon="-0.76416">
        <ele>35</ele>
        <time>2017-07-30T09:30:50Z</time>
      </trkpt>
      <trkpt lat="44.88546" lon="-0.76411">
        <ele>35</ele>
        <time>2017-07-30T09:30:52Z</time>
      </trkpt>
      <trkpt lat="44.88543" lon="-0.76404">
        <ele>35</ele>
        <time>2017-07-30T09:30:54Z</time>
      </trkpt>
      <trkpt lat="44.8854" lon="-0.76394">
        <ele>35</ele>
        <time>2017-07-30T09:30:56Z</time>
      </trkpt>
      <trkpt lat="44.8854" lon="-0.76387">
        <ele>35</ele>
        <time>2017-07-30T09:30:58Z</time>
      </trkpt>
      <trkpt lat="44.88534" lon="-0.76381">
        <ele>35</ele>
        <time>2017-07-30T09:31:02Z</time>
      </trkpt>
      <trkpt lat="44.88529" lon="-0.76378">
        <ele>35</ele>
        <time>2017-07-30T09:31:04Z</time>
      </trkpt>
      <trkpt lat="44.88523" lon="-0.76373">
        <ele>36</ele>
        <time>2017-07-30T09:31:06Z</time>
      </trkpt>
      <trkpt lat="44.88518" lon="-0.76367">
        <ele>36</ele>
        <time>2017-07-30T09:31:08Z</time>
      </trkpt>
      <trkpt lat="44.88511" lon="-0.76363">
        <ele>36</ele>
        <time>2017-07-30T09:31:10Z</time>
      </trkpt>
      <trkpt lat="44.88504" lon="-0.76353">
        <ele>36</ele>
        <time>2017-07-30T09:31:12Z</time>
      </trkpt>
      <trkpt lat="44.88493" lon="-0.76354">
        <ele>36</ele>
        <time>2017-07-30T09:31:16Z</time>
      </trkpt>
      <trkpt lat="44.88488" lon="-0.76351">
        <ele>36</ele>
        <time>2017-07-30T09:31:20Z</time>
      </trkpt>
      <trkpt lat="44.88484" lon="-0.76346">
        <ele>36</ele>
        <time>2017-07-30T09:31:22Z</time>
      </trkpt>
      <trkpt lat="44.88478" lon="-0.76343">
        <ele>36</ele>
        <time>2017-07-30T09:31:24Z</time>
      </trkpt>
      <trkpt lat="44.88471" lon="-0.76342">
        <ele>36</ele>
        <time>2017-07-30T09:31:26Z</time>
      </trkpt>
      <trkpt lat="44.88466" lon="-0.76336">
        <ele>36</ele>
        <time>2017-07-30T09:31:28Z</time>
      </trkpt>
      <trkpt lat="44.88471" lon="-0.76326">
        <ele>36</ele>
        <time>2017-07-30T09:31:32Z</time>
      </trkpt>
      <trkpt lat="44.88471" lon="-0.76313">
        <ele>36</ele>
        <time>2017-07-30T09:31:34Z</time>
      </trkpt>
      <trkpt lat="44.88475" lon="-0.76304">
        <ele>36</ele>
        <time>2017-07-30T09:31:36Z</time>
      </trkpt>
      <trkpt lat="44.88481" lon="-0.76301">
        <ele>36</ele>
        <time>2017-07-30T09:31:40Z</time>
      </trkpt>
      <trkpt lat="44.88484" lon="-0.76314">
        <ele>36</ele>
        <time>2017-07-30T09:31:44Z</time>
      </trkpt>
      <trkpt lat="44.88488" lon="-0.76319">
        <ele>36</ele>
        <time>2017-07-30T09:31:46Z</time>
      </trkpt>
      <trkpt lat="44.88492" lon="-0.76315">
        <ele>36</ele>
        <time>2017-07-30T09:31:48Z</time>
      </trkpt>
      <trkpt lat="44.88491" lon="-0.76307">
        <ele>36</ele>
        <time>2017-07-30T09:31:50Z</time>
      </trkpt>
      <trkpt lat="44.8849" lon="-0.76298">
        <ele>36</ele>
        <time>2017-07-30T09:31:52Z</time>
      </trkpt>
      <trkpt lat="44.88485" lon="-0.76289">
        <ele>36</ele>
        <time>2017-07-30T09:31:54Z</time>
      </trkpt>
      <trkpt lat="44.88479" lon="-0.76287">
        <ele>36</ele>
        <time>2017-07-30T09:31:56Z</time>
      </trkpt>
      <trkpt lat="44.88472" lon="-0.76284">
        <ele>36</ele>
        <time>2017-07-30T09:31:58Z</time>
      </trkpt>
      <trkpt lat="44.88467" lon="-0.7628">
        <ele>36</ele>
        <time>2017-07-30T09:32:00Z</time>
      </trkpt>
      <trkpt lat="44.88465" lon="-0.76271">
        <ele>35</ele>
        <time>2017-07-30T09:32:02Z</time>
      </trkpt>
      <trkpt lat="44.88462" lon="-0.76264">
        <ele>35</ele>
        <time>2017-07-30T09:32:04Z</time>
      </trkpt>
      <trkpt lat="44.8846" lon="-0.76256">
        <ele>35</ele>
        <time>2017-07-30T09:32:06Z</time>
      </trkpt>
      <trkpt lat="44.88456" lon="-0.76245">
        <ele>35</ele>
        <time>2017-07-30T09:32:08Z</time>
      </trkpt>
      <trkpt lat="44.88453" lon="-0.76238">
        <ele>35</ele>
        <time>2017-07-30T09:32:10Z</time>
      </trkpt>
      <trkpt lat="44.88449" lon="-0.76233">
        <ele>34</ele>
        <time>2017-07-30T09:32:14Z</time>
      </trkpt>
      <trkpt lat="44.88444" lon="-0.76221">
        <ele>34</ele>
        <time>2017-07-30T09:32:18Z</time>
      </trkpt>
      <trkpt lat="44.88445" lon="-0.76215">
        <ele>34</ele>
        <time>2017-07-30T09:32:20Z</time>
      </trkpt>
      <trkpt lat="44.88451" lon="-0.76219">
        <ele>34</ele>
        <time>2017-07-30T09:32:24Z</time>
      </trkpt>
      <trkpt lat="44.88458" lon="-0.7622">
        <ele>35</ele>
        <time>2017-07-30T09:32:26Z</time>
      </trkpt>
      <trkpt lat="44.88464" lon="-0.76222">
        <ele>35</ele>
        <time>2017-07-30T09:32:28Z</time>
      </trkpt>
      <trkpt lat="44.88468" lon="-0.76224">
        <ele>35</ele>
        <time>2017-07-30T09:32:30Z</time>
      </trkpt>
      <trkpt lat="44.88472" lon="-0.7623">
        <ele>35</ele>
        <time>2017-07-30T09:32:32Z</time>
      </trkpt>
      <trkpt lat="44.88477" lon="-0.76238">
        <ele>35</ele>
        <time>2017-07-30T09:32:34Z</time>
      </trkpt>
      <trkpt lat="44.8848" lon="-0.76243">
        <ele>35</ele>
        <time>2017-07-30T09:32:36Z</time>
      </trkpt>
      <trkpt lat="44.88483" lon="-0.7625">
        <ele>35</ele>
        <time>2017-07-30T09:32:38Z</time>
      </trkpt>
      <trkpt lat="44.88487" lon="-0.76258">
        <ele>36</ele>
        <time>2017-07-30T09:32:40Z</time>
      </trkpt>
      <trkpt lat="44.88493" lon="-0.7626">
        <ele>36</ele>
        <time>2017-07-30T09:32:42Z</time>
      </trkpt>
      <trkpt lat="44.88497" lon="-0.76253">
        <ele>36</ele>
        <time>2017-07-30T09:32:44Z</time>
      </trkpt>
      <trkpt lat="44.88498" lon="-0.76245">
        <ele>36</ele>
        <time>2017-07-30T09:32:46Z</time>
      </trkpt>
      <trkpt lat="44.88501" lon="-0.76237">
        <ele>36</ele>
        <time>2017-07-30T09:32:48Z</time>
      </trkpt>
      <trkpt lat="44.88501" lon="-0.76225">
        <ele>35</ele>
        <time>2017-07-30T09:32:50Z</time>
      </trkpt>
      <trkpt lat="44.88495" lon="-0.76218">
        <ele>35</ele>
        <time>2017-07-30T09:32:52Z</time>
      </trkpt>
      <trkpt lat="44.88488" lon="-0.76211">
        <ele>35</ele>
        <time>2017-07-30T09:32:54Z</time>
      </trkpt>
      <trkpt lat="44.88484" lon="-0.76203">
        <ele>35</ele>
        <time>2017-07-30T09:32:56Z</time>
      </trkpt>
      <trkpt lat="44.88479" lon="-0.76195">
        <ele>35</ele>
        <time>2017-07-30T09:32:58Z</time>
      </trkpt>
      <trkpt lat="44.8847" lon="-0.7619">
        <ele>35</ele>
        <time>2017-07-30T09:33:00Z</time>
      </trkpt>
      <trkpt lat="44.88461" lon="-0.76184">
        <ele>34</ele>
        <time>2017-07-30T09:33:02Z</time>
      </trkpt>
      <trkpt lat="44.88451" lon="-0.76184">
        <ele>34</ele>
        <time>2017-07-30T09:33:04Z</time>
      </trkpt>
      <trkpt lat="44.88442" lon="-0.76186">
        <ele>34</ele>
        <time>2017-07-30T09:33:06Z</time>
      </trkpt>
      <trkpt lat="44.88433" lon="-0.76184">
        <ele>34</ele>
        <time>2017-07-30T09:33:08Z</time>
      </trkpt>
      <trkpt lat="44.88426" lon="-0.76177">
        <ele>34</ele>
        <time>2017-07-30T09:33:10Z</time>
      </trkpt>
      <trkpt lat="44.88419" lon="-0.76171">
        <ele>33</ele>
        <time>2017-07-30T09:33:12Z</time>
      </trkpt>
      <trkpt lat="44.88414" lon="-0.76165">
        <ele>33</ele>
        <time>2017-07-30T09:33:14Z</time>
      </trkpt>
      <trkpt lat="44.88412" lon="-0.76154">
        <ele>33</ele>
        <time>2017-07-30T09:33:18Z</time>
      </trkpt>
      <trkpt lat="44.88407" lon="-0.76151">
        <ele>33</ele>
        <time>2017-07-30T09:33:20Z</time>
      </trkpt>
      <trkpt lat="44.88403" lon="-0.76148">
        <ele>33</ele>
        <time>2017-07-30T09:33:22Z</time>
      </trkpt>
      <trkpt lat="44.88395" lon="-0.7614">
        <ele>33</ele>
        <time>2017-07-30T09:33:24Z</time>
      </trkpt>
      <trkpt lat="44.88392" lon="-0.76134">
        <ele>33</ele>
        <time>2017-07-30T09:33:26Z</time>
      </trkpt>
      <trkpt lat="44.8839" lon="-0.76128">
        <ele>33</ele>
        <time>2017-07-30T09:33:28Z</time>
      </trkpt>
      <trkpt lat="44.88391" lon="-0.7612">
        <ele>34</ele>
        <time>2017-07-30T09:33:30Z</time>
      </trkpt>
      <trkpt lat="44.88381" lon="-0.76113">
        <ele>34</ele>
        <time>2017-07-30T09:33:34Z</time>
      </trkpt>
      <trkpt lat="44.88377" lon="-0.76103">
        <ele>34</ele>
        <time>2017-07-30T09:33:36Z</time>
      </trkpt>
      <trkpt lat="44.88379" lon="-0.76089">
        <ele>34</ele>
        <time>2017-07-30T09:33:38Z</time>
      </trkpt>
      <trkpt lat="44.88382" lon="-0.7608">
        <ele>34</ele>
        <time>2017-07-30T09:33:40Z</time>
      </trkpt>
      <trkpt lat="44.88382" lon="-0.76066">
        <ele>34</ele>
        <time>2017-07-30T09:33:42Z</time>
      </trkpt>
      <trkpt lat="44.8838" lon="-0.76055">
        <ele>34</ele>
        <time>2017-07-30T09:33:44Z</time>
      </trkpt>
      <trkpt lat="44.88377" lon="-0.76043">
        <ele>34</ele>
        <time>2017-07-30T09:33:46Z</time>
      </trkpt>
      <trkpt lat="44.88378" lon="-0.7603">
        <ele>34</ele>
        <time>2017-07-30T09:33:48Z</time>
      </trkpt>
      <trkpt lat="44.88375" lon="-0.76017">
        <ele>33</ele>
        <time>2017-07-30T09:33:50Z</time>
      </trkpt>
      <trkpt lat="44.8837" lon="-0.76005">
        <ele>33</ele>
        <time>2017-07-30T09:33:52Z</time>
      </trkpt>
      <trkpt lat="44.88366" lon="-0.75993">
        <ele>33</ele>
        <time>2017-07-30T09:33:54Z</time>
      </trkpt>
      <trkpt lat="44.88362" lon="-0.75983">
        <ele>33</ele>
        <time>2017-07-30T09:33:56Z</time>
      </trkpt>
      <trkpt lat="44.88356" lon="-0.75972">
        <ele>33</ele>
        <time>2017-07-30T09:33:58Z</time>
      </trkpt>
      <trkpt lat="44.88353" lon="-0.7596">
        <ele>34</ele>
        <time>2017-07-30T09:34:00Z</time>
      </trkpt>
      <trkpt lat="44.88354" lon="-0.75949">
        <ele>34</ele>
        <time>2017-07-30T09:34:02Z</time>
      </trkpt>
      <trkpt lat="44.88352" lon="-0.75934">
        <ele>34</ele>
        <time>2017-07-30T09:34:04Z</time>
      </trkpt>
      <trkpt lat="44.88346" lon="-0.75924">
        <ele>34</ele>
        <time>2017-07-30T09:34:06Z</time>
      </trkpt>
      <trkpt lat="44.88339" lon="-0.75917">
        <ele>34</ele>
        <time>2017-07-30T09:34:08Z</time>
      </trkpt>
      <trkpt lat="44.88329" lon="-0.75914">
        <ele>34</ele>
        <time>2017-07-30T09:34:10Z</time>
      </trkpt>
      <trkpt lat="44.88321" lon="-0.75909">
        <ele>34</ele>
        <time>2017-07-30T09:34:12Z</time>
      </trkpt>
      <trkpt lat="44.88315" lon="-0.75902">
        <ele>34</ele>
        <time>2017-07-30T09:34:14Z</time>
      </trkpt>
      <trkpt lat="44.88305" lon="-0.75899">
        <ele>34</ele>
        <time>2017-07-30T09:34:16Z</time>
      </trkpt>
      <trkpt lat="44.88299" lon="-0.75895">
        <ele>34</ele>
        <time>2017-07-30T09:34:18Z</time>
      </trkpt>
      <trkpt lat="44.88293" lon="-0.7589">
        <ele>34</ele>
        <time>2017-07-30T09:34:20Z</time>
      </trkpt>
      <trkpt lat="44.88289" lon="-0.75884">
        <ele>34</ele>
        <time>2017-07-30T09:34:22Z</time>
      </trkpt>
      <trkpt lat="44.88283" lon="-0.75881">
        <ele>34</ele>
        <time>2017-07-30T09:34:24Z</time>
      </trkpt>
      <trkpt lat="44.8828" lon="-0.75876">
        <ele>34</ele>
        <time>2017-07-30T09:34:26Z</time>
      </trkpt>
      <trkpt lat="44.88278" lon="-0.75868">
        <ele>34</ele>
        <time>2017-07-30T09:34:28Z</time>
      </trkpt>
      <trkpt lat="44.88276" lon="-0.7586">
        <ele>34</ele>
        <time>2017-07-30T09:34:30Z</time>
      </trkpt>
      <trkpt lat="44.88272" lon="-0.75849">
        <ele>34</ele>
        <time>2017-07-30T09:34:32Z</time>
      </trkpt>
      <trkpt lat="44.88268" lon="-0.75839">
        <ele>34</ele>
        <time>2017-07-30T09:34:34Z</time>
      </trkpt>
      <trkpt lat="44.88265" lon="-0.75828">
        <ele>35</ele>
        <time>2017-07-30T09:34:36Z</time>
      </trkpt>
      <trkpt lat="44.88266" lon="-0.75818">
        <ele>35</ele>
        <time>2017-07-30T09:34:38Z</time>
      </trkpt>
      <trkpt lat="44.88259" lon="-0.75811">
        <ele>35</ele>
        <time>2017-07-30T09:34:40Z</time>
      </trkpt>
      <trkpt lat="44.88255" lon="-0.75801">
        <ele>35</ele>
        <time>2017-07-30T09:34:42Z</time>
      </trkpt>
      <trkpt lat="44.8825" lon="-0.7579">
        <ele>35</ele>
        <time>2017-07-30T09:34:44Z</time>
      </trkpt>
      <trkpt lat="44.88244" lon="-0.75781">
        <ele>33</ele>
        <time>2017-07-30T09:34:46Z</time>
      </trkpt>
      <trkpt lat="44.88237" lon="-0.75773">
        <ele>33</ele>
        <time>2017-07-30T09:34:48Z</time>
      </trkpt>
      <trkpt lat="44.88237" lon="-0.7576">
        <ele>33</ele>
        <time>2017-07-30T09:34:50Z</time>
      </trkpt>
      <trkpt lat="44.88235" lon="-0.75752">
        <ele>33</ele>
        <time>2017-07-30T09:34:52Z</time>
      </trkpt>
      <trkpt lat="44.88237" lon="-0.7574">
        <ele>33</ele>
        <time>2017-07-30T09:34:54Z</time>
      </trkpt>
      <trkpt lat="44.88237" lon="-0.75728">
        <ele>33</ele>
        <time>2017-07-30T09:34:56Z</time>
      </trkpt>
      <trkpt lat="44.88238" lon="-0.75713">
        <ele>32</ele>
        <time>2017-07-30T09:34:58Z</time>
      </trkpt>
      <trkpt lat="44.88238" lon="-0.75704">
        <ele>32</ele>
        <time>2017-07-30T09:35:00Z</time>
      </trkpt>
      <trkpt lat="44.88235" lon="-0.75697">
        <ele>32</ele>
        <time>2017-07-30T09:35:02Z</time>
      </trkpt>
      <trkpt lat="44.88232" lon="-0.75691">
        <ele>32</ele>
        <time>2017-07-30T09:35:04Z</time>
      </trkpt>
      <trkpt lat="44.88233" lon="-0.75683">
        <ele>32</ele>
        <time>2017-07-30T09:35:06Z</time>
      </trkpt>
      <trkpt lat="44.88231" lon="-0.75673">
        <ele>32</ele>
        <time>2017-07-30T09:35:08Z</time>
      </trkpt>
      <trkpt lat="44.8823" lon="-0.75664">
        <ele>31</ele>
        <time>2017-07-30T09:35:10Z</time>
      </trkpt>
      <trkpt lat="44.88227" lon="-0.75656">
        <ele>31</ele>
        <time>2017-07-30T09:35:12Z</time>
      </trkpt>
      <trkpt lat="44.88223" lon="-0.75643">
        <ele>31</ele>
        <time>2017-07-30T09:35:14Z</time>
      </trkpt>
      <trkpt lat="44.88219" lon="-0.75633">
        <ele>31</ele>
        <time>2017-07-30T09:35:16Z</time>
      </trkpt>
      <trkpt lat="44.88216" lon="-0.75621">
        <ele>31</ele>
        <time>2017-07-30T09:35:18Z</time>
      </trkpt>
      <trkpt lat="44.88214" lon="-0.7561">
        <ele>31</ele>
        <time>2017-07-30T09:35:20Z</time>
      </trkpt>
      <trkpt lat="44.88214" lon="-0.75599">
        <ele>31</ele>
        <time>2017-07-30T09:35:22Z</time>
      </trkpt>
      <trkpt lat="44.88212" lon="-0.75591">
        <ele>31</ele>
        <time>2017-07-30T09:35:24Z</time>
      </trkpt>
      <trkpt lat="44.88207" lon="-0.75588">
        <ele>30</ele>
        <time>2017-07-30T09:35:26Z</time>
      </trkpt>
      <trkpt lat="44.88204" lon="-0.75581">
        <ele>29</ele>
        <time>2017-07-30T09:35:28Z</time>
      </trkpt>
      <trkpt lat="44.88205" lon="-0.75573">
        <ele>29</ele>
        <time>2017-07-30T09:35:30Z</time>
      </trkpt>
      <trkpt lat="44.88203" lon="-0.75564">
        <ele>29</ele>
        <time>2017-07-30T09:35:32Z</time>
      </trkpt>
      <trkpt lat="44.88202" lon="-0.75553">
        <ele>29</ele>
        <time>2017-07-30T09:35:34Z</time>
      </trkpt>
      <trkpt lat="44.88196" lon="-0.75542">
        <ele>29</ele>
        <time>2017-07-30T09:35:36Z</time>
      </trkpt>
      <trkpt lat="44.8819" lon="-0.75533">
        <ele>29</ele>
        <time>2017-07-30T09:35:38Z</time>
      </trkpt>
      <trkpt lat="44.88188" lon="-0.75521">
        <ele>29</ele>
        <time>2017-07-30T09:35:40Z</time>
      </trkpt>
      <trkpt lat="44.88185" lon="-0.75512">
        <ele>28</ele>
        <time>2017-07-30T09:35:42Z</time>
      </trkpt>
      <trkpt lat="44.88182" lon="-0.755">
        <ele>28</ele>
        <time>2017-07-30T09:35:50Z</time>
      </trkpt>
      <trkpt lat="44.8818" lon="-0.75493">
        <ele>28</ele>
        <time>2017-07-30T09:35:52Z</time>
      </trkpt>
      <trkpt lat="44.88181" lon="-0.75485">
        <ele>28</ele>
        <time>2017-07-30T09:35:54Z</time>
      </trkpt>
      <trkpt lat="44.88182" lon="-0.75478">
        <ele>28</ele>
        <time>2017-07-30T09:35:56Z</time>
      </trkpt>
      <trkpt lat="44.88184" lon="-0.75468">
        <ele>28</ele>
        <time>2017-07-30T09:35:58Z</time>
      </trkpt>
      <trkpt lat="44.88186" lon="-0.7546">
        <ele>29</ele>
        <time>2017-07-30T09:36:00Z</time>
      </trkpt>
      <trkpt lat="44.88189" lon="-0.75453">
        <ele>29</ele>
        <time>2017-07-30T09:36:02Z</time>
      </trkpt>
      <trkpt lat="44.8819" lon="-0.75446">
        <ele>29</ele>
        <time>2017-07-30T09:36:04Z</time>
      </trkpt>
      <trkpt lat="44.88191" lon="-0.75439">
        <ele>29</ele>
        <time>2017-07-30T09:36:06Z</time>
      </trkpt>
      <trkpt lat="44.88188" lon="-0.7543">
        <ele>29</ele>
        <time>2017-07-30T09:36:10Z</time>
      </trkpt>
      <trkpt lat="44.88189" lon="-0.75421">
        <ele>29</ele>
        <time>2017-07-30T09:36:12Z</time>
      </trkpt>
      <trkpt lat="44.88189" lon="-0.75413">
        <ele>29</ele>
        <time>2017-07-30T09:36:14Z</time>
      </trkpt>
      <trkpt lat="44.88192" lon="-0.75407">
        <ele>29</ele>
        <time>2017-07-30T09:36:16Z</time>
      </trkpt>
      <trkpt lat="44.88198" lon="-0.75393">
        <ele>30</ele>
        <time>2017-07-30T09:36:20Z</time>
      </trkpt>
      <trkpt lat="44.88197" lon="-0.75383">
        <ele>30</ele>
        <time>2017-07-30T09:36:22Z</time>
      </trkpt>
      <trkpt lat="44.88196" lon="-0.7537">
        <ele>30</ele>
        <time>2017-07-30T09:36:24Z</time>
      </trkpt>
      <trkpt lat="44.88196" lon="-0.7536">
        <ele>30</ele>
        <time>2017-07-30T09:36:26Z</time>
      </trkpt>
      <trkpt lat="44.88195" lon="-0.75351">
        <ele>30</ele>
        <time>2017-07-30T09:36:28Z</time>
      </trkpt>
      <trkpt lat="44.882" lon="-0.75344">
        <ele>30</ele>
        <time>2017-07-30T09:36:30Z</time>
      </trkpt>
      <trkpt lat="44.88204" lon="-0.75339">
        <ele>30</ele>
        <time>2017-07-30T09:36:32Z</time>
      </trkpt>
      <trkpt lat="44.88208" lon="-0.75333">
        <ele>31</ele>
        <time>2017-07-30T09:36:34Z</time>
      </trkpt>
      <trkpt lat="44.8821" lon="-0.75323">
        <ele>31</ele>
        <time>2017-07-30T09:36:36Z</time>
      </trkpt>
      <trkpt lat="44.88212" lon="-0.75312">
        <ele>31</ele>
        <time>2017-07-30T09:36:38Z</time>
      </trkpt>
      <trkpt lat="44.8821" lon="-0.75296">
        <ele>31</ele>
        <time>2017-07-30T09:36:40Z</time>
      </trkpt>
      <trkpt lat="44.88204" lon="-0.75285">
        <ele>31</ele>
        <time>2017-07-30T09:36:42Z</time>
      </trkpt>
      <trkpt lat="44.88202" lon="-0.75273">
        <ele>31</ele>
        <time>2017-07-30T09:36:44Z</time>
      </trkpt>
      <trkpt lat="44.88197" lon="-0.75265">
        <ele>30</ele>
        <time>2017-07-30T09:36:46Z</time>
      </trkpt>
      <trkpt lat="44.8819" lon="-0.75261">
        <ele>30</ele>
        <time>2017-07-30T09:36:48Z</time>
      </trkpt>
      <trkpt lat="44.88183" lon="-0.7525">
        <ele>30</ele>
        <time>2017-07-30T09:36:50Z</time>
      </trkpt>
      <trkpt lat="44.88177" lon="-0.7524">
        <ele>30</ele>
        <time>2017-07-30T09:36:52Z</time>
      </trkpt>
      <trkpt lat="44.8817" lon="-0.75234">
        <ele>30</ele>
        <time>2017-07-30T09:36:56Z</time>
      </trkpt>
      <trkpt lat="44.88167" lon="-0.75225">
        <ele>30</ele>
        <time>2017-07-30T09:36:58Z</time>
      </trkpt>
      <trkpt lat="44.88165" lon="-0.75215">
        <ele>29</ele>
        <time>2017-07-30T09:37:00Z</time>
      </trkpt>
      <trkpt lat="44.88159" lon="-0.75206">
        <ele>29</ele>
        <time>2017-07-30T09:37:02Z</time>
      </trkpt>
      <trkpt lat="44.88154" lon="-0.75199">
        <ele>29</ele>
        <time>2017-07-30T09:37:04Z</time>
      </trkpt>
      <trkpt lat="44.88152" lon="-0.7519">
        <ele>29</ele>
        <time>2017-07-30T09:37:06Z</time>
      </trkpt>
      <trkpt lat="44.8815" lon="-0.75183">
        <ele>29</ele>
        <time>2017-07-30T09:37:08Z</time>
      </trkpt>
      <trkpt lat="44.88151" lon="-0.75174">
        <ele>30</ele>
        <time>2017-07-30T09:37:10Z</time>
      </trkpt>
      <trkpt lat="44.88152" lon="-0.75168">
        <ele>30</ele>
        <time>2017-07-30T09:37:12Z</time>
      </trkpt>
      <trkpt lat="44.88146" lon="-0.75161">
        <ele>30</ele>
        <time>2017-07-30T09:37:16Z</time>
      </trkpt>
      <trkpt lat="44.88143" lon="-0.75154">
        <ele>30</ele>
        <time>2017-07-30T09:37:18Z</time>
      </trkpt>
      <trkpt lat="44.88141" lon="-0.75147">
        <ele>30</ele>
        <time>2017-07-30T09:37:20Z</time>
      </trkpt>
      <trkpt lat="44.88134" lon="-0.75139">
        <ele>30</ele>
        <time>2017-07-30T09:37:22Z</time>
      </trkpt>
      <trkpt lat="44.88127" lon="-0.75135">
        <ele>29</ele>
        <time>2017-07-30T09:37:24Z</time>
      </trkpt>
      <trkpt lat="44.88123" lon="-0.75142">
        <ele>29</ele>
        <time>2017-07-30T09:37:28Z</time>
      </trkpt>
      <trkpt lat="44.88114" lon="-0.75145">
        <ele>29</ele>
        <time>2017-07-30T09:37:34Z</time>
      </trkpt>
      <trkpt lat="44.88109" lon="-0.75139">
        <ele>29</ele>
        <time>2017-07-30T09:37:36Z</time>
      </trkpt>
      <trkpt lat="44.88105" lon="-0.75129">
        <ele>29</ele>
        <time>2017-07-30T09:37:38Z</time>
      </trkpt>
      <trkpt lat="44.88098" lon="-0.7512">
        <ele>29</ele>
        <time>2017-07-30T09:37:40Z</time>
      </trkpt>
      <trkpt lat="44.88092" lon="-0.75113">
        <ele>29</ele>
        <time>2017-07-30T09:37:42Z</time>
      </trkpt>
      <trkpt lat="44.8809" lon="-0.75105">
        <ele>29</ele>
        <time>2017-07-30T09:37:44Z</time>
      </trkpt>
      <trkpt lat="44.88086" lon="-0.75095">
        <ele>29</ele>
        <time>2017-07-30T09:37:48Z</time>
      </trkpt>
      <trkpt lat="44.88087" lon="-0.75083">
        <ele>29</ele>
        <time>2017-07-30T09:37:52Z</time>
      </trkpt>
      <trkpt lat="44.88088" lon="-0.75076">
        <ele>29</ele>
        <time>2017-07-30T09:37:54Z</time>
      </trkpt>
      <trkpt lat="44.88089" lon="-0.7507">
        <ele>30</ele>
        <time>2017-07-30T09:37:56Z</time>
      </trkpt>
      <trkpt lat="44.88091" lon="-0.75063">
        <ele>30</ele>
        <time>2017-07-30T09:37:58Z</time>
      </trkpt>
      <trkpt lat="44.8809" lon="-0.75055">
        <ele>31</ele>
        <time>2017-07-30T09:38:02Z</time>
      </trkpt>
      <trkpt lat="44.88087" lon="-0.75047">
        <ele>31</ele>
        <time>2017-07-30T09:38:04Z</time>
      </trkpt>
      <trkpt lat="44.88093" lon="-0.75041">
        <ele>31</ele>
        <time>2017-07-30T09:38:12Z</time>
      </trkpt>
      <trkpt lat="44.88097" lon="-0.75037">
        <ele>32</ele>
        <time>2017-07-30T09:38:14Z</time>
      </trkpt>
      <trkpt lat="44.88103" lon="-0.75037">
        <ele>32</ele>
        <time>2017-07-30T09:38:18Z</time>
      </trkpt>
      <trkpt lat="44.88107" lon="-0.75029">
        <ele>32</ele>
        <time>2017-07-30T09:38:20Z</time>
      </trkpt>
      <trkpt lat="44.88111" lon="-0.75023">
        <ele>32</ele>
        <time>2017-07-30T09:38:22Z</time>
      </trkpt>
      <trkpt lat="44.88115" lon="-0.75015">
        <ele>32</ele>
        <time>2017-07-30T09:38:24Z</time>
      </trkpt>
      <trkpt lat="44.88121" lon="-0.75007">
        <ele>32</ele>
        <time>2017-07-30T09:38:26Z</time>
      </trkpt>
      <trkpt lat="44.88125" lon="-0.74999">
        <ele>33</ele>
        <time>2017-07-30T09:38:28Z</time>
      </trkpt>
      <trkpt lat="44.88122" lon="-0.74992">
        <ele>33</ele>
        <time>2017-07-30T09:38:30Z</time>
      </trkpt>
      <trkpt lat="44.88118" lon="-0.74985">
        <ele>33</ele>
        <time>2017-07-30T09:38:32Z</time>
      </trkpt>
      <trkpt lat="44.88118" lon="-0.7497">
        <ele>33</ele>
        <time>2017-07-30T09:38:34Z</time>
      </trkpt>
      <trkpt lat="44.88125" lon="-0.74967">
        <ele>33</ele>
        <time>2017-07-30T09:38:36Z</time>
      </trkpt>
      <trkpt lat="44.88132" lon="-0.74958">
        <ele>33</ele>
        <time>2017-07-30T09:38:38Z</time>
      </trkpt>
      <trkpt lat="44.88141" lon="-0.74956">
        <ele>34</ele>
        <time>2017-07-30T09:38:44Z</time>
      </trkpt>
      <trkpt lat="44.88147" lon="-0.7496">
        <ele>34</ele>
        <time>2017-07-30T09:38:46Z</time>
      </trkpt>
      <trkpt lat="44.88155" lon="-0.74961">
        <ele>34</ele>
        <time>2017-07-30T09:38:48Z</time>
      </trkpt>
      <trkpt lat="44.88164" lon="-0.74963">
        <ele>34</ele>
        <time>2017-07-30T09:38:50Z</time>
      </trkpt>
      <trkpt lat="44.88173" lon="-0.74965">
        <ele>35</ele>
        <time>2017-07-30T09:38:52Z</time>
      </trkpt>
      <trkpt lat="44.88181" lon="-0.74968">
        <ele>34</ele>
        <time>2017-07-30T09:38:54Z</time>
      </trkpt>
      <trkpt lat="44.8819" lon="-0.74971">
        <ele>34</ele>
        <time>2017-07-30T09:38:56Z</time>
      </trkpt>
      <trkpt lat="44.882" lon="-0.74971">
        <ele>34</ele>
        <time>2017-07-30T09:38:58Z</time>
      </trkpt>
      <trkpt lat="44.88207" lon="-0.74964">
        <ele>34</ele>
        <time>2017-07-30T09:39:00Z</time>
      </trkpt>
      <trkpt lat="44.88215" lon="-0.74961">
        <ele>34</ele>
        <time>2017-07-30T09:39:02Z</time>
      </trkpt>
      <trkpt lat="44.88219" lon="-0.74951">
        <ele>34</ele>
        <time>2017-07-30T09:39:04Z</time>
      </trkpt>
      <trkpt lat="44.88226" lon="-0.74945">
        <ele>34</ele>
        <time>2017-07-30T09:39:06Z</time>
      </trkpt>
      <trkpt lat="44.88235" lon="-0.74944">
        <ele>34</ele>
        <time>2017-07-30T09:39:08Z</time>
      </trkpt>
      <trkpt lat="44.88243" lon="-0.74944">
        <ele>34</ele>
        <time>2017-07-30T09:39:10Z</time>
      </trkpt>
      <trkpt lat="44.88249" lon="-0.74938">
        <ele>34</ele>
        <time>2017-07-30T09:39:12Z</time>
      </trkpt>
      <trkpt lat="44.88253" lon="-0.74933">
        <ele>33</ele>
        <time>2017-07-30T09:39:14Z</time>
      </trkpt>
      <trkpt lat="44.88258" lon="-0.74927">
        <ele>33</ele>
        <time>2017-07-30T09:39:16Z</time>
      </trkpt>
      <trkpt lat="44.88253" lon="-0.74917">
        <ele>34</ele>
        <time>2017-07-30T09:39:20Z</time>
      </trkpt>
      <trkpt lat="44.88258" lon="-0.74906">
        <ele>34</ele>
        <time>2017-07-30T09:39:22Z</time>
      </trkpt>
      <trkpt lat="44.88261" lon="-0.749">
        <ele>33</ele>
        <time>2017-07-30T09:39:24Z</time>
      </trkpt>
      <trkpt lat="44.88265" lon="-0.74893">
        <ele>33</ele>
        <time>2017-07-30T09:39:26Z</time>
      </trkpt>
      <trkpt lat="44.88267" lon="-0.74887">
        <ele>33</ele>
        <time>2017-07-30T09:39:28Z</time>
      </trkpt>
      <trkpt lat="44.8827" lon="-0.74881">
        <ele>33</ele>
        <time>2017-07-30T09:39:30Z</time>
      </trkpt>
      <trkpt lat="44.88272" lon="-0.74873">
        <ele>33</ele>
        <time>2017-07-30T09:39:32Z</time>
      </trkpt>
      <trkpt lat="44.88274" lon="-0.74867">
        <ele>33</ele>
        <time>2017-07-30T09:39:34Z</time>
      </trkpt>
      <trkpt lat="44.88277" lon="-0.74859">
        <ele>33</ele>
        <time>2017-07-30T09:39:36Z</time>
      </trkpt>
      <trkpt lat="44.88283" lon="-0.74858">
        <ele>33</ele>
        <time>2017-07-30T09:39:40Z</time>
      </trkpt>
      <trkpt lat="44.88289" lon="-0.74854">
        <ele>33</ele>
        <time>2017-07-30T09:39:42Z</time>
      </trkpt>
      <trkpt lat="44.88294" lon="-0.74856">
        <ele>33</ele>
        <time>2017-07-30T09:39:44Z</time>
      </trkpt>
      <trkpt lat="44.88303" lon="-0.74858">
        <ele>33</ele>
        <time>2017-07-30T09:39:46Z</time>
      </trkpt>
      <trkpt lat="44.88311" lon="-0.74864">
        <ele>33</ele>
        <time>2017-07-30T09:39:48Z</time>
      </trkpt>
      <trkpt lat="44.88319" lon="-0.74868">
        <ele>33</ele>
        <time>2017-07-30T09:39:50Z</time>
      </trkpt>
      <trkpt lat="44.88327" lon="-0.74865">
        <ele>33</ele>
        <time>2017-07-30T09:39:52Z</time>
      </trkpt>
      <trkpt lat="44.88332" lon="-0.74856">
        <ele>33</ele>
        <time>2017-07-30T09:39:54Z</time>
      </trkpt>
      <trkpt lat="44.88336" lon="-0.74847">
        <ele>34</ele>
        <time>2017-07-30T09:39:56Z</time>
      </trkpt>
      <trkpt lat="44.88336" lon="-0.74836">
        <ele>34</ele>
        <time>2017-07-30T09:39:58Z</time>
      </trkpt>
      <trkpt lat="44.8833" lon="-0.74828">
        <ele>34</ele>
        <time>2017-07-30T09:40:00Z</time>
      </trkpt>
      <trkpt lat="44.88327" lon="-0.74818">
        <ele>34</ele>
        <time>2017-07-30T09:40:02Z</time>
      </trkpt>
      <trkpt lat="44.88328" lon="-0.74808">
        <ele>33</ele>
        <time>2017-07-30T09:40:04Z</time>
      </trkpt>
      <trkpt lat="44.88334" lon="-0.748">
        <ele>34</ele>
        <time>2017-07-30T09:40:06Z</time>
      </trkpt>
      <trkpt lat="44.8834" lon="-0.74793">
        <ele>34</ele>
        <time>2017-07-30T09:40:08Z</time>
      </trkpt>
      <trkpt lat="44.88347" lon="-0.74786">
        <ele>34</ele>
        <time>2017-07-30T09:40:10Z</time>
      </trkpt>
      <trkpt lat="44.88353" lon="-0.74779">
        <ele>34</ele>
        <time>2017-07-30T09:40:12Z</time>
      </trkpt>
      <trkpt lat="44.8836" lon="-0.74769">
        <ele>34</ele>
        <time>2017-07-30T09:40:14Z</time>
      </trkpt>
      <trkpt lat="44.88368" lon="-0.74759">
        <ele>34</ele>
        <time>2017-07-30T09:40:16Z</time>
      </trkpt>
      <trkpt lat="44.88375" lon="-0.74749">
        <ele>34</ele>
        <time>2017-07-30T09:40:18Z</time>
      </trkpt>
      <trkpt lat="44.88382" lon="-0.74741">
        <ele>34</ele>
        <time>2017-07-30T09:40:20Z</time>
      </trkpt>
      <trkpt lat="44.8839" lon="-0.74731">
        <ele>34</ele>
        <time>2017-07-30T09:40:22Z</time>
      </trkpt>
      <trkpt lat="44.88397" lon="-0.74721">
        <ele>34</ele>
        <time>2017-07-30T09:40:24Z</time>
      </trkpt>
      <trkpt lat="44.88404" lon="-0.74712">
        <ele>34</ele>
        <time>2017-07-30T09:40:26Z</time>
      </trkpt>
      <trkpt lat="44.88413" lon="-0.74702">
        <ele>34</ele>
        <time>2017-07-30T09:40:28Z</time>
      </trkpt>
      <trkpt lat="44.88421" lon="-0.74692">
        <ele>33</ele>
        <time>2017-07-30T09:40:30Z</time>
      </trkpt>
      <trkpt lat="44.88429" lon="-0.74682">
        <ele>33</ele>
        <time>2017-07-30T09:40:32Z</time>
      </trkpt>
      <trkpt lat="44.88436" lon="-0.74671">
        <ele>33</ele>
        <time>2017-07-30T09:40:34Z</time>
      </trkpt>
      <trkpt lat="44.88442" lon="-0.74661">
        <ele>32</ele>
        <time>2017-07-30T09:40:36Z</time>
      </trkpt>
      <trkpt lat="44.8845" lon="-0.74651">
        <ele>32</ele>
        <time>2017-07-30T09:40:38Z</time>
      </trkpt>
      <trkpt lat="44.88456" lon="-0.74643">
        <ele>32</ele>
        <time>2017-07-30T09:40:40Z</time>
      </trkpt>
      <trkpt lat="44.88463" lon="-0.74634">
        <ele>31</ele>
        <time>2017-07-30T09:40:42Z</time>
      </trkpt>
      <trkpt lat="44.88469" lon="-0.74624">
        <ele>31</ele>
        <time>2017-07-30T09:40:44Z</time>
      </trkpt>
      <trkpt lat="44.88476" lon="-0.74615">
        <ele>31</ele>
        <time>2017-07-30T09:40:46Z</time>
      </trkpt>
      <trkpt lat="44.88484" lon="-0.7461">
        <ele>31</ele>
        <time>2017-07-30T09:40:48Z</time>
      </trkpt>
      <trkpt lat="44.88492" lon="-0.74606">
        <ele>30</ele>
        <time>2017-07-30T09:40:50Z</time>
      </trkpt>
      <trkpt lat="44.88497" lon="-0.74605">
        <ele>30</ele>
        <time>2017-07-30T09:40:52Z</time>
      </trkpt>
      <trkpt lat="44.88504" lon="-0.74605">
        <ele>29</ele>
        <time>2017-07-30T09:40:54Z</time>
      </trkpt>
      <trkpt lat="44.88516" lon="-0.74603">
        <ele>29</ele>
        <time>2017-07-30T09:40:56Z</time>
      </trkpt>
      <trkpt lat="44.88524" lon="-0.746">
        <ele>29</ele>
        <time>2017-07-30T09:40:58Z</time>
      </trkpt>
      <trkpt lat="44.88534" lon="-0.74598">
        <ele>29</ele>
        <time>2017-07-30T09:41:00Z</time>
      </trkpt>
      <trkpt lat="44.88545" lon="-0.74597">
        <ele>29</ele>
        <time>2017-07-30T09:41:02Z</time>
      </trkpt>
      <trkpt lat="44.88555" lon="-0.74596">
        <ele>29</ele>
        <time>2017-07-30T09:41:04Z</time>
      </trkpt>
      <trkpt lat="44.88567" lon="-0.74594">
        <ele>29</ele>
        <time>2017-07-30T09:41:06Z</time>
      </trkpt>
      <trkpt lat="44.88575" lon="-0.74591">
        <ele>28</ele>
        <time>2017-07-30T09:41:08Z</time>
      </trkpt>
      <trkpt lat="44.88587" lon="-0.74589">
        <ele>28</ele>
        <time>2017-07-30T09:41:10Z</time>
      </trkpt>
      <trkpt lat="44.88597" lon="-0.74588">
        <ele>28</ele>
        <time>2017-07-30T09:41:12Z</time>
      </trkpt>
      <trkpt lat="44.88607" lon="-0.74586">
        <ele>29</ele>
        <time>2017-07-30T09:41:14Z</time>
      </trkpt>
      <trkpt lat="44.88615" lon="-0.74585">
        <ele>29</ele>
        <time>2017-07-30T09:41:16Z</time>
      </trkpt>
      <trkpt lat="44.88625" lon="-0.74584">
        <ele>29</ele>
        <time>2017-07-30T09:41:18Z</time>
      </trkpt>
      <trkpt lat="44.88634" lon="-0.74583">
        <ele>30</ele>
        <time>2017-07-30T09:41:20Z</time>
      </trkpt>
      <trkpt lat="44.88645" lon="-0.74584">
        <ele>29</ele>
        <time>2017-07-30T09:41:22Z</time>
      </trkpt>
      <trkpt lat="44.88653" lon="-0.74583">
        <ele>30</ele>
        <time>2017-07-30T09:41:24Z</time>
      </trkpt>
      <trkpt lat="44.88659" lon="-0.74578">
        <ele>30</ele>
        <time>2017-07-30T09:41:26Z</time>
      </trkpt>
      <trkpt lat="44.88662" lon="-0.7457">
        <ele>30</ele>
        <time>2017-07-30T09:41:28Z</time>
      </trkpt>
      <trkpt lat="44.88663" lon="-0.74556">
        <ele>30</ele>
        <time>2017-07-30T09:41:30Z</time>
      </trkpt>
      <trkpt lat="44.88663" lon="-0.74543">
        <ele>30</ele>
        <time>2017-07-30T09:41:32Z</time>
      </trkpt>
      <trkpt lat="44.88662" lon="-0.74532">
        <ele>30</ele>
        <time>2017-07-30T09:41:34Z</time>
      </trkpt>
      <trkpt lat="44.88662" lon="-0.7452">
        <ele>30</ele>
        <time>2017-07-30T09:41:37Z</time>
      </trkpt>
      <trkpt lat="44.88662" lon="-0.74508">
        <ele>31</ele>
        <time>2017-07-30T09:41:39Z</time>
      </trkpt>
      <trkpt lat="44.8866" lon="-0.74497">
        <ele>31</ele>
        <time>2017-07-30T09:41:41Z</time>
      </trkpt>
      <trkpt lat="44.88659" lon="-0.74485">
        <ele>31</ele>
        <time>2017-07-30T09:41:43Z</time>
      </trkpt>
      <trkpt lat="44.88659" lon="-0.74471">
        <ele>31</ele>
        <time>2017-07-30T09:41:45Z</time>
      </trkpt>
      <trkpt lat="44.88659" lon="-0.74459">
        <ele>31</ele>
        <time>2017-07-30T09:41:47Z</time>
      </trkpt>
      <trkpt lat="44.8866" lon="-0.74446">
        <ele>31</ele>
        <time>2017-07-30T09:41:49Z</time>
      </trkpt>
      <trkpt lat="44.88659" lon="-0.74434">
        <ele>31</ele>
        <time>2017-07-30T09:41:51Z</time>
      </trkpt>
      <trkpt lat="44.88658" lon="-0.74422">
        <ele>32</ele>
        <time>2017-07-30T09:41:53Z</time>
      </trkpt>
      <trkpt lat="44.88658" lon="-0.74409">
        <ele>31</ele>
        <time>2017-07-30T09:41:55Z</time>
      </trkpt>
      <trkpt lat="44.88657" lon="-0.74398">
        <ele>31</ele>
        <time>2017-07-30T09:41:57Z</time>
      </trkpt>
      <trkpt lat="44.88655" lon="-0.74384">
        <ele>31</ele>
        <time>2017-07-30T09:41:59Z</time>
      </trkpt>
      <trkpt lat="44.88654" lon="-0.7437">
        <ele>31</ele>
        <time>2017-07-30T09:42:01Z</time>
      </trkpt>
      <trkpt lat="44.88654" lon="-0.74357">
        <ele>31</ele>
        <time>2017-07-30T09:42:03Z</time>
      </trkpt>
      <trkpt lat="44.88652" lon="-0.74347">
        <ele>31</ele>
        <time>2017-07-30T09:42:05Z</time>
      </trkpt>
      <trkpt lat="44.88651" lon="-0.74336">
        <ele>31</ele>
        <time>2017-07-30T09:42:07Z</time>
      </trkpt>
      <trkpt lat="44.8865" lon="-0.74325">
        <ele>30</ele>
        <time>2017-07-30T09:42:09Z</time>
      </trkpt>
      <trkpt lat="44.88649" lon="-0.74315">
        <ele>29</ele>
        <time>2017-07-30T09:42:11Z</time>
      </trkpt>
      <trkpt lat="44.88648" lon="-0.74302">
        <ele>29</ele>
        <time>2017-07-30T09:42:13Z</time>
      </trkpt>
      <trkpt lat="44.88646" lon="-0.74291">
        <ele>29</ele>
        <time>2017-07-30T09:42:15Z</time>
      </trkpt>
      <trkpt lat="44.88645" lon="-0.74279">
        <ele>29</ele>
        <time>2017-07-30T09:42:17Z</time>
      </trkpt>
      <trkpt lat="44.88644" lon="-0.74267">
        <ele>29</ele>
        <time>2017-07-30T09:42:19Z</time>
      </trkpt>
      <trkpt lat="44.88643" lon="-0.74255">
        <ele>29</ele>
        <time>2017-07-30T09:42:21Z</time>
      </trkpt>
      <trkpt lat="44.88643" lon="-0.74242">
        <ele>28</ele>
        <time>2017-07-30T09:42:23Z</time>
      </trkpt>
      <trkpt lat="44.88642" lon="-0.74228">
        <ele>28</ele>
        <time>2017-07-30T09:42:25Z</time>
      </trkpt>
      <trkpt lat="44.8864" lon="-0.74216">
        <ele>28</ele>
        <time>2017-07-30T09:42:27Z</time>
      </trkpt>
      <trkpt lat="44.88639" lon="-0.74203">
        <ele>28</ele>
        <time>2017-07-30T09:42:29Z</time>
      </trkpt>
      <trkpt lat="44.88636" lon="-0.74192">
        <ele>28</ele>
        <time>2017-07-30T09:42:31Z</time>
      </trkpt>
      <trkpt lat="44.88632" lon="-0.74182">
        <ele>28</ele>
        <time>2017-07-30T09:42:33Z</time>
      </trkpt>
      <trkpt lat="44.88633" lon="-0.74169">
        <ele>28</ele>
        <time>2017-07-30T09:42:35Z</time>
      </trkpt>
      <trkpt lat="44.8864" lon="-0.74159">
        <ele>27</ele>
        <time>2017-07-30T09:42:37Z</time>
      </trkpt>
      <trkpt lat="44.88648" lon="-0.74157">
        <ele>27</ele>
        <time>2017-07-30T09:42:39Z</time>
      </trkpt>
      <trkpt lat="44.88653" lon="-0.74153">
        <ele>27</ele>
        <time>2017-07-30T09:42:41Z</time>
      </trkpt>
      <trkpt lat="44.88661" lon="-0.7415">
        <ele>27</ele>
        <time>2017-07-30T09:42:43Z</time>
      </trkpt>
      <trkpt lat="44.88665" lon="-0.74144">
        <ele>27</ele>
        <time>2017-07-30T09:42:53Z</time>
      </trkpt>
      <trkpt lat="44.88671" lon="-0.74132">
        <ele>27</ele>
        <time>2017-07-30T09:42:55Z</time>
      </trkpt>
      <trkpt lat="44.88681" lon="-0.74132">
        <ele>27</ele>
        <time>2017-07-30T09:42:57Z</time>
      </trkpt>
      <trkpt lat="44.8869" lon="-0.74137">
        <ele>27</ele>
        <time>2017-07-30T09:42:59Z</time>
      </trkpt>
      <trkpt lat="44.88699" lon="-0.74141">
        <ele>28</ele>
        <time>2017-07-30T09:43:01Z</time>
      </trkpt>
      <trkpt lat="44.88707" lon="-0.74138">
        <ele>28</ele>
        <time>2017-07-30T09:43:03Z</time>
      </trkpt>
      <trkpt lat="44.88706" lon="-0.7413">
        <ele>28</ele>
        <time>2017-07-30T09:43:05Z</time>
      </trkpt>
      <trkpt lat="44.88708" lon="-0.74118">
        <ele>27</ele>
        <time>2017-07-30T09:43:07Z</time>
      </trkpt>
      <trkpt lat="44.88708" lon="-0.74106">
        <ele>27</ele>
        <time>2017-07-30T09:43:09Z</time>
      </trkpt>
      <trkpt lat="44.88711" lon="-0.74095">
        <ele>27</ele>
        <time>2017-07-30T09:43:11Z</time>
      </trkpt>
      <trkpt lat="44.88713" lon="-0.74087">
        <ele>27</ele>
        <time>2017-07-30T09:43:13Z</time>
      </trkpt>
      <trkpt lat="44.88716" lon="-0.74079">
        <ele>27</ele>
        <time>2017-07-30T09:43:15Z</time>
      </trkpt>
      <trkpt lat="44.88715" lon="-0.74068">
        <ele>27</ele>
        <time>2017-07-30T09:43:17Z</time>
      </trkpt>
      <trkpt lat="44.88716" lon="-0.74061">
        <ele>27</ele>
        <time>2017-07-30T09:43:19Z</time>
      </trkpt>
      <trkpt lat="44.8872" lon="-0.74054">
        <ele>27</ele>
        <time>2017-07-30T09:43:21Z</time>
      </trkpt>
      <trkpt lat="44.88724" lon="-0.7405">
        <ele>27</ele>
        <time>2017-07-30T09:43:23Z</time>
      </trkpt>
      <trkpt lat="44.88728" lon="-0.74043">
        <ele>27</ele>
        <time>2017-07-30T09:43:25Z</time>
      </trkpt>
      <trkpt lat="44.88734" lon="-0.74035">
        <ele>27</ele>
        <time>2017-07-30T09:43:27Z</time>
      </trkpt>
      <trkpt lat="44.88741" lon="-0.74029">
        <ele>27</ele>
        <time>2017-07-30T09:43:29Z</time>
      </trkpt>
      <trkpt lat="44.88746" lon="-0.74022">
        <ele>27</ele>
        <time>2017-07-30T09:43:31Z</time>
      </trkpt>
      <trkpt lat="44.88753" lon="-0.74015">
        <ele>28</ele>
        <time>2017-07-30T09:43:33Z</time>
      </trkpt>
      <trkpt lat="44.88759" lon="-0.74006">
        <ele>28</ele>
        <time>2017-07-30T09:43:35Z</time>
      </trkpt>
      <trkpt lat="44.88764" lon="-0.73996">
        <ele>27</ele>
        <time>2017-07-30T09:43:37Z</time>
      </trkpt>
      <trkpt lat="44.88769" lon="-0.73989">
        <ele>28</ele>
        <time>2017-07-30T09:43:39Z</time>
      </trkpt>
      <trkpt lat="44.88777" lon="-0.73979">
        <ele>28</ele>
        <time>2017-07-30T09:43:41Z</time>
      </trkpt>
      <trkpt lat="44.88785" lon="-0.73969">
        <ele>28</ele>
        <time>2017-07-30T09:43:43Z</time>
      </trkpt>
      <trkpt lat="44.88791" lon="-0.73961">
        <ele>28</ele>
        <time>2017-07-30T09:43:45Z</time>
      </trkpt>
      <trkpt lat="44.88797" lon="-0.73956">
        <ele>28</ele>
        <time>2017-07-30T09:43:47Z</time>
      </trkpt>
      <trkpt lat="44.88804" lon="-0.73948">
        <ele>28</ele>
        <time>2017-07-30T09:43:49Z</time>
      </trkpt>
      <trkpt lat="44.8881" lon="-0.73939">
        <ele>28</ele>
        <time>2017-07-30T09:43:51Z</time>
      </trkpt>
      <trkpt lat="44.88817" lon="-0.73933">
        <ele>28</ele>
        <time>2017-07-30T09:43:53Z</time>
      </trkpt>
      <trkpt lat="44.88822" lon="-0.73926">
        <ele>29</ele>
        <time>2017-07-30T09:43:55Z</time>
      </trkpt>
      <trkpt lat="44.88828" lon="-0.73918">
        <ele>29</ele>
        <time>2017-07-30T09:43:57Z</time>
      </trkpt>
      <trkpt lat="44.88833" lon="-0.73909">
        <ele>28</ele>
        <time>2017-07-30T09:43:59Z</time>
      </trkpt>
      <trkpt lat="44.8884" lon="-0.73904">
        <ele>29</ele>
        <time>2017-07-30T09:44:01Z</time>
      </trkpt>
      <trkpt lat="44.88847" lon="-0.73903">
        <ele>30</ele>
        <time>2017-07-30T09:44:03Z</time>
      </trkpt>
      <trkpt lat="44.88856" lon="-0.73902">
        <ele>30</ele>
        <time>2017-07-30T09:44:05Z</time>
      </trkpt>
      <trkpt lat="44.88864" lon="-0.73899">
        <ele>30</ele>
        <time>2017-07-30T09:44:07Z</time>
      </trkpt>
      <trkpt lat="44.88872" lon="-0.73898">
        <ele>30</ele>
        <time>2017-07-30T09:44:09Z</time>
      </trkpt>
      <trkpt lat="44.88882" lon="-0.73899">
        <ele>30</ele>
        <time>2017-07-30T09:44:11Z</time>
      </trkpt>
      <trkpt lat="44.88893" lon="-0.73901">
        <ele>31</ele>
        <time>2017-07-30T09:44:13Z</time>
      </trkpt>
      <trkpt lat="44.88904" lon="-0.73901">
        <ele>31</ele>
        <time>2017-07-30T09:44:15Z</time>
      </trkpt>
      <trkpt lat="44.88914" lon="-0.739">
        <ele>31</ele>
        <time>2017-07-30T09:44:17Z</time>
      </trkpt>
      <trkpt lat="44.88923" lon="-0.73898">
        <ele>31</ele>
        <time>2017-07-30T09:44:19Z</time>
      </trkpt>
      <trkpt lat="44.88932" lon="-0.73895">
        <ele>31</ele>
        <time>2017-07-30T09:44:21Z</time>
      </trkpt>
      <trkpt lat="44.88939" lon="-0.73892">
        <ele>31</ele>
        <time>2017-07-30T09:44:23Z</time>
      </trkpt>
      <trkpt lat="44.88946" lon="-0.73888">
        <ele>31</ele>
        <time>2017-07-30T09:44:25Z</time>
      </trkpt>
      <trkpt lat="44.88952" lon="-0.73886">
        <ele>31</ele>
        <time>2017-07-30T09:44:27Z</time>
      </trkpt>
      <trkpt lat="44.88957" lon="-0.73881">
        <ele>31</ele>
        <time>2017-07-30T09:44:29Z</time>
      </trkpt>
      <trkpt lat="44.8896" lon="-0.73872">
        <ele>30</ele>
        <time>2017-07-30T09:44:31Z</time>
      </trkpt>
      <trkpt lat="44.88962" lon="-0.73861">
        <ele>30</ele>
        <time>2017-07-30T09:44:33Z</time>
      </trkpt>
      <trkpt lat="44.88962" lon="-0.73846">
        <ele>30</ele>
        <time>2017-07-30T09:44:35Z</time>
      </trkpt>
      <trkpt lat="44.88962" lon="-0.73834">
        <ele>30</ele>
        <time>2017-07-30T09:44:37Z</time>
      </trkpt>
      <trkpt lat="44.88964" lon="-0.7382">
        <ele>31</ele>
        <time>2017-07-30T09:44:39Z</time>
      </trkpt>
      <trkpt lat="44.88964" lon="-0.73808">
        <ele>31</ele>
        <time>2017-07-30T09:44:41Z</time>
      </trkpt>
      <trkpt lat="44.88967" lon="-0.73794">
        <ele>31</ele>
        <time>2017-07-30T09:44:43Z</time>
      </trkpt>
      <trkpt lat="44.88968" lon="-0.73779">
        <ele>31</ele>
        <time>2017-07-30T09:44:45Z</time>
      </trkpt>
      <trkpt lat="44.88971" lon="-0.73763">
        <ele>30</ele>
        <time>2017-07-30T09:44:47Z</time>
      </trkpt>
      <trkpt lat="44.88971" lon="-0.73746">
        <ele>30</ele>
        <time>2017-07-30T09:44:49Z</time>
      </trkpt>
      <trkpt lat="44.88973" lon="-0.7373">
        <ele>30</ele>
        <time>2017-07-30T09:44:51Z</time>
      </trkpt>
      <trkpt lat="44.88972" lon="-0.73715">
        <ele>30</ele>
        <time>2017-07-30T09:44:53Z</time>
      </trkpt>
      <trkpt lat="44.88973" lon="-0.73698">
        <ele>30</ele>
        <time>2017-07-30T09:44:55Z</time>
      </trkpt>
      <trkpt lat="44.88974" lon="-0.73682">
        <ele>30</ele>
        <time>2017-07-30T09:44:57Z</time>
      </trkpt>
      <trkpt lat="44.88975" lon="-0.73668">
        <ele>30</ele>
        <time>2017-07-30T09:44:59Z</time>
      </trkpt>
      <trkpt lat="44.88975" lon="-0.73653">
        <ele>30</ele>
        <time>2017-07-30T09:45:01Z</time>
      </trkpt>
      <trkpt lat="44.88976" lon="-0.73638">
        <ele>30</ele>
        <time>2017-07-30T09:45:03Z</time>
      </trkpt>
      <trkpt lat="44.88976" lon="-0.73624">
        <ele>30</ele>
        <time>2017-07-30T09:45:05Z</time>
      </trkpt>
      <trkpt lat="44.88976" lon="-0.73608">
        <ele>30</ele>
        <time>2017-07-30T09:45:07Z</time>
      </trkpt>
      <trkpt lat="44.88976" lon="-0.73595">
        <ele>30</ele>
        <time>2017-07-30T09:45:09Z</time>
      </trkpt>
      <trkpt lat="44.88978" lon="-0.73581">
        <ele>30</ele>
        <time>2017-07-30T09:45:11Z</time>
      </trkpt>
      <trkpt lat="44.88981" lon="-0.73569">
        <ele>30</ele>
        <time>2017-07-30T09:45:13Z</time>
      </trkpt>
      <trkpt lat="44.88983" lon="-0.73557">
        <ele>30</ele>
        <time>2017-07-30T09:45:15Z</time>
      </trkpt>
      <trkpt lat="44.88985" lon="-0.73542">
        <ele>30</ele>
        <time>2017-07-30T09:45:17Z</time>
      </trkpt>
      <trkpt lat="44.88988" lon="-0.7353">
        <ele>30</ele>
        <time>2017-07-30T09:45:19Z</time>
      </trkpt>
      <trkpt lat="44.88991" lon="-0.73513">
        <ele>30</ele>
        <time>2017-07-30T09:45:21Z</time>
      </trkpt>
      <trkpt lat="44.88994" lon="-0.73496">
        <ele>29</ele>
        <time>2017-07-30T09:45:23Z</time>
      </trkpt>
      <trkpt lat="44.88998" lon="-0.7348">
        <ele>29</ele>
        <time>2017-07-30T09:45:25Z</time>
      </trkpt>
      <trkpt lat="44.89" lon="-0.73463">
        <ele>28</ele>
        <time>2017-07-30T09:45:27Z</time>
      </trkpt>
      <trkpt lat="44.89002" lon="-0.73447">
        <ele>28</ele>
        <time>2017-07-30T09:45:29Z</time>
      </trkpt>
      <trkpt lat="44.89005" lon="-0.73431">
        <ele>28</ele>
        <time>2017-07-30T09:45:31Z</time>
      </trkpt>
      <trkpt lat="44.89008" lon="-0.73412">
        <ele>27</ele>
        <time>2017-07-30T09:45:33Z</time>
      </trkpt>
      <trkpt lat="44.8901" lon="-0.73396">
        <ele>27</ele>
        <time>2017-07-30T09:45:35Z</time>
      </trkpt>
      <trkpt lat="44.89012" lon="-0.73381">
        <ele>27</ele>
        <time>2017-07-30T09:45:37Z</time>
      </trkpt>
      <trkpt lat="44.89014" lon="-0.73365">
        <ele>26</ele>
        <time>2017-07-30T09:45:39Z</time>
      </trkpt>
      <trkpt lat="44.89016" lon="-0.73349">
        <ele>26</ele>
        <time>2017-07-30T09:45:41Z</time>
      </trkpt>
      <trkpt lat="44.89019" lon="-0.73333">
        <ele>26</ele>
        <time>2017-07-30T09:45:43Z</time>
      </trkpt>
      <trkpt lat="44.89022" lon="-0.73318">
        <ele>26</ele>
        <time>2017-07-30T09:45:45Z</time>
      </trkpt>
      <trkpt lat="44.89025" lon="-0.73301">
        <ele>26</ele>
        <time>2017-07-30T09:45:47Z</time>
      </trkpt>
      <trkpt lat="44.89028" lon="-0.73283">
        <ele>25</ele>
        <time>2017-07-30T09:45:49Z</time>
      </trkpt>
      <trkpt lat="44.89031" lon="-0.73266">
        <ele>25</ele>
        <time>2017-07-30T09:45:51Z</time>
      </trkpt>
      <trkpt lat="44.89034" lon="-0.73251">
        <ele>25</ele>
        <time>2017-07-30T09:45:53Z</time>
      </trkpt>
      <trkpt lat="44.89037" lon="-0.73235">
        <ele>26</ele>
        <time>2017-07-30T09:45:55Z</time>
      </trkpt>
      <trkpt lat="44.8904" lon="-0.73221">
        <ele>26</ele>
        <time>2017-07-30T09:45:57Z</time>
      </trkpt>
      <trkpt lat="44.89041" lon="-0.73209">
        <ele>26</ele>
        <time>2017-07-30T09:45:59Z</time>
      </trkpt>
      <trkpt lat="44.8904" lon="-0.73199">
        <ele>26</ele>
        <time>2017-07-30T09:46:05Z</time>
      </trkpt>
      <trkpt lat="44.89043" lon="-0.73191">
        <ele>26</ele>
        <time>2017-07-30T09:46:07Z</time>
      </trkpt>
      <trkpt lat="44.89047" lon="-0.7318">
        <ele>26</ele>
        <time>2017-07-30T09:46:09Z</time>
      </trkpt>
      <trkpt lat="44.89051" lon="-0.73167">
        <ele>26</ele>
        <time>2017-07-30T09:46:11Z</time>
      </trkpt>
      <trkpt lat="44.89056" lon="-0.73155">
        <ele>27</ele>
        <time>2017-07-30T09:46:13Z</time>
      </trkpt>
      <trkpt lat="44.89059" lon="-0.73143">
        <ele>27</ele>
        <time>2017-07-30T09:46:15Z</time>
      </trkpt>
      <trkpt lat="44.89063" lon="-0.73129">
        <ele>27</ele>
        <time>2017-07-30T09:46:17Z</time>
      </trkpt>
      <trkpt lat="44.89067" lon="-0.73114">
        <ele>27</ele>
        <time>2017-07-30T09:46:19Z</time>
      </trkpt>
      <trkpt lat="44.8907" lon="-0.731">
        <ele>27</ele>
        <time>2017-07-30T09:46:21Z</time>
      </trkpt>
      <trkpt lat="44.89075" lon="-0.73082">
        <ele>27</ele>
        <time>2017-07-30T09:46:23Z</time>
      </trkpt>
      <trkpt lat="44.89079" lon="-0.73066">
        <ele>28</ele>
        <time>2017-07-30T09:46:25Z</time>
      </trkpt>
      <trkpt lat="44.89083" lon="-0.73051">
        <ele>28</ele>
        <time>2017-07-30T09:46:27Z</time>
      </trkpt>
      <trkpt lat="44.89087" lon="-0.73036">
        <ele>27</ele>
        <time>2017-07-30T09:46:29Z</time>
      </trkpt>
      <trkpt lat="44.89092" lon="-0.7302">
        <ele>28</ele>
        <time>2017-07-30T09:46:31Z</time>
      </trkpt>
      <trkpt lat="44.89097" lon="-0.73003">
        <ele>28</ele>
        <time>2017-07-30T09:46:33Z</time>
      </trkpt>
      <trkpt lat="44.89103" lon="-0.72986">
        <ele>28</ele>
        <time>2017-07-30T09:46:35Z</time>
      </trkpt>
      <trkpt lat="44.89108" lon="-0.7297">
        <ele>29</ele>
        <time>2017-07-30T09:46:37Z</time>
      </trkpt>
      <trkpt lat="44.89113" lon="-0.72953">
        <ele>29</ele>
        <time>2017-07-30T09:46:39Z</time>
      </trkpt>
      <trkpt lat="44.89119" lon="-0.72935">
        <ele>29</ele>
        <time>2017-07-30T09:46:41Z</time>
      </trkpt>
      <trkpt lat="44.89124" lon="-0.72917">
        <ele>29</ele>
        <time>2017-07-30T09:46:43Z</time>
      </trkpt>
      <trkpt lat="44.8913" lon="-0.729">
        <ele>29</ele>
        <time>2017-07-30T09:46:45Z</time>
      </trkpt>
      <trkpt lat="44.89135" lon="-0.72884">
        <ele>29</ele>
        <time>2017-07-30T09:46:47Z</time>
      </trkpt>
      <trkpt lat="44.89139" lon="-0.72868">
        <ele>29</ele>
        <time>2017-07-30T09:46:49Z</time>
      </trkpt>
      <trkpt lat="44.89145" lon="-0.72851">
        <ele>29</ele>
        <time>2017-07-30T09:46:51Z</time>
      </trkpt>
      <trkpt lat="44.8915" lon="-0.72833">
        <ele>27</ele>
        <time>2017-07-30T09:46:53Z</time>
      </trkpt>
      <trkpt lat="44.89155" lon="-0.72817">
        <ele>27</ele>
        <time>2017-07-30T09:46:55Z</time>
      </trkpt>
      <trkpt lat="44.89161" lon="-0.72798">
        <ele>27</ele>
        <time>2017-07-30T09:46:57Z</time>
      </trkpt>
      <trkpt lat="44.89165" lon="-0.72782">
        <ele>27</ele>
        <time>2017-07-30T09:46:59Z</time>
      </trkpt>
      <trkpt lat="44.89169" lon="-0.72765">
        <ele>26</ele>
        <time>2017-07-30T09:47:01Z</time>
      </trkpt>
      <trkpt lat="44.89173" lon="-0.72749">
        <ele>25</ele>
        <time>2017-07-30T09:47:03Z</time>
      </trkpt>
      <trkpt lat="44.89178" lon="-0.7273">
        <ele>25</ele>
        <time>2017-07-30T09:47:05Z</time>
      </trkpt>
      <trkpt lat="44.89181" lon="-0.72711">
        <ele>25</ele>
        <time>2017-07-30T09:47:07Z</time>
      </trkpt>
      <trkpt lat="44.89185" lon="-0.72691">
        <ele>25</ele>
        <time>2017-07-30T09:47:09Z</time>
      </trkpt>
      <trkpt lat="44.89189" lon="-0.72674">
        <ele>24</ele>
        <time>2017-07-30T09:47:11Z</time>
      </trkpt>
      <trkpt lat="44.89193" lon="-0.72655">
        <ele>25</ele>
        <time>2017-07-30T09:47:13Z</time>
      </trkpt>
      <trkpt lat="44.89196" lon="-0.72639">
        <ele>25</ele>
        <time>2017-07-30T09:47:15Z</time>
      </trkpt>
      <trkpt lat="44.89199" lon="-0.72624">
        <ele>25</ele>
        <time>2017-07-30T09:47:17Z</time>
      </trkpt>
      <trkpt lat="44.892" lon="-0.72606">
        <ele>25</ele>
        <time>2017-07-30T09:47:19Z</time>
      </trkpt>
      <trkpt lat="44.89203" lon="-0.72589">
        <ele>25</ele>
        <time>2017-07-30T09:47:21Z</time>
      </trkpt>
      <trkpt lat="44.89208" lon="-0.72573">
        <ele>25</ele>
        <time>2017-07-30T09:47:23Z</time>
      </trkpt>
      <trkpt lat="44.89213" lon="-0.72558">
        <ele>25</ele>
        <time>2017-07-30T09:47:25Z</time>
      </trkpt>
      <trkpt lat="44.89218" lon="-0.72546">
        <ele>25</ele>
        <time>2017-07-30T09:47:27Z</time>
      </trkpt>
      <trkpt lat="44.89225" lon="-0.72541">
        <ele>25</ele>
        <time>2017-07-30T09:47:29Z</time>
      </trkpt>
      <trkpt lat="44.89231" lon="-0.72522">
        <ele>25</ele>
        <time>2017-07-30T09:47:33Z</time>
      </trkpt>
      <trkpt lat="44.89235" lon="-0.72512">
        <ele>25</ele>
        <time>2017-07-30T09:47:35Z</time>
      </trkpt>
      <trkpt lat="44.89239" lon="-0.72503">
        <ele>25</ele>
        <time>2017-07-30T09:47:37Z</time>
      </trkpt>
      <trkpt lat="44.89248" lon="-0.72496">
        <ele>25</ele>
        <time>2017-07-30T09:47:39Z</time>
      </trkpt>
      <trkpt lat="44.89256" lon="-0.72493">
        <ele>25</ele>
        <time>2017-07-30T09:47:41Z</time>
      </trkpt>
      <trkpt lat="44.8926" lon="-0.72484">
        <ele>25</ele>
        <time>2017-07-30T09:47:43Z</time>
      </trkpt>
      <trkpt lat="44.89257" lon="-0.72473">
        <ele>25</ele>
        <time>2017-07-30T09:47:45Z</time>
      </trkpt>
      <trkpt lat="44.89254" lon="-0.72455">
        <ele>25</ele>
        <time>2017-07-30T09:47:47Z</time>
      </trkpt>
      <trkpt lat="44.89256" lon="-0.72437">
        <ele>24</ele>
        <time>2017-07-30T09:47:49Z</time>
      </trkpt>
      <trkpt lat="44.89261" lon="-0.72423">
        <ele>24</ele>
        <time>2017-07-30T09:47:51Z</time>
      </trkpt>
      <trkpt lat="44.89268" lon="-0.72409">
        <ele>24</ele>
        <time>2017-07-30T09:47:53Z</time>
      </trkpt>
      <trkpt lat="44.89274" lon="-0.72395">
        <ele>24</ele>
        <time>2017-07-30T09:47:55Z</time>
      </trkpt>
      <trkpt lat="44.89281" lon="-0.7238">
        <ele>24</ele>
        <time>2017-07-30T09:47:57Z</time>
      </trkpt>
      <trkpt lat="44.89289" lon="-0.72365">
        <ele>24</ele>
        <time>2017-07-30T09:47:59Z</time>
      </trkpt>
      <trkpt lat="44.89296" lon="-0.72352">
        <ele>24</ele>
        <time>2017-07-30T09:48:01Z</time>
      </trkpt>
      <trkpt lat="44.89302" lon="-0.72339">
        <ele>24</ele>
        <time>2017-07-30T09:48:03Z</time>
      </trkpt>
      <trkpt lat="44.89306" lon="-0.72327">
        <ele>24</ele>
        <time>2017-07-30T09:48:05Z</time>
      </trkpt>
      <trkpt lat="44.89308" lon="-0.72313">
        <ele>24</ele>
        <time>2017-07-30T09:48:07Z</time>
      </trkpt>
      <trkpt lat="44.89312" lon="-0.72301">
        <ele>24</ele>
        <time>2017-07-30T09:48:09Z</time>
      </trkpt>
      <trkpt lat="44.89316" lon="-0.72293">
        <ele>24</ele>
        <time>2017-07-30T09:48:11Z</time>
      </trkpt>
      <trkpt lat="44.89323" lon="-0.72286">
        <ele>24</ele>
        <time>2017-07-30T09:48:13Z</time>
      </trkpt>
      <trkpt lat="44.8933" lon="-0.72273">
        <ele>24</ele>
        <time>2017-07-30T09:48:15Z</time>
      </trkpt>
      <trkpt lat="44.89335" lon="-0.72258">
        <ele>24</ele>
        <time>2017-07-30T09:48:17Z</time>
      </trkpt>
      <trkpt lat="44.8934" lon="-0.72243">
        <ele>24</ele>
        <time>2017-07-30T09:48:19Z</time>
      </trkpt>
      <trkpt lat="44.89345" lon="-0.72228">
        <ele>25</ele>
        <time>2017-07-30T09:48:21Z</time>
      </trkpt>
      <trkpt lat="44.8935" lon="-0.72212">
        <ele>25</ele>
        <time>2017-07-30T09:48:23Z</time>
      </trkpt>
      <trkpt lat="44.89356" lon="-0.72194">
        <ele>25</ele>
        <time>2017-07-30T09:48:25Z</time>
      </trkpt>
      <trkpt lat="44.8936" lon="-0.72177">
        <ele>25</ele>
        <time>2017-07-30T09:48:27Z</time>
      </trkpt>
      <trkpt lat="44.89365" lon="-0.72159">
        <ele>25</ele>
        <time>2017-07-30T09:48:29Z</time>
      </trkpt>
      <trkpt lat="44.89369" lon="-0.72141">
        <ele>25</ele>
        <time>2017-07-30T09:48:31Z</time>
      </trkpt>
      <trkpt lat="44.89373" lon="-0.72124">
        <ele>25</ele>
        <time>2017-07-30T09:48:33Z</time>
      </trkpt>
      <trkpt lat="44.89376" lon="-0.72105">
        <ele>26</ele>
        <time>2017-07-30T09:48:35Z</time>
      </trkpt>
      <trkpt lat="44.89379" lon="-0.72085">
        <ele>26</ele>
        <time>2017-07-30T09:48:37Z</time>
      </trkpt>
      <trkpt lat="44.89381" lon="-0.72066">
        <ele>26</ele>
        <time>2017-07-30T09:48:39Z</time>
      </trkpt>
      <trkpt lat="44.89383" lon="-0.72046">
        <ele>26</ele>
        <time>2017-07-30T09:48:41Z</time>
      </trkpt>
      <trkpt lat="44.89385" lon="-0.72026">
        <ele>26</ele>
        <time>2017-07-30T09:48:43Z</time>
      </trkpt>
      <trkpt lat="44.89386" lon="-0.72005">
        <ele>26</ele>
        <time>2017-07-30T09:48:45Z</time>
      </trkpt>
      <trkpt lat="44.89387" lon="-0.71985">
        <ele>25</ele>
        <time>2017-07-30T09:48:47Z</time>
      </trkpt>
      <trkpt lat="44.89388" lon="-0.71966">
        <ele>25</ele>
        <time>2017-07-30T09:48:49Z</time>
      </trkpt>
      <trkpt lat="44.89387" lon="-0.71946">
        <ele>25</ele>
        <time>2017-07-30T09:48:51Z</time>
      </trkpt>
      <trkpt lat="44.89387" lon="-0.71933">
        <ele>24</ele>
        <time>2017-07-30T09:48:53Z</time>
      </trkpt>
      <trkpt lat="44.89386" lon="-0.71924">
        <ele>24</ele>
        <time>2017-07-30T09:48:55Z</time>
      </trkpt>
      <trkpt lat="44.89386" lon="-0.71913">
        <ele>23</ele>
        <time>2017-07-30T09:48:57Z</time>
      </trkpt>
      <trkpt lat="44.89386" lon="-0.71901">
        <ele>23</ele>
        <time>2017-07-30T09:48:59Z</time>
      </trkpt>
      <trkpt lat="44.89385" lon="-0.71886">
        <ele>23</ele>
        <time>2017-07-30T09:49:01Z</time>
      </trkpt>
      <trkpt lat="44.89384" lon="-0.7187">
        <ele>23</ele>
        <time>2017-07-30T09:49:03Z</time>
      </trkpt>
      <trkpt lat="44.89382" lon="-0.71854">
        <ele>23</ele>
        <time>2017-07-30T09:49:05Z</time>
      </trkpt>
      <trkpt lat="44.8938" lon="-0.71837">
        <ele>23</ele>
        <time>2017-07-30T09:49:07Z</time>
      </trkpt>
      <trkpt lat="44.89379" lon="-0.71821">
        <ele>22</ele>
        <time>2017-07-30T09:49:09Z</time>
      </trkpt>
      <trkpt lat="44.89376" lon="-0.71804">
        <ele>22</ele>
        <time>2017-07-30T09:49:11Z</time>
      </trkpt>
      <trkpt lat="44.89373" lon="-0.71789">
        <ele>22</ele>
        <time>2017-07-30T09:49:13Z</time>
      </trkpt>
      <trkpt lat="44.89371" lon="-0.71778">
        <ele>22</ele>
        <time>2017-07-30T09:49:15Z</time>
      </trkpt>
      <trkpt lat="44.89368" lon="-0.71765">
        <ele>22</ele>
        <time>2017-07-30T09:49:17Z</time>
      </trkpt>
      <trkpt lat="44.89365" lon="-0.71753">
        <ele>22</ele>
        <time>2017-07-30T09:49:19Z</time>
      </trkpt>
      <trkpt lat="44.89361" lon="-0.71737">
        <ele>22</ele>
        <time>2017-07-30T09:49:21Z</time>
      </trkpt>
      <trkpt lat="44.89358" lon="-0.71722">
        <ele>22</ele>
        <time>2017-07-30T09:49:23Z</time>
      </trkpt>
      <trkpt lat="44.89354" lon="-0.71706">
        <ele>22</ele>
        <time>2017-07-30T09:49:25Z</time>
      </trkpt>
      <trkpt lat="44.8935" lon="-0.71688">
        <ele>22</ele>
        <time>2017-07-30T09:49:27Z</time>
      </trkpt>
      <trkpt lat="44.89346" lon="-0.71671">
        <ele>22</ele>
        <time>2017-07-30T09:49:29Z</time>
      </trkpt>
      <trkpt lat="44.89342" lon="-0.71654">
        <ele>21</ele>
        <time>2017-07-30T09:49:31Z</time>
      </trkpt>
      <trkpt lat="44.89339" lon="-0.71637">
        <ele>21</ele>
        <time>2017-07-30T09:49:33Z</time>
      </trkpt>
      <trkpt lat="44.89335" lon="-0.71622">
        <ele>21</ele>
        <time>2017-07-30T09:49:35Z</time>
      </trkpt>
      <trkpt lat="44.89331" lon="-0.71605">
        <ele>20</ele>
        <time>2017-07-30T09:49:37Z</time>
      </trkpt>
      <trkpt lat="44.89327" lon="-0.71589">
        <ele>20</ele>
        <time>2017-07-30T09:49:39Z</time>
      </trkpt>
      <trkpt lat="44.89322" lon="-0.71573">
        <ele>20</ele>
        <time>2017-07-30T09:49:41Z</time>
      </trkpt>
      <trkpt lat="44.89321" lon="-0.71563">
        <ele>20</ele>
        <time>2017-07-30T09:49:47Z</time>
      </trkpt>
      <trkpt lat="44.89318" lon="-0.71555">
        <ele>20</ele>
        <time>2017-07-30T09:49:49Z</time>
      </trkpt>
      <trkpt lat="44.89316" lon="-0.71549">
        <ele>20</ele>
        <time>2017-07-30T09:49:51Z</time>
      </trkpt>
      <trkpt lat="44.89315" lon="-0.71537">
        <ele>20</ele>
        <time>2017-07-30T09:49:53Z</time>
      </trkpt>
      <trkpt lat="44.89311" lon="-0.71523">
        <ele>20</ele>
        <time>2017-07-30T09:49:55Z</time>
      </trkpt>
      <trkpt lat="44.89308" lon="-0.71508">
        <ele>20</ele>
        <time>2017-07-30T09:49:57Z</time>
      </trkpt>
      <trkpt lat="44.89304" lon="-0.71493">
        <ele>19</ele>
        <time>2017-07-30T09:49:59Z</time>
      </trkpt>
      <trkpt lat="44.893" lon="-0.71478">
        <ele>19</ele>
        <time>2017-07-30T09:50:01Z</time>
      </trkpt>
      <trkpt lat="44.89298" lon="-0.71463">
        <ele>19</ele>
        <time>2017-07-30T09:50:03Z</time>
      </trkpt>
      <trkpt lat="44.89294" lon="-0.71447">
        <ele>19</ele>
        <time>2017-07-30T09:50:05Z</time>
      </trkpt>
      <trkpt lat="44.8929" lon="-0.71431">
        <ele>19</ele>
        <time>2017-07-30T09:50:07Z</time>
      </trkpt>
      <trkpt lat="44.89286" lon="-0.71414">
        <ele>18</ele>
        <time>2017-07-30T09:50:09Z</time>
      </trkpt>
      <trkpt lat="44.89282" lon="-0.71397">
        <ele>18</ele>
        <time>2017-07-30T09:50:11Z</time>
      </trkpt>
      <trkpt lat="44.89278" lon="-0.71381">
        <ele>18</ele>
        <time>2017-07-30T09:50:13Z</time>
      </trkpt>
      <trkpt lat="44.89275" lon="-0.71365">
        <ele>18</ele>
        <time>2017-07-30T09:50:15Z</time>
      </trkpt>
      <trkpt lat="44.89272" lon="-0.71349">
        <ele>18</ele>
        <time>2017-07-30T09:50:17Z</time>
      </trkpt>
      <trkpt lat="44.89268" lon="-0.71333">
        <ele>18</ele>
        <time>2017-07-30T09:50:19Z</time>
      </trkpt>
      <trkpt lat="44.89266" lon="-0.71316">
        <ele>18</ele>
        <time>2017-07-30T09:50:21Z</time>
      </trkpt>
      <trkpt lat="44.89263" lon="-0.71299">
        <ele>18</ele>
        <time>2017-07-30T09:50:23Z</time>
      </trkpt>
      <trkpt lat="44.8926" lon="-0.71284">
        <ele>18</ele>
        <time>2017-07-30T09:50:25Z</time>
      </trkpt>
      <trkpt lat="44.89258" lon="-0.71268">
        <ele>19</ele>
        <time>2017-07-30T09:50:27Z</time>
      </trkpt>
      <trkpt lat="44.89255" lon="-0.7125">
        <ele>19</ele>
        <time>2017-07-30T09:50:29Z</time>
      </trkpt>
      <trkpt lat="44.89254" lon="-0.71233">
        <ele>19</ele>
        <time>2017-07-30T09:50:31Z</time>
      </trkpt>
      <trkpt lat="44.89254" lon="-0.71215">
        <ele>19</ele>
        <time>2017-07-30T09:50:33Z</time>
      </trkpt>
      <trkpt lat="44.89254" lon="-0.71197">
        <ele>19</ele>
        <time>2017-07-30T09:50:35Z</time>
      </trkpt>
      <trkpt lat="44.89254" lon="-0.71179">
        <ele>19</ele>
        <time>2017-07-30T09:50:37Z</time>
      </trkpt>
      <trkpt lat="44.89254" lon="-0.71162">
        <ele>19</ele>
        <time>2017-07-30T09:50:39Z</time>
      </trkpt>
      <trkpt lat="44.89254" lon="-0.71147">
        <ele>19</ele>
        <time>2017-07-30T09:50:41Z</time>
      </trkpt>
      <trkpt lat="44.89254" lon="-0.7113">
        <ele>19</ele>
        <time>2017-07-30T09:50:43Z</time>
      </trkpt>
      <trkpt lat="44.89254" lon="-0.71113">
        <ele>19</ele>
        <time>2017-07-30T09:50:45Z</time>
      </trkpt>
      <trkpt lat="44.89254" lon="-0.71097">
        <ele>19</ele>
        <time>2017-07-30T09:50:47Z</time>
      </trkpt>
      <trkpt lat="44.89255" lon="-0.71083">
        <ele>19</ele>
        <time>2017-07-30T09:50:49Z</time>
      </trkpt>
      <trkpt lat="44.89256" lon="-0.7107">
        <ele>19</ele>
        <time>2017-07-30T09:50:51Z</time>
      </trkpt>
      <trkpt lat="44.89258" lon="-0.71058">
        <ele>18</ele>
        <time>2017-07-30T09:50:53Z</time>
      </trkpt>
      <trkpt lat="44.89259" lon="-0.7105">
        <ele>18</ele>
        <time>2017-07-30T09:50:55Z</time>
      </trkpt>
      <trkpt lat="44.89261" lon="-0.71043">
        <ele>18</ele>
        <time>2017-07-30T09:51:03Z</time>
      </trkpt>
      <trkpt lat="44.89265" lon="-0.71035">
        <ele>18</ele>
        <time>2017-07-30T09:51:05Z</time>
      </trkpt>
      <trkpt lat="44.89266" lon="-0.71025">
        <ele>17</ele>
        <time>2017-07-30T09:51:07Z</time>
      </trkpt>
      <trkpt lat="44.89266" lon="-0.71017">
        <ele>17</ele>
        <time>2017-07-30T09:51:09Z</time>
      </trkpt>
      <trkpt lat="44.89267" lon="-0.71011">
        <ele>17</ele>
        <time>2017-07-30T09:51:13Z</time>
      </trkpt>
      <trkpt lat="44.89268" lon="-0.71001">
        <ele>17</ele>
        <time>2017-07-30T09:51:21Z</time>
      </trkpt>
      <trkpt lat="44.89271" lon="-0.70991">
        <ele>16</ele>
        <time>2017-07-30T09:51:23Z</time>
      </trkpt>
      <trkpt lat="44.89273" lon="-0.70981">
        <ele>16</ele>
        <time>2017-07-30T09:51:25Z</time>
      </trkpt>
      <trkpt lat="44.89276" lon="-0.7097">
        <ele>16</ele>
        <time>2017-07-30T09:51:27Z</time>
      </trkpt>
      <trkpt lat="44.89279" lon="-0.70958">
        <ele>16</ele>
        <time>2017-07-30T09:51:29Z</time>
      </trkpt>
      <trkpt lat="44.89281" lon="-0.70944">
        <ele>16</ele>
        <time>2017-07-30T09:51:31Z</time>
      </trkpt>
      <trkpt lat="44.89284" lon="-0.70929">
        <ele>16</ele>
        <time>2017-07-30T09:51:33Z</time>
      </trkpt>
      <trkpt lat="44.89287" lon="-0.70915">
        <ele>16</ele>
        <time>2017-07-30T09:51:35Z</time>
      </trkpt>
      <trkpt lat="44.8929" lon="-0.709">
        <ele>16</ele>
        <time>2017-07-30T09:51:37Z</time>
      </trkpt>
      <trkpt lat="44.89294" lon="-0.70883">
        <ele>16</ele>
        <time>2017-07-30T09:51:39Z</time>
      </trkpt>
      <trkpt lat="44.89297" lon="-0.70866">
        <ele>16</ele>
        <time>2017-07-30T09:51:41Z</time>
      </trkpt>
      <trkpt lat="44.89301" lon="-0.7085">
        <ele>16</ele>
        <time>2017-07-30T09:51:43Z</time>
      </trkpt>
      <trkpt lat="44.89304" lon="-0.70836">
        <ele>16</ele>
        <time>2017-07-30T09:51:45Z</time>
      </trkpt>
      <trkpt lat="44.89307" lon="-0.7082">
        <ele>16</ele>
        <time>2017-07-30T09:51:47Z</time>
      </trkpt>
      <trkpt lat="44.89309" lon="-0.70805">
        <ele>16</ele>
        <time>2017-07-30T09:51:49Z</time>
      </trkpt>
      <trkpt lat="44.89312" lon="-0.7079">
        <ele>16</ele>
        <time>2017-07-30T09:51:51Z</time>
      </trkpt>
      <trkpt lat="44.89314" lon="-0.70775">
        <ele>16</ele>
        <time>2017-07-30T09:51:53Z</time>
      </trkpt>
      <trkpt lat="44.89316" lon="-0.70761">
        <ele>16</ele>
        <time>2017-07-30T09:51:55Z</time>
      </trkpt>
      <trkpt lat="44.89317" lon="-0.70749">
        <ele>16</ele>
        <time>2017-07-30T09:51:57Z</time>
      </trkpt>
      <trkpt lat="44.89318" lon="-0.7074">
        <ele>16</ele>
        <time>2017-07-30T09:51:59Z</time>
      </trkpt>
      <trkpt lat="44.89319" lon="-0.70728">
        <ele>16</ele>
        <time>2017-07-30T09:52:01Z</time>
      </trkpt>
      <trkpt lat="44.8932" lon="-0.70713">
        <ele>16</ele>
        <time>2017-07-30T09:52:03Z</time>
      </trkpt>
      <trkpt lat="44.8932" lon="-0.70697">
        <ele>15</ele>
        <time>2017-07-30T09:52:05Z</time>
      </trkpt>
      <trkpt lat="44.89321" lon="-0.70683">
        <ele>15</ele>
        <time>2017-07-30T09:52:07Z</time>
      </trkpt>
      <trkpt lat="44.89322" lon="-0.70668">
        <ele>15</ele>
        <time>2017-07-30T09:52:09Z</time>
      </trkpt>
      <trkpt lat="44.89323" lon="-0.70652">
        <ele>15</ele>
        <time>2017-07-30T09:52:11Z</time>
      </trkpt>
      <trkpt lat="44.89324" lon="-0.70635">
        <ele>15</ele>
        <time>2017-07-30T09:52:13Z</time>
      </trkpt>
      <trkpt lat="44.89326" lon="-0.70618">
        <ele>15</ele>
        <time>2017-07-30T09:52:15Z</time>
      </trkpt>
      <trkpt lat="44.89327" lon="-0.706">
        <ele>14</ele>
        <time>2017-07-30T09:52:17Z</time>
      </trkpt>
      <trkpt lat="44.89329" lon="-0.70583">
        <ele>14</ele>
        <time>2017-07-30T09:52:19Z</time>
      </trkpt>
      <trkpt lat="44.8933" lon="-0.70565">
        <ele>14</ele>
        <time>2017-07-30T09:52:21Z</time>
      </trkpt>
      <trkpt lat="44.8933" lon="-0.70546">
        <ele>15</ele>
        <time>2017-07-30T09:52:23Z</time>
      </trkpt>
      <trkpt lat="44.8933" lon="-0.70527">
        <ele>15</ele>
        <time>2017-07-30T09:52:25Z</time>
      </trkpt>
      <trkpt lat="44.8933" lon="-0.70509">
        <ele>16</ele>
        <time>2017-07-30T09:52:27Z</time>
      </trkpt>
      <trkpt lat="44.89331" lon="-0.70489">
        <ele>16</ele>
        <time>2017-07-30T09:52:29Z</time>
      </trkpt>
      <trkpt lat="44.89331" lon="-0.7047">
        <ele>16</ele>
        <time>2017-07-30T09:52:31Z</time>
      </trkpt>
      <trkpt lat="44.8933" lon="-0.70453">
        <ele>16</ele>
        <time>2017-07-30T09:52:33Z</time>
      </trkpt>
      <trkpt lat="44.89329" lon="-0.70436">
        <ele>17</ele>
        <time>2017-07-30T09:52:35Z</time>
      </trkpt>
      <trkpt lat="44.89326" lon="-0.70419">
        <ele>17</ele>
        <time>2017-07-30T09:52:37Z</time>
      </trkpt>
      <trkpt lat="44.89323" lon="-0.70402">
        <ele>17</ele>
        <time>2017-07-30T09:52:39Z</time>
      </trkpt>
      <trkpt lat="44.89321" lon="-0.70384">
        <ele>17</ele>
        <time>2017-07-30T09:52:41Z</time>
      </trkpt>
      <trkpt lat="44.89319" lon="-0.70366">
        <ele>17</ele>
        <time>2017-07-30T09:52:43Z</time>
      </trkpt>
      <trkpt lat="44.89318" lon="-0.70349">
        <ele>17</ele>
        <time>2017-07-30T09:52:45Z</time>
      </trkpt>
      <trkpt lat="44.89316" lon="-0.70333">
        <ele>18</ele>
        <time>2017-07-30T09:52:47Z</time>
      </trkpt>
      <trkpt lat="44.89314" lon="-0.70314">
        <ele>18</ele>
        <time>2017-07-30T09:52:49Z</time>
      </trkpt>
      <trkpt lat="44.8931" lon="-0.70295">
        <ele>18</ele>
        <time>2017-07-30T09:52:51Z</time>
      </trkpt>
      <trkpt lat="44.89306" lon="-0.70279">
        <ele>18</ele>
        <time>2017-07-30T09:52:53Z</time>
      </trkpt>
      <trkpt lat="44.89302" lon="-0.70261">
        <ele>19</ele>
        <time>2017-07-30T09:52:55Z</time>
      </trkpt>
      <trkpt lat="44.89299" lon="-0.70243">
        <ele>18</ele>
        <time>2017-07-30T09:52:57Z</time>
      </trkpt>
      <trkpt lat="44.89296" lon="-0.70226">
        <ele>18</ele>
        <time>2017-07-30T09:52:59Z</time>
      </trkpt>
      <trkpt lat="44.89294" lon="-0.70209">
        <ele>17</ele>
        <time>2017-07-30T09:53:01Z</time>
      </trkpt>
      <trkpt lat="44.89293" lon="-0.70193">
        <ele>17</ele>
        <time>2017-07-30T09:53:03Z</time>
      </trkpt>
      <trkpt lat="44.89291" lon="-0.70179">
        <ele>17</ele>
        <time>2017-07-30T09:53:05Z</time>
      </trkpt>
      <trkpt lat="44.89289" lon="-0.70162">
        <ele>15</ele>
        <time>2017-07-30T09:53:07Z</time>
      </trkpt>
      <trkpt lat="44.89285" lon="-0.70142">
        <ele>15</ele>
        <time>2017-07-30T09:53:09Z</time>
      </trkpt>
      <trkpt lat="44.89282" lon="-0.70122">
        <ele>15</ele>
        <time>2017-07-30T09:53:11Z</time>
      </trkpt>
      <trkpt lat="44.89278" lon="-0.70101">
        <ele>14</ele>
        <time>2017-07-30T09:53:13Z</time>
      </trkpt>
      <trkpt lat="44.89274" lon="-0.70083">
        <ele>14</ele>
        <time>2017-07-30T09:53:15Z</time>
      </trkpt>
      <trkpt lat="44.8927" lon="-0.70065">
        <ele>14</ele>
        <time>2017-07-30T09:53:17Z</time>
      </trkpt>
      <trkpt lat="44.89267" lon="-0.7005">
        <ele>14</ele>
        <time>2017-07-30T09:53:19Z</time>
      </trkpt>
      <trkpt lat="44.89263" lon="-0.70031">
        <ele>14</ele>
        <time>2017-07-30T09:53:21Z</time>
      </trkpt>
      <trkpt lat="44.89259" lon="-0.70013">
        <ele>15</ele>
        <time>2017-07-30T09:53:23Z</time>
      </trkpt>
      <trkpt lat="44.89253" lon="-0.69996">
        <ele>15</ele>
        <time>2017-07-30T09:53:25Z</time>
      </trkpt>
      <trkpt lat="44.89249" lon="-0.69979">
        <ele>15</ele>
        <time>2017-07-30T09:53:27Z</time>
      </trkpt>
      <trkpt lat="44.89245" lon="-0.69961">
        <ele>16</ele>
        <time>2017-07-30T09:53:29Z</time>
      </trkpt>
      <trkpt lat="44.89241" lon="-0.69943">
        <ele>16</ele>
        <time>2017-07-30T09:53:31Z</time>
      </trkpt>
      <trkpt lat="44.89237" lon="-0.69926">
        <ele>17</ele>
        <time>2017-07-30T09:53:33Z</time>
      </trkpt>
      <trkpt lat="44.89233" lon="-0.69908">
        <ele>17</ele>
        <time>2017-07-30T09:53:35Z</time>
      </trkpt>
      <trkpt lat="44.89229" lon="-0.6989">
        <ele>16</ele>
        <time>2017-07-30T09:53:37Z</time>
      </trkpt>
      <trkpt lat="44.89225" lon="-0.69871">
        <ele>16</ele>
        <time>2017-07-30T09:53:39Z</time>
      </trkpt>
      <trkpt lat="44.89221" lon="-0.69855">
        <ele>16</ele>
        <time>2017-07-30T09:53:41Z</time>
      </trkpt>
      <trkpt lat="44.89217" lon="-0.69838">
        <ele>16</ele>
        <time>2017-07-30T09:53:43Z</time>
      </trkpt>
      <trkpt lat="44.89213" lon="-0.69822">
        <ele>17</ele>
        <time>2017-07-30T09:53:45Z</time>
      </trkpt>
      <trkpt lat="44.89208" lon="-0.69806">
        <ele>17</ele>
        <time>2017-07-30T09:53:47Z</time>
      </trkpt>
      <trkpt lat="44.89205" lon="-0.69789">
        <ele>17</ele>
        <time>2017-07-30T09:53:49Z</time>
      </trkpt>
      <trkpt lat="44.89201" lon="-0.69772">
        <ele>17</ele>
        <time>2017-07-30T09:53:51Z</time>
      </trkpt>
      <trkpt lat="44.89197" lon="-0.69755">
        <ele>17</ele>
        <time>2017-07-30T09:53:53Z</time>
      </trkpt>
      <trkpt lat="44.89193" lon="-0.69736">
        <ele>18</ele>
        <time>2017-07-30T09:53:55Z</time>
      </trkpt>
      <trkpt lat="44.89189" lon="-0.69717">
        <ele>18</ele>
        <time>2017-07-30T09:53:57Z</time>
      </trkpt>
      <trkpt lat="44.89184" lon="-0.69698">
        <ele>18</ele>
        <time>2017-07-30T09:53:59Z</time>
      </trkpt>
      <trkpt lat="44.8918" lon="-0.69682">
        <ele>18</ele>
        <time>2017-07-30T09:54:01Z</time>
      </trkpt>
      <trkpt lat="44.89176" lon="-0.69666">
        <ele>19</ele>
        <time>2017-07-30T09:54:03Z</time>
      </trkpt>
      <trkpt lat="44.89172" lon="-0.6965">
        <ele>19</ele>
        <time>2017-07-30T09:54:05Z</time>
      </trkpt>
      <trkpt lat="44.89169" lon="-0.69634">
        <ele>19</ele>
        <time>2017-07-30T09:54:07Z</time>
      </trkpt>
      <trkpt lat="44.89164" lon="-0.69616">
        <ele>19</ele>
        <time>2017-07-30T09:54:09Z</time>
      </trkpt>
      <trkpt lat="44.8916" lon="-0.69601">
        <ele>20</ele>
        <time>2017-07-30T09:54:11Z</time>
      </trkpt>
      <trkpt lat="44.89157" lon="-0.69586">
        <ele>20</ele>
        <time>2017-07-30T09:54:13Z</time>
      </trkpt>
      <trkpt lat="44.89154" lon="-0.6957">
        <ele>20</ele>
        <time>2017-07-30T09:54:15Z</time>
      </trkpt>
      <trkpt lat="44.89149" lon="-0.69552">
        <ele>20</ele>
        <time>2017-07-30T09:54:17Z</time>
      </trkpt>
      <trkpt lat="44.89145" lon="-0.69535">
        <ele>20</ele>
        <time>2017-07-30T09:54:19Z</time>
      </trkpt>
      <trkpt lat="44.89141" lon="-0.69518">
        <ele>20</ele>
        <time>2017-07-30T09:54:21Z</time>
      </trkpt>
      <trkpt lat="44.89138" lon="-0.69502">
        <ele>20</ele>
        <time>2017-07-30T09:54:23Z</time>
      </trkpt>
      <trkpt lat="44.89135" lon="-0.69487">
        <ele>20</ele>
        <time>2017-07-30T09:54:25Z</time>
      </trkpt>
      <trkpt lat="44.89132" lon="-0.69473">
        <ele>20</ele>
        <time>2017-07-30T09:54:27Z</time>
      </trkpt>
      <trkpt lat="44.8913" lon="-0.69461">
        <ele>20</ele>
        <time>2017-07-30T09:54:29Z</time>
      </trkpt>
      <trkpt lat="44.89127" lon="-0.69445">
        <ele>20</ele>
        <time>2017-07-30T09:54:31Z</time>
      </trkpt>
      <trkpt lat="44.89123" lon="-0.69427">
        <ele>20</ele>
        <time>2017-07-30T09:54:33Z</time>
      </trkpt>
      <trkpt lat="44.89118" lon="-0.6941">
        <ele>20</ele>
        <time>2017-07-30T09:54:35Z</time>
      </trkpt>
      <trkpt lat="44.89114" lon="-0.69395">
        <ele>20</ele>
        <time>2017-07-30T09:54:37Z</time>
      </trkpt>
      <trkpt lat="44.89108" lon="-0.69378">
        <ele>20</ele>
        <time>2017-07-30T09:54:39Z</time>
      </trkpt>
      <trkpt lat="44.89104" lon="-0.69361">
        <ele>20</ele>
        <time>2017-07-30T09:54:41Z</time>
      </trkpt>
      <trkpt lat="44.89101" lon="-0.69344">
        <ele>20</ele>
        <time>2017-07-30T09:54:43Z</time>
      </trkpt>
      <trkpt lat="44.89098" lon="-0.69327">
        <ele>20</ele>
        <time>2017-07-30T09:54:45Z</time>
      </trkpt>
      <trkpt lat="44.89094" lon="-0.6931">
        <ele>20</ele>
        <time>2017-07-30T09:54:47Z</time>
      </trkpt>
      <trkpt lat="44.8909" lon="-0.69293">
        <ele>20</ele>
        <time>2017-07-30T09:54:49Z</time>
      </trkpt>
      <trkpt lat="44.89086" lon="-0.69278">
        <ele>20</ele>
        <time>2017-07-30T09:54:51Z</time>
      </trkpt>
      <trkpt lat="44.89083" lon="-0.69261">
        <ele>19</ele>
        <time>2017-07-30T09:54:53Z</time>
      </trkpt>
      <trkpt lat="44.89079" lon="-0.69247">
        <ele>19</ele>
        <time>2017-07-30T09:54:55Z</time>
      </trkpt>
      <trkpt lat="44.89077" lon="-0.69232">
        <ele>19</ele>
        <time>2017-07-30T09:54:57Z</time>
      </trkpt>
      <trkpt lat="44.89073" lon="-0.69218">
        <ele>19</ele>
        <time>2017-07-30T09:54:59Z</time>
      </trkpt>
      <trkpt lat="44.89072" lon="-0.69211">
        <ele>19</ele>
        <time>2017-07-30T09:55:01Z</time>
      </trkpt>
      <trkpt lat="44.89069" lon="-0.69199">
        <ele>20</ele>
        <time>2017-07-30T09:55:25Z</time>
      </trkpt>
      <trkpt lat="44.89068" lon="-0.69192">
        <ele>20</ele>
        <time>2017-07-30T09:55:27Z</time>
      </trkpt>
      <trkpt lat="44.89065" lon="-0.69178">
        <ele>20</ele>
        <time>2017-07-30T09:55:29Z</time>
      </trkpt>
      <trkpt lat="44.89062" lon="-0.69166">
        <ele>21</ele>
        <time>2017-07-30T09:55:31Z</time>
      </trkpt>
      <trkpt lat="44.89059" lon="-0.69153">
        <ele>21</ele>
        <time>2017-07-30T09:55:33Z</time>
      </trkpt>
      <trkpt lat="44.89056" lon="-0.69139">
        <ele>21</ele>
        <time>2017-07-30T09:55:35Z</time>
      </trkpt>
      <trkpt lat="44.89053" lon="-0.69125">
        <ele>21</ele>
        <time>2017-07-30T09:55:37Z</time>
      </trkpt>
      <trkpt lat="44.8905" lon="-0.6911">
        <ele>21</ele>
        <time>2017-07-30T09:55:39Z</time>
      </trkpt>
      <trkpt lat="44.89046" lon="-0.69093">
        <ele>21</ele>
        <time>2017-07-30T09:55:41Z</time>
      </trkpt>
      <trkpt lat="44.89043" lon="-0.69077">
        <ele>22</ele>
        <time>2017-07-30T09:55:43Z</time>
      </trkpt>
      <trkpt lat="44.8904" lon="-0.69062">
        <ele>22</ele>
        <time>2017-07-30T09:55:45Z</time>
      </trkpt>
      <trkpt lat="44.89036" lon="-0.69048">
        <ele>22</ele>
        <time>2017-07-30T09:55:47Z</time>
      </trkpt>
      <trkpt lat="44.89033" lon="-0.69035">
        <ele>22</ele>
        <time>2017-07-30T09:55:49Z</time>
      </trkpt>
      <trkpt lat="44.89029" lon="-0.69019">
        <ele>21</ele>
        <time>2017-07-30T09:55:51Z</time>
      </trkpt>
      <trkpt lat="44.89026" lon="-0.69004">
        <ele>21</ele>
        <time>2017-07-30T09:55:53Z</time>
      </trkpt>
      <trkpt lat="44.89023" lon="-0.6899">
        <ele>21</ele>
        <time>2017-07-30T09:55:55Z</time>
      </trkpt>
      <trkpt lat="44.8902" lon="-0.68977">
        <ele>20</ele>
        <time>2017-07-30T09:55:57Z</time>
      </trkpt>
      <trkpt lat="44.89017" lon="-0.68963">
        <ele>20</ele>
        <time>2017-07-30T09:55:59Z</time>
      </trkpt>
      <trkpt lat="44.89013" lon="-0.68947">
        <ele>20</ele>
        <time>2017-07-30T09:56:01Z</time>
      </trkpt>
      <trkpt lat="44.89008" lon="-0.68931">
        <ele>20</ele>
        <time>2017-07-30T09:56:03Z</time>
      </trkpt>
      <trkpt lat="44.89004" lon="-0.68913">
        <ele>19</ele>
        <time>2017-07-30T09:56:05Z</time>
      </trkpt>
      <trkpt lat="44.89" lon="-0.68895">
        <ele>18</ele>
        <time>2017-07-30T09:56:07Z</time>
      </trkpt>
      <trkpt lat="44.88996" lon="-0.68876">
        <ele>18</ele>
        <time>2017-07-30T09:56:09Z</time>
      </trkpt>
      <trkpt lat="44.88991" lon="-0.68856">
        <ele>18</ele>
        <time>2017-07-30T09:56:11Z</time>
      </trkpt>
      <trkpt lat="44.88987" lon="-0.68836">
        <ele>17</ele>
        <time>2017-07-30T09:56:13Z</time>
      </trkpt>
      <trkpt lat="44.88984" lon="-0.68819">
        <ele>18</ele>
        <time>2017-07-30T09:56:15Z</time>
      </trkpt>
      <trkpt lat="44.88981" lon="-0.68803">
        <ele>18</ele>
        <time>2017-07-30T09:56:17Z</time>
      </trkpt>
      <trkpt lat="44.88977" lon="-0.68786">
        <ele>18</ele>
        <time>2017-07-30T09:56:19Z</time>
      </trkpt>
      <trkpt lat="44.88974" lon="-0.68769">
        <ele>18</ele>
        <time>2017-07-30T09:56:21Z</time>
      </trkpt>
      <trkpt lat="44.88971" lon="-0.68751">
        <ele>19</ele>
        <time>2017-07-30T09:56:23Z</time>
      </trkpt>
      <trkpt lat="44.88968" lon="-0.68733">
        <ele>18</ele>
        <time>2017-07-30T09:56:25Z</time>
      </trkpt>
      <trkpt lat="44.88965" lon="-0.68713">
        <ele>18</ele>
        <time>2017-07-30T09:56:27Z</time>
      </trkpt>
      <trkpt lat="44.88962" lon="-0.68695">
        <ele>17</ele>
        <time>2017-07-30T09:56:29Z</time>
      </trkpt>
      <trkpt lat="44.8896" lon="-0.68678">
        <ele>17</ele>
        <time>2017-07-30T09:56:31Z</time>
      </trkpt>
      <trkpt lat="44.88957" lon="-0.68659">
        <ele>15</ele>
        <time>2017-07-30T09:56:33Z</time>
      </trkpt>
      <trkpt lat="44.88955" lon="-0.68642">
        <ele>15</ele>
        <time>2017-07-30T09:56:35Z</time>
      </trkpt>
      <trkpt lat="44.88951" lon="-0.68624">
        <ele>15</ele>
        <time>2017-07-30T09:56:37Z</time>
      </trkpt>
      <trkpt lat="44.88947" lon="-0.68608">
        <ele>15</ele>
        <time>2017-07-30T09:56:39Z</time>
      </trkpt>
      <trkpt lat="44.88946" lon="-0.68591">
        <ele>15</ele>
        <time>2017-07-30T09:56:41Z</time>
      </trkpt>
      <trkpt lat="44.88944" lon="-0.68574">
        <ele>15</ele>
        <time>2017-07-30T09:56:43Z</time>
      </trkpt>
      <trkpt lat="44.88942" lon="-0.68557">
        <ele>15</ele>
        <time>2017-07-30T09:56:45Z</time>
      </trkpt>
      <trkpt lat="44.88941" lon="-0.68539">
        <ele>15</ele>
        <time>2017-07-30T09:56:47Z</time>
      </trkpt>
      <trkpt lat="44.88938" lon="-0.6852">
        <ele>16</ele>
        <time>2017-07-30T09:56:49Z</time>
      </trkpt>
      <trkpt lat="44.88936" lon="-0.68504">
        <ele>15</ele>
        <time>2017-07-30T09:56:51Z</time>
      </trkpt>
      <trkpt lat="44.88935" lon="-0.68486">
        <ele>17</ele>
        <time>2017-07-30T09:56:53Z</time>
      </trkpt>
      <trkpt lat="44.88934" lon="-0.6847">
        <ele>17</ele>
        <time>2017-07-30T09:56:55Z</time>
      </trkpt>
      <trkpt lat="44.88932" lon="-0.68451">
        <ele>18</ele>
        <time>2017-07-30T09:56:57Z</time>
      </trkpt>
      <trkpt lat="44.8893" lon="-0.68432">
        <ele>18</ele>
        <time>2017-07-30T09:56:59Z</time>
      </trkpt>
      <trkpt lat="44.88929" lon="-0.68416">
        <ele>19</ele>
        <time>2017-07-30T09:57:01Z</time>
      </trkpt>
      <trkpt lat="44.88929" lon="-0.68397">
        <ele>19</ele>
        <time>2017-07-30T09:57:03Z</time>
      </trkpt>
      <trkpt lat="44.88928" lon="-0.68379">
        <ele>19</ele>
        <time>2017-07-30T09:57:05Z</time>
      </trkpt>
      <trkpt lat="44.88927" lon="-0.68361">
        <ele>19</ele>
        <time>2017-07-30T09:57:07Z</time>
      </trkpt>
      <trkpt lat="44.88925" lon="-0.68346">
        <ele>19</ele>
        <time>2017-07-30T09:57:09Z</time>
      </trkpt>
      <trkpt lat="44.88923" lon="-0.68328">
        <ele>19</ele>
        <time>2017-07-30T09:57:11Z</time>
      </trkpt>
      <trkpt lat="44.88922" lon="-0.68308">
        <ele>19</ele>
        <time>2017-07-30T09:57:13Z</time>
      </trkpt>
      <trkpt lat="44.88922" lon="-0.68289">
        <ele>19</ele>
        <time>2017-07-30T09:57:15Z</time>
      </trkpt>
      <trkpt lat="44.88921" lon="-0.6827">
        <ele>19</ele>
        <time>2017-07-30T09:57:17Z</time>
      </trkpt>
      <trkpt lat="44.8892" lon="-0.68251">
        <ele>18</ele>
        <time>2017-07-30T09:57:19Z</time>
      </trkpt>
      <trkpt lat="44.8892" lon="-0.68233">
        <ele>19</ele>
        <time>2017-07-30T09:57:21Z</time>
      </trkpt>
      <trkpt lat="44.8892" lon="-0.68216">
        <ele>19</ele>
        <time>2017-07-30T09:57:23Z</time>
      </trkpt>
      <trkpt lat="44.88919" lon="-0.68198">
        <ele>19</ele>
        <time>2017-07-30T09:57:25Z</time>
      </trkpt>
      <trkpt lat="44.88919" lon="-0.68179">
        <ele>19</ele>
        <time>2017-07-30T09:57:27Z</time>
      </trkpt>
      <trkpt lat="44.88917" lon="-0.6816">
        <ele>19</ele>
        <time>2017-07-30T09:57:29Z</time>
      </trkpt>
      <trkpt lat="44.88917" lon="-0.6814">
        <ele>19</ele>
        <time>2017-07-30T09:57:31Z</time>
      </trkpt>
      <trkpt lat="44.88916" lon="-0.68123">
        <ele>17</ele>
        <time>2017-07-30T09:57:33Z</time>
      </trkpt>
      <trkpt lat="44.88915" lon="-0.68106">
        <ele>18</ele>
        <time>2017-07-30T09:57:35Z</time>
      </trkpt>
      <trkpt lat="44.88915" lon="-0.68088">
        <ele>19</ele>
        <time>2017-07-30T09:57:37Z</time>
      </trkpt>
      <trkpt lat="44.88915" lon="-0.68069">
        <ele>18</ele>
        <time>2017-07-30T09:57:39Z</time>
      </trkpt>
      <trkpt lat="44.88916" lon="-0.68049">
        <ele>17</ele>
        <time>2017-07-30T09:57:41Z</time>
      </trkpt>
      <trkpt lat="44.88916" lon="-0.6803">
        <ele>17</ele>
        <time>2017-07-30T09:57:43Z</time>
      </trkpt>
      <trkpt lat="44.88915" lon="-0.68012">
        <ele>17</ele>
        <time>2017-07-30T09:57:45Z</time>
      </trkpt>
      <trkpt lat="44.88916" lon="-0.67992">
        <ele>17</ele>
        <time>2017-07-30T09:57:47Z</time>
      </trkpt>
      <trkpt lat="44.88916" lon="-0.67976">
        <ele>16</ele>
        <time>2017-07-30T09:57:49Z</time>
      </trkpt>
      <trkpt lat="44.88916" lon="-0.67958">
        <ele>16</ele>
        <time>2017-07-30T09:57:51Z</time>
      </trkpt>
      <trkpt lat="44.88917" lon="-0.67938">
        <ele>17</ele>
        <time>2017-07-30T09:57:53Z</time>
      </trkpt>
      <trkpt lat="44.88917" lon="-0.67917">
        <ele>16</ele>
        <time>2017-07-30T09:57:55Z</time>
      </trkpt>
      <trkpt lat="44.88917" lon="-0.67898">
        <ele>16</ele>
        <time>2017-07-30T09:57:57Z</time>
      </trkpt>
      <trkpt lat="44.88918" lon="-0.67881">
        <ele>16</ele>
        <time>2017-07-30T09:57:59Z</time>
      </trkpt>
      <trkpt lat="44.88917" lon="-0.67863">
        <ele>16</ele>
        <time>2017-07-30T09:58:01Z</time>
      </trkpt>
      <trkpt lat="44.88917" lon="-0.67844">
        <ele>16</ele>
        <time>2017-07-30T09:58:03Z</time>
      </trkpt>
      <trkpt lat="44.88918" lon="-0.67825">
        <ele>16</ele>
        <time>2017-07-30T09:58:05Z</time>
      </trkpt>
      <trkpt lat="44.88919" lon="-0.67805">
        <ele>16</ele>
        <time>2017-07-30T09:58:07Z</time>
      </trkpt>
      <trkpt lat="44.88919" lon="-0.67787">
        <ele>16</ele>
        <time>2017-07-30T09:58:09Z</time>
      </trkpt>
      <trkpt lat="44.88919" lon="-0.67769">
        <ele>16</ele>
        <time>2017-07-30T09:58:11Z</time>
      </trkpt>
      <trkpt lat="44.8892" lon="-0.67752">
        <ele>17</ele>
        <time>2017-07-30T09:58:13Z</time>
      </trkpt>
      <trkpt lat="44.88921" lon="-0.67733">
        <ele>17</ele>
        <time>2017-07-30T09:58:15Z</time>
      </trkpt>
      <trkpt lat="44.88922" lon="-0.67715">
        <ele>17</ele>
        <time>2017-07-30T09:58:17Z</time>
      </trkpt>
      <trkpt lat="44.88923" lon="-0.67697">
        <ele>17</ele>
        <time>2017-07-30T09:58:19Z</time>
      </trkpt>
      <trkpt lat="44.88924" lon="-0.67678">
        <ele>18</ele>
        <time>2017-07-30T09:58:21Z</time>
      </trkpt>
      <trkpt lat="44.88925" lon="-0.6766">
        <ele>19</ele>
        <time>2017-07-30T09:58:23Z</time>
      </trkpt>
      <trkpt lat="44.88925" lon="-0.67642">
        <ele>19</ele>
        <time>2017-07-30T09:58:25Z</time>
      </trkpt>
      <trkpt lat="44.88926" lon="-0.67624">
        <ele>19</ele>
        <time>2017-07-30T09:58:27Z</time>
      </trkpt>
      <trkpt lat="44.88927" lon="-0.67606">
        <ele>19</ele>
        <time>2017-07-30T09:58:29Z</time>
      </trkpt>
      <trkpt lat="44.88929" lon="-0.67587">
        <ele>19</ele>
        <time>2017-07-30T09:58:31Z</time>
      </trkpt>
      <trkpt lat="44.88931" lon="-0.67568">
        <ele>18</ele>
        <time>2017-07-30T09:58:33Z</time>
      </trkpt>
      <trkpt lat="44.88932" lon="-0.67549">
        <ele>17</ele>
        <time>2017-07-30T09:58:35Z</time>
      </trkpt>
      <trkpt lat="44.88933" lon="-0.67532">
        <ele>17</ele>
        <time>2017-07-30T09:58:37Z</time>
      </trkpt>
      <trkpt lat="44.88934" lon="-0.67513">
        <ele>16</ele>
        <time>2017-07-30T09:58:39Z</time>
      </trkpt>
      <trkpt lat="44.88936" lon="-0.67495">
        <ele>15</ele>
        <time>2017-07-30T09:58:41Z</time>
      </trkpt>
      <trkpt lat="44.88936" lon="-0.6748">
        <ele>15</ele>
        <time>2017-07-30T09:58:43Z</time>
      </trkpt>
      <trkpt lat="44.88937" lon="-0.67465">
        <ele>15</ele>
        <time>2017-07-30T09:58:45Z</time>
      </trkpt>
      <trkpt lat="44.88937" lon="-0.67449">
        <ele>15</ele>
        <time>2017-07-30T09:58:47Z</time>
      </trkpt>
      <trkpt lat="44.88937" lon="-0.67436">
        <ele>15</ele>
        <time>2017-07-30T09:58:49Z</time>
      </trkpt>
      <trkpt lat="44.88937" lon="-0.67428">
        <ele>15</ele>
        <time>2017-07-30T09:58:51Z</time>
      </trkpt>
      <trkpt lat="44.88938" lon="-0.67419">
        <ele>15</ele>
        <time>2017-07-30T09:58:53Z</time>
      </trkpt>
      <trkpt lat="44.88939" lon="-0.67408">
        <ele>14</ele>
        <time>2017-07-30T09:58:55Z</time>
      </trkpt>
      <trkpt lat="44.8894" lon="-0.67396">
        <ele>14</ele>
        <time>2017-07-30T09:58:57Z</time>
      </trkpt>
      <trkpt lat="44.8894" lon="-0.67383">
        <ele>14</ele>
        <time>2017-07-30T09:58:59Z</time>
      </trkpt>
      <trkpt lat="44.88941" lon="-0.67371">
        <ele>14</ele>
        <time>2017-07-30T09:59:01Z</time>
      </trkpt>
      <trkpt lat="44.88942" lon="-0.67355">
        <ele>14</ele>
        <time>2017-07-30T09:59:03Z</time>
      </trkpt>
      <trkpt lat="44.88942" lon="-0.67338">
        <ele>15</ele>
        <time>2017-07-30T09:59:05Z</time>
      </trkpt>
      <trkpt lat="44.88942" lon="-0.67322">
        <ele>15</ele>
        <time>2017-07-30T09:59:07Z</time>
      </trkpt>
      <trkpt lat="44.88943" lon="-0.67305">
        <ele>15</ele>
        <time>2017-07-30T09:59:09Z</time>
      </trkpt>
      <trkpt lat="44.88943" lon="-0.67289">
        <ele>14</ele>
        <time>2017-07-30T09:59:11Z</time>
      </trkpt>
      <trkpt lat="44.88944" lon="-0.67272">
        <ele>14</ele>
        <time>2017-07-30T09:59:13Z</time>
      </trkpt>
      <trkpt lat="44.88944" lon="-0.67255">
        <ele>14</ele>
        <time>2017-07-30T09:59:15Z</time>
      </trkpt>
      <trkpt lat="44.88945" lon="-0.67238">
        <ele>14</ele>
        <time>2017-07-30T09:59:17Z</time>
      </trkpt>
      <trkpt lat="44.88945" lon="-0.67221">
        <ele>14</ele>
        <time>2017-07-30T09:59:19Z</time>
      </trkpt>
      <trkpt lat="44.88946" lon="-0.67203">
        <ele>14</ele>
        <time>2017-07-30T09:59:21Z</time>
      </trkpt>
      <trkpt lat="44.88947" lon="-0.67186">
        <ele>14</ele>
        <time>2017-07-30T09:59:23Z</time>
      </trkpt>
      <trkpt lat="44.88948" lon="-0.67168">
        <ele>14</ele>
        <time>2017-07-30T09:59:25Z</time>
      </trkpt>
      <trkpt lat="44.88948" lon="-0.67151">
        <ele>13</ele>
        <time>2017-07-30T09:59:27Z</time>
      </trkpt>
      <trkpt lat="44.88949" lon="-0.67134">
        <ele>13</ele>
        <time>2017-07-30T09:59:29Z</time>
      </trkpt>
      <trkpt lat="44.88948" lon="-0.67116">
        <ele>13</ele>
        <time>2017-07-30T09:59:31Z</time>
      </trkpt>
      <trkpt lat="44.88948" lon="-0.67099">
        <ele>13</ele>
        <time>2017-07-30T09:59:33Z</time>
      </trkpt>
      <trkpt lat="44.88948" lon="-0.67081">
        <ele>13</ele>
        <time>2017-07-30T09:59:35Z</time>
      </trkpt>
      <trkpt lat="44.88949" lon="-0.67065">
        <ele>13</ele>
        <time>2017-07-30T09:59:37Z</time>
      </trkpt>
      <trkpt lat="44.8895" lon="-0.67047">
        <ele>13</ele>
        <time>2017-07-30T09:59:39Z</time>
      </trkpt>
      <trkpt lat="44.88951" lon="-0.67032">
        <ele>13</ele>
        <time>2017-07-30T09:59:41Z</time>
      </trkpt>
      <trkpt lat="44.88951" lon="-0.67016">
        <ele>13</ele>
        <time>2017-07-30T09:59:43Z</time>
      </trkpt>
      <trkpt lat="44.88952" lon="-0.66999">
        <ele>14</ele>
        <time>2017-07-30T09:59:45Z</time>
      </trkpt>
      <trkpt lat="44.88954" lon="-0.66981">
        <ele>14</ele>
        <time>2017-07-30T09:59:47Z</time>
      </trkpt>
      <trkpt lat="44.88955" lon="-0.66963">
        <ele>14</ele>
        <time>2017-07-30T09:59:49Z</time>
      </trkpt>
      <trkpt lat="44.88956" lon="-0.66944">
        <ele>14</ele>
        <time>2017-07-30T09:59:51Z</time>
      </trkpt>
      <trkpt lat="44.8896" lon="-0.66923">
        <ele>14</ele>
        <time>2017-07-30T09:59:54Z</time>
      </trkpt>
      <trkpt lat="44.88966" lon="-0.66888">
        <ele>14</ele>
        <time>2017-07-30T09:59:59Z</time>
      </trkpt>
      <trkpt lat="44.88964" lon="-0.66869">
        <ele>14</ele>
        <time>2017-07-30T10:00:01Z</time>
      </trkpt>
      <trkpt lat="44.88961" lon="-0.66853">
        <ele>14</ele>
        <time>2017-07-30T10:00:03Z</time>
      </trkpt>
      <trkpt lat="44.88957" lon="-0.66841">
        <ele>14</ele>
        <time>2017-07-30T10:00:05Z</time>
      </trkpt>
      <trkpt lat="44.88949" lon="-0.6683">
        <ele>13</ele>
        <time>2017-07-30T10:00:07Z</time>
      </trkpt>
      <trkpt lat="44.88941" lon="-0.66822">
        <ele>13</ele>
        <time>2017-07-30T10:00:09Z</time>
      </trkpt>
      <trkpt lat="44.88931" lon="-0.66815">
        <ele>13</ele>
        <time>2017-07-30T10:00:11Z</time>
      </trkpt>
      <trkpt lat="44.88921" lon="-0.66806">
        <ele>13</ele>
        <time>2017-07-30T10:00:13Z</time>
      </trkpt>
      <trkpt lat="44.8891" lon="-0.66798">
        <ele>14</ele>
        <time>2017-07-30T10:00:15Z</time>
      </trkpt>
      <trkpt lat="44.889" lon="-0.66789">
        <ele>14</ele>
        <time>2017-07-30T10:00:17Z</time>
      </trkpt>
      <trkpt lat="44.8889" lon="-0.6678">
        <ele>14</ele>
        <time>2017-07-30T10:00:19Z</time>
      </trkpt>
      <trkpt lat="44.8888" lon="-0.66771">
        <ele>14</ele>
        <time>2017-07-30T10:00:21Z</time>
      </trkpt>
      <trkpt lat="44.8887" lon="-0.66762">
        <ele>14</ele>
        <time>2017-07-30T10:00:23Z</time>
      </trkpt>
      <trkpt lat="44.8886" lon="-0.66752">
        <ele>14</ele>
        <time>2017-07-30T10:00:25Z</time>
      </trkpt>
      <trkpt lat="44.88851" lon="-0.66742">
        <ele>14</ele>
        <time>2017-07-30T10:00:27Z</time>
      </trkpt>
      <trkpt lat="44.88841" lon="-0.66733">
        <ele>14</ele>
        <time>2017-07-30T10:00:29Z</time>
      </trkpt>
      <trkpt lat="44.88832" lon="-0.66724">
        <ele>16</ele>
        <time>2017-07-30T10:00:31Z</time>
      </trkpt>
      <trkpt lat="44.88823" lon="-0.66714">
        <ele>16</ele>
        <time>2017-07-30T10:00:33Z</time>
      </trkpt>
      <trkpt lat="44.88814" lon="-0.66705">
        <ele>16</ele>
        <time>2017-07-30T10:00:35Z</time>
      </trkpt>
      <trkpt lat="44.88805" lon="-0.66697">
        <ele>16</ele>
        <time>2017-07-30T10:00:37Z</time>
      </trkpt>
      <trkpt lat="44.88796" lon="-0.66689">
        <ele>17</ele>
        <time>2017-07-30T10:00:39Z</time>
      </trkpt>
      <trkpt lat="44.88787" lon="-0.66683">
        <ele>17</ele>
        <time>2017-07-30T10:00:41Z</time>
      </trkpt>
      <trkpt lat="44.88779" lon="-0.66676">
        <ele>17</ele>
        <time>2017-07-30T10:00:43Z</time>
      </trkpt>
      <trkpt lat="44.88772" lon="-0.6667">
        <ele>18</ele>
        <time>2017-07-30T10:00:45Z</time>
      </trkpt>
      <trkpt lat="44.88764" lon="-0.66665">
        <ele>19</ele>
        <time>2017-07-30T10:00:47Z</time>
      </trkpt>
      <trkpt lat="44.88756" lon="-0.6666">
        <ele>19</ele>
        <time>2017-07-30T10:00:49Z</time>
      </trkpt>
      <trkpt lat="44.88749" lon="-0.66654">
        <ele>21</ele>
        <time>2017-07-30T10:00:51Z</time>
      </trkpt>
      <trkpt lat="44.88743" lon="-0.66649">
        <ele>21</ele>
        <time>2017-07-30T10:00:53Z</time>
      </trkpt>
      <trkpt lat="44.88737" lon="-0.66644">
        <ele>21</ele>
        <time>2017-07-30T10:00:55Z</time>
      </trkpt>
      <trkpt lat="44.88731" lon="-0.66639">
        <ele>21</ele>
        <time>2017-07-30T10:00:57Z</time>
      </trkpt>
      <trkpt lat="44.88725" lon="-0.66634">
        <ele>22</ele>
        <time>2017-07-30T10:00:59Z</time>
      </trkpt>
      <trkpt lat="44.88719" lon="-0.66628">
        <ele>22</ele>
        <time>2017-07-30T10:01:01Z</time>
      </trkpt>
      <trkpt lat="44.88713" lon="-0.66623">
        <ele>22</ele>
        <time>2017-07-30T10:01:03Z</time>
      </trkpt>
      <trkpt lat="44.88706" lon="-0.66616">
        <ele>22</ele>
        <time>2017-07-30T10:01:05Z</time>
      </trkpt>
      <trkpt lat="44.88699" lon="-0.66609">
        <ele>22</ele>
        <time>2017-07-30T10:01:07Z</time>
      </trkpt>
      <trkpt lat="44.88692" lon="-0.66603">
        <ele>23</ele>
        <time>2017-07-30T10:01:09Z</time>
      </trkpt>
      <trkpt lat="44.88685" lon="-0.66597">
        <ele>23</ele>
        <time>2017-07-30T10:01:11Z</time>
      </trkpt>
      <trkpt lat="44.88677" lon="-0.66589">
        <ele>23</ele>
        <time>2017-07-30T10:01:12Z</time>
      </trkpt>
      <trkpt lat="44.88668" lon="-0.66582">
        <ele>24</ele>
        <time>2017-07-30T10:01:14Z</time>
      </trkpt>
      <trkpt lat="44.8866" lon="-0.66574">
        <ele>24</ele>
        <time>2017-07-30T10:01:16Z</time>
      </trkpt>
      <trkpt lat="44.88651" lon="-0.66565">
        <ele>24</ele>
        <time>2017-07-30T10:01:18Z</time>
      </trkpt>
      <trkpt lat="44.88643" lon="-0.66557">
        <ele>24</ele>
        <time>2017-07-30T10:01:20Z</time>
      </trkpt>
      <trkpt lat="44.88634" lon="-0.66548">
        <ele>24</ele>
        <time>2017-07-30T10:01:22Z</time>
      </trkpt>
      <trkpt lat="44.88624" lon="-0.66537">
        <ele>23</ele>
        <time>2017-07-30T10:01:24Z</time>
      </trkpt>
      <trkpt lat="44.88615" lon="-0.66529">
        <ele>23</ele>
        <time>2017-07-30T10:01:26Z</time>
      </trkpt>
      <trkpt lat="44.88605" lon="-0.66521">
        <ele>23</ele>
        <time>2017-07-30T10:01:28Z</time>
      </trkpt>
      <trkpt lat="44.88595" lon="-0.66511">
        <ele>23</ele>
        <time>2017-07-30T10:01:30Z</time>
      </trkpt>
      <trkpt lat="44.88585" lon="-0.665">
        <ele>23</ele>
        <time>2017-07-30T10:01:32Z</time>
      </trkpt>
      <trkpt lat="44.88575" lon="-0.6649">
        <ele>23</ele>
        <time>2017-07-30T10:01:34Z</time>
      </trkpt>
      <trkpt lat="44.88564" lon="-0.6648">
        <ele>22</ele>
        <time>2017-07-30T10:01:36Z</time>
      </trkpt>
      <trkpt lat="44.88554" lon="-0.6647">
        <ele>22</ele>
        <time>2017-07-30T10:01:38Z</time>
      </trkpt>
      <trkpt lat="44.88543" lon="-0.66459">
        <ele>22</ele>
        <time>2017-07-30T10:01:40Z</time>
      </trkpt>
      <trkpt lat="44.88532" lon="-0.66448">
        <ele>22</ele>
        <time>2017-07-30T10:01:42Z</time>
      </trkpt>
      <trkpt lat="44.88522" lon="-0.66435">
        <ele>22</ele>
        <time>2017-07-30T10:01:44Z</time>
      </trkpt>
      <trkpt lat="44.88514" lon="-0.66418">
        <ele>22</ele>
        <time>2017-07-30T10:01:46Z</time>
      </trkpt>
      <trkpt lat="44.88507" lon="-0.66401">
        <ele>22</ele>
        <time>2017-07-30T10:01:48Z</time>
      </trkpt>
      <trkpt lat="44.88501" lon="-0.66384">
        <ele>22</ele>
        <time>2017-07-30T10:01:50Z</time>
      </trkpt>
      <trkpt lat="44.88496" lon="-0.66367">
        <ele>22</ele>
        <time>2017-07-30T10:01:52Z</time>
      </trkpt>
      <trkpt lat="44.8849" lon="-0.66349">
        <ele>22</ele>
        <time>2017-07-30T10:01:54Z</time>
      </trkpt>
      <trkpt lat="44.88485" lon="-0.66332">
        <ele>22</ele>
        <time>2017-07-30T10:01:56Z</time>
      </trkpt>
      <trkpt lat="44.8848" lon="-0.66315">
        <ele>23</ele>
        <time>2017-07-30T10:01:58Z</time>
      </trkpt>
      <trkpt lat="44.88475" lon="-0.663">
        <ele>23</ele>
        <time>2017-07-30T10:02:00Z</time>
      </trkpt>
      <trkpt lat="44.88471" lon="-0.66286">
        <ele>23</ele>
        <time>2017-07-30T10:02:02Z</time>
      </trkpt>
      <trkpt lat="44.88467" lon="-0.66271">
        <ele>23</ele>
        <time>2017-07-30T10:02:04Z</time>
      </trkpt>
      <trkpt lat="44.88463" lon="-0.66255">
        <ele>23</ele>
        <time>2017-07-30T10:02:06Z</time>
      </trkpt>
      <trkpt lat="44.8846" lon="-0.66241">
        <ele>23</ele>
        <time>2017-07-30T10:02:08Z</time>
      </trkpt>
      <trkpt lat="44.88456" lon="-0.66226">
        <ele>22</ele>
        <time>2017-07-30T10:02:10Z</time>
      </trkpt>
      <trkpt lat="44.88451" lon="-0.66223">
        <ele>22</ele>
        <time>2017-07-30T10:02:12Z</time>
      </trkpt>
      <trkpt lat="44.88447" lon="-0.66224">
        <ele>22</ele>
        <time>2017-07-30T10:02:14Z</time>
      </trkpt>
      <trkpt lat="44.88441" lon="-0.66225">
        <ele>22</ele>
        <time>2017-07-30T10:02:16Z</time>
      </trkpt>
      <trkpt lat="44.88433" lon="-0.66224">
        <ele>22</ele>
        <time>2017-07-30T10:02:18Z</time>
      </trkpt>
      <trkpt lat="44.88425" lon="-0.66228">
        <ele>22</ele>
        <time>2017-07-30T10:02:20Z</time>
      </trkpt>
      <trkpt lat="44.88421" lon="-0.66241">
        <ele>23</ele>
        <time>2017-07-30T10:02:22Z</time>
      </trkpt>
      <trkpt lat="44.88418" lon="-0.66254">
        <ele>23</ele>
        <time>2017-07-30T10:02:24Z</time>
      </trkpt>
      <trkpt lat="44.88414" lon="-0.66269">
        <ele>23</ele>
        <time>2017-07-30T10:02:26Z</time>
      </trkpt>
      <trkpt lat="44.88411" lon="-0.66285">
        <ele>23</ele>
        <time>2017-07-30T10:02:28Z</time>
      </trkpt>
      <trkpt lat="44.88408" lon="-0.66301">
        <ele>23</ele>
        <time>2017-07-30T10:02:30Z</time>
      </trkpt>
      <trkpt lat="44.88398" lon="-0.66312">
        <ele>23</ele>
        <time>2017-07-30T10:02:32Z</time>
      </trkpt>
      <trkpt lat="44.88387" lon="-0.66317">
        <ele>23</ele>
        <time>2017-07-30T10:02:34Z</time>
      </trkpt>
      <trkpt lat="44.88375" lon="-0.66313">
        <ele>23</ele>
        <time>2017-07-30T10:02:36Z</time>
      </trkpt>
      <trkpt lat="44.88364" lon="-0.66307">
        <ele>24</ele>
        <time>2017-07-30T10:02:38Z</time>
      </trkpt>
      <trkpt lat="44.88352" lon="-0.66301">
        <ele>24</ele>
        <time>2017-07-30T10:02:40Z</time>
      </trkpt>
      <trkpt lat="44.88341" lon="-0.66295">
        <ele>24</ele>
        <time>2017-07-30T10:02:42Z</time>
      </trkpt>
      <trkpt lat="44.88329" lon="-0.66289">
        <ele>25</ele>
        <time>2017-07-30T10:02:44Z</time>
      </trkpt>
      <trkpt lat="44.88317" lon="-0.66284">
        <ele>25</ele>
        <time>2017-07-30T10:02:46Z</time>
      </trkpt>
      <trkpt lat="44.88306" lon="-0.66278">
        <ele>26</ele>
        <time>2017-07-30T10:02:48Z</time>
      </trkpt>
      <trkpt lat="44.88295" lon="-0.66273">
        <ele>26</ele>
        <time>2017-07-30T10:02:50Z</time>
      </trkpt>
      <trkpt lat="44.88284" lon="-0.66267">
        <ele>26</ele>
        <time>2017-07-30T10:02:52Z</time>
      </trkpt>
      <trkpt lat="44.88273" lon="-0.66262">
        <ele>27</ele>
        <time>2017-07-30T10:02:54Z</time>
      </trkpt>
      <trkpt lat="44.88262" lon="-0.66256">
        <ele>27</ele>
        <time>2017-07-30T10:02:56Z</time>
      </trkpt>
      <trkpt lat="44.88252" lon="-0.66251">
        <ele>28</ele>
        <time>2017-07-30T10:02:58Z</time>
      </trkpt>
      <trkpt lat="44.88242" lon="-0.66246">
        <ele>28</ele>
        <time>2017-07-30T10:03:00Z</time>
      </trkpt>
      <trkpt lat="44.88233" lon="-0.66241">
        <ele>28</ele>
        <time>2017-07-30T10:03:02Z</time>
      </trkpt>
      <trkpt lat="44.88223" lon="-0.66235">
        <ele>28</ele>
        <time>2017-07-30T10:03:04Z</time>
      </trkpt>
      <trkpt lat="44.88213" lon="-0.6623">
        <ele>28</ele>
        <time>2017-07-30T10:03:06Z</time>
      </trkpt>
      <trkpt lat="44.88203" lon="-0.66225">
        <ele>29</ele>
        <time>2017-07-30T10:03:08Z</time>
      </trkpt>
      <trkpt lat="44.88194" lon="-0.6622">
        <ele>29</ele>
        <time>2017-07-30T10:03:10Z</time>
      </trkpt>
      <trkpt lat="44.88184" lon="-0.66215">
        <ele>29</ele>
        <time>2017-07-30T10:03:12Z</time>
      </trkpt>
      <trkpt lat="44.88174" lon="-0.66212">
        <ele>29</ele>
        <time>2017-07-30T10:03:14Z</time>
      </trkpt>
      <trkpt lat="44.88164" lon="-0.66208">
        <ele>29</ele>
        <time>2017-07-30T10:03:16Z</time>
      </trkpt>
      <trkpt lat="44.88152" lon="-0.66205">
        <ele>29</ele>
        <time>2017-07-30T10:03:18Z</time>
      </trkpt>
      <trkpt lat="44.88142" lon="-0.66202">
        <ele>29</ele>
        <time>2017-07-30T10:03:20Z</time>
      </trkpt>
      <trkpt lat="44.88131" lon="-0.66199">
        <ele>29</ele>
        <time>2017-07-30T10:03:22Z</time>
      </trkpt>
      <trkpt lat="44.8812" lon="-0.66196">
        <ele>29</ele>
        <time>2017-07-30T10:03:24Z</time>
      </trkpt>
      <trkpt lat="44.88111" lon="-0.66194">
        <ele>29</ele>
        <time>2017-07-30T10:03:26Z</time>
      </trkpt>
      <trkpt lat="44.88101" lon="-0.66192">
        <ele>29</ele>
        <time>2017-07-30T10:03:28Z</time>
      </trkpt>
      <trkpt lat="44.88091" lon="-0.66188">
        <ele>29</ele>
        <time>2017-07-30T10:03:30Z</time>
      </trkpt>
      <trkpt lat="44.88082" lon="-0.66182">
        <ele>30</ele>
        <time>2017-07-30T10:03:32Z</time>
      </trkpt>
      <trkpt lat="44.88072" lon="-0.66175">
        <ele>30</ele>
        <time>2017-07-30T10:03:34Z</time>
      </trkpt>
      <trkpt lat="44.88062" lon="-0.6617">
        <ele>30</ele>
        <time>2017-07-30T10:03:36Z</time>
      </trkpt>
      <trkpt lat="44.88051" lon="-0.66165">
        <ele>29</ele>
        <time>2017-07-30T10:03:38Z</time>
      </trkpt>
      <trkpt lat="44.88041" lon="-0.66161">
        <ele>29</ele>
        <time>2017-07-30T10:03:40Z</time>
      </trkpt>
      <trkpt lat="44.8803" lon="-0.66157">
        <ele>29</ele>
        <time>2017-07-30T10:03:42Z</time>
      </trkpt>
      <trkpt lat="44.88019" lon="-0.66152">
        <ele>29</ele>
        <time>2017-07-30T10:03:44Z</time>
      </trkpt>
      <trkpt lat="44.88009" lon="-0.66149">
        <ele>29</ele>
        <time>2017-07-30T10:03:46Z</time>
      </trkpt>
      <trkpt lat="44.87998" lon="-0.66146">
        <ele>30</ele>
        <time>2017-07-30T10:03:48Z</time>
      </trkpt>
      <trkpt lat="44.87989" lon="-0.66142">
        <ele>30</ele>
        <time>2017-07-30T10:03:50Z</time>
      </trkpt>
      <trkpt lat="44.87979" lon="-0.6614">
        <ele>30</ele>
        <time>2017-07-30T10:03:52Z</time>
      </trkpt>
      <trkpt lat="44.87968" lon="-0.66136">
        <ele>30</ele>
        <time>2017-07-30T10:03:54Z</time>
      </trkpt>
      <trkpt lat="44.87959" lon="-0.66132">
        <ele>30</ele>
        <time>2017-07-30T10:03:56Z</time>
      </trkpt>
      <trkpt lat="44.87948" lon="-0.66129">
        <ele>30</ele>
        <time>2017-07-30T10:03:58Z</time>
      </trkpt>
      <trkpt lat="44.8794" lon="-0.66123">
        <ele>30</ele>
        <time>2017-07-30T10:04:00Z</time>
      </trkpt>
      <trkpt lat="44.87935" lon="-0.66114">
        <ele>30</ele>
        <time>2017-07-30T10:04:02Z</time>
      </trkpt>
      <trkpt lat="44.87933" lon="-0.66105">
        <ele>30</ele>
        <time>2017-07-30T10:04:04Z</time>
      </trkpt>
      <trkpt lat="44.87931" lon="-0.66097">
        <ele>30</ele>
        <time>2017-07-30T10:04:06Z</time>
      </trkpt>
      <trkpt lat="44.87933" lon="-0.66088">
        <ele>30</ele>
        <time>2017-07-30T10:04:08Z</time>
      </trkpt>
      <trkpt lat="44.87937" lon="-0.66078">
        <ele>29</ele>
        <time>2017-07-30T10:04:10Z</time>
      </trkpt>
      <trkpt lat="44.87937" lon="-0.66064">
        <ele>29</ele>
        <time>2017-07-30T10:04:12Z</time>
      </trkpt>
      <trkpt lat="44.87931" lon="-0.66051">
        <ele>29</ele>
        <time>2017-07-30T10:04:14Z</time>
      </trkpt>
      <trkpt lat="44.87925" lon="-0.66041">
        <ele>29</ele>
        <time>2017-07-30T10:04:16Z</time>
      </trkpt>
      <trkpt lat="44.87916" lon="-0.66036">
        <ele>31</ele>
        <time>2017-07-30T10:04:18Z</time>
      </trkpt>
      <trkpt lat="44.87909" lon="-0.66039">
        <ele>31</ele>
        <time>2017-07-30T10:04:20Z</time>
      </trkpt>
      <trkpt lat="44.879" lon="-0.66039">
        <ele>31</ele>
        <time>2017-07-30T10:04:22Z</time>
      </trkpt>
      <trkpt lat="44.87889" lon="-0.66042">
        <ele>31</ele>
        <time>2017-07-30T10:04:24Z</time>
      </trkpt>
      <trkpt lat="44.87879" lon="-0.66047">
        <ele>32</ele>
        <time>2017-07-30T10:04:26Z</time>
      </trkpt>
      <trkpt lat="44.8787" lon="-0.6605">
        <ele>32</ele>
        <time>2017-07-30T10:04:28Z</time>
      </trkpt>
      <trkpt lat="44.8786" lon="-0.66054">
        <ele>32</ele>
        <time>2017-07-30T10:04:30Z</time>
      </trkpt>
      <trkpt lat="44.8785" lon="-0.66057">
        <ele>32</ele>
        <time>2017-07-30T10:04:32Z</time>
      </trkpt>
      <trkpt lat="44.8784" lon="-0.6606">
        <ele>33</ele>
        <time>2017-07-30T10:04:34Z</time>
      </trkpt>
      <trkpt lat="44.8783" lon="-0.66063">
        <ele>33</ele>
        <time>2017-07-30T10:04:36Z</time>
      </trkpt>
      <trkpt lat="44.87819" lon="-0.66064">
        <ele>33</ele>
        <time>2017-07-30T10:04:38Z</time>
      </trkpt>
      <trkpt lat="44.87812" lon="-0.66058">
        <ele>33</ele>
        <time>2017-07-30T10:04:40Z</time>
      </trkpt>
      <trkpt lat="44.87808" lon="-0.66046">
        <ele>33</ele>
        <time>2017-07-30T10:04:42Z</time>
      </trkpt>
      <trkpt lat="44.87803" lon="-0.66031">
        <ele>33</ele>
        <time>2017-07-30T10:04:44Z</time>
      </trkpt>
      <trkpt lat="44.87798" lon="-0.66012">
        <ele>33</ele>
        <time>2017-07-30T10:04:46Z</time>
      </trkpt>
      <trkpt lat="44.87794" lon="-0.65993">
        <ele>33</ele>
        <time>2017-07-30T10:04:48Z</time>
      </trkpt>
      <trkpt lat="44.8779" lon="-0.65974">
        <ele>33</ele>
        <time>2017-07-30T10:04:50Z</time>
      </trkpt>
      <trkpt lat="44.87787" lon="-0.65953">
        <ele>33</ele>
        <time>2017-07-30T10:04:52Z</time>
      </trkpt>
      <trkpt lat="44.87783" lon="-0.65931">
        <ele>33</ele>
        <time>2017-07-30T10:04:54Z</time>
      </trkpt>
      <trkpt lat="44.87778" lon="-0.6591">
        <ele>33</ele>
        <time>2017-07-30T10:04:56Z</time>
      </trkpt>
      <trkpt lat="44.87773" lon="-0.6589">
        <ele>33</ele>
        <time>2017-07-30T10:04:58Z</time>
      </trkpt>
      <trkpt lat="44.87767" lon="-0.65869">
        <ele>33</ele>
        <time>2017-07-30T10:05:00Z</time>
      </trkpt>
      <trkpt lat="44.8776" lon="-0.65851">
        <ele>33</ele>
        <time>2017-07-30T10:05:02Z</time>
      </trkpt>
      <trkpt lat="44.8775" lon="-0.65835">
        <ele>34</ele>
        <time>2017-07-30T10:05:04Z</time>
      </trkpt>
      <trkpt lat="44.87743" lon="-0.6582">
        <ele>34</ele>
        <time>2017-07-30T10:05:06Z</time>
      </trkpt>
      <trkpt lat="44.87737" lon="-0.65802">
        <ele>34</ele>
        <time>2017-07-30T10:05:08Z</time>
      </trkpt>
      <trkpt lat="44.87733" lon="-0.65789">
        <ele>34</ele>
        <time>2017-07-30T10:05:10Z</time>
      </trkpt>
      <trkpt lat="44.87729" lon="-0.65782">
        <ele>33</ele>
        <time>2017-07-30T10:05:14Z</time>
      </trkpt>
      <trkpt lat="44.87727" lon="-0.65765">
        <ele>33</ele>
        <time>2017-07-30T10:05:18Z</time>
      </trkpt>
      <trkpt lat="44.87724" lon="-0.65754">
        <ele>33</ele>
        <time>2017-07-30T10:05:20Z</time>
      </trkpt>
      <trkpt lat="44.87721" lon="-0.65743">
        <ele>33</ele>
        <time>2017-07-30T10:05:22Z</time>
      </trkpt>
      <trkpt lat="44.87718" lon="-0.65732">
        <ele>33</ele>
        <time>2017-07-30T10:05:24Z</time>
      </trkpt>
      <trkpt lat="44.87716" lon="-0.65719">
        <ele>33</ele>
        <time>2017-07-30T10:05:26Z</time>
      </trkpt>
      <trkpt lat="44.87713" lon="-0.65704">
        <ele>33</ele>
        <time>2017-07-30T10:05:28Z</time>
      </trkpt>
      <trkpt lat="44.87711" lon="-0.6569">
        <ele>33</ele>
        <time>2017-07-30T10:05:30Z</time>
      </trkpt>
      <trkpt lat="44.87708" lon="-0.65677">
        <ele>33</ele>
        <time>2017-07-30T10:05:32Z</time>
      </trkpt>
      <trkpt lat="44.87705" lon="-0.65661">
        <ele>33</ele>
        <time>2017-07-30T10:05:34Z</time>
      </trkpt>
      <trkpt lat="44.87703" lon="-0.65647">
        <ele>32</ele>
        <time>2017-07-30T10:05:36Z</time>
      </trkpt>
      <trkpt lat="44.877" lon="-0.65632">
        <ele>32</ele>
        <time>2017-07-30T10:05:38Z</time>
      </trkpt>
      <trkpt lat="44.87697" lon="-0.65617">
        <ele>32</ele>
        <time>2017-07-30T10:05:40Z</time>
      </trkpt>
      <trkpt lat="44.87694" lon="-0.65602">
        <ele>32</ele>
        <time>2017-07-30T10:05:42Z</time>
      </trkpt>
      <trkpt lat="44.87691" lon="-0.65585">
        <ele>32</ele>
        <time>2017-07-30T10:05:44Z</time>
      </trkpt>
      <trkpt lat="44.87688" lon="-0.65566">
        <ele>30</ele>
        <time>2017-07-30T10:05:46Z</time>
      </trkpt>
      <trkpt lat="44.87684" lon="-0.65548">
        <ele>30</ele>
        <time>2017-07-30T10:05:48Z</time>
      </trkpt>
      <trkpt lat="44.87681" lon="-0.65529">
        <ele>30</ele>
        <time>2017-07-30T10:05:50Z</time>
      </trkpt>
      <trkpt lat="44.87678" lon="-0.65509">
        <ele>29</ele>
        <time>2017-07-30T10:05:52Z</time>
      </trkpt>
      <trkpt lat="44.87675" lon="-0.65491">
        <ele>29</ele>
        <time>2017-07-30T10:05:54Z</time>
      </trkpt>
      <trkpt lat="44.87672" lon="-0.65475">
        <ele>29</ele>
        <time>2017-07-30T10:05:56Z</time>
      </trkpt>
      <trkpt lat="44.87669" lon="-0.65458">
        <ele>29</ele>
        <time>2017-07-30T10:05:58Z</time>
      </trkpt>
      <trkpt lat="44.87666" lon="-0.65443">
        <ele>30</ele>
        <time>2017-07-30T10:06:00Z</time>
      </trkpt>
      <trkpt lat="44.87664" lon="-0.65429">
        <ele>30</ele>
        <time>2017-07-30T10:06:02Z</time>
      </trkpt>
      <trkpt lat="44.87662" lon="-0.65415">
        <ele>30</ele>
        <time>2017-07-30T10:06:04Z</time>
      </trkpt>
      <trkpt lat="44.87659" lon="-0.65401">
        <ele>31</ele>
        <time>2017-07-30T10:06:06Z</time>
      </trkpt>
      <trkpt lat="44.87657" lon="-0.65389">
        <ele>32</ele>
        <time>2017-07-30T10:06:08Z</time>
      </trkpt>
      <trkpt lat="44.87655" lon="-0.65376">
        <ele>32</ele>
        <time>2017-07-30T10:06:10Z</time>
      </trkpt>
      <trkpt lat="44.87653" lon="-0.65364">
        <ele>33</ele>
        <time>2017-07-30T10:06:12Z</time>
      </trkpt>
      <trkpt lat="44.87652" lon="-0.6535">
        <ele>33</ele>
        <time>2017-07-30T10:06:14Z</time>
      </trkpt>
      <trkpt lat="44.87651" lon="-0.65336">
        <ele>33</ele>
        <time>2017-07-30T10:06:16Z</time>
      </trkpt>
      <trkpt lat="44.8765" lon="-0.6532">
        <ele>34</ele>
        <time>2017-07-30T10:06:18Z</time>
      </trkpt>
      <trkpt lat="44.87646" lon="-0.65304">
        <ele>34</ele>
        <time>2017-07-30T10:06:20Z</time>
      </trkpt>
      <trkpt lat="44.87644" lon="-0.65288">
        <ele>34</ele>
        <time>2017-07-30T10:06:22Z</time>
      </trkpt>
      <trkpt lat="44.87641" lon="-0.65271">
        <ele>34</ele>
        <time>2017-07-30T10:06:24Z</time>
      </trkpt>
      <trkpt lat="44.87639" lon="-0.65254">
        <ele>34</ele>
        <time>2017-07-30T10:06:26Z</time>
      </trkpt>
      <trkpt lat="44.87635" lon="-0.65236">
        <ele>33</ele>
        <time>2017-07-30T10:06:28Z</time>
      </trkpt>
      <trkpt lat="44.87628" lon="-0.65221">
        <ele>32</ele>
        <time>2017-07-30T10:06:30Z</time>
      </trkpt>
      <trkpt lat="44.87623" lon="-0.65206">
        <ele>32</ele>
        <time>2017-07-30T10:06:32Z</time>
      </trkpt>
      <trkpt lat="44.87619" lon="-0.65194">
        <ele>32</ele>
        <time>2017-07-30T10:06:34Z</time>
      </trkpt>
      <trkpt lat="44.87609" lon="-0.6519">
        <ele>32</ele>
        <time>2017-07-30T10:06:36Z</time>
      </trkpt>
      <trkpt lat="44.87599" lon="-0.65188">
        <ele>32</ele>
        <time>2017-07-30T10:06:38Z</time>
      </trkpt>
      <trkpt lat="44.87589" lon="-0.65187">
        <ele>32</ele>
        <time>2017-07-30T10:06:40Z</time>
      </trkpt>
      <trkpt lat="44.87581" lon="-0.65181">
        <ele>33</ele>
        <time>2017-07-30T10:06:42Z</time>
      </trkpt>
      <trkpt lat="44.87571" lon="-0.65181">
        <ele>34</ele>
        <time>2017-07-30T10:06:44Z</time>
      </trkpt>
      <trkpt lat="44.87559" lon="-0.65174">
        <ele>34</ele>
        <time>2017-07-30T10:06:46Z</time>
      </trkpt>
      <trkpt lat="44.87548" lon="-0.6517">
        <ele>35</ele>
        <time>2017-07-30T10:06:48Z</time>
      </trkpt>
      <trkpt lat="44.87539" lon="-0.65165">
        <ele>34</ele>
        <time>2017-07-30T10:06:50Z</time>
      </trkpt>
      <trkpt lat="44.87528" lon="-0.65159">
        <ele>34</ele>
        <time>2017-07-30T10:06:52Z</time>
      </trkpt>
      <trkpt lat="44.87518" lon="-0.65155">
        <ele>35</ele>
        <time>2017-07-30T10:06:54Z</time>
      </trkpt>
      <trkpt lat="44.87508" lon="-0.65151">
        <ele>35</ele>
        <time>2017-07-30T10:06:56Z</time>
      </trkpt>
      <trkpt lat="44.87498" lon="-0.65148">
        <ele>37</ele>
        <time>2017-07-30T10:06:58Z</time>
      </trkpt>
      <trkpt lat="44.87488" lon="-0.65148">
        <ele>37</ele>
        <time>2017-07-30T10:07:00Z</time>
      </trkpt>
      <trkpt lat="44.87477" lon="-0.65146">
        <ele>37</ele>
        <time>2017-07-30T10:07:02Z</time>
      </trkpt>
      <trkpt lat="44.87467" lon="-0.65144">
        <ele>38</ele>
        <time>2017-07-30T10:07:04Z</time>
      </trkpt>
      <trkpt lat="44.87458" lon="-0.6514">
        <ele>38</ele>
        <time>2017-07-30T10:07:06Z</time>
      </trkpt>
      <trkpt lat="44.87448" lon="-0.65137">
        <ele>38</ele>
        <time>2017-07-30T10:07:08Z</time>
      </trkpt>
      <trkpt lat="44.87441" lon="-0.65135">
        <ele>38</ele>
        <time>2017-07-30T10:07:10Z</time>
      </trkpt>
      <trkpt lat="44.87433" lon="-0.65133">
        <ele>38</ele>
        <time>2017-07-30T10:07:12Z</time>
      </trkpt>
      <trkpt lat="44.87424" lon="-0.65133">
        <ele>39</ele>
        <time>2017-07-30T10:07:14Z</time>
      </trkpt>
      <trkpt lat="44.87415" lon="-0.65131">
        <ele>40</ele>
        <time>2017-07-30T10:07:16Z</time>
      </trkpt>
      <trkpt lat="44.87408" lon="-0.65127">
        <ele>40</ele>
        <time>2017-07-30T10:07:18Z</time>
      </trkpt>
      <trkpt lat="44.87402" lon="-0.65123">
        <ele>40</ele>
        <time>2017-07-30T10:07:20Z</time>
      </trkpt>
      <trkpt lat="44.87393" lon="-0.65123">
        <ele>40</ele>
        <time>2017-07-30T10:07:22Z</time>
      </trkpt>
      <trkpt lat="44.87387" lon="-0.6512">
        <ele>40</ele>
        <time>2017-07-30T10:07:24Z</time>
      </trkpt>
      <trkpt lat="44.8738" lon="-0.65116">
        <ele>40</ele>
        <time>2017-07-30T10:07:26Z</time>
      </trkpt>
      <trkpt lat="44.87372" lon="-0.65113">
        <ele>40</ele>
        <time>2017-07-30T10:07:28Z</time>
      </trkpt>
      <trkpt lat="44.87363" lon="-0.65109">
        <ele>40</ele>
        <time>2017-07-30T10:07:30Z</time>
      </trkpt>
      <trkpt lat="44.87355" lon="-0.65106">
        <ele>40</ele>
        <time>2017-07-30T10:07:32Z</time>
      </trkpt>
      <trkpt lat="44.87347" lon="-0.65103">
        <ele>41</ele>
        <time>2017-07-30T10:07:34Z</time>
      </trkpt>
      <trkpt lat="44.87339" lon="-0.65098">
        <ele>41</ele>
        <time>2017-07-30T10:07:36Z</time>
      </trkpt>
      <trkpt lat="44.87329" lon="-0.65094">
        <ele>41</ele>
        <time>2017-07-30T10:07:38Z</time>
      </trkpt>
      <trkpt lat="44.8732" lon="-0.65093">
        <ele>40</ele>
        <time>2017-07-30T10:07:40Z</time>
      </trkpt>
      <trkpt lat="44.87311" lon="-0.65091">
        <ele>40</ele>
        <time>2017-07-30T10:07:42Z</time>
      </trkpt>
      <trkpt lat="44.873" lon="-0.65086">
        <ele>39</ele>
        <time>2017-07-30T10:07:44Z</time>
      </trkpt>
      <trkpt lat="44.87291" lon="-0.65081">
        <ele>41</ele>
        <time>2017-07-30T10:07:46Z</time>
      </trkpt>
      <trkpt lat="44.87281" lon="-0.6508">
        <ele>40</ele>
        <time>2017-07-30T10:07:48Z</time>
      </trkpt>
      <trkpt lat="44.87269" lon="-0.65078">
        <ele>40</ele>
        <time>2017-07-30T10:07:50Z</time>
      </trkpt>
      <trkpt lat="44.87259" lon="-0.65072">
        <ele>40</ele>
        <time>2017-07-30T10:07:52Z</time>
      </trkpt>
      <trkpt lat="44.87248" lon="-0.65066">
        <ele>38</ele>
        <time>2017-07-30T10:07:54Z</time>
      </trkpt>
      <trkpt lat="44.87236" lon="-0.6506">
        <ele>38</ele>
        <time>2017-07-30T10:07:56Z</time>
      </trkpt>
      <trkpt lat="44.87224" lon="-0.65055">
        <ele>38</ele>
        <time>2017-07-30T10:07:58Z</time>
      </trkpt>
      <trkpt lat="44.87214" lon="-0.6505">
        <ele>37</ele>
        <time>2017-07-30T10:08:00Z</time>
      </trkpt>
      <trkpt lat="44.87202" lon="-0.65047">
        <ele>37</ele>
        <time>2017-07-30T10:08:02Z</time>
      </trkpt>
      <trkpt lat="44.87192" lon="-0.65045">
        <ele>37</ele>
        <time>2017-07-30T10:08:04Z</time>
      </trkpt>
      <trkpt lat="44.87178" lon="-0.65044">
        <ele>37</ele>
        <time>2017-07-30T10:08:06Z</time>
      </trkpt>
      <trkpt lat="44.87164" lon="-0.65042">
        <ele>34</ele>
        <time>2017-07-30T10:08:08Z</time>
      </trkpt>
      <trkpt lat="44.87152" lon="-0.65033">
        <ele>34</ele>
        <time>2017-07-30T10:08:10Z</time>
      </trkpt>
      <trkpt lat="44.87139" lon="-0.65029">
        <ele>34</ele>
        <time>2017-07-30T10:08:12Z</time>
      </trkpt>
      <trkpt lat="44.87125" lon="-0.65025">
        <ele>33</ele>
        <time>2017-07-30T10:08:14Z</time>
      </trkpt>
      <trkpt lat="44.87111" lon="-0.65023">
        <ele>33</ele>
        <time>2017-07-30T10:08:16Z</time>
      </trkpt>
      <trkpt lat="44.87097" lon="-0.65022">
        <ele>32</ele>
        <time>2017-07-30T10:08:18Z</time>
      </trkpt>
      <trkpt lat="44.87084" lon="-0.65024">
        <ele>32</ele>
        <time>2017-07-30T10:08:20Z</time>
      </trkpt>
      <trkpt lat="44.87075" lon="-0.65021">
        <ele>30</ele>
        <time>2017-07-30T10:08:22Z</time>
      </trkpt>
      <trkpt lat="44.87073" lon="-0.65009">
        <ele>31</ele>
        <time>2017-07-30T10:08:24Z</time>
      </trkpt>
      <trkpt lat="44.87072" lon="-0.64997">
        <ele>31</ele>
        <time>2017-07-30T10:08:26Z</time>
      </trkpt>
      <trkpt lat="44.87077" lon="-0.64984">
        <ele>31</ele>
        <time>2017-07-30T10:08:28Z</time>
      </trkpt>
      <trkpt lat="44.87084" lon="-0.64972">
        <ele>32</ele>
        <time>2017-07-30T10:08:30Z</time>
      </trkpt>
      <trkpt lat="44.87087" lon="-0.64957">
        <ele>32</ele>
        <time>2017-07-30T10:08:32Z</time>
      </trkpt>
      <trkpt lat="44.8709" lon="-0.64938">
        <ele>32</ele>
        <time>2017-07-30T10:08:34Z</time>
      </trkpt>
      <trkpt lat="44.87093" lon="-0.6492">
        <ele>32</ele>
        <time>2017-07-30T10:08:36Z</time>
      </trkpt>
      <trkpt lat="44.87095" lon="-0.64901">
        <ele>31</ele>
        <time>2017-07-30T10:08:38Z</time>
      </trkpt>
      <trkpt lat="44.87099" lon="-0.64883">
        <ele>31</ele>
        <time>2017-07-30T10:08:40Z</time>
      </trkpt>
      <trkpt lat="44.87103" lon="-0.64866">
        <ele>31</ele>
        <time>2017-07-30T10:08:42Z</time>
      </trkpt>
      <trkpt lat="44.87109" lon="-0.64847">
        <ele>31</ele>
        <time>2017-07-30T10:08:44Z</time>
      </trkpt>
      <trkpt lat="44.87115" lon="-0.64831">
        <ele>30</ele>
        <time>2017-07-30T10:08:46Z</time>
      </trkpt>
      <trkpt lat="44.87123" lon="-0.64816">
        <ele>30</ele>
        <time>2017-07-30T10:08:48Z</time>
      </trkpt>
      <trkpt lat="44.87132" lon="-0.64803">
        <ele>30</ele>
        <time>2017-07-30T10:08:50Z</time>
      </trkpt>
      <trkpt lat="44.87141" lon="-0.6479">
        <ele>30</ele>
        <time>2017-07-30T10:08:52Z</time>
      </trkpt>
      <trkpt lat="44.87149" lon="-0.64777">
        <ele>30</ele>
        <time>2017-07-30T10:08:54Z</time>
      </trkpt>
      <trkpt lat="44.87159" lon="-0.64764">
        <ele>29</ele>
        <time>2017-07-30T10:08:56Z</time>
      </trkpt>
      <trkpt lat="44.87168" lon="-0.64752">
        <ele>29</ele>
        <time>2017-07-30T10:08:58Z</time>
      </trkpt>
      <trkpt lat="44.87176" lon="-0.64742">
        <ele>29</ele>
        <time>2017-07-30T10:09:00Z</time>
      </trkpt>
      <trkpt lat="44.87184" lon="-0.64731">
        <ele>28</ele>
        <time>2017-07-30T10:09:02Z</time>
      </trkpt>
      <trkpt lat="44.87193" lon="-0.64718">
        <ele>28</ele>
        <time>2017-07-30T10:09:04Z</time>
      </trkpt>
      <trkpt lat="44.87201" lon="-0.64704">
        <ele>28</ele>
        <time>2017-07-30T10:09:06Z</time>
      </trkpt>
      <trkpt lat="44.87209" lon="-0.64689">
        <ele>28</ele>
        <time>2017-07-30T10:09:08Z</time>
      </trkpt>
      <trkpt lat="44.87216" lon="-0.64674">
        <ele>28</ele>
        <time>2017-07-30T10:09:10Z</time>
      </trkpt>
      <trkpt lat="44.87217" lon="-0.64657">
        <ele>27</ele>
        <time>2017-07-30T10:09:12Z</time>
      </trkpt>
      <trkpt lat="44.87219" lon="-0.64639">
        <ele>27</ele>
        <time>2017-07-30T10:09:14Z</time>
      </trkpt>
      <trkpt lat="44.87222" lon="-0.64621">
        <ele>27</ele>
        <time>2017-07-30T10:09:16Z</time>
      </trkpt>
      <trkpt lat="44.87226" lon="-0.64603">
        <ele>27</ele>
        <time>2017-07-30T10:09:18Z</time>
      </trkpt>
      <trkpt lat="44.87228" lon="-0.64586">
        <ele>27</ele>
        <time>2017-07-30T10:09:20Z</time>
      </trkpt>
      <trkpt lat="44.87231" lon="-0.64569">
        <ele>26</ele>
        <time>2017-07-30T10:09:22Z</time>
      </trkpt>
      <trkpt lat="44.87233" lon="-0.64552">
        <ele>26</ele>
        <time>2017-07-30T10:09:24Z</time>
      </trkpt>
      <trkpt lat="44.87236" lon="-0.64538">
        <ele>26</ele>
        <time>2017-07-30T10:09:26Z</time>
      </trkpt>
      <trkpt lat="44.87238" lon="-0.64522">
        <ele>26</ele>
        <time>2017-07-30T10:09:28Z</time>
      </trkpt>
      <trkpt lat="44.8724" lon="-0.64506">
        <ele>26</ele>
        <time>2017-07-30T10:09:30Z</time>
      </trkpt>
      <trkpt lat="44.87243" lon="-0.64491">
        <ele>26</ele>
        <time>2017-07-30T10:09:32Z</time>
      </trkpt>
      <trkpt lat="44.87247" lon="-0.64474">
        <ele>25</ele>
        <time>2017-07-30T10:09:34Z</time>
      </trkpt>
      <trkpt lat="44.87243" lon="-0.64459">
        <ele>25</ele>
        <time>2017-07-30T10:09:36Z</time>
      </trkpt>
      <trkpt lat="44.87236" lon="-0.64443">
        <ele>25</ele>
        <time>2017-07-30T10:09:38Z</time>
      </trkpt>
      <trkpt lat="44.87228" lon="-0.64425">
        <ele>25</ele>
        <time>2017-07-30T10:09:40Z</time>
      </trkpt>
      <trkpt lat="44.8722" lon="-0.6441">
        <ele>25</ele>
        <time>2017-07-30T10:09:42Z</time>
      </trkpt>
      <trkpt lat="44.87215" lon="-0.64395">
        <ele>24</ele>
        <time>2017-07-30T10:09:44Z</time>
      </trkpt>
      <trkpt lat="44.8721" lon="-0.64378">
        <ele>25</ele>
        <time>2017-07-30T10:09:46Z</time>
      </trkpt>
      <trkpt lat="44.87202" lon="-0.64369">
        <ele>24</ele>
        <time>2017-07-30T10:09:48Z</time>
      </trkpt>
      <trkpt lat="44.87195" lon="-0.64355">
        <ele>24</ele>
        <time>2017-07-30T10:09:50Z</time>
      </trkpt>
      <trkpt lat="44.87188" lon="-0.64341">
        <ele>24</ele>
        <time>2017-07-30T10:09:52Z</time>
      </trkpt>
      <trkpt lat="44.87181" lon="-0.64327">
        <ele>25</ele>
        <time>2017-07-30T10:09:54Z</time>
      </trkpt>
      <trkpt lat="44.87171" lon="-0.64317">
        <ele>25</ele>
        <time>2017-07-30T10:09:56Z</time>
      </trkpt>
      <trkpt lat="44.87162" lon="-0.6431">
        <ele>25</ele>
        <time>2017-07-30T10:09:58Z</time>
      </trkpt>
      <trkpt lat="44.87156" lon="-0.64298">
        <ele>25</ele>
        <time>2017-07-30T10:10:00Z</time>
      </trkpt>
      <trkpt lat="44.87151" lon="-0.64288">
        <ele>25</ele>
        <time>2017-07-30T10:10:02Z</time>
      </trkpt>
      <trkpt lat="44.87147" lon="-0.64277">
        <ele>25</ele>
        <time>2017-07-30T10:10:04Z</time>
      </trkpt>
      <trkpt lat="44.8715" lon="-0.64266">
        <ele>25</ele>
        <time>2017-07-30T10:10:06Z</time>
      </trkpt>
      <trkpt lat="44.87155" lon="-0.64254">
        <ele>25</ele>
        <time>2017-07-30T10:10:08Z</time>
      </trkpt>
      <trkpt lat="44.87161" lon="-0.64243">
        <ele>25</ele>
        <time>2017-07-30T10:10:10Z</time>
      </trkpt>
      <trkpt lat="44.87166" lon="-0.64232">
        <ele>25</ele>
        <time>2017-07-30T10:10:12Z</time>
      </trkpt>
      <trkpt lat="44.87172" lon="-0.64222">
        <ele>26</ele>
        <time>2017-07-30T10:10:14Z</time>
      </trkpt>
      <trkpt lat="44.87176" lon="-0.64213">
        <ele>27</ele>
        <time>2017-07-30T10:10:16Z</time>
      </trkpt>
      <trkpt lat="44.8718" lon="-0.64207">
        <ele>27</ele>
        <time>2017-07-30T10:10:18Z</time>
      </trkpt>
      <trkpt lat="44.87184" lon="-0.64197">
        <ele>27</ele>
        <time>2017-07-30T10:10:20Z</time>
      </trkpt>
      <trkpt lat="44.87188" lon="-0.64187">
        <ele>27</ele>
        <time>2017-07-30T10:10:22Z</time>
      </trkpt>
      <trkpt lat="44.87188" lon="-0.64181">
        <ele>27</ele>
        <time>2017-07-30T10:10:24Z</time>
      </trkpt>
      <trkpt lat="44.87184" lon="-0.64177">
        <ele>27</ele>
        <time>2017-07-30T10:10:26Z</time>
      </trkpt>
      <trkpt lat="44.87178" lon="-0.6417">
        <ele>27</ele>
        <time>2017-07-30T10:10:28Z</time>
      </trkpt>
      <trkpt lat="44.87173" lon="-0.64163">
        <ele>27</ele>
        <time>2017-07-30T10:10:30Z</time>
      </trkpt>
      <trkpt lat="44.87166" lon="-0.64155">
        <ele>26</ele>
        <time>2017-07-30T10:10:32Z</time>
      </trkpt>
      <trkpt lat="44.87159" lon="-0.64145">
        <ele>26</ele>
        <time>2017-07-30T10:10:34Z</time>
      </trkpt>
      <trkpt lat="44.87152" lon="-0.64137">
        <ele>26</ele>
        <time>2017-07-30T10:10:36Z</time>
      </trkpt>
      <trkpt lat="44.87144" lon="-0.64132">
        <ele>26</ele>
        <time>2017-07-30T10:10:38Z</time>
      </trkpt>
      <trkpt lat="44.87137" lon="-0.64137">
        <ele>26</ele>
        <time>2017-07-30T10:10:40Z</time>
      </trkpt>
      <trkpt lat="44.87132" lon="-0.64146">
        <ele>26</ele>
        <time>2017-07-30T10:10:42Z</time>
      </trkpt>
      <trkpt lat="44.87124" lon="-0.64158">
        <ele>26</ele>
        <time>2017-07-30T10:10:44Z</time>
      </trkpt>
      <trkpt lat="44.87117" lon="-0.6417">
        <ele>26</ele>
        <time>2017-07-30T10:10:46Z</time>
      </trkpt>
      <trkpt lat="44.8711" lon="-0.64186">
        <ele>26</ele>
        <time>2017-07-30T10:10:48Z</time>
      </trkpt>
      <trkpt lat="44.87101" lon="-0.64192">
        <ele>26</ele>
        <time>2017-07-30T10:10:50Z</time>
      </trkpt>
      <trkpt lat="44.87092" lon="-0.64185">
        <ele>25</ele>
        <time>2017-07-30T10:10:52Z</time>
      </trkpt>
      <trkpt lat="44.87081" lon="-0.64176">
        <ele>25</ele>
        <time>2017-07-30T10:10:54Z</time>
      </trkpt>
      <trkpt lat="44.87071" lon="-0.64165">
        <ele>25</ele>
        <time>2017-07-30T10:10:56Z</time>
      </trkpt>
      <trkpt lat="44.87062" lon="-0.64153">
        <ele>25</ele>
        <time>2017-07-30T10:10:58Z</time>
      </trkpt>
      <trkpt lat="44.87054" lon="-0.64141">
        <ele>25</ele>
        <time>2017-07-30T10:11:00Z</time>
      </trkpt>
      <trkpt lat="44.87045" lon="-0.64129">
        <ele>25</ele>
        <time>2017-07-30T10:11:02Z</time>
      </trkpt>
      <trkpt lat="44.87036" lon="-0.64118">
        <ele>25</ele>
        <time>2017-07-30T10:11:04Z</time>
      </trkpt>
      <trkpt lat="44.87028" lon="-0.64107">
        <ele>25</ele>
        <time>2017-07-30T10:11:06Z</time>
      </trkpt>
      <trkpt lat="44.8702" lon="-0.64096">
        <ele>25</ele>
        <time>2017-07-30T10:11:08Z</time>
      </trkpt>
      <trkpt lat="44.87011" lon="-0.64084">
        <ele>26</ele>
        <time>2017-07-30T10:11:10Z</time>
      </trkpt>
      <trkpt lat="44.87002" lon="-0.64072">
        <ele>25</ele>
        <time>2017-07-30T10:11:12Z</time>
      </trkpt>
      <trkpt lat="44.86994" lon="-0.64062">
        <ele>26</ele>
        <time>2017-07-30T10:11:14Z</time>
      </trkpt>
      <trkpt lat="44.86985" lon="-0.6405">
        <ele>26</ele>
        <time>2017-07-30T10:11:16Z</time>
      </trkpt>
      <trkpt lat="44.86976" lon="-0.64039">
        <ele>26</ele>
        <time>2017-07-30T10:11:18Z</time>
      </trkpt>
      <trkpt lat="44.86966" lon="-0.64028">
        <ele>26</ele>
        <time>2017-07-30T10:11:20Z</time>
      </trkpt>
      <trkpt lat="44.86958" lon="-0.64017">
        <ele>26</ele>
        <time>2017-07-30T10:11:22Z</time>
      </trkpt>
      <trkpt lat="44.8695" lon="-0.64005">
        <ele>26</ele>
        <time>2017-07-30T10:11:24Z</time>
      </trkpt>
      <trkpt lat="44.86941" lon="-0.63995">
        <ele>26</ele>
        <time>2017-07-30T10:11:26Z</time>
      </trkpt>
      <trkpt lat="44.86934" lon="-0.63985">
        <ele>26</ele>
        <time>2017-07-30T10:11:28Z</time>
      </trkpt>
      <trkpt lat="44.86926" lon="-0.63975">
        <ele>26</ele>
        <time>2017-07-30T10:11:30Z</time>
      </trkpt>
      <trkpt lat="44.86917" lon="-0.63964">
        <ele>26</ele>
        <time>2017-07-30T10:11:32Z</time>
      </trkpt>
      <trkpt lat="44.86908" lon="-0.63953">
        <ele>27</ele>
        <time>2017-07-30T10:11:34Z</time>
      </trkpt>
      <trkpt lat="44.86898" lon="-0.63942">
        <ele>28</ele>
        <time>2017-07-30T10:11:36Z</time>
      </trkpt>
      <trkpt lat="44.86889" lon="-0.6393">
        <ele>28</ele>
        <time>2017-07-30T10:11:38Z</time>
      </trkpt>
      <trkpt lat="44.8688" lon="-0.6392">
        <ele>28</ele>
        <time>2017-07-30T10:11:40Z</time>
      </trkpt>
      <trkpt lat="44.86872" lon="-0.63909">
        <ele>28</ele>
        <time>2017-07-30T10:11:42Z</time>
      </trkpt>
      <trkpt lat="44.86864" lon="-0.63898">
        <ele>28</ele>
        <time>2017-07-30T10:11:44Z</time>
      </trkpt>
      <trkpt lat="44.86856" lon="-0.63887">
        <ele>28</ele>
        <time>2017-07-30T10:11:46Z</time>
      </trkpt>
      <trkpt lat="44.86848" lon="-0.63876">
        <ele>28</ele>
        <time>2017-07-30T10:11:48Z</time>
      </trkpt>
      <trkpt lat="44.86841" lon="-0.63866">
        <ele>28</ele>
        <time>2017-07-30T10:11:50Z</time>
      </trkpt>
      <trkpt lat="44.86834" lon="-0.63857">
        <ele>28</ele>
        <time>2017-07-30T10:11:52Z</time>
      </trkpt>
      <trkpt lat="44.86826" lon="-0.63846">
        <ele>29</ele>
        <time>2017-07-30T10:11:54Z</time>
      </trkpt>
      <trkpt lat="44.86819" lon="-0.63836">
        <ele>29</ele>
        <time>2017-07-30T10:11:56Z</time>
      </trkpt>
      <trkpt lat="44.86812" lon="-0.63827">
        <ele>29</ele>
        <time>2017-07-30T10:11:58Z</time>
      </trkpt>
      <trkpt lat="44.86804" lon="-0.63817">
        <ele>29</ele>
        <time>2017-07-30T10:12:00Z</time>
      </trkpt>
      <trkpt lat="44.86796" lon="-0.63807">
        <ele>30</ele>
        <time>2017-07-30T10:12:02Z</time>
      </trkpt>
      <trkpt lat="44.86789" lon="-0.63796">
        <ele>30</ele>
        <time>2017-07-30T10:12:04Z</time>
      </trkpt>
      <trkpt lat="44.8678" lon="-0.63784">
        <ele>30</ele>
        <time>2017-07-30T10:12:06Z</time>
      </trkpt>
      <trkpt lat="44.86773" lon="-0.63775">
        <ele>30</ele>
        <time>2017-07-30T10:12:08Z</time>
      </trkpt>
      <trkpt lat="44.86766" lon="-0.63766">
        <ele>30</ele>
        <time>2017-07-30T10:12:10Z</time>
      </trkpt>
      <trkpt lat="44.86759" lon="-0.63757">
        <ele>30</ele>
        <time>2017-07-30T10:12:12Z</time>
      </trkpt>
      <trkpt lat="44.86753" lon="-0.63749">
        <ele>30</ele>
        <time>2017-07-30T10:12:14Z</time>
      </trkpt>
      <trkpt lat="44.86748" lon="-0.63742">
        <ele>30</ele>
        <time>2017-07-30T10:12:16Z</time>
      </trkpt>
      <trkpt lat="44.86744" lon="-0.63737">
        <ele>30</ele>
        <time>2017-07-30T10:12:18Z</time>
      </trkpt>
      <trkpt lat="44.86739" lon="-0.63729">
        <ele>31</ele>
        <time>2017-07-30T10:12:28Z</time>
      </trkpt>
      <trkpt lat="44.86738" lon="-0.63719">
        <ele>31</ele>
        <time>2017-07-30T10:12:32Z</time>
      </trkpt>
      <trkpt lat="44.86741" lon="-0.6371">
        <ele>31</ele>
        <time>2017-07-30T10:12:34Z</time>
      </trkpt>
      <trkpt lat="44.86747" lon="-0.63703">
        <ele>30</ele>
        <time>2017-07-30T10:12:36Z</time>
      </trkpt>
      <trkpt lat="44.86755" lon="-0.63697">
        <ele>29</ele>
        <time>2017-07-30T10:12:38Z</time>
      </trkpt>
      <trkpt lat="44.86764" lon="-0.63691">
        <ele>29</ele>
        <time>2017-07-30T10:12:40Z</time>
      </trkpt>
      <trkpt lat="44.86775" lon="-0.63684">
        <ele>29</ele>
        <time>2017-07-30T10:12:42Z</time>
      </trkpt>
      <trkpt lat="44.86785" lon="-0.63677">
        <ele>29</ele>
        <time>2017-07-30T10:12:44Z</time>
      </trkpt>
      <trkpt lat="44.86797" lon="-0.63669">
        <ele>29</ele>
        <time>2017-07-30T10:12:46Z</time>
      </trkpt>
      <trkpt lat="44.86808" lon="-0.63661">
        <ele>28</ele>
        <time>2017-07-30T10:12:48Z</time>
      </trkpt>
      <trkpt lat="44.8682" lon="-0.63653">
        <ele>28</ele>
        <time>2017-07-30T10:12:50Z</time>
      </trkpt>
      <trkpt lat="44.8683" lon="-0.63645">
        <ele>28</ele>
        <time>2017-07-30T10:12:52Z</time>
      </trkpt>
      <trkpt lat="44.86839" lon="-0.63635">
        <ele>27</ele>
        <time>2017-07-30T10:12:54Z</time>
      </trkpt>
      <trkpt lat="44.86848" lon="-0.63623">
        <ele>27</ele>
        <time>2017-07-30T10:12:56Z</time>
      </trkpt>
      <trkpt lat="44.8686" lon="-0.63615">
        <ele>27</ele>
        <time>2017-07-30T10:12:58Z</time>
      </trkpt>
      <trkpt lat="44.8687" lon="-0.63609">
        <ele>27</ele>
        <time>2017-07-30T10:13:00Z</time>
      </trkpt>
      <trkpt lat="44.86881" lon="-0.636">
        <ele>27</ele>
        <time>2017-07-30T10:13:02Z</time>
      </trkpt>
      <trkpt lat="44.8689" lon="-0.63591">
        <ele>27</ele>
        <time>2017-07-30T10:13:04Z</time>
      </trkpt>
      <trkpt lat="44.869" lon="-0.63584">
        <ele>26</ele>
        <time>2017-07-30T10:13:06Z</time>
      </trkpt>
      <trkpt lat="44.8691" lon="-0.6358">
        <ele>26</ele>
        <time>2017-07-30T10:13:08Z</time>
      </trkpt>
      <trkpt lat="44.86921" lon="-0.63576">
        <ele>25</ele>
        <time>2017-07-30T10:13:10Z</time>
      </trkpt>
      <trkpt lat="44.86931" lon="-0.63569">
        <ele>25</ele>
        <time>2017-07-30T10:13:12Z</time>
      </trkpt>
      <trkpt lat="44.8694" lon="-0.63562">
        <ele>25</ele>
        <time>2017-07-30T10:13:14Z</time>
      </trkpt>
      <trkpt lat="44.86951" lon="-0.63553">
        <ele>24</ele>
        <time>2017-07-30T10:13:16Z</time>
      </trkpt>
      <trkpt lat="44.86962" lon="-0.63545">
        <ele>24</ele>
        <time>2017-07-30T10:13:18Z</time>
      </trkpt>
      <trkpt lat="44.86974" lon="-0.63536">
        <ele>24</ele>
        <time>2017-07-30T10:13:20Z</time>
      </trkpt>
      <trkpt lat="44.86986" lon="-0.63527">
        <ele>24</ele>
        <time>2017-07-30T10:13:22Z</time>
      </trkpt>
      <trkpt lat="44.86998" lon="-0.63517">
        <ele>24</ele>
        <time>2017-07-30T10:13:24Z</time>
      </trkpt>
      <trkpt lat="44.8701" lon="-0.63508">
        <ele>24</ele>
        <time>2017-07-30T10:13:26Z</time>
      </trkpt>
      <trkpt lat="44.87023" lon="-0.635">
        <ele>24</ele>
        <time>2017-07-30T10:13:28Z</time>
      </trkpt>
      <trkpt lat="44.87034" lon="-0.63491">
        <ele>24</ele>
        <time>2017-07-30T10:13:30Z</time>
      </trkpt>
      <trkpt lat="44.87046" lon="-0.63482">
        <ele>24</ele>
        <time>2017-07-30T10:13:32Z</time>
      </trkpt>
      <trkpt lat="44.87057" lon="-0.63475">
        <ele>24</ele>
        <time>2017-07-30T10:13:34Z</time>
      </trkpt>
      <trkpt lat="44.87069" lon="-0.63467">
        <ele>24</ele>
        <time>2017-07-30T10:13:36Z</time>
      </trkpt>
      <trkpt lat="44.8708" lon="-0.63458">
        <ele>24</ele>
        <time>2017-07-30T10:13:38Z</time>
      </trkpt>
      <trkpt lat="44.87091" lon="-0.63451">
        <ele>23</ele>
        <time>2017-07-30T10:13:40Z</time>
      </trkpt>
      <trkpt lat="44.87102" lon="-0.63442">
        <ele>23</ele>
        <time>2017-07-30T10:13:42Z</time>
      </trkpt>
      <trkpt lat="44.87114" lon="-0.63433">
        <ele>23</ele>
        <time>2017-07-30T10:13:44Z</time>
      </trkpt>
      <trkpt lat="44.87127" lon="-0.63423">
        <ele>23</ele>
        <time>2017-07-30T10:13:46Z</time>
      </trkpt>
      <trkpt lat="44.87139" lon="-0.63413">
        <ele>23</ele>
        <time>2017-07-30T10:13:48Z</time>
      </trkpt>
      <trkpt lat="44.8715" lon="-0.63403">
        <ele>22</ele>
        <time>2017-07-30T10:13:50Z</time>
      </trkpt>
      <trkpt lat="44.87163" lon="-0.63393">
        <ele>22</ele>
        <time>2017-07-30T10:13:52Z</time>
      </trkpt>
      <trkpt lat="44.87177" lon="-0.63383">
        <ele>22</ele>
        <time>2017-07-30T10:13:54Z</time>
      </trkpt>
      <trkpt lat="44.87191" lon="-0.63372">
        <ele>22</ele>
        <time>2017-07-30T10:13:56Z</time>
      </trkpt>
      <trkpt lat="44.87203" lon="-0.63363">
        <ele>22</ele>
        <time>2017-07-30T10:13:58Z</time>
      </trkpt>
      <trkpt lat="44.87215" lon="-0.63354">
        <ele>22</ele>
        <time>2017-07-30T10:14:00Z</time>
      </trkpt>
      <trkpt lat="44.87226" lon="-0.63345">
        <ele>22</ele>
        <time>2017-07-30T10:14:02Z</time>
      </trkpt>
      <trkpt lat="44.87238" lon="-0.63337">
        <ele>21</ele>
        <time>2017-07-30T10:14:04Z</time>
      </trkpt>
      <trkpt lat="44.87249" lon="-0.63329">
        <ele>21</ele>
        <time>2017-07-30T10:14:06Z</time>
      </trkpt>
      <trkpt lat="44.87254" lon="-0.63318">
        <ele>21</ele>
        <time>2017-07-30T10:14:08Z</time>
      </trkpt>
      <trkpt lat="44.87255" lon="-0.63306">
        <ele>22</ele>
        <time>2017-07-30T10:14:10Z</time>
      </trkpt>
      <trkpt lat="44.87255" lon="-0.63293">
        <ele>22</ele>
        <time>2017-07-30T10:14:12Z</time>
      </trkpt>
      <trkpt lat="44.87251" lon="-0.63283">
        <ele>22</ele>
        <time>2017-07-30T10:14:14Z</time>
      </trkpt>
      <trkpt lat="44.87246" lon="-0.63271">
        <ele>22</ele>
        <time>2017-07-30T10:14:16Z</time>
      </trkpt>
      <trkpt lat="44.87241" lon="-0.6326">
        <ele>22</ele>
        <time>2017-07-30T10:14:18Z</time>
      </trkpt>
      <trkpt lat="44.87236" lon="-0.63248">
        <ele>22</ele>
        <time>2017-07-30T10:14:20Z</time>
      </trkpt>
      <trkpt lat="44.8723" lon="-0.63235">
        <ele>22</ele>
        <time>2017-07-30T10:14:22Z</time>
      </trkpt>
      <trkpt lat="44.87225" lon="-0.63223">
        <ele>22</ele>
        <time>2017-07-30T10:14:24Z</time>
      </trkpt>
      <trkpt lat="44.87219" lon="-0.63211">
        <ele>22</ele>
        <time>2017-07-30T10:14:26Z</time>
      </trkpt>
      <trkpt lat="44.87214" lon="-0.63198">
        <ele>22</ele>
        <time>2017-07-30T10:14:28Z</time>
      </trkpt>
      <trkpt lat="44.87208" lon="-0.63186">
        <ele>23</ele>
        <time>2017-07-30T10:14:30Z</time>
      </trkpt>
      <trkpt lat="44.87202" lon="-0.63173">
        <ele>23</ele>
        <time>2017-07-30T10:14:32Z</time>
      </trkpt>
      <trkpt lat="44.87196" lon="-0.63161">
        <ele>23</ele>
        <time>2017-07-30T10:14:34Z</time>
      </trkpt>
      <trkpt lat="44.8719" lon="-0.63148">
        <ele>23</ele>
        <time>2017-07-30T10:14:36Z</time>
      </trkpt>
      <trkpt lat="44.87185" lon="-0.63135">
        <ele>23</ele>
        <time>2017-07-30T10:14:38Z</time>
      </trkpt>
      <trkpt lat="44.87179" lon="-0.63124">
        <ele>23</ele>
        <time>2017-07-30T10:14:40Z</time>
      </trkpt>
      <trkpt lat="44.87172" lon="-0.63113">
        <ele>24</ele>
        <time>2017-07-30T10:14:42Z</time>
      </trkpt>
      <trkpt lat="44.87166" lon="-0.63101">
        <ele>24</ele>
        <time>2017-07-30T10:14:44Z</time>
      </trkpt>
      <trkpt lat="44.87159" lon="-0.6309">
        <ele>25</ele>
        <time>2017-07-30T10:14:46Z</time>
      </trkpt>
      <trkpt lat="44.87153" lon="-0.6308">
        <ele>25</ele>
        <time>2017-07-30T10:14:48Z</time>
      </trkpt>
      <trkpt lat="44.87146" lon="-0.63069">
        <ele>25</ele>
        <time>2017-07-30T10:14:50Z</time>
      </trkpt>
      <trkpt lat="44.87138" lon="-0.63056">
        <ele>25</ele>
        <time>2017-07-30T10:14:52Z</time>
      </trkpt>
      <trkpt lat="44.87129" lon="-0.63043">
        <ele>25</ele>
        <time>2017-07-30T10:14:54Z</time>
      </trkpt>
      <trkpt lat="44.87121" lon="-0.6303">
        <ele>25</ele>
        <time>2017-07-30T10:14:56Z</time>
      </trkpt>
      <trkpt lat="44.87112" lon="-0.63017">
        <ele>25</ele>
        <time>2017-07-30T10:14:58Z</time>
      </trkpt>
      <trkpt lat="44.87103" lon="-0.63004">
        <ele>25</ele>
        <time>2017-07-30T10:15:00Z</time>
      </trkpt>
      <trkpt lat="44.87095" lon="-0.62991">
        <ele>25</ele>
        <time>2017-07-30T10:15:02Z</time>
      </trkpt>
      <trkpt lat="44.87087" lon="-0.62979">
        <ele>24</ele>
        <time>2017-07-30T10:15:04Z</time>
      </trkpt>
      <trkpt lat="44.87079" lon="-0.62969">
        <ele>24</ele>
        <time>2017-07-30T10:15:06Z</time>
      </trkpt>
      <trkpt lat="44.8707" lon="-0.62956">
        <ele>24</ele>
        <time>2017-07-30T10:15:08Z</time>
      </trkpt>
      <trkpt lat="44.87063" lon="-0.62946">
        <ele>24</ele>
        <time>2017-07-30T10:15:10Z</time>
      </trkpt>
      <trkpt lat="44.87056" lon="-0.62938">
        <ele>24</ele>
        <time>2017-07-30T10:15:12Z</time>
      </trkpt>
      <trkpt lat="44.87047" lon="-0.62925">
        <ele>24</ele>
        <time>2017-07-30T10:15:14Z</time>
      </trkpt>
      <trkpt lat="44.87039" lon="-0.62912">
        <ele>24</ele>
        <time>2017-07-30T10:15:16Z</time>
      </trkpt>
      <trkpt lat="44.8703" lon="-0.62899">
        <ele>24</ele>
        <time>2017-07-30T10:15:18Z</time>
      </trkpt>
      <trkpt lat="44.87022" lon="-0.62886">
        <ele>24</ele>
        <time>2017-07-30T10:15:20Z</time>
      </trkpt>
      <trkpt lat="44.87014" lon="-0.62874">
        <ele>24</ele>
        <time>2017-07-30T10:15:22Z</time>
      </trkpt>
      <trkpt lat="44.87006" lon="-0.62861">
        <ele>24</ele>
        <time>2017-07-30T10:15:24Z</time>
      </trkpt>
      <trkpt lat="44.86998" lon="-0.62849">
        <ele>26</ele>
        <time>2017-07-30T10:15:26Z</time>
      </trkpt>
      <trkpt lat="44.86991" lon="-0.62839">
        <ele>26</ele>
        <time>2017-07-30T10:15:28Z</time>
      </trkpt>
      <trkpt lat="44.86982" lon="-0.62828">
        <ele>25</ele>
        <time>2017-07-30T10:15:30Z</time>
      </trkpt>
      <trkpt lat="44.86973" lon="-0.62816">
        <ele>25</ele>
        <time>2017-07-30T10:15:32Z</time>
      </trkpt>
      <trkpt lat="44.86965" lon="-0.62805">
        <ele>25</ele>
        <time>2017-07-30T10:15:34Z</time>
      </trkpt>
      <trkpt lat="44.86958" lon="-0.62793">
        <ele>25</ele>
        <time>2017-07-30T10:15:36Z</time>
      </trkpt>
      <trkpt lat="44.86951" lon="-0.62782">
        <ele>25</ele>
        <time>2017-07-30T10:15:38Z</time>
      </trkpt>
      <trkpt lat="44.86944" lon="-0.6277">
        <ele>24</ele>
        <time>2017-07-30T10:15:40Z</time>
      </trkpt>
      <trkpt lat="44.86936" lon="-0.62757">
        <ele>24</ele>
        <time>2017-07-30T10:15:42Z</time>
      </trkpt>
      <trkpt lat="44.86928" lon="-0.62745">
        <ele>23</ele>
        <time>2017-07-30T10:15:44Z</time>
      </trkpt>
      <trkpt lat="44.8692" lon="-0.62732">
        <ele>23</ele>
        <time>2017-07-30T10:15:46Z</time>
      </trkpt>
      <trkpt lat="44.86911" lon="-0.6272">
        <ele>23</ele>
        <time>2017-07-30T10:15:48Z</time>
      </trkpt>
      <trkpt lat="44.86903" lon="-0.62708">
        <ele>24</ele>
        <time>2017-07-30T10:15:50Z</time>
      </trkpt>
      <trkpt lat="44.86894" lon="-0.62695">
        <ele>24</ele>
        <time>2017-07-30T10:15:52Z</time>
      </trkpt>
      <trkpt lat="44.86887" lon="-0.62683">
        <ele>24</ele>
        <time>2017-07-30T10:15:54Z</time>
      </trkpt>
      <trkpt lat="44.86879" lon="-0.62671">
        <ele>24</ele>
        <time>2017-07-30T10:15:56Z</time>
      </trkpt>
      <trkpt lat="44.86871" lon="-0.62659">
        <ele>24</ele>
        <time>2017-07-30T10:15:58Z</time>
      </trkpt>
      <trkpt lat="44.86863" lon="-0.62648">
        <ele>24</ele>
        <time>2017-07-30T10:16:00Z</time>
      </trkpt>
      <trkpt lat="44.86855" lon="-0.62637">
        <ele>24</ele>
        <time>2017-07-30T10:16:02Z</time>
      </trkpt>
      <trkpt lat="44.86847" lon="-0.62627">
        <ele>24</ele>
        <time>2017-07-30T10:16:04Z</time>
      </trkpt>
      <trkpt lat="44.8684" lon="-0.62616">
        <ele>24</ele>
        <time>2017-07-30T10:16:06Z</time>
      </trkpt>
      <trkpt lat="44.86832" lon="-0.62604">
        <ele>25</ele>
        <time>2017-07-30T10:16:08Z</time>
      </trkpt>
      <trkpt lat="44.86823" lon="-0.62592">
        <ele>25</ele>
        <time>2017-07-30T10:16:10Z</time>
      </trkpt>
      <trkpt lat="44.86816" lon="-0.62579">
        <ele>25</ele>
        <time>2017-07-30T10:16:12Z</time>
      </trkpt>
      <trkpt lat="44.86808" lon="-0.62567">
        <ele>25</ele>
        <time>2017-07-30T10:16:14Z</time>
      </trkpt>
      <trkpt lat="44.86801" lon="-0.62557">
        <ele>25</ele>
        <time>2017-07-30T10:16:16Z</time>
      </trkpt>
      <trkpt lat="44.86794" lon="-0.62546">
        <ele>25</ele>
        <time>2017-07-30T10:16:18Z</time>
      </trkpt>
      <trkpt lat="44.86786" lon="-0.62536">
        <ele>25</ele>
        <time>2017-07-30T10:16:20Z</time>
      </trkpt>
      <trkpt lat="44.86778" lon="-0.62523">
        <ele>25</ele>
        <time>2017-07-30T10:16:22Z</time>
      </trkpt>
      <trkpt lat="44.8677" lon="-0.62511">
        <ele>25</ele>
        <time>2017-07-30T10:16:24Z</time>
      </trkpt>
      <trkpt lat="44.86762" lon="-0.62499">
        <ele>24</ele>
        <time>2017-07-30T10:16:26Z</time>
      </trkpt>
      <trkpt lat="44.86755" lon="-0.62488">
        <ele>24</ele>
        <time>2017-07-30T10:16:28Z</time>
      </trkpt>
      <trkpt lat="44.86747" lon="-0.62478">
        <ele>25</ele>
        <time>2017-07-30T10:16:30Z</time>
      </trkpt>
      <trkpt lat="44.86738" lon="-0.62466">
        <ele>25</ele>
        <time>2017-07-30T10:16:32Z</time>
      </trkpt>
      <trkpt lat="44.8673" lon="-0.62455">
        <ele>25</ele>
        <time>2017-07-30T10:16:34Z</time>
      </trkpt>
      <trkpt lat="44.86721" lon="-0.62443">
        <ele>25</ele>
        <time>2017-07-30T10:16:36Z</time>
      </trkpt>
      <trkpt lat="44.86713" lon="-0.62432">
        <ele>25</ele>
        <time>2017-07-30T10:16:38Z</time>
      </trkpt>
      <trkpt lat="44.86706" lon="-0.6242">
        <ele>25</ele>
        <time>2017-07-30T10:16:40Z</time>
      </trkpt>
      <trkpt lat="44.867" lon="-0.6241">
        <ele>25</ele>
        <time>2017-07-30T10:16:42Z</time>
      </trkpt>
      <trkpt lat="44.86694" lon="-0.624">
        <ele>25</ele>
        <time>2017-07-30T10:16:44Z</time>
      </trkpt>
      <trkpt lat="44.86687" lon="-0.6239">
        <ele>25</ele>
        <time>2017-07-30T10:16:46Z</time>
      </trkpt>
      <trkpt lat="44.8668" lon="-0.6238">
        <ele>25</ele>
        <time>2017-07-30T10:16:48Z</time>
      </trkpt>
      <trkpt lat="44.86674" lon="-0.62371">
        <ele>25</ele>
        <time>2017-07-30T10:16:50Z</time>
      </trkpt>
      <trkpt lat="44.86671" lon="-0.62362">
        <ele>25</ele>
        <time>2017-07-30T10:16:52Z</time>
      </trkpt>
      <trkpt lat="44.86667" lon="-0.62352">
        <ele>25</ele>
        <time>2017-07-30T10:16:54Z</time>
      </trkpt>
      <trkpt lat="44.8666" lon="-0.62346">
        <ele>25</ele>
        <time>2017-07-30T10:16:56Z</time>
      </trkpt>
      <trkpt lat="44.86652" lon="-0.62337">
        <ele>25</ele>
        <time>2017-07-30T10:16:58Z</time>
      </trkpt>
      <trkpt lat="44.86643" lon="-0.62326">
        <ele>25</ele>
        <time>2017-07-30T10:17:00Z</time>
      </trkpt>
      <trkpt lat="44.86634" lon="-0.62313">
        <ele>25</ele>
        <time>2017-07-30T10:17:02Z</time>
      </trkpt>
      <trkpt lat="44.86624" lon="-0.623">
        <ele>24</ele>
        <time>2017-07-30T10:17:04Z</time>
      </trkpt>
      <trkpt lat="44.86614" lon="-0.62288">
        <ele>24</ele>
        <time>2017-07-30T10:17:06Z</time>
      </trkpt>
      <trkpt lat="44.86604" lon="-0.62275">
        <ele>24</ele>
        <time>2017-07-30T10:17:08Z</time>
      </trkpt>
      <trkpt lat="44.86594" lon="-0.62263">
        <ele>24</ele>
        <time>2017-07-30T10:17:10Z</time>
      </trkpt>
      <trkpt lat="44.86585" lon="-0.62251">
        <ele>23</ele>
        <time>2017-07-30T10:17:12Z</time>
      </trkpt>
      <trkpt lat="44.86575" lon="-0.62239">
        <ele>23</ele>
        <time>2017-07-30T10:17:14Z</time>
      </trkpt>
      <trkpt lat="44.86564" lon="-0.62226">
        <ele>23</ele>
        <time>2017-07-30T10:17:16Z</time>
      </trkpt>
      <trkpt lat="44.86553" lon="-0.62213">
        <ele>23</ele>
        <time>2017-07-30T10:17:18Z</time>
      </trkpt>
      <trkpt lat="44.86543" lon="-0.622">
        <ele>23</ele>
        <time>2017-07-30T10:17:20Z</time>
      </trkpt>
      <trkpt lat="44.86532" lon="-0.62186">
        <ele>23</ele>
        <time>2017-07-30T10:17:22Z</time>
      </trkpt>
      <trkpt lat="44.86521" lon="-0.62173">
        <ele>22</ele>
        <time>2017-07-30T10:17:24Z</time>
      </trkpt>
      <trkpt lat="44.86511" lon="-0.62161">
        <ele>22</ele>
        <time>2017-07-30T10:17:26Z</time>
      </trkpt>
      <trkpt lat="44.86502" lon="-0.62148">
        <ele>22</ele>
        <time>2017-07-30T10:17:28Z</time>
      </trkpt>
      <trkpt lat="44.86493" lon="-0.62139">
        <ele>22</ele>
        <time>2017-07-30T10:17:30Z</time>
      </trkpt>
      <trkpt lat="44.86486" lon="-0.62128">
        <ele>23</ele>
        <time>2017-07-30T10:17:32Z</time>
      </trkpt>
      <trkpt lat="44.86477" lon="-0.62116">
        <ele>23</ele>
        <time>2017-07-30T10:17:34Z</time>
      </trkpt>
      <trkpt lat="44.86467" lon="-0.62104">
        <ele>23</ele>
        <time>2017-07-30T10:17:36Z</time>
      </trkpt>
      <trkpt lat="44.86459" lon="-0.62094">
        <ele>23</ele>
        <time>2017-07-30T10:17:38Z</time>
      </trkpt>
      <trkpt lat="44.8645" lon="-0.62082">
        <ele>23</ele>
        <time>2017-07-30T10:17:40Z</time>
      </trkpt>
      <trkpt lat="44.86441" lon="-0.6207">
        <ele>23</ele>
        <time>2017-07-30T10:17:42Z</time>
      </trkpt>
      <trkpt lat="44.86432" lon="-0.62058">
        <ele>23</ele>
        <time>2017-07-30T10:17:44Z</time>
      </trkpt>
      <trkpt lat="44.86426" lon="-0.62047">
        <ele>22</ele>
        <time>2017-07-30T10:17:46Z</time>
      </trkpt>
      <trkpt lat="44.86429" lon="-0.62038">
        <ele>22</ele>
        <time>2017-07-30T10:17:48Z</time>
      </trkpt>
      <trkpt lat="44.86435" lon="-0.62028">
        <ele>22</ele>
        <time>2017-07-30T10:17:50Z</time>
      </trkpt>
      <trkpt lat="44.8644" lon="-0.62018">
        <ele>22</ele>
        <time>2017-07-30T10:17:52Z</time>
      </trkpt>
      <trkpt lat="44.86447" lon="-0.62011">
        <ele>22</ele>
        <time>2017-07-30T10:17:54Z</time>
      </trkpt>
      <trkpt lat="44.86453" lon="-0.62003">
        <ele>22</ele>
        <time>2017-07-30T10:17:56Z</time>
      </trkpt>
      <trkpt lat="44.86459" lon="-0.61994">
        <ele>21</ele>
        <time>2017-07-30T10:17:58Z</time>
      </trkpt>
      <trkpt lat="44.86464" lon="-0.61988">
        <ele>21</ele>
        <time>2017-07-30T10:18:00Z</time>
      </trkpt>
      <trkpt lat="44.86469" lon="-0.61983">
        <ele>21</ele>
        <time>2017-07-30T10:18:02Z</time>
      </trkpt>
      <trkpt lat="44.86476" lon="-0.61988">
        <ele>21</ele>
        <time>2017-07-30T10:18:20Z</time>
      </trkpt>
      <trkpt lat="44.8648" lon="-0.61991">
        <ele>21</ele>
        <time>2017-07-30T10:18:26Z</time>
      </trkpt>
      <trkpt lat="44.86487" lon="-0.61993">
        <ele>21</ele>
        <time>2017-07-30T10:18:40Z</time>
      </trkpt>
    </trkseg>
  </trk>
</gpx>